<?xml version='1.0' encoding='UTF-8'?><gpx version="1.1" creator="JPX - https://github.com/jenetics/jpx" xmlns="http://www.topografix.com/GPX/1/1"><trk><trkseg><trkpt lat="43.538437697554166" lon="13.49206794954013"><ele>43.4</ele><time>2026-04-07T15:08:56Z</time></trkpt><trkpt lat="43.5385616987272" lon="13.492182947098556"><ele>43.8</ele><time>2026-04-07T15:08:57Z</time></trkpt><trkpt lat="43.538663729966636" lon="13.4922458278386"><ele>44.2</ele><time>2026-04-07T15:08:58Z</time></trkpt><trkpt lat="43.53873512818835" lon="13.49231854512052"><ele>44.6</ele><time>2026-04-07T15:08:59Z</time></trkpt><trkpt lat="43.53881127357379" lon="13.492391998170458"><ele>45.0</ele><time>2026-04-07T15:09:00Z</time></trkpt><trkpt lat="43.53891939039194" lon="13.492478548594406"><ele>45.0</ele><time>2026-04-07T15:09:02Z</time></trkpt><trkpt lat="43.53899311367867" lon="13.492538798738813"><ele>45.0</ele><time>2026-04-07T15:09:03Z</time></trkpt><trkpt lat="43.539096819612745" lon="13.492604099057985"><ele>45.0</ele><time>2026-04-07T15:09:04Z</time></trkpt><trkpt lat="43.539178875637354" lon="13.492664775051484"><ele>45.0</ele><time>2026-04-07T15:09:05Z</time></trkpt><trkpt lat="43.53925778728543" lon="13.49272132343739"><ele>45.0</ele><time>2026-04-07T15:09:06Z</time></trkpt><trkpt lat="43.539342880852914" lon="13.492695407933523"><ele>45.0</ele><time>2026-04-07T15:09:08Z</time></trkpt><trkpt lat="43.53940668096416" lon="13.492639132513888"><ele>45.0</ele><time>2026-04-07T15:09:09Z</time></trkpt><trkpt lat="43.53946573444242" lon="13.49254643944249"><ele>45.0</ele><time>2026-04-07T15:09:10Z</time></trkpt><trkpt lat="43.539524857649695" lon="13.492427807604244"><ele>45.0</ele><time>2026-04-07T15:09:11Z</time></trkpt><trkpt lat="43.53957275815919" lon="13.492286293099815"><ele>45.0</ele><time>2026-04-07T15:09:12Z</time></trkpt><trkpt lat="43.53957818909149" lon="13.492102511272435"><ele>44.75</ele><time>2026-04-07T15:09:13Z</time></trkpt><trkpt lat="43.5395701831447" lon="13.49193709714578"><ele>44.5</ele><time>2026-04-07T15:09:14Z</time></trkpt><trkpt lat="43.539560201007" lon="13.491749446289244"><ele>44.25</ele><time>2026-04-07T15:09:15Z</time></trkpt><trkpt lat="43.53955359444829" lon="13.491580422507845"><ele>44.0</ele><time>2026-04-07T15:09:16Z</time></trkpt><trkpt lat="43.53954173461567" lon="13.491414798731924"><ele>44.0</ele><time>2026-04-07T15:09:17Z</time></trkpt><trkpt lat="43.53954031567402" lon="13.49127887616991"><ele>44.0</ele><time>2026-04-07T15:09:18Z</time></trkpt><trkpt lat="43.539545830618025" lon="13.491155342011863"><ele>44.0</ele><time>2026-04-07T15:09:19Z</time></trkpt><trkpt lat="43.53955944371217" lon="13.49103559022766"><ele>44.0</ele><time>2026-04-07T15:09:21Z</time></trkpt><trkpt lat="43.53957812675243" lon="13.490944093873814"><ele>44.0</ele><time>2026-04-07T15:09:23Z</time></trkpt><trkpt lat="43.53957874546565" lon="13.490822305654865"><ele>44.0</ele><time>2026-04-07T15:09:25Z</time></trkpt><trkpt lat="43.53962327644092" lon="13.490658776025668"><ele>44.33333333333333</ele><time>2026-04-07T15:09:27Z</time></trkpt><trkpt lat="43.53965818804784" lon="13.49057991472495"><ele>44.666666666666664</ele><time>2026-04-07T15:09:28Z</time></trkpt><trkpt lat="43.53970578367138" lon="13.490491579804365"><ele>45.0</ele><time>2026-04-07T15:09:29Z</time></trkpt><trkpt lat="43.53976824392511" lon="13.490395047726915"><ele>45.333333333333336</ele><time>2026-04-07T15:09:30Z</time></trkpt><trkpt lat="43.53983984210298" lon="13.490297832507103"><ele>45.66666666666667</ele><time>2026-04-07T15:09:31Z</time></trkpt><trkpt lat="43.539919976354" lon="13.490203917360391"><ele>46.0</ele><time>2026-04-07T15:09:32Z</time></trkpt><trkpt lat="43.54000621770542" lon="13.490107264857512"><ele>46.0</ele><time>2026-04-07T15:09:33Z</time></trkpt><trkpt lat="43.540101088055174" lon="13.490004706464664"><ele>46.0</ele><time>2026-04-07T15:09:34Z</time></trkpt><trkpt lat="43.54019301805377" lon="13.489904175016273"><ele>46.0</ele><time>2026-04-07T15:09:35Z</time></trkpt><trkpt lat="43.540283816053055" lon="13.489795734512963"><ele>46.0</ele><time>2026-04-07T15:09:36Z</time></trkpt><trkpt lat="43.54037865378554" lon="13.489692402165554"><ele>46.199999999999996</ele><time>2026-04-07T15:09:37Z</time></trkpt><trkpt lat="43.540467717389" lon="13.489595073843704"><ele>46.4</ele><time>2026-04-07T15:09:38Z</time></trkpt><trkpt lat="43.54053907009852" lon="13.4895153038759"><ele>46.6</ele><time>2026-04-07T15:09:39Z</time></trkpt><trkpt lat="43.54060156020129" lon="13.48944409252945"><ele>46.8</ele><time>2026-04-07T15:09:40Z</time></trkpt><trkpt lat="43.540687744325616" lon="13.489356632194994"><ele>47.0</ele><time>2026-04-07T15:09:42Z</time></trkpt><trkpt lat="43.54074658378748" lon="13.489318148694968"><ele>47.0</ele><time>2026-04-07T15:09:44Z</time></trkpt><trkpt lat="43.540812424958695" lon="13.489275687539758"><ele>47.0</ele><time>2026-04-07T15:09:48Z</time></trkpt><trkpt lat="43.540903076031064" lon="13.4892228287691"><ele>47.0</ele><time>2026-04-07T15:10:08Z</time></trkpt><trkpt lat="43.54097500174695" lon="13.489144243631422"><ele>47.0</ele><time>2026-04-07T15:10:10Z</time></trkpt><trkpt lat="43.54107547718885" lon="13.489094768618894"><ele>47.0</ele><time>2026-04-07T15:10:12Z</time></trkpt><trkpt lat="43.54112151996115" lon="13.48903501882369"><ele>47.0</ele><time>2026-04-07T15:10:13Z</time></trkpt><trkpt lat="43.54119020942314" lon="13.48899469057298"><ele>47.400000000000006</ele><time>2026-04-07T15:10:14Z</time></trkpt><trkpt lat="43.54127085183455" lon="13.488949597230418"><ele>47.800000000000004</ele><time>2026-04-07T15:10:15Z</time></trkpt><trkpt lat="43.54136541799669" lon="13.488880522817352"><ele>48.2</ele><time>2026-04-07T15:10:16Z</time></trkpt><trkpt lat="43.54146314183369" lon="13.488792160490691"><ele>48.6</ele><time>2026-04-07T15:10:17Z</time></trkpt><trkpt lat="43.54155485935995" lon="13.488732469944123"><ele>49.0</ele><time>2026-04-07T15:10:18Z</time></trkpt><trkpt lat="43.54163362551556" lon="13.48867770942923"><ele>48.99999999999999</ele><time>2026-04-07T15:10:19Z</time></trkpt><trkpt lat="43.54171297866683" lon="13.488620509510879"><ele>49.0</ele><time>2026-04-07T15:10:20Z</time></trkpt><trkpt lat="43.54178363237657" lon="13.488569083774765"><ele>49.0</ele><time>2026-04-07T15:10:21Z</time></trkpt><trkpt lat="43.54185624857725" lon="13.488520921452347"><ele>49.0</ele><time>2026-04-07T15:10:22Z</time></trkpt><trkpt lat="43.54192321600862" lon="13.48847752088079"><ele>48.99999999999999</ele><time>2026-04-07T15:10:23Z</time></trkpt><trkpt lat="43.541990482823344" lon="13.488427022791171"><ele>49.0</ele><time>2026-04-07T15:10:24Z</time></trkpt><trkpt lat="43.54206964037305" lon="13.488366503160094"><ele>49.83333333333333</ele><time>2026-04-07T15:10:25Z</time></trkpt><trkpt lat="43.542133870383566" lon="13.48831938156123"><ele>50.666666666666664</ele><time>2026-04-07T15:10:26Z</time></trkpt><trkpt lat="43.54219573483151" lon="13.488278515939985"><ele>51.5</ele><time>2026-04-07T15:10:27Z</time></trkpt><trkpt lat="43.54226626209298" lon="13.488238225495625"><ele>52.33333333333333</ele><time>2026-04-07T15:10:28Z</time></trkpt><trkpt lat="43.54233979677852" lon="13.488179572601839"><ele>53.166666666666664</ele><time>2026-04-07T15:10:29Z</time></trkpt><trkpt lat="43.54241130744385" lon="13.488125699994427"><ele>54.0</ele><time>2026-04-07T15:10:30Z</time></trkpt><trkpt lat="43.542480990509745" lon="13.488077216054887"><ele>54.0</ele><time>2026-04-07T15:10:31Z</time></trkpt><trkpt lat="43.5425784988784" lon="13.488019845758435"><ele>54.00000000000001</ele><time>2026-04-07T15:10:33Z</time></trkpt><trkpt lat="43.54265116190286" lon="13.488000062480552"><ele>54.00000000000001</ele><time>2026-04-07T15:10:43Z</time></trkpt><trkpt lat="43.54274053539999" lon="13.487935759861841"><ele>54.0</ele><time>2026-04-07T15:10:45.999Z</time></trkpt><trkpt lat="43.542867652635714" lon="13.487844301292773"><ele>54.0</ele><time>2026-04-07T15:10:47.999Z</time></trkpt><trkpt lat="43.542954276170114" lon="13.487781977194052"><ele>54.400000000000006</ele><time>2026-04-07T15:10:48.999Z</time></trkpt><trkpt lat="43.54304413414283" lon="13.48771732930948"><ele>54.800000000000004</ele><time>2026-04-07T15:10:49.999Z</time></trkpt><trkpt lat="43.54313955231163" lon="13.487648677545813"><ele>55.199999999999996</ele><time>2026-04-07T15:10:50.999Z</time></trkpt><trkpt lat="43.54323922721649" lon="13.487576963258043"><ele>55.599999999999994</ele><time>2026-04-07T15:10:51.999Z</time></trkpt><trkpt lat="43.54334398272608" lon="13.487501593425947"><ele>56.0</ele><time>2026-04-07T15:10:52.999Z</time></trkpt><trkpt lat="43.543450816736474" lon="13.487424728304749"><ele>56.0</ele><time>2026-04-07T15:10:53.999Z</time></trkpt><trkpt lat="43.54353641587409" lon="13.487363141291421"><ele>55.99999999999999</ele><time>2026-04-07T15:10:54.999Z</time></trkpt><trkpt lat="43.54363780285537" lon="13.487290903749976"><ele>55.99999999999999</ele><time>2026-04-07T15:10:55.999Z</time></trkpt><trkpt lat="43.54372676842823" lon="13.487228005001509"><ele>56.0</ele><time>2026-04-07T15:10:56.999Z</time></trkpt><trkpt lat="43.54383108253521" lon="13.487154336264837"><ele>56.0</ele><time>2026-04-07T15:10:57.999Z</time></trkpt><trkpt lat="43.54393670378124" lon="13.487080119741318"><ele>55.4</ele><time>2026-04-07T15:10:59Z</time></trkpt><trkpt lat="43.54402469760179" lon="13.48701828943692"><ele>54.8</ele><time>2026-04-07T15:11:00Z</time></trkpt><trkpt lat="43.54413386910377" lon="13.486941578239708"><ele>54.199999999999996</ele><time>2026-04-07T15:11:01Z</time></trkpt><trkpt lat="43.544223531306685" lon="13.486878575602978"><ele>53.599999999999994</ele><time>2026-04-07T15:11:02Z</time></trkpt><trkpt lat="43.54432416512191" lon="13.486807863587785"><ele>53.0</ele><time>2026-04-07T15:11:03Z</time></trkpt><trkpt lat="43.5444282430939" lon="13.486732536440067"><ele>53.0</ele><time>2026-04-07T15:11:04Z</time></trkpt><trkpt lat="43.54453696199075" lon="13.486653514539979"><ele>53.0</ele><time>2026-04-07T15:11:05Z</time></trkpt><trkpt lat="43.544630543937366" lon="13.486583800030942"><ele>53.0</ele><time>2026-04-07T15:11:06Z</time></trkpt><trkpt lat="43.54473345982679" lon="13.48650600602042"><ele>53.0</ele><time>2026-04-07T15:11:07Z</time></trkpt><trkpt lat="43.544816967288526" lon="13.486442882830737"><ele>53.0</ele><time>2026-04-07T15:11:08Z</time></trkpt><trkpt lat="43.544886101620015" lon="13.486390624228227"><ele>53.4</ele><time>2026-04-07T15:11:09Z</time></trkpt><trkpt lat="43.54496375066217" lon="13.48633192942234"><ele>53.8</ele><time>2026-04-07T15:11:10Z</time></trkpt><trkpt lat="43.54502216531655" lon="13.486287773853995"><ele>54.2</ele><time>2026-04-07T15:11:11Z</time></trkpt><trkpt lat="43.54512273457283" lon="13.486211753695397"><ele>54.6</ele><time>2026-04-07T15:11:13Z</time></trkpt><trkpt lat="43.54519022604101" lon="13.486161436902846"><ele>55.0</ele><time>2026-04-07T15:11:15Z</time></trkpt><trkpt lat="43.54542062015325" lon="13.486396165988728"><ele>55.666666666666664</ele><time>2026-04-07T15:11:20Z</time></trkpt><trkpt lat="43.545522837436195" lon="13.486371793101124"><ele>56.33333333333333</ele><time>2026-04-07T15:11:27Z</time></trkpt><trkpt lat="43.54559413658299" lon="13.486347419397147"><ele>57.0</ele><time>2026-04-07T15:11:28Z</time></trkpt><trkpt lat="43.54567016802268" lon="13.486318018002418"><ele>57.66666666666667</ele><time>2026-04-07T15:11:29Z</time></trkpt><trkpt lat="43.54574919008846" lon="13.48628634389096"><ele>58.333333333333336</ele><time>2026-04-07T15:11:30Z</time></trkpt><trkpt lat="43.54582630025336" lon="13.486254644918205"><ele>59.0</ele><time>2026-04-07T15:11:31Z</time></trkpt><trkpt lat="43.54589394432322" lon="13.486242825687702"><ele>59.00000000000001</ele><time>2026-04-07T15:11:32Z</time></trkpt><trkpt lat="43.54596229575152" lon="13.486219640660302"><ele>59.0</ele><time>2026-04-07T15:11:33Z</time></trkpt><trkpt lat="43.54603805460686" lon="13.486197154661788"><ele>59.0</ele><time>2026-04-07T15:11:34Z</time></trkpt><trkpt lat="43.546104828575004" lon="13.486184022140124"><ele>59.0</ele><time>2026-04-07T15:11:35Z</time></trkpt><trkpt lat="43.546169567411994" lon="13.486161240945089"><ele>59.00000000000001</ele><time>2026-04-07T15:11:36Z</time></trkpt><trkpt lat="43.54629403343029" lon="13.486119052938674"><ele>59.0</ele><time>2026-04-07T15:11:38Z</time></trkpt><trkpt lat="43.546404977575605" lon="13.486054823094046"><ele>59.333333333333336</ele><time>2026-04-07T15:11:40Z</time></trkpt><trkpt lat="43.54647291810442" lon="13.486008217938586"><ele>59.66666666666667</ele><time>2026-04-07T15:11:41Z</time></trkpt><trkpt lat="43.546536245056394" lon="13.485961301880428"><ele>60.0</ele><time>2026-04-07T15:11:42Z</time></trkpt><trkpt lat="43.54659766994481" lon="13.485917000423237"><ele>60.33333333333333</ele><time>2026-04-07T15:11:43Z</time></trkpt><trkpt lat="43.546659669082665" lon="13.485877878038504"><ele>60.666666666666664</ele><time>2026-04-07T15:11:44Z</time></trkpt><trkpt lat="43.5467158473574" lon="13.485837190886166"><ele>61.0</ele><time>2026-04-07T15:11:45Z</time></trkpt><trkpt lat="43.54680472174567" lon="13.485770394722048"><ele>60.99999999999999</ele><time>2026-04-07T15:11:47Z</time></trkpt><trkpt lat="43.54685682645363" lon="13.485715999484722"><ele>61.0</ele><time>2026-04-07T15:11:50Z</time></trkpt><trkpt lat="43.54679299536913" lon="13.485800299865762"><ele>61.0</ele><time>2026-04-07T15:12:11Z</time></trkpt><trkpt lat="43.54666566965531" lon="13.48585699343265"><ele>61.0</ele><time>2026-04-07T15:12:13Z</time></trkpt><trkpt lat="43.54660766217411" lon="13.485906107118117"><ele>60.99999999999999</ele><time>2026-04-07T15:12:14Z</time></trkpt><trkpt lat="43.54652813062685" lon="13.485972461757997"><ele>61.0</ele><time>2026-04-07T15:12:15Z</time></trkpt><trkpt lat="43.54644545656685" lon="13.486034428089074"><ele>60.99999999999999</ele><time>2026-04-07T15:12:16Z</time></trkpt><trkpt lat="43.546348388844166" lon="13.486088094322136"><ele>61.0</ele><time>2026-04-07T15:12:17Z</time></trkpt><trkpt lat="43.54627658996708" lon="13.486126831157566"><ele>61.0</ele><time>2026-04-07T15:12:18Z</time></trkpt><trkpt lat="43.54620903970026" lon="13.486152124966962"><ele>61.0</ele><time>2026-04-07T15:12:19Z</time></trkpt><trkpt lat="43.54613770788067" lon="13.48617195002535"><ele>60.99999999999999</ele><time>2026-04-07T15:12:20Z</time></trkpt><trkpt lat="43.54605662688214" lon="13.48618765284454"><ele>61.0</ele><time>2026-04-07T15:12:21Z</time></trkpt><trkpt lat="43.545976473582705" lon="13.48621095181314"><ele>60.666666666666664</ele><time>2026-04-07T15:12:22Z</time></trkpt><trkpt lat="43.5459022292581" lon="13.486227028231486"><ele>60.33333333333333</ele><time>2026-04-07T15:12:23Z</time></trkpt><trkpt lat="43.54580020893278" lon="13.486258757117872"><ele>60.0</ele><time>2026-04-07T15:12:24Z</time></trkpt><trkpt lat="43.545721694075745" lon="13.486289464616183"><ele>59.66666666666667</ele><time>2026-04-07T15:12:25Z</time></trkpt><trkpt lat="43.54564570698894" lon="13.486322185017439"><ele>59.333333333333336</ele><time>2026-04-07T15:12:26Z</time></trkpt><trkpt lat="43.54556817573836" lon="13.486350530492691"><ele>59.0</ele><time>2026-04-07T15:12:27Z</time></trkpt><trkpt lat="43.54549794873663" lon="13.48637378034737"><ele>59.800000000000004</ele><time>2026-04-07T15:12:28Z</time></trkpt><trkpt lat="43.54540326492904" lon="13.486390839842265"><ele>60.60000000000001</ele><time>2026-04-07T15:12:30Z</time></trkpt><trkpt lat="43.545335677614496" lon="13.486360910862738"><ele>61.4</ele><time>2026-04-07T15:12:41Z</time></trkpt><trkpt lat="43.54522758302644" lon="13.486289763176883"><ele>62.2</ele><time>2026-04-07T15:12:43Z</time></trkpt><trkpt lat="43.54513698443205" lon="13.48628191216629"><ele>63.0</ele><time>2026-04-07T15:12:45Z</time></trkpt><trkpt lat="43.54496528018054" lon="13.486252405279073"><ele>63.0</ele><time>2026-04-07T15:12:47Z</time></trkpt><trkpt lat="43.5448812502699" lon="13.486315923411096"><ele>63.0</ele><time>2026-04-07T15:12:48Z</time></trkpt><trkpt lat="43.54477345761824" lon="13.486397403735785"><ele>63.0</ele><time>2026-04-07T15:12:49Z</time></trkpt><trkpt lat="43.54468382214625" lon="13.486465159088668"><ele>63.0</ele><time>2026-04-07T15:12:50Z</time></trkpt><trkpt lat="43.54457590438048" lon="13.486546733947606"><ele>63.0</ele><time>2026-04-07T15:12:51Z</time></trkpt><trkpt lat="43.54447322986443" lon="13.486622158806851"><ele>60.5</ele><time>2026-04-07T15:12:51.999Z</time></trkpt><trkpt lat="43.5443819167135" lon="13.486688529427866"><ele>58.0</ele><time>2026-04-07T15:12:52.999Z</time></trkpt><trkpt lat="43.54427751277032" lon="13.486763522626516"><ele>55.5</ele><time>2026-04-07T15:12:53.999Z</time></trkpt><trkpt lat="43.54416169892087" lon="13.486844901153352"><ele>53.0</ele><time>2026-04-07T15:12:54.999Z</time></trkpt><trkpt lat="43.5440560932604" lon="13.486919106729102"><ele>53.0</ele><time>2026-04-07T15:12:55.999Z</time></trkpt><trkpt lat="43.543960820834975" lon="13.4869860514954"><ele>53.0</ele><time>2026-04-07T15:12:56.999Z</time></trkpt><trkpt lat="43.543869084383765" lon="13.487050511658973"><ele>53.0</ele><time>2026-04-07T15:12:57.999Z</time></trkpt><trkpt lat="43.54378112494801" lon="13.487112354140914"><ele>53.0</ele><time>2026-04-07T15:12:58.999Z</time></trkpt><trkpt lat="43.54368846342367" lon="13.487177865897419"><ele>53.0</ele><time>2026-04-07T15:12:59.999Z</time></trkpt><trkpt lat="43.54359581454636" lon="13.487243368737957"><ele>53.75</ele><time>2026-04-07T15:13:00.999Z</time></trkpt><trkpt lat="43.54349406023042" lon="13.487316107569336"><ele>54.5</ele><time>2026-04-07T15:13:01.999Z</time></trkpt><trkpt lat="43.543390757226" lon="13.487390432221078"><ele>55.25</ele><time>2026-04-07T15:13:02.999Z</time></trkpt><trkpt lat="43.543280288136145" lon="13.487469912761878"><ele>56.0</ele><time>2026-04-07T15:13:03.999Z</time></trkpt><trkpt lat="43.54317938613209" lon="13.48754250994208"><ele>56.0</ele><time>2026-04-07T15:13:04.999Z</time></trkpt><trkpt lat="43.543079031400104" lon="13.487614713389888"><ele>55.99999999999999</ele><time>2026-04-07T15:13:05.999Z</time></trkpt><trkpt lat="43.54299236406746" lon="13.487677068971188"><ele>55.99999999999999</ele><time>2026-04-07T15:13:06.999Z</time></trkpt><trkpt lat="43.54290735504941" lon="13.487738231430649"><ele>56.0</ele><time>2026-04-07T15:13:07.999Z</time></trkpt><trkpt lat="43.54282908724032" lon="13.487794543740485"><ele>56.0</ele><time>2026-04-07T15:13:08.999Z</time></trkpt><trkpt lat="43.542756427519016" lon="13.487846821125846"><ele>56.0</ele><time>2026-04-07T15:13:09.999Z</time></trkpt><trkpt lat="43.54269249770451" lon="13.487892817454517"><ele>55.99999999999999</ele><time>2026-04-07T15:13:11Z</time></trkpt><trkpt lat="43.54260153382657" lon="13.487958264358134"><ele>55.99999999999999</ele><time>2026-04-07T15:13:13Z</time></trkpt><trkpt lat="43.542729822974856" lon="13.487870964655032"><ele>56.0</ele><time>2026-04-07T15:13:20Z</time></trkpt><trkpt lat="43.542806882206705" lon="13.487825382393195"><ele>56.0</ele><time>2026-04-07T15:13:21Z</time></trkpt><trkpt lat="43.54288347004433" lon="13.487778614036698"><ele>56.0</ele><time>2026-04-07T15:13:22Z</time></trkpt><trkpt lat="43.542971760687585" lon="13.48771297975638"><ele>55.99999999999999</ele><time>2026-04-07T15:13:23Z</time></trkpt><trkpt lat="43.54307187474687" lon="13.487646711660396"><ele>55.99999999999999</ele><time>2026-04-07T15:13:24Z</time></trkpt><trkpt lat="43.543165355241946" lon="13.487582973621677"><ele>56.0</ele><time>2026-04-07T15:13:25Z</time></trkpt><trkpt lat="43.54325935995829" lon="13.48752210211164"><ele>56.0</ele><time>2026-04-07T15:13:26Z</time></trkpt><trkpt lat="43.543358926695824" lon="13.487443303042587"><ele>56.00000000000001</ele><time>2026-04-07T15:13:27Z</time></trkpt><trkpt lat="43.54345263894741" lon="13.487373414802361"><ele>56.0</ele><time>2026-04-07T15:13:28Z</time></trkpt><trkpt lat="43.54353335119338" lon="13.487314861248908"><ele>56.0</ele><time>2026-04-07T15:13:29Z</time></trkpt><trkpt lat="43.54360107186648" lon="13.487267356346528"><ele>56.0</ele><time>2026-04-07T15:13:30Z</time></trkpt><trkpt lat="43.54366076848707" lon="13.487219123631887"><ele>56.00000000000001</ele><time>2026-04-07T15:13:31Z</time></trkpt><trkpt lat="43.54372016601252" lon="13.487174465053648"><ele>56.0</ele><time>2026-04-07T15:13:32Z</time></trkpt><trkpt lat="43.54381935357684" lon="13.48710618407025"><ele>55.50000000000001</ele><time>2026-04-07T15:13:34Z</time></trkpt><trkpt lat="43.54387625964917" lon="13.487064685995838"><ele>55.0</ele><time>2026-04-07T15:13:35Z</time></trkpt><trkpt lat="43.54395087161364" lon="13.487014728173493"><ele>54.5</ele><time>2026-04-07T15:13:36Z</time></trkpt><trkpt lat="43.54403725068806" lon="13.486955345986301"><ele>54.0</ele><time>2026-04-07T15:13:37Z</time></trkpt><trkpt lat="43.54412564696058" lon="13.486882091667324"><ele>53.50000000000001</ele><time>2026-04-07T15:13:38Z</time></trkpt><trkpt lat="43.544205311479416" lon="13.486823395261212"><ele>53.0</ele><time>2026-04-07T15:13:39Z</time></trkpt><trkpt lat="43.544285256814675" lon="13.486764820012716"><ele>53.0</ele><time>2026-04-07T15:13:40Z</time></trkpt><trkpt lat="43.54436004296738" lon="13.486713817544029"><ele>53.0</ele><time>2026-04-07T15:13:41Z</time></trkpt><trkpt lat="43.544427016774144" lon="13.486669758905489"><ele>53.0</ele><time>2026-04-07T15:13:42Z</time></trkpt><trkpt lat="43.544493293959185" lon="13.486621354408276"><ele>53.0</ele><time>2026-04-07T15:13:43Z</time></trkpt><trkpt lat="43.544558924227495" lon="13.486573938730368"><ele>53.0</ele><time>2026-04-07T15:13:44Z</time></trkpt><trkpt lat="43.544621498009015" lon="13.486526434452196"><ele>53.0</ele><time>2026-04-07T15:13:45Z</time></trkpt><trkpt lat="43.54468361811536" lon="13.486483519012008"><ele>53.0</ele><time>2026-04-07T15:13:46Z</time></trkpt><trkpt lat="43.544753332736555" lon="13.48643267207776"><ele>53.4</ele><time>2026-04-07T15:13:47Z</time></trkpt><trkpt lat="43.54483658115631" lon="13.486364977736953"><ele>53.8</ele><time>2026-04-07T15:13:48Z</time></trkpt><trkpt lat="43.54491825446948" lon="13.486297849629551"><ele>54.2</ele><time>2026-04-07T15:13:49Z</time></trkpt><trkpt lat="43.545011594984786" lon="13.486223420135701"><ele>54.6</ele><time>2026-04-07T15:13:50Z</time></trkpt><trkpt lat="43.54509307620476" lon="13.48615924443001"><ele>55.0</ele><time>2026-04-07T15:13:51Z</time></trkpt><trkpt lat="43.54515487224795" lon="13.486111788772874"><ele>55.0</ele><time>2026-04-07T15:13:52Z</time></trkpt><trkpt lat="43.54524977115763" lon="13.48609193935419"><ele>55.0</ele><time>2026-04-07T15:13:54Z</time></trkpt><trkpt lat="43.54535010818586" lon="13.486018526518261"><ele>55.0</ele><time>2026-04-07T15:13:56Z</time></trkpt><trkpt lat="43.54541679752804" lon="13.485969732438434"><ele>55.0</ele><time>2026-04-07T15:13:57Z</time></trkpt><trkpt lat="43.545495435494864" lon="13.48591266232461"><ele>55.0</ele><time>2026-04-07T15:13:58Z</time></trkpt><trkpt lat="43.545588883174965" lon="13.48584490526823"><ele>56.0</ele><time>2026-04-07T15:13:59Z</time></trkpt><trkpt lat="43.54568869825454" lon="13.485772531359581"><ele>57.0</ele><time>2026-04-07T15:14:00Z</time></trkpt><trkpt lat="43.54580245007734" lon="13.485690009151071"><ele>58.0</ele><time>2026-04-07T15:14:01Z</time></trkpt><trkpt lat="43.54591214146419" lon="13.485610460397126"><ele>59.0</ele><time>2026-04-07T15:14:02Z</time></trkpt><trkpt lat="43.54602263620199" lon="13.485530604963817"><ele>59.0</ele><time>2026-04-07T15:14:03Z</time></trkpt><trkpt lat="43.54613928457442" lon="13.485446302217674"><ele>59.0</ele><time>2026-04-07T15:14:04Z</time></trkpt><trkpt lat="43.54625948318562" lon="13.485357899914542"><ele>59.0</ele><time>2026-04-07T15:14:05Z</time></trkpt><trkpt lat="43.5463602000838" lon="13.485284377577013"><ele>59.0</ele><time>2026-04-07T15:14:06Z</time></trkpt><trkpt lat="43.54642224748872" lon="13.485225978367344"><ele>59.5</ele><time>2026-04-07T15:14:07Z</time></trkpt><trkpt lat="43.54653005510954" lon="13.48516041392452"><ele>60.0</ele><time>2026-04-07T15:14:09Z</time></trkpt><trkpt lat="43.546645227619756" lon="13.485383537012"><ele>60.5</ele><time>2026-04-07T15:14:25Z</time></trkpt><trkpt lat="43.546691982418416" lon="13.48550047110801"><ele>61.0</ele><time>2026-04-07T15:14:27Z</time></trkpt><trkpt lat="43.5467605457469" lon="13.48551307025884"><ele>61.0</ele><time>2026-04-07T15:14:30Z</time></trkpt><trkpt lat="43.546895882954615" lon="13.48546409416673"><ele>60.99999999999999</ele><time>2026-04-07T15:14:32Z</time></trkpt><trkpt lat="43.54698278920364" lon="13.48541750348563"><ele>60.99999999999999</ele><time>2026-04-07T15:14:33Z</time></trkpt><trkpt lat="43.54707086134472" lon="13.485369193375467"><ele>61.0</ele><time>2026-04-07T15:14:34Z</time></trkpt><trkpt lat="43.54716141102642" lon="13.485340481317094"><ele>61.0</ele><time>2026-04-07T15:14:35Z</time></trkpt><trkpt lat="43.54723992772018" lon="13.48532240721622"><ele>60.4</ele><time>2026-04-07T15:14:37Z</time></trkpt><trkpt lat="43.54731644473882" lon="13.48531613227697"><ele>59.8</ele><time>2026-04-07T15:14:40Z</time></trkpt><trkpt lat="43.54740783340234" lon="13.48530341818369"><ele>59.199999999999996</ele><time>2026-04-07T15:14:42Z</time></trkpt><trkpt lat="43.547517104778095" lon="13.485302135603831"><ele>58.599999999999994</ele><time>2026-04-07T15:14:44Z</time></trkpt><trkpt lat="43.54758805173337" lon="13.48534723370893"><ele>58.0</ele><time>2026-04-07T15:14:46Z</time></trkpt><trkpt lat="43.547644965811955" lon="13.485471985109625"><ele>57.99999999999999</ele><time>2026-04-07T15:14:48Z</time></trkpt><trkpt lat="43.54768737907658" lon="13.485616311810707"><ele>58.0</ele><time>2026-04-07T15:14:50Z</time></trkpt><trkpt lat="43.547715567836235" lon="13.48570144613283"><ele>58.0</ele><time>2026-04-07T15:14:51Z</time></trkpt><trkpt lat="43.54773953881852" lon="13.485789500000317"><ele>58.0</ele><time>2026-04-07T15:14:52Z</time></trkpt><trkpt lat="43.54776214561932" lon="13.485879534142285"><ele>57.99999999999999</ele><time>2026-04-07T15:14:53Z</time></trkpt><trkpt lat="43.547779123587915" lon="13.485969350433349"><ele>58.0</ele><time>2026-04-07T15:14:54Z</time></trkpt><trkpt lat="43.547808595550734" lon="13.48607622890074"><ele>57.99999999999999</ele><time>2026-04-07T15:14:55Z</time></trkpt><trkpt lat="43.54783666059088" lon="13.486170816338165"><ele>58.0</ele><time>2026-04-07T15:14:56Z</time></trkpt><trkpt lat="43.547882692159135" lon="13.486281334358978"><ele>58.0</ele><time>2026-04-07T15:14:57Z</time></trkpt><trkpt lat="43.5479325669199" lon="13.486380868099454"><ele>58.0</ele><time>2026-04-07T15:14:57.999Z</time></trkpt><trkpt lat="43.54798447976712" lon="13.486462128478276"><ele>57.99999999999999</ele><time>2026-04-07T15:14:58.999Z</time></trkpt><trkpt lat="43.54804100574602" lon="13.486539127670344"><ele>58.0</ele><time>2026-04-07T15:14:59.999Z</time></trkpt><trkpt lat="43.548086985954114" lon="13.486601385925214"><ele>57.666666666666664</ele><time>2026-04-07T15:15:00.999Z</time></trkpt><trkpt lat="43.54813431167576" lon="13.486669521383615"><ele>57.33333333333333</ele><time>2026-04-07T15:15:01.999Z</time></trkpt><trkpt lat="43.54821168168955" lon="13.486695874013073"><ele>57.0</ele><time>2026-04-07T15:15:03.999Z</time></trkpt><trkpt lat="43.54829494047239" lon="13.486709986441259"><ele>56.66666666666667</ele><time>2026-04-07T15:15:05.999Z</time></trkpt><trkpt lat="43.548380747448824" lon="13.486736176584094"><ele>56.333333333333336</ele><time>2026-04-07T15:15:07.999Z</time></trkpt><trkpt lat="43.54849621832636" lon="13.486759936434334"><ele>56.0</ele><time>2026-04-07T15:15:09.999Z</time></trkpt><trkpt lat="43.548602511264676" lon="13.48677344222676"><ele>56.00000000000001</ele><time>2026-04-07T15:15:11.999Z</time></trkpt><trkpt lat="43.54870235502544" lon="13.486787248552929"><ele>56.0</ele><time>2026-04-07T15:15:14Z</time></trkpt><trkpt lat="43.548797843901745" lon="13.48680932345935"><ele>56.0</ele><time>2026-04-07T15:15:16Z</time></trkpt><trkpt lat="43.54886015270735" lon="13.486826423167255"><ele>56.0</ele><time>2026-04-07T15:15:18Z</time></trkpt><trkpt lat="43.548905815116434" lon="13.486890561843147"><ele>56.00000000000001</ele><time>2026-04-07T15:15:20Z</time></trkpt><trkpt lat="43.54894877422952" lon="13.487012927342674"><ele>56.0</ele><time>2026-04-07T15:15:22Z</time></trkpt><trkpt lat="43.54898612518631" lon="13.487103528227642"><ele>56.333333333333336</ele><time>2026-04-07T15:15:24Z</time></trkpt><trkpt lat="43.54902850131165" lon="13.487210824057826"><ele>56.66666666666667</ele><time>2026-04-07T15:15:26Z</time></trkpt><trkpt lat="43.54905669737237" lon="13.487292317279218"><ele>57.0</ele><time>2026-04-07T15:15:27Z</time></trkpt><trkpt lat="43.54911787885255" lon="13.487432316710601"><ele>57.33333333333333</ele><time>2026-04-07T15:15:29Z</time></trkpt><trkpt lat="43.54915890650944" lon="13.487530010940082"><ele>57.666666666666664</ele><time>2026-04-07T15:15:31Z</time></trkpt><trkpt lat="43.549248258100974" lon="13.487571802576154"><ele>58.0</ele><time>2026-04-07T15:15:35Z</time></trkpt><trkpt lat="43.54929889824472" lon="13.487656668568972"><ele>57.99999999999999</ele><time>2026-04-07T15:15:43Z</time></trkpt><trkpt lat="43.54937900946383" lon="13.487713021132503"><ele>58.0</ele><time>2026-04-07T15:15:55Z</time></trkpt><trkpt lat="43.5494511056188" lon="13.487774960549675"><ele>58.0</ele><time>2026-04-07T15:15:58Z</time></trkpt><trkpt lat="43.549535612355285" lon="13.487762065972943"><ele>58.0</ele><time>2026-04-07T15:16:01Z</time></trkpt><trkpt lat="43.549609488159106" lon="13.487771517166886"><ele>57.99999999999999</ele><time>2026-04-07T15:16:03Z</time></trkpt><trkpt lat="43.54967747601354" lon="13.487806798936921"><ele>58.0</ele><time>2026-04-07T15:16:14Z</time></trkpt><trkpt lat="43.549729379130135" lon="13.487882896723397"><ele>58.599999999999994</ele><time>2026-04-07T15:16:16Z</time></trkpt><trkpt lat="43.54978873977204" lon="13.487983494400357"><ele>59.199999999999996</ele><time>2026-04-07T15:16:18Z</time></trkpt><trkpt lat="43.54984930840041" lon="13.488082860084543"><ele>59.8</ele><time>2026-04-07T15:16:20Z</time></trkpt><trkpt lat="43.54992994684641" lon="13.488211097827293"><ele>60.4</ele><time>2026-04-07T15:16:22Z</time></trkpt><trkpt lat="43.549976651396456" lon="13.488283313515888"><ele>61.0</ele><time>2026-04-07T15:16:23Z</time></trkpt><trkpt lat="43.55006677441802" lon="13.488414722945345"><ele>60.99999999999999</ele><time>2026-04-07T15:16:25Z</time></trkpt><trkpt lat="43.550113400084214" lon="13.488481120752416"><ele>61.0</ele><time>2026-04-07T15:16:26Z</time></trkpt><trkpt lat="43.550152551149125" lon="13.488553199512282"><ele>60.99999999999999</ele><time>2026-04-07T15:16:27Z</time></trkpt><trkpt lat="43.550195490548425" lon="13.48862403906638"><ele>60.99999999999999</ele><time>2026-04-07T15:16:28Z</time></trkpt><trkpt lat="43.550246520796996" lon="13.488705979911977"><ele>61.0</ele><time>2026-04-07T15:16:29Z</time></trkpt><trkpt lat="43.550288957048835" lon="13.488779970252615"><ele>60.99999999999999</ele><time>2026-04-07T15:16:30Z</time></trkpt><trkpt lat="43.55033958654473" lon="13.488864361735809"><ele>60.99999999999999</ele><time>2026-04-07T15:16:31Z</time></trkpt><trkpt lat="43.5503929786819" lon="13.488959131612642"><ele>62.166666666666664</ele><time>2026-04-07T15:16:32Z</time></trkpt><trkpt lat="43.55044128531195" lon="13.489043248115511"><ele>63.33333333333333</ele><time>2026-04-07T15:16:33Z</time></trkpt><trkpt lat="43.55049668669489" lon="13.489137222274785"><ele>64.5</ele><time>2026-04-07T15:16:34Z</time></trkpt><trkpt lat="43.55054137734623" lon="13.489215393024438"><ele>65.66666666666667</ele><time>2026-04-07T15:16:35Z</time></trkpt><trkpt lat="43.550599514790335" lon="13.489313905952617"><ele>66.83333333333334</ele><time>2026-04-07T15:16:36Z</time></trkpt><trkpt lat="43.55064374348479" lon="13.489393988520481"><ele>68.0</ele><time>2026-04-07T15:16:37Z</time></trkpt><trkpt lat="43.55069046246838" lon="13.489477344842905"><ele>67.99999999999999</ele><time>2026-04-07T15:16:38Z</time></trkpt><trkpt lat="43.550741699514475" lon="13.489565896364361"><ele>68.0</ele><time>2026-04-07T15:16:39Z</time></trkpt><trkpt lat="43.55079026792483" lon="13.489652182503397"><ele>68.0</ele><time>2026-04-07T15:16:40.001Z</time></trkpt><trkpt lat="43.55083618699709" lon="13.489729813422914"><ele>68.0</ele><time>2026-04-07T15:16:41.001Z</time></trkpt><trkpt lat="43.55088030274786" lon="13.489810057594388"><ele>68.0</ele><time>2026-04-07T15:16:42.001Z</time></trkpt><trkpt lat="43.55092474443269" lon="13.489891381742503"><ele>67.99999999999999</ele><time>2026-04-07T15:16:43.001Z</time></trkpt><trkpt lat="43.550967384318355" lon="13.489965776522507"><ele>68.0</ele><time>2026-04-07T15:16:44.001Z</time></trkpt><trkpt lat="43.55103549284121" lon="13.490090809472216"><ele>68.57142857142857</ele><time>2026-04-07T15:16:46.001Z</time></trkpt><trkpt lat="43.55107666964721" lon="13.49016163510381"><ele>69.14285714285714</ele><time>2026-04-07T15:16:47.001Z</time></trkpt><trkpt lat="43.55113186773959" lon="13.490241810966273"><ele>69.71428571428572</ele><time>2026-04-07T15:16:48.001Z</time></trkpt><trkpt lat="43.5511732754328" lon="13.490310096503801"><ele>70.28571428571428</ele><time>2026-04-07T15:16:49.001Z</time></trkpt><trkpt lat="43.55121954879816" lon="13.490381814747266"><ele>70.85714285714286</ele><time>2026-04-07T15:16:50.001Z</time></trkpt><trkpt lat="43.551259331563735" lon="13.49045612755016"><ele>71.42857142857143</ele><time>2026-04-07T15:16:51.001Z</time></trkpt><trkpt lat="43.55130305217278" lon="13.490532553244458"><ele>72.0</ele><time>2026-04-07T15:16:52.001Z</time></trkpt><trkpt lat="43.55134834376952" lon="13.490610522095787"><ele>73.57142857142858</ele><time>2026-04-07T15:16:53.001Z</time></trkpt><trkpt lat="43.551388449201696" lon="13.490685756726132"><ele>75.14285714285714</ele><time>2026-04-07T15:16:54.001Z</time></trkpt><trkpt lat="43.55144045610731" lon="13.490766924611565"><ele>76.71428571428572</ele><time>2026-04-07T15:16:55.001Z</time></trkpt><trkpt lat="43.55148485987716" lon="13.490847805276898"><ele>78.28571428571429</ele><time>2026-04-07T15:16:56.001Z</time></trkpt><trkpt lat="43.551529185790244" lon="13.490916541192822"><ele>79.85714285714286</ele><time>2026-04-07T15:16:57.001Z</time></trkpt><trkpt lat="43.55158407457704" lon="13.49100811937679"><ele>81.42857142857143</ele><time>2026-04-07T15:16:58.001Z</time></trkpt><trkpt lat="43.55162613478606" lon="13.491084926951629"><ele>83.0</ele><time>2026-04-07T15:16:59.001Z</time></trkpt><trkpt lat="43.551688738046145" lon="13.491180936198473"><ele>83.66666666666667</ele><time>2026-04-07T15:17:00.001Z</time></trkpt><trkpt lat="43.55174469204415" lon="13.491268942295322"><ele>84.33333333333334</ele><time>2026-04-07T15:17:01.001Z</time></trkpt><trkpt lat="43.55179786690205" lon="13.491351226180333"><ele>85.0</ele><time>2026-04-07T15:17:02.001Z</time></trkpt><trkpt lat="43.55185253064738" lon="13.491442682174133"><ele>85.66666666666667</ele><time>2026-04-07T15:17:03.001Z</time></trkpt><trkpt lat="43.55190871348989" lon="13.491535573117995"><ele>86.33333333333333</ele><time>2026-04-07T15:17:03.999Z</time></trkpt><trkpt lat="43.55196330830935" lon="13.491620814831233"><ele>87.0</ele><time>2026-04-07T15:17:04.999Z</time></trkpt><trkpt lat="43.55202271888707" lon="13.491724004045151"><ele>89.6</ele><time>2026-04-07T15:17:05.999Z</time></trkpt><trkpt lat="43.55209028067521" lon="13.491841686143779"><ele>92.19999999999999</ele><time>2026-04-07T15:17:06.999Z</time></trkpt><trkpt lat="43.552149485392306" lon="13.491941272330182"><ele>94.8</ele><time>2026-04-07T15:17:07.999Z</time></trkpt><trkpt lat="43.552222301816904" lon="13.492062963579599"><ele>97.4</ele><time>2026-04-07T15:17:08.999Z</time></trkpt><trkpt lat="43.552270193570244" lon="13.492150156249036"><ele>100.0</ele><time>2026-04-07T15:17:09.999Z</time></trkpt><trkpt lat="43.55232927098732" lon="13.492256893349408"><ele>101.50000000000001</ele><time>2026-04-07T15:17:10.999Z</time></trkpt><trkpt lat="43.55240060365317" lon="13.492373722203165"><ele>103.0</ele><time>2026-04-07T15:17:11.999Z</time></trkpt><trkpt lat="43.55246609737543" lon="13.492495697731377"><ele>104.5</ele><time>2026-04-07T15:17:12.999Z</time></trkpt><trkpt lat="43.55251372808738" lon="13.492584202076403"><ele>106.0</ele><time>2026-04-07T15:17:13.999Z</time></trkpt><trkpt lat="43.55255593358741" lon="13.49267260578083"><ele>107.50000000000001</ele><time>2026-04-07T15:17:14.999Z</time></trkpt><trkpt lat="43.55259102679498" lon="13.49274749245731"><ele>109.0</ele><time>2026-04-07T15:17:15.999Z</time></trkpt><trkpt lat="43.55263828743174" lon="13.492826810850653"><ele>109.0</ele><time>2026-04-07T15:17:16.999Z</time></trkpt><trkpt lat="43.55268497542404" lon="13.492910477880711"><ele>109.0</ele><time>2026-04-07T15:17:17.999Z</time></trkpt><trkpt lat="43.55276919945714" lon="13.493026292073978"><ele>109.0</ele><time>2026-04-07T15:17:19.999Z</time></trkpt><trkpt lat="43.552873363694765" lon="13.493132824207963"><ele>109.0</ele><time>2026-04-07T15:17:21.999Z</time></trkpt><trkpt lat="43.5529239096875" lon="13.49318758579336"><ele>109.0</ele><time>2026-04-07T15:17:23Z</time></trkpt><trkpt lat="43.55297432938101" lon="13.493257484872556"><ele>111.80000000000001</ele><time>2026-04-07T15:17:24Z</time></trkpt><trkpt lat="43.55302605675333" lon="13.493324812774718"><ele>114.60000000000001</ele><time>2026-04-07T15:17:25Z</time></trkpt><trkpt lat="43.553083495322696" lon="13.49339950955724"><ele>117.4</ele><time>2026-04-07T15:17:26Z</time></trkpt><trkpt lat="43.55315020921047" lon="13.493492330068877"><ele>120.2</ele><time>2026-04-07T15:17:27Z</time></trkpt><trkpt lat="43.553236907045275" lon="13.493584936422288"><ele>123.0</ele><time>2026-04-07T15:17:28Z</time></trkpt><trkpt lat="43.55330696903266" lon="13.493682838656909"><ele>123.80000000000001</ele><time>2026-04-07T15:17:29Z</time></trkpt><trkpt lat="43.55337225412704" lon="13.49377419572839"><ele>124.60000000000001</ele><time>2026-04-07T15:17:30Z</time></trkpt><trkpt lat="43.55342839381235" lon="13.493843370376057"><ele>125.39999999999999</ele><time>2026-04-07T15:17:31Z</time></trkpt><trkpt lat="43.553515373460215" lon="13.493950276670597"><ele>126.19999999999999</ele><time>2026-04-07T15:17:33Z</time></trkpt><trkpt lat="43.55356022447718" lon="13.494012109494173"><ele>127.0</ele><time>2026-04-07T15:17:34Z</time></trkpt><trkpt lat="43.553630298008244" lon="13.494128214959561"><ele>127.0</ele><time>2026-04-07T15:17:36Z</time></trkpt><trkpt lat="43.553649577687345" lon="13.49429187552478"><ele>126.99999999999999</ele><time>2026-04-07T15:17:38Z</time></trkpt><trkpt lat="43.55369923566735" lon="13.494424887447845"><ele>126.99999999999999</ele><time>2026-04-07T15:17:40Z</time></trkpt><trkpt lat="43.55374995814983" lon="13.494541634486012"><ele>127.0</ele><time>2026-04-07T15:17:42Z</time></trkpt><trkpt lat="43.553794696825804" lon="13.494664960654928"><ele>127.0</ele><time>2026-04-07T15:17:44Z</time></trkpt><trkpt lat="43.55382848289323" lon="13.494803857010016"><ele>127.8</ele><time>2026-04-07T15:17:46Z</time></trkpt><trkpt lat="43.553852584699385" lon="13.494922296670198"><ele>128.6</ele><time>2026-04-07T15:17:48Z</time></trkpt><trkpt lat="43.553886498282914" lon="13.495059341059893"><ele>129.39999999999998</ele><time>2026-04-07T15:17:50Z</time></trkpt><trkpt lat="43.553925089504396" lon="13.495192462297362"><ele>130.2</ele><time>2026-04-07T15:17:52Z</time></trkpt><trkpt lat="43.553966164029895" lon="13.495315653570108"><ele>131.0</ele><time>2026-04-07T15:17:54Z</time></trkpt><trkpt lat="43.55401359335612" lon="13.495452026499835"><ele>131.0</ele><time>2026-04-07T15:17:56Z</time></trkpt><trkpt lat="43.55405289295762" lon="13.495605865919158"><ele>131.0</ele><time>2026-04-07T15:17:58Z</time></trkpt><trkpt lat="43.554096442272325" lon="13.49567631373004"><ele>131.0</ele><time>2026-04-07T15:17:59Z</time></trkpt><trkpt lat="43.55411307064587" lon="13.495771002871924"><ele>131.0</ele><time>2026-04-07T15:18:00Z</time></trkpt><trkpt lat="43.55414440319825" lon="13.495855578471105"><ele>131.0</ele><time>2026-04-07T15:18:01Z</time></trkpt><trkpt lat="43.55417720410738" lon="13.495938063109085"><ele>131.0</ele><time>2026-04-07T15:18:02Z</time></trkpt><trkpt lat="43.554224994793934" lon="13.49601019056823"><ele>131.0</ele><time>2026-04-07T15:18:03Z</time></trkpt><trkpt lat="43.55424193316259" lon="13.496095891470558"><ele>131.0</ele><time>2026-04-07T15:18:04Z</time></trkpt><trkpt lat="43.554291737168" lon="13.496169679626933"><ele>131.0</ele><time>2026-04-07T15:18:05Z</time></trkpt><trkpt lat="43.55432352928818" lon="13.496247324232188"><ele>131.0</ele><time>2026-04-07T15:18:06Z</time></trkpt><trkpt lat="43.55437011166396" lon="13.496387454791453"><ele>131.0</ele><time>2026-04-07T15:18:08Z</time></trkpt><trkpt lat="43.554423816860904" lon="13.49652304573733"><ele>131.0</ele><time>2026-04-07T15:18:10Z</time></trkpt><trkpt lat="43.55445049935796" lon="13.496629281847712"><ele>130.33333333333331</ele><time>2026-04-07T15:18:11Z</time></trkpt><trkpt lat="43.55449117521172" lon="13.496731470159384"><ele>129.66666666666666</ele><time>2026-04-07T15:18:12Z</time></trkpt><trkpt lat="43.55453416844952" lon="13.496823201958353"><ele>129.0</ele><time>2026-04-07T15:18:13Z</time></trkpt><trkpt lat="43.55457633700766" lon="13.496910766125703"><ele>128.33333333333334</ele><time>2026-04-07T15:18:14Z</time></trkpt><trkpt lat="43.55463501405759" lon="13.497005964454996"><ele>127.66666666666667</ele><time>2026-04-07T15:18:15Z</time></trkpt><trkpt lat="43.5547131514863" lon="13.49706912739149"><ele>127.0</ele><time>2026-04-07T15:18:16Z</time></trkpt><trkpt lat="43.55476967273562" lon="13.497142379814212"><ele>129.0</ele><time>2026-04-07T15:18:17Z</time></trkpt><trkpt lat="43.554823031156424" lon="13.49722988680221"><ele>131.0</ele><time>2026-04-07T15:18:18Z</time></trkpt><trkpt lat="43.554891118014396" lon="13.49730099053405"><ele>133.0</ele><time>2026-04-07T15:18:19Z</time></trkpt><trkpt lat="43.55495685837475" lon="13.497376563461643"><ele>135.0</ele><time>2026-04-07T15:18:20Z</time></trkpt><trkpt lat="43.555013426519906" lon="13.497455609121568"><ele>137.0</ele><time>2026-04-07T15:18:21Z</time></trkpt><trkpt lat="43.555072543710736" lon="13.49752821107638"><ele>139.0</ele><time>2026-04-07T15:18:22Z</time></trkpt><trkpt lat="43.55513731168116" lon="13.497611568200156"><ele>139.0</ele><time>2026-04-07T15:18:23Z</time></trkpt><trkpt lat="43.5552093662113" lon="13.497691196313319"><ele>139.0</ele><time>2026-04-07T15:18:24Z</time></trkpt><trkpt lat="43.5552665445571" lon="13.497759091669568"><ele>139.0</ele><time>2026-04-07T15:18:25Z</time></trkpt><trkpt lat="43.555320471249715" lon="13.49782319902538"><ele>139.0</ele><time>2026-04-07T15:18:26Z</time></trkpt><trkpt lat="43.555415806419646" lon="13.497915730343413"><ele>139.0</ele><time>2026-04-07T15:18:28Z</time></trkpt><trkpt lat="43.555455313552976" lon="13.497987649336377"><ele>139.0</ele><time>2026-04-07T15:18:29Z</time></trkpt><trkpt lat="43.55553229282188" lon="13.498071776252663"><ele>139.6</ele><time>2026-04-07T15:18:31Z</time></trkpt><trkpt lat="43.555624981084684" lon="13.498178735837122"><ele>140.2</ele><time>2026-04-07T15:18:33Z</time></trkpt><trkpt lat="43.55571255659309" lon="13.498271004835061"><ele>140.79999999999998</ele><time>2026-04-07T15:18:35Z</time></trkpt><trkpt lat="43.55577108744031" lon="13.498354421883498"><ele>141.4</ele><time>2026-04-07T15:18:37.001Z</time></trkpt><trkpt lat="43.555815881879845" lon="13.49844784155264"><ele>142.0</ele><time>2026-04-07T15:18:55.001Z</time></trkpt><trkpt lat="43.55590661917948" lon="13.49836100784732"><ele>142.0</ele><time>2026-04-07T15:18:57.001Z</time></trkpt><trkpt lat="43.5559606318758" lon="13.498284973691087"><ele>142.0</ele><time>2026-04-07T15:18:58.001Z</time></trkpt><trkpt lat="43.55603414487915" lon="13.498241188717877"><ele>142.0</ele><time>2026-04-07T15:18:59.001Z</time></trkpt><trkpt lat="43.55611884593256" lon="13.498167483783627"><ele>142.0</ele><time>2026-04-07T15:19:00.001Z</time></trkpt><trkpt lat="43.556202421877416" lon="13.49809668368024"><ele>142.0</ele><time>2026-04-07T15:19:01.001Z</time></trkpt><trkpt lat="43.556293399455775" lon="13.498020089065031"><ele>141.2</ele><time>2026-04-07T15:19:02.001Z</time></trkpt><trkpt lat="43.556387880613684" lon="13.49794366381248"><ele>140.39999999999998</ele><time>2026-04-07T15:19:03.001Z</time></trkpt><trkpt lat="43.55648553635457" lon="13.497864673005417"><ele>139.60000000000002</ele><time>2026-04-07T15:19:04.001Z</time></trkpt><trkpt lat="43.556580283595785" lon="13.497785760038242"><ele>138.8</ele><time>2026-04-07T15:19:05.001Z</time></trkpt><trkpt lat="43.556669104646986" lon="13.49770938982711"><ele>138.0</ele><time>2026-04-07T15:19:06.001Z</time></trkpt><trkpt lat="43.556755009898055" lon="13.49762220745651"><ele>139.20000000000002</ele><time>2026-04-07T15:19:07.001Z</time></trkpt><trkpt lat="43.556827488898726" lon="13.497522948936762"><ele>140.4</ele><time>2026-04-07T15:19:08.001Z</time></trkpt><trkpt lat="43.55689187853527" lon="13.497415719361108"><ele>141.60000000000002</ele><time>2026-04-07T15:19:09.001Z</time></trkpt><trkpt lat="43.55695309078657" lon="13.497316681618733"><ele>142.8</ele><time>2026-04-07T15:19:09.999Z</time></trkpt><trkpt lat="43.55700642319904" lon="13.497217795683708"><ele>144.0</ele><time>2026-04-07T15:19:10.999Z</time></trkpt><trkpt lat="43.55705855090329" lon="13.497125588544302"><ele>146.33333333333334</ele><time>2026-04-07T15:19:11.999Z</time></trkpt><trkpt lat="43.5571114261937" lon="13.497043214431558"><ele>148.66666666666666</ele><time>2026-04-07T15:19:12.999Z</time></trkpt><trkpt lat="43.55716551902962" lon="13.49694978942199"><ele>151.0</ele><time>2026-04-07T15:19:13.999Z</time></trkpt><trkpt lat="43.55721158816973" lon="13.496855450542785"><ele>153.33333333333331</ele><time>2026-04-07T15:19:14.999Z</time></trkpt><trkpt lat="43.55726152904213" lon="13.496755075497944"><ele>155.66666666666666</ele><time>2026-04-07T15:19:15.999Z</time></trkpt><trkpt lat="43.557317056300384" lon="13.49664713587663"><ele>158.0</ele><time>2026-04-07T15:19:16.999Z</time></trkpt><trkpt lat="43.55737118974461" lon="13.496544521003878"><ele>158.0</ele><time>2026-04-07T15:19:17.999Z</time></trkpt><trkpt lat="43.557432081321" lon="13.496436719423722"><ele>158.0</ele><time>2026-04-07T15:19:18.999Z</time></trkpt><trkpt lat="43.55749915723753" lon="13.496324883147272"><ele>158.0</ele><time>2026-04-07T15:19:19.999Z</time></trkpt><trkpt lat="43.55757080361821" lon="13.496203279909386"><ele>158.0</ele><time>2026-04-07T15:19:20.999Z</time></trkpt><trkpt lat="43.55764347487205" lon="13.496078421645107"><ele>158.0</ele><time>2026-04-07T15:19:21.999Z</time></trkpt><trkpt lat="43.55771485185582" lon="13.495952605450185"><ele>158.20000000000002</ele><time>2026-04-07T15:19:22.999Z</time></trkpt><trkpt lat="43.557779278351035" lon="13.495833636453298"><ele>158.4</ele><time>2026-04-07T15:19:23.999Z</time></trkpt><trkpt lat="43.5578372964159" lon="13.495716252793056"><ele>158.60000000000002</ele><time>2026-04-07T15:19:24.999Z</time></trkpt><trkpt lat="43.55790126504588" lon="13.495628527358763"><ele>158.8</ele><time>2026-04-07T15:19:25.999Z</time></trkpt><trkpt lat="43.55795310516306" lon="13.495535661497307"><ele>159.0</ele><time>2026-04-07T15:19:27Z</time></trkpt><trkpt lat="43.55800694132953" lon="13.495449502600021"><ele>158.83333333333334</ele><time>2026-04-07T15:19:28Z</time></trkpt><trkpt lat="43.558051782881684" lon="13.49536538937883"><ele>158.66666666666666</ele><time>2026-04-07T15:19:29Z</time></trkpt><trkpt lat="43.558095530061074" lon="13.49528020671439"><ele>158.5</ele><time>2026-04-07T15:19:30Z</time></trkpt><trkpt lat="43.55813944344546" lon="13.495201610335574"><ele>158.33333333333331</ele><time>2026-04-07T15:19:31Z</time></trkpt><trkpt lat="43.558182050482294" lon="13.495131165735176"><ele>158.16666666666666</ele><time>2026-04-07T15:19:32Z</time></trkpt><trkpt lat="43.55825361255731" lon="13.494998021196173"><ele>158.0</ele><time>2026-04-07T15:19:34Z</time></trkpt><trkpt lat="43.55831364868772" lon="13.494873181163054"><ele>158.0</ele><time>2026-04-07T15:19:36Z</time></trkpt><trkpt lat="43.558361271471945" lon="13.494813333244844"><ele>158.0</ele><time>2026-04-07T15:19:37Z</time></trkpt><trkpt lat="43.55840264872192" lon="13.494739015213312"><ele>158.0</ele><time>2026-04-07T15:19:38Z</time></trkpt><trkpt lat="43.55847323139145" lon="13.494612424369254"><ele>158.0</ele><time>2026-04-07T15:19:40Z</time></trkpt><trkpt lat="43.55855000111916" lon="13.494477024069582"><ele>158.0</ele><time>2026-04-07T15:19:42Z</time></trkpt><trkpt lat="43.55859071629405" lon="13.4944052138172"><ele>158.0</ele><time>2026-04-07T15:19:43Z</time></trkpt><trkpt lat="43.55863379991595" lon="13.49432922635685"><ele>158.16666666666666</ele><time>2026-04-07T15:19:44Z</time></trkpt><trkpt lat="43.55867702557002" lon="13.494252988488617"><ele>158.33333333333331</ele><time>2026-04-07T15:19:45Z</time></trkpt><trkpt lat="43.558719179994625" lon="13.49415268872615"><ele>158.5</ele><time>2026-04-07T15:19:46Z</time></trkpt><trkpt lat="43.55878602724821" lon="13.494056097491582"><ele>158.66666666666666</ele><time>2026-04-07T15:19:47Z</time></trkpt><trkpt lat="43.55884856099824" lon="13.493951224523835"><ele>158.83333333333334</ele><time>2026-04-07T15:19:48Z</time></trkpt><trkpt lat="43.55891266964593" lon="13.493848190505664"><ele>159.0</ele><time>2026-04-07T15:19:49Z</time></trkpt><trkpt lat="43.55898426625932" lon="13.49375698697915"><ele>157.2</ele><time>2026-04-07T15:19:50Z</time></trkpt><trkpt lat="43.55907302447476" lon="13.49371925396746"><ele>155.4</ele><time>2026-04-07T15:19:51Z</time></trkpt><trkpt lat="43.55915816046218" lon="13.493672816780384"><ele>153.6</ele><time>2026-04-07T15:19:52Z</time></trkpt><trkpt lat="43.55925400352911" lon="13.493609854908327"><ele>151.8</ele><time>2026-04-07T15:19:53Z</time></trkpt><trkpt lat="43.55934625231826" lon="13.49357131421646"><ele>150.0</ele><time>2026-04-07T15:19:54Z</time></trkpt><trkpt lat="43.55945513505434" lon="13.493518673445353"><ele>147.6</ele><time>2026-04-07T15:19:55Z</time></trkpt><trkpt lat="43.55955456441081" lon="13.493467214465136"><ele>145.2</ele><time>2026-04-07T15:19:56Z</time></trkpt><trkpt lat="43.55965052802766" lon="13.493393763117696"><ele>142.8</ele><time>2026-04-07T15:19:57Z</time></trkpt><trkpt lat="43.559739185129295" lon="13.493308815943672"><ele>140.4</ele><time>2026-04-07T15:19:58Z</time></trkpt><trkpt lat="43.55981963861725" lon="13.49321206609685"><ele>138.0</ele><time>2026-04-07T15:19:59Z</time></trkpt><trkpt lat="43.5598847089814" lon="13.493123193541104"><ele>138.0</ele><time>2026-04-07T15:20:00Z</time></trkpt><trkpt lat="43.55995618840351" lon="13.493073108199964"><ele>138.0</ele><time>2026-04-07T15:20:01Z</time></trkpt><trkpt lat="43.560008215736964" lon="13.49300289032774"><ele>138.0</ele><time>2026-04-07T15:20:02Z</time></trkpt><trkpt lat="43.56010615794481" lon="13.492992529661109"><ele>138.0</ele><time>2026-04-07T15:20:04Z</time></trkpt><trkpt lat="43.56017242698324" lon="13.492973936559157"><ele>138.0</ele><time>2026-04-07T15:20:07Z</time></trkpt><trkpt lat="43.560189633637805" lon="13.492888830009205"><ele>138.0</ele><time>2026-04-07T15:21:16Z</time></trkpt><trkpt lat="43.560300514826444" lon="13.492918561513019"><ele>137.83333333333334</ele><time>2026-04-07T15:24:48.001Z</time></trkpt><trkpt lat="43.56038381381793" lon="13.492923364468906"><ele>137.66666666666666</ele><time>2026-04-07T15:24:49.001Z</time></trkpt><trkpt lat="43.560460552580714" lon="13.492912418648604"><ele>137.5</ele><time>2026-04-07T15:24:50.001Z</time></trkpt><trkpt lat="43.56054607287057" lon="13.492890567282558"><ele>137.33333333333331</ele><time>2026-04-07T15:24:51.001Z</time></trkpt><trkpt lat="43.5606332028479" lon="13.49286656606223"><ele>137.16666666666666</ele><time>2026-04-07T15:24:52.001Z</time></trkpt><trkpt lat="43.56071881998012" lon="13.492845792465946"><ele>137.0</ele><time>2026-04-07T15:24:53.001Z</time></trkpt><trkpt lat="43.560813129716855" lon="13.492825416927952"><ele>137.83333333333331</ele><time>2026-04-07T15:24:54.001Z</time></trkpt><trkpt lat="43.56090747183779" lon="13.492806425980188"><ele>138.66666666666666</ele><time>2026-04-07T15:24:55.001Z</time></trkpt><trkpt lat="43.560997813276224" lon="13.492792191498317"><ele>139.5</ele><time>2026-04-07T15:24:56.001Z</time></trkpt><trkpt lat="43.56108722061121" lon="13.492771799732374"><ele>140.33333333333334</ele><time>2026-04-07T15:24:57.001Z</time></trkpt><trkpt lat="43.561164111497746" lon="13.492763161178035"><ele>141.16666666666669</ele><time>2026-04-07T15:24:58.001Z</time></trkpt><trkpt lat="43.5612381023426" lon="13.492751934914692"><ele>142.0</ele><time>2026-04-07T15:24:59.001Z</time></trkpt><trkpt lat="43.561314174621074" lon="13.492768023297094"><ele>142.66666666666669</ele><time>2026-04-07T15:25:00.001Z</time></trkpt><trkpt lat="43.56138322938001" lon="13.492763155605694"><ele>143.33333333333334</ele><time>2026-04-07T15:25:01.001Z</time></trkpt><trkpt lat="43.56145592472315" lon="13.492737292584387"><ele>144.0</ele><time>2026-04-07T15:25:02.001Z</time></trkpt><trkpt lat="43.56153422469193" lon="13.492735912341628"><ele>144.66666666666666</ele><time>2026-04-07T15:25:03.001Z</time></trkpt><trkpt lat="43.561606761708376" lon="13.492730832362144"><ele>145.33333333333331</ele><time>2026-04-07T15:25:04.001Z</time></trkpt><trkpt lat="43.561726162772196" lon="13.492735209896368"><ele>146.0</ele><time>2026-04-07T15:25:06.001Z</time></trkpt><trkpt lat="43.56181009600114" lon="13.492735896082378"><ele>146.0</ele><time>2026-04-07T15:25:07.001Z</time></trkpt><trkpt lat="43.56190527152309" lon="13.492727872323144"><ele>146.0</ele><time>2026-04-07T15:25:08.001Z</time></trkpt><trkpt lat="43.56200888587083" lon="13.492723663901895"><ele>146.0</ele><time>2026-04-07T15:25:09.001Z</time></trkpt><trkpt lat="43.562117017615805" lon="13.492724330756936"><ele>146.0</ele><time>2026-04-07T15:25:10.001Z</time></trkpt><trkpt lat="43.56221806818211" lon="13.492727326799852"><ele>146.0</ele><time>2026-04-07T15:25:11.001Z</time></trkpt><trkpt lat="43.562330088571485" lon="13.492723361764892"><ele>149.0</ele><time>2026-04-07T15:25:12.001Z</time></trkpt><trkpt lat="43.562438410361196" lon="13.49271761549087"><ele>152.0</ele><time>2026-04-07T15:25:13.001Z</time></trkpt><trkpt lat="43.56255207355626" lon="13.492718531775273"><ele>155.0</ele><time>2026-04-07T15:25:14.001Z</time></trkpt><trkpt lat="43.562667847692985" lon="13.49271072849281"><ele>158.0</ele><time>2026-04-07T15:25:15.001Z</time></trkpt><trkpt lat="43.5627795944104" lon="13.49270690361993"><ele>159.33333333333331</ele><time>2026-04-07T15:25:16.001Z</time></trkpt><trkpt lat="43.56288400508311" lon="13.492704489192574"><ele>160.66666666666666</ele><time>2026-04-07T15:25:17.001Z</time></trkpt><trkpt lat="43.56296609177506" lon="13.492705062689192"><ele>162.0</ele><time>2026-04-07T15:25:18.001Z</time></trkpt><trkpt lat="43.56303082717644" lon="13.492701482804126"><ele>163.33333333333334</ele><time>2026-04-07T15:25:19.001Z</time></trkpt><trkpt lat="43.56310644437951" lon="13.492699320423462"><ele>164.66666666666669</ele><time>2026-04-07T15:25:20.001Z</time></trkpt><trkpt lat="43.56317519082467" lon="13.49270158387959"><ele>166.0</ele><time>2026-04-07T15:25:21.001Z</time></trkpt><trkpt lat="43.56325401544525" lon="13.49271852642267"><ele>166.0</ele><time>2026-04-07T15:25:22.001Z</time></trkpt><trkpt lat="43.56333732145586" lon="13.492748022277457"><ele>166.0</ele><time>2026-04-07T15:25:23.001Z</time></trkpt><trkpt lat="43.56342412158221" lon="13.492787528250963"><ele>166.0</ele><time>2026-04-07T15:25:24.001Z</time></trkpt><trkpt lat="43.563511868061525" lon="13.492830367524032"><ele>166.0</ele><time>2026-04-07T15:25:25.001Z</time></trkpt><trkpt lat="43.563601729348676" lon="13.492874845237694"><ele>166.0</ele><time>2026-04-07T15:25:26.001Z</time></trkpt><trkpt lat="43.56369370307906" lon="13.492914931188546"><ele>168.0</ele><time>2026-04-07T15:25:27Z</time></trkpt><trkpt lat="43.56378090993319" lon="13.492952647980418"><ele>170.0</ele><time>2026-04-07T15:25:28Z</time></trkpt><trkpt lat="43.56386207117485" lon="13.492986927011543"><ele>172.0</ele><time>2026-04-07T15:25:29Z</time></trkpt><trkpt lat="43.56393429087236" lon="13.493027261163915"><ele>174.0</ele><time>2026-04-07T15:25:30Z</time></trkpt><trkpt lat="43.564002010013816" lon="13.493053024262124"><ele>176.0</ele><time>2026-04-07T15:25:31Z</time></trkpt><trkpt lat="43.564121648129934" lon="13.493104000960045"><ele>176.0</ele><time>2026-04-07T15:25:33Z</time></trkpt><trkpt lat="43.56418867486023" lon="13.493135400122975"><ele>176.0</ele><time>2026-04-07T15:25:34Z</time></trkpt><trkpt lat="43.5642558882236" lon="13.493165490171542"><ele>176.0</ele><time>2026-04-07T15:25:35Z</time></trkpt><trkpt lat="43.56432619137068" lon="13.493196806728479"><ele>176.0</ele><time>2026-04-07T15:25:36Z</time></trkpt><trkpt lat="43.56439979132308" lon="13.493231689055667"><ele>176.0</ele><time>2026-04-07T15:25:37Z</time></trkpt><trkpt lat="43.56448598181885" lon="13.493267820294276"><ele>176.0</ele><time>2026-04-07T15:25:38Z</time></trkpt><trkpt lat="43.56458019337297" lon="13.493305438361487"><ele>178.0</ele><time>2026-04-07T15:25:39Z</time></trkpt><trkpt lat="43.56468361795903" lon="13.493346455274255"><ele>180.0</ele><time>2026-04-07T15:25:40Z</time></trkpt><trkpt lat="43.56477480749664" lon="13.493385691570719"><ele>182.0</ele><time>2026-04-07T15:25:41Z</time></trkpt><trkpt lat="43.56487258004444" lon="13.493382415220852"><ele>184.0</ele><time>2026-04-07T15:25:42Z</time></trkpt><trkpt lat="43.564975517148426" lon="13.493362072699876"><ele>186.0</ele><time>2026-04-07T15:25:43Z</time></trkpt><trkpt lat="43.56507668136858" lon="13.493327049735507"><ele>186.0</ele><time>2026-04-07T15:25:44Z</time></trkpt><trkpt lat="43.56517735911537" lon="13.49328546960535"><ele>186.0</ele><time>2026-04-07T15:25:45Z</time></trkpt><trkpt lat="43.56526531157354" lon="13.493262581011821"><ele>186.0</ele><time>2026-04-07T15:25:46Z</time></trkpt><trkpt lat="43.565337795248205" lon="13.493234252309605"><ele>186.0</ele><time>2026-04-07T15:25:47Z</time></trkpt><trkpt lat="43.56538749596982" lon="13.493174589542601"><ele>186.0</ele><time>2026-04-07T15:25:48Z</time></trkpt><trkpt lat="43.565450787607354" lon="13.493119094219567"><ele>186.0</ele><time>2026-04-07T15:25:49Z</time></trkpt><trkpt lat="43.56551216783034" lon="13.493057206035418"><ele>186.83333333333334</ele><time>2026-04-07T15:25:50Z</time></trkpt><trkpt lat="43.56558014338316" lon="13.493000974377441"><ele>187.66666666666666</ele><time>2026-04-07T15:25:51Z</time></trkpt><trkpt lat="43.56565865126856" lon="13.492972341970566"><ele>188.5</ele><time>2026-04-07T15:25:52Z</time></trkpt><trkpt lat="43.56572371911974" lon="13.492911344637694"><ele>189.33333333333331</ele><time>2026-04-07T15:25:53Z</time></trkpt><trkpt lat="43.565785786637285" lon="13.492853168969882"><ele>190.16666666666666</ele><time>2026-04-07T15:25:54Z</time></trkpt><trkpt lat="43.56584835010895" lon="13.492794656871833"><ele>191.0</ele><time>2026-04-07T15:25:56Z</time></trkpt><trkpt lat="43.56578599845172" lon="13.49257240085501"><ele>191.0</ele><time>2026-04-07T15:26:00Z</time></trkpt><trkpt lat="43.56574204344847" lon="13.49246194188914"><ele>191.0</ele><time>2026-04-07T15:26:02Z</time></trkpt><trkpt lat="43.56572185017989" lon="13.492331937498912"><ele>191.0</ele><time>2026-04-07T15:26:04Z</time></trkpt><trkpt lat="43.56568255161928" lon="13.492175072142512"><ele>191.0</ele><time>2026-04-07T15:26:06Z</time></trkpt><trkpt lat="43.565666321100665" lon="13.492089648967143"><ele>191.0</ele><time>2026-04-07T15:26:07Z</time></trkpt><trkpt lat="43.56566191397046" lon="13.491998210801764"><ele>191.0</ele><time>2026-04-07T15:26:08Z</time></trkpt><trkpt lat="43.565644625658145" lon="13.491911549763891"><ele>191.0</ele><time>2026-04-07T15:26:09Z</time></trkpt><trkpt lat="43.565625425970175" lon="13.491817369406863"><ele>191.0</ele><time>2026-04-07T15:26:10Z</time></trkpt><trkpt lat="43.565591222614515" lon="13.491657496690317"><ele>191.0</ele><time>2026-04-07T15:26:12Z</time></trkpt><trkpt lat="43.5655723842283" lon="13.49156944588689"><ele>191.0</ele><time>2026-04-07T15:26:13Z</time></trkpt><trkpt lat="43.565550059211816" lon="13.491480481819465"><ele>191.0</ele><time>2026-04-07T15:26:14Z</time></trkpt><trkpt lat="43.5655296923619" lon="13.491395436347835"><ele>191.0</ele><time>2026-04-07T15:26:15Z</time></trkpt><trkpt lat="43.56550792293495" lon="13.491306790350574"><ele>191.0</ele><time>2026-04-07T15:26:16Z</time></trkpt><trkpt lat="43.56548589530951" lon="13.491217092965618"><ele>191.0</ele><time>2026-04-07T15:26:17Z</time></trkpt><trkpt lat="43.56544687778251" lon="13.491064385165338"><ele>191.0</ele><time>2026-04-07T15:26:19Z</time></trkpt><trkpt lat="43.56541428221878" lon="13.490940431666074"><ele>191.0</ele><time>2026-04-07T15:26:21.001Z</time></trkpt><trkpt lat="43.56537986201025" lon="13.49081540648395"><ele>191.0</ele><time>2026-04-07T15:26:23.001Z</time></trkpt><trkpt lat="43.56533066825429" lon="13.490646348620007"><ele>188.83333333333331</ele><time>2026-04-07T15:26:25.001Z</time></trkpt><trkpt lat="43.56529961698574" lon="13.490546517152378"><ele>186.66666666666666</ele><time>2026-04-07T15:26:26.001Z</time></trkpt><trkpt lat="43.56526325651142" lon="13.490437350678771"><ele>184.5</ele><time>2026-04-07T15:26:27.001Z</time></trkpt><trkpt lat="43.56522840968866" lon="13.490336017675846"><ele>182.33333333333334</ele><time>2026-04-07T15:26:28.001Z</time></trkpt><trkpt lat="43.56518912953266" lon="13.49022683952542"><ele>180.16666666666669</ele><time>2026-04-07T15:26:29.001Z</time></trkpt><trkpt lat="43.56514711078316" lon="13.490110860598058"><ele>178.0</ele><time>2026-04-07T15:26:30.001Z</time></trkpt><trkpt lat="43.565107422683745" lon="13.490001314507632"><ele>177.83333333333334</ele><time>2026-04-07T15:26:31.001Z</time></trkpt><trkpt lat="43.565061023678055" lon="13.489892094472221"><ele>177.66666666666669</ele><time>2026-04-07T15:26:32.001Z</time></trkpt><trkpt lat="43.56501372135699" lon="13.489790624213445"><ele>177.5</ele><time>2026-04-07T15:26:33.001Z</time></trkpt><trkpt lat="43.564989761779955" lon="13.489676550198514"><ele>177.33333333333334</ele><time>2026-04-07T15:26:34.001Z</time></trkpt><trkpt lat="43.56494690075039" lon="13.489560856831826"><ele>177.16666666666666</ele><time>2026-04-07T15:26:35.001Z</time></trkpt><trkpt lat="43.564905960369835" lon="13.489454461952084"><ele>177.0</ele><time>2026-04-07T15:26:36.001Z</time></trkpt><trkpt lat="43.564862024382535" lon="13.489346705805335"><ele>176.39999999999998</ele><time>2026-04-07T15:26:37.001Z</time></trkpt><trkpt lat="43.56481274242969" lon="13.489229969228202"><ele>175.79999999999998</ele><time>2026-04-07T15:26:38.001Z</time></trkpt><trkpt lat="43.564754631181856" lon="13.489096316005641"><ele>175.2</ele><time>2026-04-07T15:26:39.001Z</time></trkpt><trkpt lat="43.56469795899727" lon="13.488965972502298"><ele>174.6</ele><time>2026-04-07T15:26:40.001Z</time></trkpt><trkpt lat="43.564643179894574" lon="13.48883998306318"><ele>174.0</ele><time>2026-04-07T15:26:41.001Z</time></trkpt><trkpt lat="43.56459246775649" lon="13.488721830067414"><ele>172.6</ele><time>2026-04-07T15:26:42.001Z</time></trkpt><trkpt lat="43.564531181204735" lon="13.488617483969136"><ele>171.2</ele><time>2026-04-07T15:26:43.001Z</time></trkpt><trkpt lat="43.56447499940544" lon="13.488484828062662"><ele>169.79999999999998</ele><time>2026-04-07T15:26:44.001Z</time></trkpt><trkpt lat="43.564422118795896" lon="13.488350219111235"><ele>168.39999999999998</ele><time>2026-04-07T15:26:45.001Z</time></trkpt><trkpt lat="43.56436625490844" lon="13.488209900685467"><ele>167.0</ele><time>2026-04-07T15:26:46.001Z</time></trkpt><trkpt lat="43.56429418158375" lon="13.488104642670619"><ele>165.6</ele><time>2026-04-07T15:26:47.001Z</time></trkpt><trkpt lat="43.56424732098159" lon="13.487990409776172"><ele>164.2</ele><time>2026-04-07T15:26:48.001Z</time></trkpt><trkpt lat="43.5641935112484" lon="13.48788756094267"><ele>162.8</ele><time>2026-04-07T15:26:49.001Z</time></trkpt><trkpt lat="43.56413762060558" lon="13.487789313089895"><ele>161.4</ele><time>2026-04-07T15:26:50.001Z</time></trkpt><trkpt lat="43.56408292703421" lon="13.487687351050129"><ele>160.0</ele><time>2026-04-07T15:26:51.001Z</time></trkpt><trkpt lat="43.56403646570314" lon="13.487590131449144"><ele>159.85714285714286</ele><time>2026-04-07T15:26:52.001Z</time></trkpt><trkpt lat="43.563991164142756" lon="13.487499378413357"><ele>159.71428571428572</ele><time>2026-04-07T15:26:53.001Z</time></trkpt><trkpt lat="43.56395034619879" lon="13.487407893005532"><ele>159.57142857142856</ele><time>2026-04-07T15:26:54.001Z</time></trkpt><trkpt lat="43.56392715914727" lon="13.487320216968829"><ele>159.42857142857144</ele><time>2026-04-07T15:26:55.001Z</time></trkpt><trkpt lat="43.563894436604684" lon="13.487234288500563"><ele>159.2857142857143</ele><time>2026-04-07T15:26:56.001Z</time></trkpt><trkpt lat="43.56386326690631" lon="13.487147949700852"><ele>159.14285714285714</ele><time>2026-04-07T15:26:57.001Z</time></trkpt><trkpt lat="43.56383473412406" lon="13.487064234370584"><ele>159.0</ele><time>2026-04-07T15:26:58.001Z</time></trkpt><trkpt lat="43.56380772731265" lon="13.486981904902631"><ele>158.8</ele><time>2026-04-07T15:26:59.001Z</time></trkpt><trkpt lat="43.56378000189953" lon="13.48689285773554"><ele>158.60000000000002</ele><time>2026-04-07T15:27:00.001Z</time></trkpt><trkpt lat="43.563752735453285" lon="13.486805681591346"><ele>158.4</ele><time>2026-04-07T15:27:01.001Z</time></trkpt><trkpt lat="43.56370814765564" lon="13.486663125605554"><ele>158.20000000000002</ele><time>2026-04-07T15:27:03.001Z</time></trkpt><trkpt lat="43.563667027217704" lon="13.486523192965725"><ele>158.0</ele><time>2026-04-07T15:27:05.001Z</time></trkpt><trkpt lat="43.56362915445384" lon="13.486393337344305"><ele>157.6</ele><time>2026-04-07T15:27:07.001Z</time></trkpt><trkpt lat="43.56358117753406" lon="13.486291249586726"><ele>157.20000000000002</ele><time>2026-04-07T15:27:09.001Z</time></trkpt><trkpt lat="43.56354200530047" lon="13.486167760390915"><ele>156.8</ele><time>2026-04-07T15:27:11.001Z</time></trkpt><trkpt lat="43.563510226768194" lon="13.48605370474168"><ele>156.4</ele><time>2026-04-07T15:27:13.001Z</time></trkpt><trkpt lat="43.56344494930415" lon="13.48593065441323"><ele>156.0</ele><time>2026-04-07T15:27:15.001Z</time></trkpt><trkpt lat="43.56337651437497" lon="13.48581287174041"><ele>156.0</ele><time>2026-04-07T15:27:17.001Z</time></trkpt><trkpt lat="43.56330743806013" lon="13.485711901125274"><ele>156.0</ele><time>2026-04-07T15:27:19.001Z</time></trkpt><trkpt lat="43.563229223658254" lon="13.485592258411314"><ele>156.0</ele><time>2026-04-07T15:27:21.001Z</time></trkpt><trkpt lat="43.56318422802738" lon="13.485433136554002"><ele>156.0</ele><time>2026-04-07T15:27:23.001Z</time></trkpt><trkpt lat="43.563159667117475" lon="13.485347476023556"><ele>156.0</ele><time>2026-04-07T15:27:24.001Z</time></trkpt><trkpt lat="43.56313232049784" lon="13.48524889179132"><ele>155.0</ele><time>2026-04-07T15:27:25.001Z</time></trkpt><trkpt lat="43.563100406173874" lon="13.4851302772845"><ele>154.0</ele><time>2026-04-07T15:27:26.001Z</time></trkpt><trkpt lat="43.56306765149821" lon="13.485009908191534"><ele>153.0</ele><time>2026-04-07T15:27:27.001Z</time></trkpt><trkpt lat="43.56303719434009" lon="13.484889136001962"><ele>152.0</ele><time>2026-04-07T15:27:28.001Z</time></trkpt><trkpt lat="43.56300763306997" lon="13.484775413982355"><ele>151.0</ele><time>2026-04-07T15:27:29.001Z</time></trkpt><trkpt lat="43.56299316577185" lon="13.484653113491149"><ele>148.8</ele><time>2026-04-07T15:27:30.001Z</time></trkpt><trkpt lat="43.562962960575724" lon="13.48452979848771"><ele>146.6</ele><time>2026-04-07T15:27:31.001Z</time></trkpt><trkpt lat="43.56293056202468" lon="13.484403122539508"><ele>144.4</ele><time>2026-04-07T15:27:32.001Z</time></trkpt><trkpt lat="43.56289822693206" lon="13.484278808570076"><ele>142.2</ele><time>2026-04-07T15:27:33Z</time></trkpt><trkpt lat="43.56286445895428" lon="13.484155583755818"><ele>140.0</ele><time>2026-04-07T15:27:34Z</time></trkpt><trkpt lat="43.56283081316262" lon="13.484032804929884"><ele>139.5</ele><time>2026-04-07T15:27:35Z</time></trkpt><trkpt lat="43.562796557082834" lon="13.483911011554563"><ele>139.0</ele><time>2026-04-07T15:27:36Z</time></trkpt><trkpt lat="43.562749375952365" lon="13.483816016112646"><ele>138.5</ele><time>2026-04-07T15:27:37Z</time></trkpt><trkpt lat="43.562724662371224" lon="13.48372580974908"><ele>138.0</ele><time>2026-04-07T15:27:38Z</time></trkpt><trkpt lat="43.5626552904461" lon="13.48358834989764"><ele>137.5</ele><time>2026-04-07T15:27:40Z</time></trkpt><trkpt lat="43.56262248888755" lon="13.483509500706164"><ele>137.0</ele><time>2026-04-07T15:27:41Z</time></trkpt><trkpt lat="43.56257227222947" lon="13.483430640183322"><ele>136.66666666666666</ele><time>2026-04-07T15:27:42Z</time></trkpt><trkpt lat="43.56252462615808" lon="13.483360962758594"><ele>136.33333333333331</ele><time>2026-04-07T15:27:43Z</time></trkpt><trkpt lat="43.56247665846407" lon="13.48329119182801"><ele>136.0</ele><time>2026-04-07T15:27:44Z</time></trkpt><trkpt lat="43.562422131389454" lon="13.483211763171994"><ele>135.66666666666666</ele><time>2026-04-07T15:27:45Z</time></trkpt><trkpt lat="43.562354947657724" lon="13.483123307611722"><ele>135.33333333333334</ele><time>2026-04-07T15:27:46Z</time></trkpt><trkpt lat="43.56229170288678" lon="13.483042688433013"><ele>135.0</ele><time>2026-04-07T15:27:47Z</time></trkpt><trkpt lat="43.56224483060697" lon="13.482981880131193"><ele>135.0</ele><time>2026-04-07T15:27:48Z</time></trkpt><trkpt lat="43.56209435523946" lon="13.483057411918116"><ele>135.0</ele><time>2026-04-07T15:27:50Z</time></trkpt><trkpt lat="43.5620291988085" lon="13.483096688463867"><ele>135.0</ele><time>2026-04-07T15:27:51Z</time></trkpt><trkpt lat="43.561950968264284" lon="13.48313573345079"><ele>135.0</ele><time>2026-04-07T15:27:52Z</time></trkpt><trkpt lat="43.56186621462216" lon="13.483172938846266"><ele>135.0</ele><time>2026-04-07T15:27:53Z</time></trkpt><trkpt lat="43.561774946663526" lon="13.483219721710324"><ele>133.2</ele><time>2026-04-07T15:27:54Z</time></trkpt><trkpt lat="43.56168878227694" lon="13.483275725897197"><ele>131.4</ele><time>2026-04-07T15:27:55Z</time></trkpt><trkpt lat="43.5616052082356" lon="13.483341196226938"><ele>129.6</ele><time>2026-04-07T15:27:56Z</time></trkpt><trkpt lat="43.56153144239869" lon="13.48340934741634"><ele>127.8</ele><time>2026-04-07T15:27:57Z</time></trkpt><trkpt lat="43.56146081078745" lon="13.483490964194392"><ele>126.0</ele><time>2026-04-07T15:27:58Z</time></trkpt><trkpt lat="43.56139248539253" lon="13.48357864357575"><ele>126.0</ele><time>2026-04-07T15:27:59Z</time></trkpt><trkpt lat="43.56131520970311" lon="13.483666794433981"><ele>126.0</ele><time>2026-04-07T15:28:00Z</time></trkpt><trkpt lat="43.561240243115435" lon="13.48375902647029"><ele>126.0</ele><time>2026-04-07T15:28:01Z</time></trkpt><trkpt lat="43.561174557839514" lon="13.483850635969128"><ele>126.0</ele><time>2026-04-07T15:28:02Z</time></trkpt><trkpt lat="43.56111291519012" lon="13.483926229790356"><ele>126.0</ele><time>2026-04-07T15:28:03Z</time></trkpt><trkpt lat="43.56105084281781" lon="13.483986437500715"><ele>122.6</ele><time>2026-04-07T15:28:04Z</time></trkpt><trkpt lat="43.5609852557205" lon="13.484039640344628"><ele>119.19999999999999</ele><time>2026-04-07T15:28:05Z</time></trkpt><trkpt lat="43.560890886410874" lon="13.484080555238224"><ele>115.80000000000001</ele><time>2026-04-07T15:28:06Z</time></trkpt><trkpt lat="43.56080109128602" lon="13.484104534671955"><ele>112.4</ele><time>2026-04-07T15:28:07Z</time></trkpt><trkpt lat="43.56070630039297" lon="13.484112150539946"><ele>109.0</ele><time>2026-04-07T15:28:08Z</time></trkpt><trkpt lat="43.56060147538886" lon="13.484082825726592"><ele>109.0</ele><time>2026-04-07T15:28:09Z</time></trkpt><trkpt lat="43.560497914312975" lon="13.484057645559393"><ele>109.0</ele><time>2026-04-07T15:28:10Z</time></trkpt><trkpt lat="43.56040800179207" lon="13.48401752781635"><ele>109.0</ele><time>2026-04-07T15:28:11Z</time></trkpt><trkpt lat="43.560320113952876" lon="13.483970250166632"><ele>109.0</ele><time>2026-04-07T15:28:12Z</time></trkpt><trkpt lat="43.56023209180689" lon="13.483897964331504"><ele>109.0</ele><time>2026-04-07T15:28:13Z</time></trkpt><trkpt lat="43.56016229592351" lon="13.483819698748341"><ele>107.2</ele><time>2026-04-07T15:28:14Z</time></trkpt><trkpt lat="43.560081364824995" lon="13.483733457925482"><ele>105.4</ele><time>2026-04-07T15:28:15Z</time></trkpt><trkpt lat="43.559999272238386" lon="13.48364927846849"><ele>103.6</ele><time>2026-04-07T15:28:16Z</time></trkpt><trkpt lat="43.559929114534974" lon="13.483583654685825"><ele>101.8</ele><time>2026-04-07T15:28:17Z</time></trkpt><trkpt lat="43.55986003272514" lon="13.483519037360116"><ele>100.0</ele><time>2026-04-07T15:28:18Z</time></trkpt><trkpt lat="43.55979530401291" lon="13.483458491870099"><ele>100.00000000000001</ele><time>2026-04-07T15:28:19Z</time></trkpt><trkpt lat="43.559738209874645" lon="13.483406526488205"><ele>100.0</ele><time>2026-04-07T15:28:20Z</time></trkpt><trkpt lat="43.55965768074306" lon="13.483356606095454"><ele>100.0</ele><time>2026-04-07T15:28:21Z</time></trkpt><trkpt lat="43.559583254963854" lon="13.483294102240022"><ele>100.0</ele><time>2026-04-07T15:28:22Z</time></trkpt><trkpt lat="43.559508701217496" lon="13.48321631892359"><ele>100.00000000000001</ele><time>2026-04-07T15:28:23Z</time></trkpt><trkpt lat="43.55942696797871" lon="13.483157048042417"><ele>100.0</ele><time>2026-04-07T15:28:24Z</time></trkpt><trkpt lat="43.559336494374314" lon="13.483094769460655"><ele>100.2</ele><time>2026-04-07T15:28:25Z</time></trkpt><trkpt lat="43.55924106553948" lon="13.483030520919625"><ele>100.4</ele><time>2026-04-07T15:28:26Z</time></trkpt><trkpt lat="43.55914519602436" lon="13.48296915437253"><ele>100.6</ele><time>2026-04-07T15:28:27Z</time></trkpt><trkpt lat="43.55905069526172" lon="13.482908663985981"><ele>100.8</ele><time>2026-04-07T15:28:28Z</time></trkpt><trkpt lat="43.55895604819929" lon="13.482848945713767"><ele>101.0</ele><time>2026-04-07T15:28:29Z</time></trkpt><trkpt lat="43.558862094117835" lon="13.482790035460626"><ele>101.0</ele><time>2026-04-07T15:28:30Z</time></trkpt><trkpt lat="43.55875586733627" lon="13.482723430073928"><ele>101.0</ele><time>2026-04-07T15:28:31Z</time></trkpt><trkpt lat="43.558647769172836" lon="13.482656880634591"><ele>101.0</ele><time>2026-04-07T15:28:32.001Z</time></trkpt><trkpt lat="43.558543279298554" lon="13.482594236981205"><ele>101.0</ele><time>2026-04-07T15:28:33.001Z</time></trkpt><trkpt lat="43.55843403965416" lon="13.482528980213646"><ele>97.99999999999999</ele><time>2026-04-07T15:28:34.001Z</time></trkpt><trkpt lat="43.55834049471383" lon="13.482473334382615"><ele>95.0</ele><time>2026-04-07T15:28:35.001Z</time></trkpt><trkpt lat="43.55824210802775" lon="13.482438289984765"><ele>92.0</ele><time>2026-04-07T15:28:36.001Z</time></trkpt><trkpt lat="43.55816448123761" lon="13.482389352732627"><ele>89.0</ele><time>2026-04-07T15:28:37.001Z</time></trkpt><trkpt lat="43.558087969167495" lon="13.482336140512446"><ele>86.0</ele><time>2026-04-07T15:28:38.001Z</time></trkpt><trkpt lat="43.558029311297474" lon="13.482291548687032"><ele>83.0</ele><time>2026-04-07T15:28:39.001Z</time></trkpt><trkpt lat="43.557958402136045" lon="13.48225423383325"><ele>82.5</ele><time>2026-04-07T15:28:40.001Z</time></trkpt><trkpt lat="43.55784488664052" lon="13.482192426325886"><ele>82.0</ele><time>2026-04-07T15:28:42.001Z</time></trkpt><trkpt lat="43.55778098394619" lon="13.482160344146497"><ele>81.5</ele><time>2026-04-07T15:28:43.001Z</time></trkpt><trkpt lat="43.55771208229035" lon="13.482124073307839"><ele>81.0</ele><time>2026-04-07T15:28:44.001Z</time></trkpt><trkpt lat="43.557648048894954" lon="13.482057212956123"><ele>80.5</ele><time>2026-04-07T15:28:45.001Z</time></trkpt><trkpt lat="43.55758012682998" lon="13.482007568258071"><ele>80.0</ele><time>2026-04-07T15:28:46.001Z</time></trkpt><trkpt lat="43.557518730981926" lon="13.481955024348068"><ele>80.0</ele><time>2026-04-07T15:28:47.001Z</time></trkpt><trkpt lat="43.55745875164474" lon="13.481912301577145"><ele>80.0</ele><time>2026-04-07T15:28:48.001Z</time></trkpt><trkpt lat="43.55740746475238" lon="13.481833462109062"><ele>80.0</ele><time>2026-04-07T15:28:49.001Z</time></trkpt><trkpt lat="43.557355356246276" lon="13.481746130056385"><ele>80.0</ele><time>2026-04-07T15:28:50.001Z</time></trkpt><trkpt lat="43.55731106193757" lon="13.481662486567167"><ele>80.0</ele><time>2026-04-07T15:28:51.001Z</time></trkpt><trkpt lat="43.557266635157575" lon="13.481580818717312"><ele>80.0</ele><time>2026-04-07T15:28:52.001Z</time></trkpt><trkpt lat="43.55722651506735" lon="13.48150292998349"><ele>80.0</ele><time>2026-04-07T15:28:53.001Z</time></trkpt><trkpt lat="43.55717224780441" lon="13.481422122178536"><ele>80.0</ele><time>2026-04-07T15:28:54.001Z</time></trkpt><trkpt lat="43.55711872982155" lon="13.481353709586292"><ele>80.0</ele><time>2026-04-07T15:28:55.001Z</time></trkpt><trkpt lat="43.55705602714987" lon="13.48128847066286"><ele>80.0</ele><time>2026-04-07T15:28:56.001Z</time></trkpt><trkpt lat="43.55699159578005" lon="13.481237455083932"><ele>80.0</ele><time>2026-04-07T15:28:57.001Z</time></trkpt><trkpt lat="43.55693758685389" lon="13.481165164935385"><ele>80.0</ele><time>2026-04-07T15:28:58.001Z</time></trkpt><trkpt lat="43.55687011725531" lon="13.481107838295092"><ele>80.0</ele><time>2026-04-07T15:28:59.001Z</time></trkpt><trkpt lat="43.55679954661126" lon="13.481052024805098"><ele>78.33333333333334</ele><time>2026-04-07T15:29:00.001Z</time></trkpt><trkpt lat="43.55673860064326" lon="13.481007628378375"><ele>76.66666666666667</ele><time>2026-04-07T15:29:01.001Z</time></trkpt><trkpt lat="43.55666133215768" lon="13.48095267180527"><ele>75.0</ele><time>2026-04-07T15:29:02.001Z</time></trkpt><trkpt lat="43.55658113410811" lon="13.480895631623957"><ele>73.33333333333333</ele><time>2026-04-07T15:29:03.001Z</time></trkpt><trkpt lat="43.55650215938883" lon="13.480855501779732"><ele>71.66666666666666</ele><time>2026-04-07T15:29:04.001Z</time></trkpt><trkpt lat="43.556435310809555" lon="13.480804375720146"><ele>70.0</ele><time>2026-04-07T15:29:05.001Z</time></trkpt><trkpt lat="43.55636868236127" lon="13.480762231411418"><ele>70.0</ele><time>2026-04-07T15:29:06.001Z</time></trkpt><trkpt lat="43.556306868969514" lon="13.480709420188576"><ele>70.0</ele><time>2026-04-07T15:29:07.001Z</time></trkpt><trkpt lat="43.55624516801305" lon="13.48066887138691"><ele>70.0</ele><time>2026-04-07T15:29:08.001Z</time></trkpt><trkpt lat="43.55618542069228" lon="13.480626274165678"><ele>70.0</ele><time>2026-04-07T15:29:09.001Z</time></trkpt><trkpt lat="43.556126583697555" lon="13.48058139748141"><ele>70.0</ele><time>2026-04-07T15:29:10.001Z</time></trkpt><trkpt lat="43.55606879071132" lon="13.480533156639183"><ele>70.0</ele><time>2026-04-07T15:29:11.001Z</time></trkpt><trkpt lat="43.556007926079204" lon="13.48049290506791"><ele>70.0</ele><time>2026-04-07T15:29:12.001Z</time></trkpt><trkpt lat="43.55595100359026" lon="13.480450250068401"><ele>69.0</ele><time>2026-04-07T15:29:13.001Z</time></trkpt><trkpt lat="43.55589607587275" lon="13.480404649054943"><ele>68.0</ele><time>2026-04-07T15:29:14.001Z</time></trkpt><trkpt lat="43.55583687687291" lon="13.480362575685097"><ele>67.0</ele><time>2026-04-07T15:29:15.001Z</time></trkpt><trkpt lat="43.55574559135927" lon="13.480274045666777"><ele>66.0</ele><time>2026-04-07T15:29:17.001Z</time></trkpt><trkpt lat="43.55567238652894" lon="13.480236877558605"><ele>65.0</ele><time>2026-04-07T15:29:19.001Z</time></trkpt><trkpt lat="43.55560074530497" lon="13.480236361515562"><ele>64.0</ele><time>2026-04-07T15:29:56Z</time></trkpt><trkpt lat="43.55552623977237" lon="13.480322028025146"><ele>63.800000000000004</ele><time>2026-04-07T15:30:14Z</time></trkpt><trkpt lat="43.555459518247424" lon="13.480436992248388"><ele>63.60000000000001</ele><time>2026-04-07T15:30:16.001Z</time></trkpt><trkpt lat="43.555401085240156" lon="13.480516741721384"><ele>63.4</ele><time>2026-04-07T15:30:18.001Z</time></trkpt><trkpt lat="43.555338860278425" lon="13.48058848348673"><ele>63.2</ele><time>2026-04-07T15:30:21.001Z</time></trkpt><trkpt lat="43.55527505210827" lon="13.480518553728565"><ele>63.0</ele><time>2026-04-07T15:30:23.001Z</time></trkpt><trkpt lat="43.55516930740161" lon="13.480400757771797"><ele>62.333333333333336</ele><time>2026-04-07T15:30:25.001Z</time></trkpt><trkpt lat="43.55510187956013" lon="13.48033813040791"><ele>61.66666666666667</ele><time>2026-04-07T15:30:26.001Z</time></trkpt><trkpt lat="43.5550402020534" lon="13.480260062971738"><ele>61.0</ele><time>2026-04-07T15:30:27.001Z</time></trkpt><trkpt lat="43.554962370015126" lon="13.480221275212553"><ele>60.333333333333336</ele><time>2026-04-07T15:30:28.001Z</time></trkpt><trkpt lat="43.55488558598775" lon="13.480176242813052"><ele>59.66666666666667</ele><time>2026-04-07T15:30:29.001Z</time></trkpt><trkpt lat="43.5548224089446" lon="13.480130698854913"><ele>59.0</ele><time>2026-04-07T15:30:30.001Z</time></trkpt><trkpt lat="43.55476106447753" lon="13.480097152328133"><ele>59.0</ele><time>2026-04-07T15:30:31.001Z</time></trkpt><trkpt lat="43.55465482762476" lon="13.480037417340782"><ele>59.00000000000001</ele><time>2026-04-07T15:30:33.001Z</time></trkpt><trkpt lat="43.554558350864845" lon="13.479988748072861"><ele>59.00000000000001</ele><time>2026-04-07T15:30:35.001Z</time></trkpt><trkpt lat="43.55447572689812" lon="13.480019266742604"><ele>59.0</ele><time>2026-04-07T15:30:38.001Z</time></trkpt><trkpt lat="43.554434464395534" lon="13.480100985877865"><ele>59.0</ele><time>2026-04-07T15:30:40.001Z</time></trkpt><trkpt lat="43.554400126861175" lon="13.480207695586445"><ele>58.833333333333336</ele><time>2026-04-07T15:30:42.001Z</time></trkpt><trkpt lat="43.55436556370202" lon="13.480305216792752"><ele>58.66666666666667</ele><time>2026-04-07T15:30:44.001Z</time></trkpt><trkpt lat="43.554318800936464" lon="13.480384217534876"><ele>58.5</ele><time>2026-04-07T15:30:46.001Z</time></trkpt><trkpt lat="43.55429743151075" lon="13.48046810111153"><ele>58.33333333333333</ele><time>2026-04-07T15:30:49.001Z</time></trkpt><trkpt lat="43.554325273976694" lon="13.480366904822372"><ele>58.166666666666664</ele><time>2026-04-07T15:30:59.001Z</time></trkpt><trkpt lat="43.55436720681202" lon="13.480296545113061"><ele>58.0</ele><time>2026-04-07T15:31:00.001Z</time></trkpt><trkpt lat="43.554417644401" lon="13.480156052935532"><ele>58.0</ele><time>2026-04-07T15:31:02.001Z</time></trkpt><trkpt lat="43.5544672092124" lon="13.48004580437402"><ele>58.0</ele><time>2026-04-07T15:31:04.001Z</time></trkpt><trkpt lat="43.55454549675524" lon="13.47995457017894"><ele>58.0</ele><time>2026-04-07T15:31:07.001Z</time></trkpt><trkpt lat="43.554709167463656" lon="13.480086471304816"><ele>58.0</ele><time>2026-04-07T15:31:10.001Z</time></trkpt><trkpt lat="43.55476802713255" lon="13.480121872036273"><ele>58.166666666666664</ele><time>2026-04-07T15:31:11.001Z</time></trkpt><trkpt lat="43.554836043445285" lon="13.480162093579315"><ele>58.33333333333333</ele><time>2026-04-07T15:31:12.001Z</time></trkpt><trkpt lat="43.55490375275117" lon="13.48020387799467"><ele>58.5</ele><time>2026-04-07T15:31:13.001Z</time></trkpt><trkpt lat="43.55497165074441" lon="13.480246807963796"><ele>58.66666666666667</ele><time>2026-04-07T15:31:14.001Z</time></trkpt><trkpt lat="43.555049653954974" lon="13.480302519438615"><ele>58.833333333333336</ele><time>2026-04-07T15:31:15.001Z</time></trkpt><trkpt lat="43.55512493531034" lon="13.480360211377354"><ele>59.0</ele><time>2026-04-07T15:31:16.001Z</time></trkpt><trkpt lat="43.55519981567787" lon="13.480423101811322"><ele>59.42857142857143</ele><time>2026-04-07T15:31:17.001Z</time></trkpt><trkpt lat="43.55526684659666" lon="13.480491836723282"><ele>59.85714285714286</ele><time>2026-04-07T15:31:18.001Z</time></trkpt><trkpt lat="43.55531983419247" lon="13.480546041160554"><ele>60.28571428571429</ele><time>2026-04-07T15:31:19.001Z</time></trkpt><trkpt lat="43.555384733937174" lon="13.480583147366218"><ele>60.714285714285715</ele><time>2026-04-07T15:31:21.001Z</time></trkpt><trkpt lat="43.55544349713698" lon="13.480500680078197"><ele>61.14285714285715</ele><time>2026-04-07T15:31:23.001Z</time></trkpt><trkpt lat="43.555486381143275" lon="13.480412822692095"><ele>61.57142857142858</ele><time>2026-04-07T15:31:24.001Z</time></trkpt><trkpt lat="43.55552705050576" lon="13.480341429181783"><ele>62.0</ele><time>2026-04-07T15:31:25.001Z</time></trkpt><trkpt lat="43.555601160808585" lon="13.480250850418708"><ele>62.333333333333336</ele><time>2026-04-07T15:31:27.001Z</time></trkpt><trkpt lat="43.55562030278874" lon="13.48016612906291"><ele>62.66666666666667</ele><time>2026-04-07T15:31:30.001Z</time></trkpt><trkpt lat="43.55559374029468" lon="13.480075248340398"><ele>63.0</ele><time>2026-04-07T15:31:33.001Z</time></trkpt><trkpt lat="43.55558450333904" lon="13.479978234616913"><ele>63.33333333333333</ele><time>2026-04-07T15:31:37.001Z</time></trkpt><trkpt lat="43.55555102023986" lon="13.479839670845225"><ele>63.666666666666664</ele><time>2026-04-07T15:31:39.001Z</time></trkpt><trkpt lat="43.55549559899241" lon="13.479681414972637"><ele>64.0</ele><time>2026-04-07T15:31:41.001Z</time></trkpt><trkpt lat="43.555488512492005" lon="13.479587518212647"><ele>63.49999999999999</ele><time>2026-04-07T15:31:42.001Z</time></trkpt><trkpt lat="43.55546339223685" lon="13.479486496479852"><ele>63.0</ele><time>2026-04-07T15:31:43.001Z</time></trkpt><trkpt lat="43.555441129640855" lon="13.479396966807169"><ele>62.5</ele><time>2026-04-07T15:31:44.001Z</time></trkpt><trkpt lat="43.55539501304907" lon="13.479211442524287"><ele>62.0</ele><time>2026-04-07T15:31:46.001Z</time></trkpt><trkpt lat="43.555369772116705" lon="13.479113228119495"><ele>61.49999999999999</ele><time>2026-04-07T15:31:47.001Z</time></trkpt><trkpt lat="43.555346874928084" lon="13.479025852936525"><ele>61.0</ele><time>2026-04-07T15:31:48.001Z</time></trkpt><trkpt lat="43.5553217951812" lon="13.478930149055662"><ele>60.99999999999999</ele><time>2026-04-07T15:31:49.001Z</time></trkpt><trkpt lat="43.55528787730304" lon="13.478840008601834"><ele>61.0</ele><time>2026-04-07T15:31:50.001Z</time></trkpt><trkpt lat="43.555266037405374" lon="13.478755273590632"><ele>61.0</ele><time>2026-04-07T15:31:51.001Z</time></trkpt><trkpt lat="43.55524264174692" lon="13.478663159794198"><ele>61.0</ele><time>2026-04-07T15:31:52.001Z</time></trkpt><trkpt lat="43.555225385813166" lon="13.478497941080105"><ele>60.99999999999999</ele><time>2026-04-07T15:31:54.001Z</time></trkpt><trkpt lat="43.55521676180751" lon="13.478355855534314"><ele>61.0</ele><time>2026-04-07T15:31:56.001Z</time></trkpt><trkpt lat="43.555237706427114" lon="13.478233649300975"><ele>61.0</ele><time>2026-04-07T15:31:58.001Z</time></trkpt><trkpt lat="43.555285088878186" lon="13.478113423397474"><ele>60.99999999999999</ele><time>2026-04-07T15:32:00.001Z</time></trkpt><trkpt lat="43.55533269854742" lon="13.478041427041886"><ele>60.99999999999999</ele><time>2026-04-07T15:32:04.001Z</time></trkpt><trkpt lat="43.555401385148635" lon="13.477942062829358"><ele>61.0</ele><time>2026-04-07T15:32:08.001Z</time></trkpt><trkpt lat="43.55548783378647" lon="13.477826400806387"><ele>61.0</ele><time>2026-04-07T15:32:10.001Z</time></trkpt><trkpt lat="43.5555399462515" lon="13.47775926943186"><ele>61.4</ele><time>2026-04-07T15:32:11.001Z</time></trkpt><trkpt lat="43.5556034535352" lon="13.477685612957774"><ele>61.8</ele><time>2026-04-07T15:32:12.001Z</time></trkpt><trkpt lat="43.555653333790815" lon="13.47761651353012"><ele>62.199999999999996</ele><time>2026-04-07T15:32:13.001Z</time></trkpt><trkpt lat="43.55573782135385" lon="13.477507525114687"><ele>62.599999999999994</ele><time>2026-04-07T15:32:15.001Z</time></trkpt><trkpt lat="43.55577595058894" lon="13.477414607153515"><ele>63.0</ele><time>2026-04-07T15:32:17.001Z</time></trkpt><trkpt lat="43.555703768767465" lon="13.477304111707928"><ele>63.0</ele><time>2026-04-07T15:32:20.001Z</time></trkpt><trkpt lat="43.55561009096854" lon="13.477231931970099"><ele>63.0</ele><time>2026-04-07T15:32:22.001Z</time></trkpt><trkpt lat="43.55552215882646" lon="13.477157598820396"><ele>63.0</ele><time>2026-04-07T15:32:24.021Z</time></trkpt><trkpt lat="43.55543509228051" lon="13.477064553561688"><ele>63.0</ele><time>2026-04-07T15:32:26.022Z</time></trkpt><trkpt lat="43.555344711109115" lon="13.47691617841956"><ele>62.25</ele><time>2026-04-07T15:32:28.001Z</time></trkpt><trkpt lat="43.55529744914324" lon="13.476855103498691"><ele>61.5</ele><time>2026-04-07T15:32:29.001Z</time></trkpt><trkpt lat="43.5551067710206" lon="13.477157779644374"><ele>60.75</ele><time>2026-04-07T15:32:42.001Z</time></trkpt><trkpt lat="43.55505923593554" lon="13.477229425983772"><ele>60.0</ele><time>2026-04-07T15:32:43.001Z</time></trkpt><trkpt lat="43.55499416897076" lon="13.477313142532664"><ele>59.8</ele><time>2026-04-07T15:32:44.001Z</time></trkpt><trkpt lat="43.55492276702505" lon="13.477405475138667"><ele>59.6</ele><time>2026-04-07T15:32:45.001Z</time></trkpt><trkpt lat="43.55483770546647" lon="13.477509812498859"><ele>59.400000000000006</ele><time>2026-04-07T15:32:46.001Z</time></trkpt><trkpt lat="43.55475642720682" lon="13.47761498698302"><ele>59.2</ele><time>2026-04-07T15:32:47.001Z</time></trkpt><trkpt lat="43.55467193899386" lon="13.477725257152803"><ele>59.0</ele><time>2026-04-07T15:32:48.001Z</time></trkpt><trkpt lat="43.554591057607446" lon="13.477825647804352"><ele>58.400000000000006</ele><time>2026-04-07T15:32:49.001Z</time></trkpt><trkpt lat="43.55451344889799" lon="13.477917322210901"><ele>57.800000000000004</ele><time>2026-04-07T15:32:50.001Z</time></trkpt><trkpt lat="43.55444646206803" lon="13.478002618840593"><ele>57.199999999999996</ele><time>2026-04-07T15:32:51.001Z</time></trkpt><trkpt lat="43.55437688236714" lon="13.478086523616453"><ele>56.599999999999994</ele><time>2026-04-07T15:32:52.001Z</time></trkpt><trkpt lat="43.554311858373495" lon="13.478159174619654"><ele>56.0</ele><time>2026-04-07T15:32:53.001Z</time></trkpt><trkpt lat="43.55423142141899" lon="13.47823994335715"><ele>56.00000000000001</ele><time>2026-04-07T15:32:54.001Z</time></trkpt><trkpt lat="43.554154022979404" lon="13.478316839234555"><ele>56.0</ele><time>2026-04-07T15:32:55.001Z</time></trkpt><trkpt lat="43.55409150619547" lon="13.478384475903397"><ele>56.0</ele><time>2026-04-07T15:32:56.001Z</time></trkpt><trkpt lat="43.55401523522549" lon="13.478456487875555"><ele>56.0</ele><time>2026-04-07T15:32:57.001Z</time></trkpt><trkpt lat="43.553955131896274" lon="13.478519039467887"><ele>56.00000000000001</ele><time>2026-04-07T15:32:58.001Z</time></trkpt><trkpt lat="43.553899243757" lon="13.478572724928439"><ele>56.0</ele><time>2026-04-07T15:32:59.001Z</time></trkpt><trkpt lat="43.553845908549626" lon="13.478619328323036"><ele>56.0</ele><time>2026-04-07T15:33:00.001Z</time></trkpt><trkpt lat="43.55375280237158" lon="13.478709725950385"><ele>55.99999999999999</ele><time>2026-04-07T15:33:02.001Z</time></trkpt><trkpt lat="43.55367034263899" lon="13.478793119266676"><ele>55.99999999999999</ele><time>2026-04-07T15:33:04.001Z</time></trkpt><trkpt lat="43.553587528492386" lon="13.478842413076553"><ele>56.0</ele><time>2026-04-07T15:33:06.001Z</time></trkpt><trkpt lat="43.55348876973015" lon="13.47891463206774"><ele>56.0</ele><time>2026-04-07T15:33:08.001Z</time></trkpt><trkpt lat="43.553433069555076" lon="13.478970626504495"><ele>56.16666666666667</ele><time>2026-04-07T15:33:09.001Z</time></trkpt><trkpt lat="43.553379154316836" lon="13.479027826545284"><ele>56.333333333333336</ele><time>2026-04-07T15:33:10.001Z</time></trkpt><trkpt lat="43.55332583281663" lon="13.479087106492601"><ele>56.5</ele><time>2026-04-07T15:33:11.001Z</time></trkpt><trkpt lat="43.55327730508554" lon="13.479146653667954"><ele>56.66666666666667</ele><time>2026-04-07T15:33:12.001Z</time></trkpt><trkpt lat="43.55319885537689" lon="13.479239226003212"><ele>56.833333333333336</ele><time>2026-04-07T15:33:14.001Z</time></trkpt><trkpt lat="43.553128153857216" lon="13.479336429099188"><ele>57.0</ele><time>2026-04-07T15:33:16.001Z</time></trkpt><trkpt lat="43.55307415922451" lon="13.479416462252043"><ele>57.0</ele><time>2026-04-07T15:33:18.001Z</time></trkpt><trkpt lat="43.553019279903545" lon="13.479498037420324"><ele>57.0</ele><time>2026-04-07T15:33:21.001Z</time></trkpt><trkpt lat="43.552945830344036" lon="13.479566874626109"><ele>57.0</ele><time>2026-04-07T15:33:24.001Z</time></trkpt><trkpt lat="43.55285934341903" lon="13.479621382771034"><ele>57.0</ele><time>2026-04-07T15:33:27.001Z</time></trkpt><trkpt lat="43.55279360596583" lon="13.479620696155887"><ele>57.0</ele><time>2026-04-07T15:33:30.001Z</time></trkpt><trkpt lat="43.552783723887366" lon="13.479529392343414"><ele>57.0</ele><time>2026-04-07T15:33:34.001Z</time></trkpt><trkpt lat="43.55287452932309" lon="13.479523311855873"><ele>57.0</ele><time>2026-04-07T15:33:37.001Z</time></trkpt><trkpt lat="43.55294073616821" lon="13.479564034934011"><ele>57.0</ele><time>2026-04-07T15:33:39.001Z</time></trkpt><trkpt lat="43.553005660629715" lon="13.479522841502215"><ele>57.0</ele><time>2026-04-07T15:33:41.001Z</time></trkpt><trkpt lat="43.55307614306741" lon="13.479442210057298"><ele>57.0</ele><time>2026-04-07T15:33:43.001Z</time></trkpt><trkpt lat="43.55314061309578" lon="13.479337144883585"><ele>57.0</ele><time>2026-04-07T15:33:45.001Z</time></trkpt><trkpt lat="43.55320254887636" lon="13.479246731810303"><ele>57.0</ele><time>2026-04-07T15:33:46.001Z</time></trkpt><trkpt lat="43.55326771171714" lon="13.479167359312468"><ele>57.0</ele><time>2026-04-07T15:33:47.001Z</time></trkpt><trkpt lat="43.55333805956526" lon="13.479087090524777"><ele>57.0</ele><time>2026-04-07T15:33:48.001Z</time></trkpt><trkpt lat="43.55341912328318" lon="13.47899057623752"><ele>57.0</ele><time>2026-04-07T15:33:49.001Z</time></trkpt><trkpt lat="43.55350167246991" lon="13.478917766199137"><ele>57.0</ele><time>2026-04-07T15:33:50.001Z</time></trkpt><trkpt lat="43.55358134559313" lon="13.478850739224235"><ele>57.0</ele><time>2026-04-07T15:33:51.001Z</time></trkpt><trkpt lat="43.55364497551067" lon="13.478803934490887"><ele>56.8</ele><time>2026-04-07T15:33:52.001Z</time></trkpt><trkpt lat="43.55370651546923" lon="13.478759014859689"><ele>56.6</ele><time>2026-04-07T15:33:53.001Z</time></trkpt><trkpt lat="43.553814531405635" lon="13.47866521983841"><ele>56.39999999999999</ele><time>2026-04-07T15:33:55Z</time></trkpt><trkpt lat="43.55390942933144" lon="13.478576620708365"><ele>56.199999999999996</ele><time>2026-04-07T15:33:57Z</time></trkpt><trkpt lat="43.553971192114886" lon="13.478511353949697"><ele>56.0</ele><time>2026-04-07T15:33:58Z</time></trkpt><trkpt lat="43.554040547204565" lon="13.478444821951404"><ele>56.0</ele><time>2026-04-07T15:33:59Z</time></trkpt><trkpt lat="43.55410744782152" lon="13.478376351132242"><ele>55.99999999999999</ele><time>2026-04-07T15:34:00Z</time></trkpt><trkpt lat="43.55418910913491" lon="13.478288778305524"><ele>55.99999999999999</ele><time>2026-04-07T15:34:01Z</time></trkpt><trkpt lat="43.55427007142108" lon="13.478207856176265"><ele>56.0</ele><time>2026-04-07T15:34:02Z</time></trkpt><trkpt lat="43.554345349341006" lon="13.478127906196232"><ele>56.0</ele><time>2026-04-07T15:34:03Z</time></trkpt><trkpt lat="43.55442674782179" lon="13.478040980749324"><ele>56.0</ele><time>2026-04-07T15:34:04Z</time></trkpt><trkpt lat="43.5545037832059" lon="13.47794567011363"><ele>56.0</ele><time>2026-04-07T15:34:05Z</time></trkpt><trkpt lat="43.5545965765787" lon="13.477826078867958"><ele>56.0</ele><time>2026-04-07T15:34:06Z</time></trkpt><trkpt lat="43.5546845008441" lon="13.477716531744731"><ele>56.0</ele><time>2026-04-07T15:34:07Z</time></trkpt><trkpt lat="43.55476575389004" lon="13.477608982390638"><ele>56.599999999999994</ele><time>2026-04-07T15:34:08Z</time></trkpt><trkpt lat="43.55484668777771" lon="13.47750721329283"><ele>57.199999999999996</ele><time>2026-04-07T15:34:09Z</time></trkpt><trkpt lat="43.55492260675059" lon="13.477405412733745"><ele>57.800000000000004</ele><time>2026-04-07T15:34:10Z</time></trkpt><trkpt lat="43.55499394809036" lon="13.477312698990236"><ele>58.400000000000006</ele><time>2026-04-07T15:34:11Z</time></trkpt><trkpt lat="43.55505899823004" lon="13.477231468680934"><ele>59.0</ele><time>2026-04-07T15:34:12Z</time></trkpt><trkpt lat="43.555116041321256" lon="13.47715454806384"><ele>59.2</ele><time>2026-04-07T15:34:13Z</time></trkpt><trkpt lat="43.555176849516826" lon="13.477010479854952"><ele>59.400000000000006</ele><time>2026-04-07T15:34:15Z</time></trkpt><trkpt lat="43.555209814210535" lon="13.476895434967016"><ele>59.6</ele><time>2026-04-07T15:34:17Z</time></trkpt><trkpt lat="43.55525752014751" lon="13.47679224703189"><ele>59.8</ele><time>2026-04-07T15:34:25Z</time></trkpt><trkpt lat="43.5553244685379" lon="13.476680929471035"><ele>60.0</ele><time>2026-04-07T15:34:27Z</time></trkpt><trkpt lat="43.555383287884126" lon="13.476562301273733"><ele>60.0</ele><time>2026-04-07T15:34:29Z</time></trkpt><trkpt lat="43.55543791983214" lon="13.476462248851586"><ele>60.0</ele><time>2026-04-07T15:34:31Z</time></trkpt><trkpt lat="43.55548959304151" lon="13.476358516518257"><ele>60.0</ele><time>2026-04-07T15:34:33Z</time></trkpt><trkpt lat="43.555545080282144" lon="13.47624087057339"><ele>60.0</ele><time>2026-04-07T15:34:35Z</time></trkpt><trkpt lat="43.55559292113785" lon="13.476128313412161"><ele>60.0</ele><time>2026-04-07T15:34:37Z</time></trkpt><trkpt lat="43.55564193418985" lon="13.475992987158707"><ele>60.0</ele><time>2026-04-07T15:34:39Z</time></trkpt><trkpt lat="43.55569019068032" lon="13.475851094816225"><ele>60.0</ele><time>2026-04-07T15:34:41Z</time></trkpt><trkpt lat="43.5557365972946" lon="13.475709171935264"><ele>60.0</ele><time>2026-04-07T15:34:43Z</time></trkpt><trkpt lat="43.55578133900103" lon="13.475586178278261"><ele>60.0</ele><time>2026-04-07T15:34:45Z</time></trkpt><trkpt lat="43.55583960455238" lon="13.4754744996313"><ele>60.0</ele><time>2026-04-07T15:34:47Z</time></trkpt><trkpt lat="43.55590170717445" lon="13.475344642451303"><ele>60.0</ele><time>2026-04-07T15:34:49Z</time></trkpt><trkpt lat="43.55596186011783" lon="13.475220665075048"><ele>60.0</ele><time>2026-04-07T15:34:51Z</time></trkpt><trkpt lat="43.55601788360177" lon="13.475093431840167"><ele>60.0</ele><time>2026-04-07T15:34:53.001Z</time></trkpt><trkpt lat="43.55607344944377" lon="13.474961108273215"><ele>60.0</ele><time>2026-04-07T15:34:55.001Z</time></trkpt><trkpt lat="43.55613715246004" lon="13.474825588567516"><ele>60.0</ele><time>2026-04-07T15:34:57.001Z</time></trkpt><trkpt lat="43.55620434924731" lon="13.47469165907183"><ele>60.4</ele><time>2026-04-07T15:34:59.001Z</time></trkpt><trkpt lat="43.55628554619466" lon="13.474555173752464"><ele>60.8</ele><time>2026-04-07T15:35:01.001Z</time></trkpt><trkpt lat="43.55633120062316" lon="13.47448557537064"><ele>61.2</ele><time>2026-04-07T15:35:02.001Z</time></trkpt><trkpt lat="43.55637334228316" lon="13.474417608223876"><ele>61.6</ele><time>2026-04-07T15:35:03.001Z</time></trkpt><trkpt lat="43.55641681671555" lon="13.474350221571553"><ele>62.0</ele><time>2026-04-07T15:35:04.001Z</time></trkpt><trkpt lat="43.5564994241692" lon="13.47421852904309"><ele>62.00000000000001</ele><time>2026-04-07T15:35:06.001Z</time></trkpt><trkpt lat="43.55657195843503" lon="13.474069490596"><ele>62.0</ele><time>2026-04-07T15:35:08.001Z</time></trkpt><trkpt lat="43.55660573712775" lon="13.473990851856712"><ele>62.0</ele><time>2026-04-07T15:35:09.001Z</time></trkpt><trkpt lat="43.55664628694374" lon="13.473917443515907"><ele>62.0</ele><time>2026-04-07T15:35:10.001Z</time></trkpt><trkpt lat="43.556681587627246" lon="13.473839666566851"><ele>62.00000000000001</ele><time>2026-04-07T15:35:11.001Z</time></trkpt><trkpt lat="43.55671641324019" lon="13.473762380107301"><ele>62.0</ele><time>2026-04-07T15:35:12.001Z</time></trkpt><trkpt lat="43.55678503140994" lon="13.47361179912795"><ele>62.16666666666667</ele><time>2026-04-07T15:35:14.001Z</time></trkpt><trkpt lat="43.556846961270175" lon="13.473478152227122"><ele>62.333333333333336</ele><time>2026-04-07T15:35:16.001Z</time></trkpt><trkpt lat="43.5568822775003" lon="13.473405941959696"><ele>62.5</ele><time>2026-04-07T15:35:17.001Z</time></trkpt><trkpt lat="43.55692490269064" lon="13.473336004940572"><ele>62.66666666666667</ele><time>2026-04-07T15:35:18.001Z</time></trkpt><trkpt lat="43.556965597353155" lon="13.473267426195493"><ele>62.833333333333336</ele><time>2026-04-07T15:35:19.001Z</time></trkpt><trkpt lat="43.557010522157924" lon="13.47319396536998"><ele>63.0</ele><time>2026-04-07T15:35:20.001Z</time></trkpt><trkpt lat="43.55705030062551" lon="13.473110126300666"><ele>62.666666666666664</ele><time>2026-04-07T15:35:21.001Z</time></trkpt><trkpt lat="43.55709960302441" lon="13.473037514693845"><ele>62.33333333333333</ele><time>2026-04-07T15:35:22.001Z</time></trkpt><trkpt lat="43.5571513503233" lon="13.472975192419607"><ele>62.0</ele><time>2026-04-07T15:35:23.001Z</time></trkpt><trkpt lat="43.5572463867218" lon="13.47289362589103"><ele>61.666666666666664</ele><time>2026-04-07T15:35:25.001Z</time></trkpt><trkpt lat="43.55735014197838" lon="13.472863142881817"><ele>61.33333333333333</ele><time>2026-04-07T15:35:27.001Z</time></trkpt><trkpt lat="43.55741813646155" lon="13.472858644141"><ele>61.0</ele><time>2026-04-07T15:35:28.001Z</time></trkpt><trkpt lat="43.55750427539059" lon="13.47286098379673"><ele>61.0</ele><time>2026-04-07T15:35:30.001Z</time></trkpt><trkpt lat="43.557597484006465" lon="13.47283294046439"><ele>60.99999999999999</ele><time>2026-04-07T15:35:35.001Z</time></trkpt><trkpt lat="43.55766782160501" lon="13.472675663768392"><ele>60.99999999999999</ele><time>2026-04-07T15:35:37.001Z</time></trkpt><trkpt lat="43.557719005315626" lon="13.472567002656065"><ele>61.0</ele><time>2026-04-07T15:35:38.001Z</time></trkpt><trkpt lat="43.557776428631556" lon="13.472452703769278"><ele>61.0</ele><time>2026-04-07T15:35:39.001Z</time></trkpt><trkpt lat="43.55784323645841" lon="13.472322601357448"><ele>61.25</ele><time>2026-04-07T15:35:40.001Z</time></trkpt><trkpt lat="43.557918657792385" lon="13.472173194300739"><ele>61.5</ele><time>2026-04-07T15:35:41.001Z</time></trkpt><trkpt lat="43.55800151064635" lon="13.4720177255193"><ele>61.75</ele><time>2026-04-07T15:35:42.001Z</time></trkpt><trkpt lat="43.558090797470264" lon="13.471850998313194"><ele>62.0</ele><time>2026-04-07T15:35:43.001Z</time></trkpt><trkpt lat="43.55816682467658" lon="13.47169892377343"><ele>62.25</ele><time>2026-04-07T15:35:44.001Z</time></trkpt><trkpt lat="43.5582414397981" lon="13.471552741988772"><ele>62.5</ele><time>2026-04-07T15:35:45.001Z</time></trkpt><trkpt lat="43.558304715373005" lon="13.47142170002601"><ele>62.75</ele><time>2026-04-07T15:35:46.001Z</time></trkpt><trkpt lat="43.558356926576835" lon="13.471292169368308"><ele>63.0</ele><time>2026-04-07T15:35:47.001Z</time></trkpt><trkpt lat="43.55841592959882" lon="13.471145699208348"><ele>63.25</ele><time>2026-04-07T15:35:48.001Z</time></trkpt><trkpt lat="43.558486455347904" lon="13.470996185944351"><ele>63.5</ele><time>2026-04-07T15:35:49.001Z</time></trkpt><trkpt lat="43.55856884670354" lon="13.47084949683971"><ele>63.75</ele><time>2026-04-07T15:35:50.001Z</time></trkpt><trkpt lat="43.55865392365035" lon="13.470709582189688"><ele>64.0</ele><time>2026-04-07T15:35:51.001Z</time></trkpt><trkpt lat="43.558757655893785" lon="13.470549607512789"><ele>64.0</ele><time>2026-04-07T15:35:52.001Z</time></trkpt><trkpt lat="43.558858056588335" lon="13.470387698247343"><ele>64.0</ele><time>2026-04-07T15:35:53.001Z</time></trkpt><trkpt lat="43.558944462414736" lon="13.470234220863857"><ele>64.0</ele><time>2026-04-07T15:35:54.001Z</time></trkpt><trkpt lat="43.55901480991598" lon="13.470098224342715"><ele>64.0</ele><time>2026-04-07T15:35:55.001Z</time></trkpt><trkpt lat="43.55908058332018" lon="13.469967794426774"><ele>64.0</ele><time>2026-04-07T15:35:56.001Z</time></trkpt><trkpt lat="43.55914254614566" lon="13.469853719640808"><ele>64.0</ele><time>2026-04-07T15:35:57Z</time></trkpt><trkpt lat="43.55919029670274" lon="13.469754738882097"><ele>64.0</ele><time>2026-04-07T15:35:58Z</time></trkpt><trkpt lat="43.55923731149703" lon="13.469668536756089"><ele>64.0</ele><time>2026-04-07T15:36:00Z</time></trkpt><trkpt lat="43.559284631795094" lon="13.469573091080274"><ele>64.0</ele><time>2026-04-07T15:36:02Z</time></trkpt><trkpt lat="43.55937429532151" lon="13.469404331928535"><ele>64.25</ele><time>2026-04-07T15:36:04Z</time></trkpt><trkpt lat="43.55944404351275" lon="13.469270991547518"><ele>64.5</ele><time>2026-04-07T15:36:05Z</time></trkpt><trkpt lat="43.55952108136762" lon="13.46911892521074"><ele>64.75</ele><time>2026-04-07T15:36:06Z</time></trkpt><trkpt lat="43.559610051164256" lon="13.468944373341936"><ele>65.0</ele><time>2026-04-07T15:36:07Z</time></trkpt><trkpt lat="43.55970453009716" lon="13.468756257114082"><ele>65.66666666666667</ele><time>2026-04-07T15:36:08Z</time></trkpt><trkpt lat="43.55980391127502" lon="13.468566351527246"><ele>66.33333333333333</ele><time>2026-04-07T15:36:09Z</time></trkpt><trkpt lat="43.559906846902535" lon="13.468375251771551"><ele>67.0</ele><time>2026-04-07T15:36:10Z</time></trkpt><trkpt lat="43.56001973361967" lon="13.468165338356997"><ele>67.0</ele><time>2026-04-07T15:36:11Z</time></trkpt><trkpt lat="43.56011849106761" lon="13.46797015649877"><ele>67.0</ele><time>2026-04-07T15:36:12Z</time></trkpt><trkpt lat="43.56021752749799" lon="13.467788909087805"><ele>67.0</ele><time>2026-04-07T15:36:13Z</time></trkpt><trkpt lat="43.56031745299423" lon="13.467608757579912"><ele>68.0</ele><time>2026-04-07T15:36:14Z</time></trkpt><trkpt lat="43.56042660030281" lon="13.467430009362863"><ele>69.0</ele><time>2026-04-07T15:36:15Z</time></trkpt><trkpt lat="43.56051836799381" lon="13.467236997896395"><ele>70.0</ele><time>2026-04-07T15:36:16Z</time></trkpt><trkpt lat="43.56061213457953" lon="13.467056624560916"><ele>70.0</ele><time>2026-04-07T15:36:17Z</time></trkpt><trkpt lat="43.56070848572012" lon="13.466871449131466"><ele>70.0</ele><time>2026-04-07T15:36:18Z</time></trkpt><trkpt lat="43.5608093341599" lon="13.466679950852285"><ele>70.0</ele><time>2026-04-07T15:36:19Z</time></trkpt><trkpt lat="43.560909577521535" lon="13.466484689769977"><ele>70.0</ele><time>2026-04-07T15:36:20Z</time></trkpt><trkpt lat="43.561009821527996" lon="13.466287136839735"><ele>70.0</ele><time>2026-04-07T15:36:21Z</time></trkpt><trkpt lat="43.56109663364706" lon="13.466113555216346"><ele>70.0</ele><time>2026-04-07T15:36:22Z</time></trkpt><trkpt lat="43.561182367287735" lon="13.465950681050764"><ele>70.75</ele><time>2026-04-07T15:36:23Z</time></trkpt><trkpt lat="43.56126115948535" lon="13.465797559648006"><ele>71.5</ele><time>2026-04-07T15:36:24Z</time></trkpt><trkpt lat="43.56133805763966" lon="13.465645424837993"><ele>72.25</ele><time>2026-04-07T15:36:25Z</time></trkpt><trkpt lat="43.56141606200037" lon="13.465503282042146"><ele>73.0</ele><time>2026-04-07T15:36:26Z</time></trkpt><trkpt lat="43.561496684876154" lon="13.465359281035397"><ele>73.0</ele><time>2026-04-07T15:36:27Z</time></trkpt><trkpt lat="43.56157756783576" lon="13.465222114304208"><ele>73.0</ele><time>2026-04-07T15:36:28Z</time></trkpt><trkpt lat="43.56165517276922" lon="13.465092910097589"><ele>73.0</ele><time>2026-04-07T15:36:29Z</time></trkpt><trkpt lat="43.561730501610974" lon="13.464976450604002"><ele>73.0</ele><time>2026-04-07T15:36:30Z</time></trkpt><trkpt lat="43.56179944355406" lon="13.464874911600827"><ele>73.0</ele><time>2026-04-07T15:36:31Z</time></trkpt><trkpt lat="43.56186149898489" lon="13.464785165170133"><ele>73.0</ele><time>2026-04-07T15:36:32Z</time></trkpt><trkpt lat="43.56191498497292" lon="13.464711373109576"><ele>73.0</ele><time>2026-04-07T15:36:33Z</time></trkpt><trkpt lat="43.561982601384166" lon="13.464605979205936"><ele>73.0</ele><time>2026-04-07T15:36:35Z</time></trkpt><trkpt lat="43.56197676079836" lon="13.464502515622497"><ele>73.0</ele><time>2026-04-07T15:36:42Z</time></trkpt><trkpt lat="43.56186745400924" lon="13.464412742116023"><ele>72.8</ele><time>2026-04-07T15:36:44Z</time></trkpt><trkpt lat="43.5617945463787" lon="13.464329496354091"><ele>72.6</ele><time>2026-04-07T15:36:45Z</time></trkpt><trkpt lat="43.56171519053272" lon="13.464263385286523"><ele>72.4</ele><time>2026-04-07T15:36:46Z</time></trkpt><trkpt lat="43.56163345359856" lon="13.464195550628318"><ele>72.2</ele><time>2026-04-07T15:36:47Z</time></trkpt><trkpt lat="43.561552747484704" lon="13.464133224168366"><ele>72.0</ele><time>2026-04-07T15:36:48Z</time></trkpt><trkpt lat="43.56148172113956" lon="13.464081084653511"><ele>72.0</ele><time>2026-04-07T15:36:49Z</time></trkpt><trkpt lat="43.561411863021576" lon="13.464053306937075"><ele>72.0</ele><time>2026-04-07T15:36:50Z</time></trkpt><trkpt lat="43.56133857353235" lon="13.463990637886281"><ele>72.0</ele><time>2026-04-07T15:36:51Z</time></trkpt><trkpt lat="43.56129120407973" lon="13.463923998248868"><ele>72.0</ele><time>2026-04-07T15:36:52Z</time></trkpt><trkpt lat="43.56125056823734" lon="13.463842324511978"><ele>72.0</ele><time>2026-04-07T15:36:54Z</time></trkpt><trkpt lat="43.56131180203474" lon="13.463764711302161"><ele>72.0</ele><time>2026-04-07T15:36:57Z</time></trkpt><trkpt lat="43.561392029210104" lon="13.463626314412917"><ele>71.6</ele><time>2026-04-07T15:36:59Z</time></trkpt><trkpt lat="43.56147536451316" lon="13.463515350562886"><ele>71.2</ele><time>2026-04-07T15:37:00Z</time></trkpt><trkpt lat="43.56157109190877" lon="13.463386252799177"><ele>70.8</ele><time>2026-04-07T15:37:01Z</time></trkpt><trkpt lat="43.56164663475347" lon="13.463278842902204"><ele>70.4</ele><time>2026-04-07T15:37:02Z</time></trkpt><trkpt lat="43.56170704752383" lon="13.463191307649003"><ele>70.0</ele><time>2026-04-07T15:37:03Z</time></trkpt><trkpt lat="43.56176640496104" lon="13.463110415621442"><ele>70.0</ele><time>2026-04-07T15:37:04Z</time></trkpt><trkpt lat="43.561818959297305" lon="13.463040280924252"><ele>70.0</ele><time>2026-04-07T15:37:06Z</time></trkpt><trkpt lat="43.56176820105921" lon="13.462883408779827"><ele>70.0</ele><time>2026-04-07T15:37:14.001Z</time></trkpt><trkpt lat="43.56170306200526" lon="13.4627134949063"><ele>70.0</ele><time>2026-04-07T15:37:16.001Z</time></trkpt><trkpt lat="43.56166341390194" lon="13.462624380548831"><ele>70.0</ele><time>2026-04-07T15:37:17.001Z</time></trkpt><trkpt lat="43.56161389087691" lon="13.462526200739799"><ele>70.33333333333333</ele><time>2026-04-07T15:37:18.001Z</time></trkpt><trkpt lat="43.56155912032473" lon="13.462422056631912"><ele>70.66666666666666</ele><time>2026-04-07T15:37:19.001Z</time></trkpt><trkpt lat="43.56151750857242" lon="13.462349362473104"><ele>71.0</ele><time>2026-04-07T15:37:20.001Z</time></trkpt><trkpt lat="43.56149071874977" lon="13.462263604886063"><ele>71.33333333333333</ele><time>2026-04-07T15:37:21.001Z</time></trkpt><trkpt lat="43.561441389596204" lon="13.462134838372718"><ele>71.66666666666667</ele><time>2026-04-07T15:37:23.001Z</time></trkpt><trkpt lat="43.56141964938796" lon="13.462047966102269"><ele>72.0</ele><time>2026-04-07T15:37:25.001Z</time></trkpt><trkpt lat="43.5614531393982" lon="13.462169217383764"><ele>72.0</ele><time>2026-04-07T15:37:44.001Z</time></trkpt><trkpt lat="43.5615270505732" lon="13.462342933456783"><ele>72.0</ele><time>2026-04-07T15:37:46.001Z</time></trkpt><trkpt lat="43.561572860099005" lon="13.462429305832693"><ele>72.0</ele><time>2026-04-07T15:37:47.001Z</time></trkpt><trkpt lat="43.56161689172769" lon="13.46251813058829"><ele>72.0</ele><time>2026-04-07T15:37:48.001Z</time></trkpt><trkpt lat="43.561669382378255" lon="13.462661237995782"><ele>72.0</ele><time>2026-04-07T15:37:49.001Z</time></trkpt><trkpt lat="43.56173171107483" lon="13.462749684647907"><ele>72.0</ele><time>2026-04-07T15:37:50.001Z</time></trkpt><trkpt lat="43.56175328053424" lon="13.462860921864964"><ele>72.0</ele><time>2026-04-07T15:37:51.001Z</time></trkpt><trkpt lat="43.561773759120506" lon="13.462953268662949"><ele>72.0</ele><time>2026-04-07T15:37:52.001Z</time></trkpt><trkpt lat="43.56200929024753" lon="13.46280706693602"><ele>72.0</ele><time>2026-04-07T15:37:59.001Z</time></trkpt><trkpt lat="43.562104645863094" lon="13.462688894772556"><ele>72.0</ele><time>2026-04-07T15:38:00.001Z</time></trkpt><trkpt lat="43.56219649273462" lon="13.462571263041152"><ele>72.0</ele><time>2026-04-07T15:38:01.001Z</time></trkpt><trkpt lat="43.56229965800899" lon="13.462439135372303"><ele>72.0</ele><time>2026-04-07T15:38:02.001Z</time></trkpt><trkpt lat="43.562407351052606" lon="13.46229479250769"><ele>72.0</ele><time>2026-04-07T15:38:03Z</time></trkpt><trkpt lat="43.56251962083433" lon="13.462138178937133"><ele>72.25</ele><time>2026-04-07T15:38:04Z</time></trkpt><trkpt lat="43.56261890407295" lon="13.461998685640637"><ele>72.5</ele><time>2026-04-07T15:38:05Z</time></trkpt><trkpt lat="43.562724585629304" lon="13.461857212512763"><ele>72.75</ele><time>2026-04-07T15:38:06Z</time></trkpt><trkpt lat="43.56282500595895" lon="13.461725523999997"><ele>73.0</ele><time>2026-04-07T15:38:07Z</time></trkpt><trkpt lat="43.562917988960834" lon="13.461603588193313"><ele>73.0</ele><time>2026-04-07T15:38:08Z</time></trkpt><trkpt lat="43.56300305352368" lon="13.46149016277213"><ele>73.0</ele><time>2026-04-07T15:38:09Z</time></trkpt><trkpt lat="43.56308206478458" lon="13.46137937034483"><ele>73.0</ele><time>2026-04-07T15:38:10Z</time></trkpt><trkpt lat="43.56315273568851" lon="13.461268406926033"><ele>73.0</ele><time>2026-04-07T15:38:11Z</time></trkpt><trkpt lat="43.56320907917699" lon="13.461163992180705"><ele>73.0</ele><time>2026-04-07T15:38:12Z</time></trkpt><trkpt lat="43.56324874474975" lon="13.461058149615043"><ele>73.4</ele><time>2026-04-07T15:38:13Z</time></trkpt><trkpt lat="43.56329684718099" lon="13.460947157069732"><ele>73.8</ele><time>2026-04-07T15:38:15Z</time></trkpt><trkpt lat="43.56334270416424" lon="13.460862681749534"><ele>74.2</ele><time>2026-04-07T15:38:19Z</time></trkpt><trkpt lat="43.5634179507045" lon="13.46078281330634"><ele>74.6</ele><time>2026-04-07T15:38:21Z</time></trkpt><trkpt lat="43.56345645694529" lon="13.46065151206336"><ele>75.0</ele><time>2026-04-07T15:38:23Z</time></trkpt><trkpt lat="43.563458467511126" lon="13.460521571926876"><ele>75.16666666666667</ele><time>2026-04-07T15:38:25Z</time></trkpt><trkpt lat="43.563473127089374" lon="13.460412940078953"><ele>75.33333333333333</ele><time>2026-04-07T15:38:26Z</time></trkpt><trkpt lat="43.56347211536818" lon="13.460266484695406"><ele>75.5</ele><time>2026-04-07T15:38:27Z</time></trkpt><trkpt lat="43.56347121890893" lon="13.460136715237457"><ele>75.66666666666666</ele><time>2026-04-07T15:38:28Z</time></trkpt><trkpt lat="43.56346971811965" lon="13.460030255320692"><ele>75.83333333333333</ele><time>2026-04-07T15:38:29Z</time></trkpt><trkpt lat="43.56346626591886" lon="13.45994244432592"><ele>76.0</ele><time>2026-04-07T15:38:30Z</time></trkpt><trkpt lat="43.56345848155418" lon="13.459856200099596"><ele>76.0</ele><time>2026-04-07T15:38:31Z</time></trkpt><trkpt lat="43.56343775664841" lon="13.45970861523788"><ele>76.0</ele><time>2026-04-07T15:38:33Z</time></trkpt><trkpt lat="43.563372087071386" lon="13.45955284732953"><ele>76.0</ele><time>2026-04-07T15:38:35Z</time></trkpt><trkpt lat="43.56331766273745" lon="13.4594755193012"><ele>76.0</ele><time>2026-04-07T15:38:36Z</time></trkpt><trkpt lat="43.56324943367385" lon="13.45937891393318"><ele>76.0</ele><time>2026-04-07T15:38:37Z</time></trkpt><trkpt lat="43.563196212020195" lon="13.459306394499825"><ele>77.5</ele><time>2026-04-07T15:38:38Z</time></trkpt><trkpt lat="43.56313955547097" lon="13.459214865628793"><ele>79.0</ele><time>2026-04-07T15:38:40Z</time></trkpt><trkpt lat="43.56314353630518" lon="13.45912370558004"><ele>80.5</ele><time>2026-04-07T15:38:51Z</time></trkpt><trkpt lat="43.563079172840446" lon="13.45894081870666"><ele>82.0</ele><time>2026-04-07T15:38:56Z</time></trkpt><trkpt lat="43.56288865751834" lon="13.458899812698665"><ele>81.8</ele><time>2026-04-07T15:38:58Z</time></trkpt><trkpt lat="43.56280284546677" lon="13.458774289587303"><ele>81.6</ele><time>2026-04-07T15:39:00Z</time></trkpt><trkpt lat="43.562752183406836" lon="13.458695971408613"><ele>81.39999999999999</ele><time>2026-04-07T15:39:01Z</time></trkpt><trkpt lat="43.56268795380916" lon="13.458602757938271"><ele>81.19999999999999</ele><time>2026-04-07T15:39:02Z</time></trkpt><trkpt lat="43.56262085316971" lon="13.458503903917048"><ele>81.0</ele><time>2026-04-07T15:39:03Z</time></trkpt><trkpt lat="43.56255897530301" lon="13.458417397806388"><ele>81.0</ele><time>2026-04-07T15:39:04Z</time></trkpt><trkpt lat="43.56250961032291" lon="13.45834020248656"><ele>81.0</ele><time>2026-04-07T15:39:05Z</time></trkpt><trkpt lat="43.562463865577165" lon="13.45826261174714"><ele>81.0</ele><time>2026-04-07T15:39:06Z</time></trkpt><trkpt lat="43.56243255304749" lon="13.458179969333"><ele>81.0</ele><time>2026-04-07T15:39:07Z</time></trkpt><trkpt lat="43.56241196865929" lon="13.458090365425386"><ele>81.0</ele><time>2026-04-07T15:39:08Z</time></trkpt><trkpt lat="43.562383186292" lon="13.45796849896495"><ele>81.0</ele><time>2026-04-07T15:39:09Z</time></trkpt><trkpt lat="43.562368876158395" lon="13.457864015458044"><ele>81.8</ele><time>2026-04-07T15:39:10Z</time></trkpt><trkpt lat="43.56233591827791" lon="13.45771807962188"><ele>82.6</ele><time>2026-04-07T15:39:12Z</time></trkpt><trkpt lat="43.562298351474084" lon="13.457545070813794"><ele>83.4</ele><time>2026-04-07T15:39:14.001Z</time></trkpt><trkpt lat="43.56228101899919" lon="13.45743384199661"><ele>84.2</ele><time>2026-04-07T15:39:15.001Z</time></trkpt><trkpt lat="43.56225618665365" lon="13.457310264595753"><ele>85.0</ele><time>2026-04-07T15:39:16.001Z</time></trkpt><trkpt lat="43.56222752402516" lon="13.457185273710179"><ele>85.0</ele><time>2026-04-07T15:39:17.001Z</time></trkpt><trkpt lat="43.56220358133191" lon="13.457097450833349"><ele>85.0</ele><time>2026-04-07T15:39:18.001Z</time></trkpt><trkpt lat="43.562179223163554" lon="13.456942542030331"><ele>85.0</ele><time>2026-04-07T15:39:20.001Z</time></trkpt><trkpt lat="43.56216875031881" lon="13.456855983468119"><ele>85.0</ele><time>2026-04-07T15:39:22.001Z</time></trkpt><trkpt lat="43.562168252292594" lon="13.456957519974745"><ele>85.0</ele><time>2026-04-07T15:39:34.001Z</time></trkpt><trkpt lat="43.56219757093369" lon="13.457101598859094"><ele>85.0</ele><time>2026-04-07T15:39:36.001Z</time></trkpt><trkpt lat="43.562226395194664" lon="13.457254952510006"><ele>85.0</ele><time>2026-04-07T15:39:38.001Z</time></trkpt><trkpt lat="43.56226350587497" lon="13.457432635483432"><ele>85.0</ele><time>2026-04-07T15:39:40.001Z</time></trkpt><trkpt lat="43.56228469843664" lon="13.45754262906576"><ele>85.0</ele><time>2026-04-07T15:39:41.001Z</time></trkpt><trkpt lat="43.56230893987943" lon="13.457645000330823"><ele>85.0</ele><time>2026-04-07T15:39:42.001Z</time></trkpt><trkpt lat="43.562331195394826" lon="13.45773992549861"><ele>85.0</ele><time>2026-04-07T15:39:43.001Z</time></trkpt><trkpt lat="43.56235081856186" lon="13.457855617608649"><ele>84.42857142857143</ele><time>2026-04-07T15:39:44.001Z</time></trkpt><trkpt lat="43.56237105878367" lon="13.457965017700037"><ele>83.85714285714285</ele><time>2026-04-07T15:39:45.001Z</time></trkpt><trkpt lat="43.56238972889946" lon="13.458056742736884"><ele>83.28571428571428</ele><time>2026-04-07T15:39:46.001Z</time></trkpt><trkpt lat="43.56241701797475" lon="13.458157343111598"><ele>82.71428571428572</ele><time>2026-04-07T15:39:47.001Z</time></trkpt><trkpt lat="43.56244429949466" lon="13.458252246808273"><ele>82.14285714285714</ele><time>2026-04-07T15:39:48.001Z</time></trkpt><trkpt lat="43.562477735686194" lon="13.458330659579051"><ele>81.57142857142857</ele><time>2026-04-07T15:39:49.001Z</time></trkpt><trkpt lat="43.56252328501823" lon="13.458408272192319"><ele>81.0</ele><time>2026-04-07T15:39:50.001Z</time></trkpt><trkpt lat="43.562580014389205" lon="13.458485911244097"><ele>81.0</ele><time>2026-04-07T15:39:51.001Z</time></trkpt><trkpt lat="43.56263863780873" lon="13.458556386725892"><ele>81.0</ele><time>2026-04-07T15:39:52.001Z</time></trkpt><trkpt lat="43.56268986537511" lon="13.45863274560479"><ele>81.0</ele><time>2026-04-07T15:39:53.001Z</time></trkpt><trkpt lat="43.562744141136356" lon="13.458709197151688"><ele>81.0</ele><time>2026-04-07T15:39:54.001Z</time></trkpt><trkpt lat="43.562813803711094" lon="13.45880775751011"><ele>81.0</ele><time>2026-04-07T15:39:56.001Z</time></trkpt><trkpt lat="43.56289215637404" lon="13.458887014149152"><ele>81.0</ele><time>2026-04-07T15:39:58.001Z</time></trkpt><trkpt lat="43.56293408743826" lon="13.458952723659179"><ele>81.19999999999999</ele><time>2026-04-07T15:39:59.001Z</time></trkpt><trkpt lat="43.56301707415968" lon="13.459061923479707"><ele>81.39999999999999</ele><time>2026-04-07T15:40:01.001Z</time></trkpt><trkpt lat="43.5630652121304" lon="13.459130105157014"><ele>81.6</ele><time>2026-04-07T15:40:02.001Z</time></trkpt><trkpt lat="43.56311228960561" lon="13.459241345238208"><ele>81.8</ele><time>2026-04-07T15:40:04.001Z</time></trkpt><trkpt lat="43.563197125003505" lon="13.459373745141642"><ele>82.0</ele><time>2026-04-07T15:40:06.001Z</time></trkpt><trkpt lat="43.563253885750456" lon="13.459448026266045"><ele>82.0</ele><time>2026-04-07T15:40:07.001Z</time></trkpt><trkpt lat="43.56330687405175" lon="13.459526963347454"><ele>82.0</ele><time>2026-04-07T15:40:08.001Z</time></trkpt><trkpt lat="43.56335581924058" lon="13.459604246357115"><ele>82.0</ele><time>2026-04-07T15:40:09Z</time></trkpt><trkpt lat="43.56339277460026" lon="13.45967635577283"><ele>82.0</ele><time>2026-04-07T15:40:10Z</time></trkpt><trkpt lat="43.563422422210785" lon="13.459832697459678"><ele>82.0</ele><time>2026-04-07T15:40:12Z</time></trkpt><trkpt lat="43.563430568577566" lon="13.459920868451256"><ele>82.0</ele><time>2026-04-07T15:40:13Z</time></trkpt><trkpt lat="43.56344452220625" lon="13.460078760900046"><ele>80.8</ele><time>2026-04-07T15:40:15Z</time></trkpt><trkpt lat="43.563446634756986" lon="13.460176308653704"><ele>79.6</ele><time>2026-04-07T15:40:16Z</time></trkpt><trkpt lat="43.56344943472564" lon="13.46028735211263"><ele>78.39999999999999</ele><time>2026-04-07T15:40:17Z</time></trkpt><trkpt lat="43.56344795902741" lon="13.46040387488745"><ele>77.19999999999999</ele><time>2026-04-07T15:40:18Z</time></trkpt><trkpt lat="43.563452453538325" lon="13.46056647182324"><ele>76.0</ele><time>2026-04-07T15:40:20Z</time></trkpt><trkpt lat="43.56342565186017" lon="13.460697851093311"><ele>75.8</ele><time>2026-04-07T15:40:22Z</time></trkpt><trkpt lat="43.56340088910038" lon="13.460815665395645"><ele>75.6</ele><time>2026-04-07T15:40:24Z</time></trkpt><trkpt lat="43.56331689068622" lon="13.460873494297658"><ele>75.4</ele><time>2026-04-07T15:40:26Z</time></trkpt><trkpt lat="43.56325943351907" lon="13.461000962283432"><ele>75.2</ele><time>2026-04-07T15:40:28Z</time></trkpt><trkpt lat="43.563213758696875" lon="13.461082785456117"><ele>75.0</ele><time>2026-04-07T15:40:29Z</time></trkpt><trkpt lat="43.5631485645997" lon="13.461188284991332"><ele>74.5</ele><time>2026-04-07T15:40:30Z</time></trkpt><trkpt lat="43.563077168953015" lon="13.46129457822527"><ele>74.0</ele><time>2026-04-07T15:40:31Z</time></trkpt><trkpt lat="43.56299270378563" lon="13.46140671342431"><ele>73.5</ele><time>2026-04-07T15:40:32Z</time></trkpt><trkpt lat="43.56290185491317" lon="13.461530712592428"><ele>73.0</ele><time>2026-04-07T15:40:33Z</time></trkpt><trkpt lat="43.562813565105856" lon="13.461651165706469"><ele>73.0</ele><time>2026-04-07T15:40:34Z</time></trkpt><trkpt lat="43.56273142013701" lon="13.461761394910564"><ele>73.0</ele><time>2026-04-07T15:40:35Z</time></trkpt><trkpt lat="43.56265415897823" lon="13.461864072549451"><ele>73.0</ele><time>2026-04-07T15:40:36Z</time></trkpt><trkpt lat="43.56258128559678" lon="13.461956446970355"><ele>73.0</ele><time>2026-04-07T15:40:37Z</time></trkpt><trkpt lat="43.56250582512631" lon="13.462054596865324"><ele>73.0</ele><time>2026-04-07T15:40:38Z</time></trkpt><trkpt lat="43.56242465356669" lon="13.462164985246645"><ele>72.75</ele><time>2026-04-07T15:40:39Z</time></trkpt><trkpt lat="43.56234004400271" lon="13.462282400212013"><ele>72.5</ele><time>2026-04-07T15:40:40Z</time></trkpt><trkpt lat="43.56225146998617" lon="13.462401026876632"><ele>72.25</ele><time>2026-04-07T15:40:41Z</time></trkpt><trkpt lat="43.56216956249186" lon="13.462509724603468"><ele>72.0</ele><time>2026-04-07T15:40:42Z</time></trkpt><trkpt lat="43.56209403638533" lon="13.462611809126381"><ele>72.0</ele><time>2026-04-07T15:40:43Z</time></trkpt><trkpt lat="43.56202289022504" lon="13.462700103809896"><ele>72.0</ele><time>2026-04-07T15:40:44Z</time></trkpt><trkpt lat="43.56196412809696" lon="13.462777839945463"><ele>72.0</ele><time>2026-04-07T15:40:45Z</time></trkpt><trkpt lat="43.56188882813466" lon="13.462874917713604"><ele>72.0</ele><time>2026-04-07T15:40:46Z</time></trkpt><trkpt lat="43.56177781876464" lon="13.463033385870116"><ele>72.0</ele><time>2026-04-07T15:40:48Z</time></trkpt><trkpt lat="43.561713325794976" lon="13.463123784936464"><ele>71.6</ele><time>2026-04-07T15:40:49Z</time></trkpt><trkpt lat="43.56166277799411" lon="13.463197736507558"><ele>71.2</ele><time>2026-04-07T15:40:50Z</time></trkpt><trkpt lat="43.561617760141" lon="13.463258481278565"><ele>70.8</ele><time>2026-04-07T15:40:51Z</time></trkpt><trkpt lat="43.561549145231766" lon="13.463358692119064"><ele>70.4</ele><time>2026-04-07T15:40:53Z</time></trkpt><trkpt lat="43.56144802758583" lon="13.463495082456523"><ele>70.0</ele><time>2026-04-07T15:40:55Z</time></trkpt><trkpt lat="43.56139233527147" lon="13.46356469337524"><ele>70.0</ele><time>2026-04-07T15:40:56Z</time></trkpt><trkpt lat="43.56133957194316" lon="13.463632750235776"><ele>70.0</ele><time>2026-04-07T15:40:57Z</time></trkpt><trkpt lat="43.56126029766857" lon="13.463745305058202"><ele>70.0</ele><time>2026-04-07T15:40:59Z</time></trkpt><trkpt lat="43.56124102666189" lon="13.46384309546617"><ele>70.0</ele><time>2026-04-07T15:41:01Z</time></trkpt><trkpt lat="43.561296364976606" lon="13.463969301245486"><ele>70.0</ele><time>2026-04-07T15:41:12Z</time></trkpt><trkpt lat="43.561370691141484" lon="13.464024134851407"><ele>70.4</ele><time>2026-04-07T15:41:13Z</time></trkpt><trkpt lat="43.561431218060925" lon="13.464095921537794"><ele>70.8</ele><time>2026-04-07T15:41:14Z</time></trkpt><trkpt lat="43.5615164197309" lon="13.464158466961829"><ele>71.2</ele><time>2026-04-07T15:41:15Z</time></trkpt><trkpt lat="43.561588498470144" lon="13.464212723734708"><ele>71.6</ele><time>2026-04-07T15:41:16Z</time></trkpt><trkpt lat="43.56167818813847" lon="13.464286101096098"><ele>72.0</ele><time>2026-04-07T15:41:17Z</time></trkpt><trkpt lat="43.56177417713442" lon="13.464352479287113"><ele>72.0</ele><time>2026-04-07T15:41:18Z</time></trkpt><trkpt lat="43.56186118226251" lon="13.464424924201566"><ele>72.0</ele><time>2026-04-07T15:41:19Z</time></trkpt><trkpt lat="43.56193192058423" lon="13.464485301080462"><ele>72.0</ele><time>2026-04-07T15:41:20Z</time></trkpt><trkpt lat="43.56198862952415" lon="13.464527741608986"><ele>72.0</ele><time>2026-04-07T15:41:21Z</time></trkpt><trkpt lat="43.5620948833218" lon="13.464575671359023"><ele>72.0</ele><time>2026-04-07T15:41:23Z</time></trkpt><trkpt lat="43.56216458901852" lon="13.4645307669354"><ele>72.0</ele><time>2026-04-07T15:41:24Z</time></trkpt><trkpt lat="43.56221365436339" lon="13.464430665058781"><ele>73.0</ele><time>2026-04-07T15:41:25Z</time></trkpt><trkpt lat="43.56228931305259" lon="13.464362241659865"><ele>74.0</ele><time>2026-04-07T15:41:26Z</time></trkpt><trkpt lat="43.56236761383485" lon="13.46425940489739"><ele>75.0</ele><time>2026-04-07T15:41:27Z</time></trkpt><trkpt lat="43.562454608810235" lon="13.464141368428466"><ele>76.0</ele><time>2026-04-07T15:41:28Z</time></trkpt><trkpt lat="43.56255052787471" lon="13.464011223649093"><ele>76.0</ele><time>2026-04-07T15:41:29.001Z</time></trkpt><trkpt lat="43.56264141065347" lon="13.463887009096325"><ele>76.0</ele><time>2026-04-07T15:41:30.001Z</time></trkpt><trkpt lat="43.562732522071144" lon="13.463761103990086"><ele>76.0</ele><time>2026-04-07T15:41:31.001Z</time></trkpt><trkpt lat="43.56282501980007" lon="13.463629808321022"><ele>76.0</ele><time>2026-04-07T15:41:32.001Z</time></trkpt><trkpt lat="43.56290089630952" lon="13.46352314359783"><ele>75.8</ele><time>2026-04-07T15:41:33.001Z</time></trkpt><trkpt lat="43.56297946636958" lon="13.46341557430647"><ele>75.6</ele><time>2026-04-07T15:41:34.001Z</time></trkpt><trkpt lat="43.563061705113675" lon="13.46331194400263"><ele>75.4</ele><time>2026-04-07T15:41:35.001Z</time></trkpt><trkpt lat="43.563140149818494" lon="13.463225960002696"><ele>75.2</ele><time>2026-04-07T15:41:36.001Z</time></trkpt><trkpt lat="43.56320540829471" lon="13.463178478408146"><ele>75.0</ele><time>2026-04-07T15:41:37.001Z</time></trkpt><trkpt lat="43.563319867676" lon="13.463146236996685"><ele>75.0</ele><time>2026-04-07T15:41:39.001Z</time></trkpt><trkpt lat="43.56337007223547" lon="13.463216343047494"><ele>75.0</ele><time>2026-04-07T15:41:40.001Z</time></trkpt><trkpt lat="43.56341418838313" lon="13.463281174461613"><ele>75.0</ele><time>2026-04-07T15:41:41.001Z</time></trkpt><trkpt lat="43.563449063340386" lon="13.463353686749873"><ele>75.0</ele><time>2026-04-07T15:41:42.001Z</time></trkpt><trkpt lat="43.56348789747803" lon="13.463439630301659"><ele>75.0</ele><time>2026-04-07T15:41:43.001Z</time></trkpt><trkpt lat="43.56352760315855" lon="13.463541734962284"><ele>75.0</ele><time>2026-04-07T15:41:44.001Z</time></trkpt><trkpt lat="43.56357054989208" lon="13.46366407251286"><ele>75.0</ele><time>2026-04-07T15:41:45.001Z</time></trkpt><trkpt lat="43.56361802447552" lon="13.463774289398819"><ele>75.0</ele><time>2026-04-07T15:41:46.001Z</time></trkpt><trkpt lat="43.56365338786944" lon="13.463874262652633"><ele>75.0</ele><time>2026-04-07T15:41:47.001Z</time></trkpt><trkpt lat="43.56368486762464" lon="13.46397146048809"><ele>75.0</ele><time>2026-04-07T15:41:48.001Z</time></trkpt><trkpt lat="43.56371360061742" lon="13.464050623568342"><ele>75.0</ele><time>2026-04-07T15:41:49.001Z</time></trkpt><trkpt lat="43.56370580487141" lon="13.464141881271496"><ele>75.0</ele><time>2026-04-07T15:41:54.001Z</time></trkpt><trkpt lat="43.56386389797003" lon="13.464048559176415"><ele>77.0</ele><time>2026-04-07T15:42:00.001Z</time></trkpt><trkpt lat="43.56395905551787" lon="13.463984552597841"><ele>79.0</ele><time>2026-04-07T15:42:04.001Z</time></trkpt><trkpt lat="43.564037899403736" lon="13.463958160228989"><ele>81.0</ele><time>2026-04-07T15:42:05.001Z</time></trkpt><trkpt lat="43.564117619141825" lon="13.463915129271665"><ele>83.0</ele><time>2026-04-07T15:42:06.001Z</time></trkpt><trkpt lat="43.5642027420342" lon="13.463862464273603"><ele>85.0</ele><time>2026-04-07T15:42:07.001Z</time></trkpt><trkpt lat="43.56428915641044" lon="13.463810363118455"><ele>85.0</ele><time>2026-04-07T15:42:08.001Z</time></trkpt><trkpt lat="43.56437300239202" lon="13.463761465149064"><ele>85.0</ele><time>2026-04-07T15:42:09.001Z</time></trkpt><trkpt lat="43.56445604384552" lon="13.463714856652532"><ele>85.0</ele><time>2026-04-07T15:42:10.001Z</time></trkpt><trkpt lat="43.5645386047066" lon="13.46366991921266"><ele>85.0</ele><time>2026-04-07T15:42:11.001Z</time></trkpt><trkpt lat="43.564628470951654" lon="13.463632401031179"><ele>85.0</ele><time>2026-04-07T15:42:12.001Z</time></trkpt><trkpt lat="43.564712612900976" lon="13.463600314661196"><ele>85.0</ele><time>2026-04-07T15:42:13.001Z</time></trkpt><trkpt lat="43.56480232212182" lon="13.463567580935207"><ele>85.0</ele><time>2026-04-07T15:42:14.001Z</time></trkpt><trkpt lat="43.56487760323999" lon="13.463544130500201"><ele>85.0</ele><time>2026-04-07T15:42:15Z</time></trkpt><trkpt lat="43.56494390482653" lon="13.463534307251738"><ele>85.0</ele><time>2026-04-07T15:42:16Z</time></trkpt><trkpt lat="43.565008919559006" lon="13.463535154339102"><ele>85.0</ele><time>2026-04-07T15:42:17Z</time></trkpt><trkpt lat="43.56512523150628" lon="13.463524332122045"><ele>85.0</ele><time>2026-04-07T15:42:19Z</time></trkpt><trkpt lat="43.56520872152769" lon="13.463509422245993"><ele>85.0</ele><time>2026-04-07T15:42:21Z</time></trkpt><trkpt lat="43.56532312525708" lon="13.463492310139534"><ele>85.0</ele><time>2026-04-07T15:42:23Z</time></trkpt><trkpt lat="43.56540658851033" lon="13.463474382981714"><ele>85.0</ele><time>2026-04-07T15:42:24Z</time></trkpt><trkpt lat="43.56550375652631" lon="13.463452225358607"><ele>85.0</ele><time>2026-04-07T15:42:25Z</time></trkpt><trkpt lat="43.56560078002258" lon="13.463446981439885"><ele>85.0</ele><time>2026-04-07T15:42:26Z</time></trkpt><trkpt lat="43.565719786482845" lon="13.463446533159505"><ele>85.33333333333333</ele><time>2026-04-07T15:42:27Z</time></trkpt><trkpt lat="43.565810245380405" lon="13.46344620356504"><ele>85.66666666666666</ele><time>2026-04-07T15:42:28Z</time></trkpt><trkpt lat="43.56591022848433" lon="13.463445478791348"><ele>86.0</ele><time>2026-04-07T15:42:29Z</time></trkpt><trkpt lat="43.566001080986176" lon="13.463442380616975"><ele>86.33333333333333</ele><time>2026-04-07T15:42:30Z</time></trkpt><trkpt lat="43.56607476350247" lon="13.463437322914562"><ele>86.66666666666667</ele><time>2026-04-07T15:42:31Z</time></trkpt><trkpt lat="43.56615077108697" lon="13.463433017168475"><ele>87.0</ele><time>2026-04-07T15:42:32Z</time></trkpt><trkpt lat="43.566242066360324" lon="13.46342788348234"><ele>87.0</ele><time>2026-04-07T15:42:33Z</time></trkpt><trkpt lat="43.5663322467666" lon="13.463415742579702"><ele>87.0</ele><time>2026-04-07T15:42:34Z</time></trkpt><trkpt lat="43.56641832093374" lon="13.463396948805334"><ele>87.0</ele><time>2026-04-07T15:42:35Z</time></trkpt><trkpt lat="43.56652137131856" lon="13.463387952044144"><ele>87.0</ele><time>2026-04-07T15:42:36Z</time></trkpt><trkpt lat="43.56663034211215" lon="13.46338120597238"><ele>87.0</ele><time>2026-04-07T15:42:37Z</time></trkpt><trkpt lat="43.56673244118974" lon="13.463372617521689"><ele>87.0</ele><time>2026-04-07T15:42:38Z</time></trkpt><trkpt lat="43.566822052959395" lon="13.463363753963112"><ele>87.0</ele><time>2026-04-07T15:42:39Z</time></trkpt><trkpt lat="43.56692096396319" lon="13.463359555500483"><ele>87.0</ele><time>2026-04-07T15:42:40Z</time></trkpt><trkpt lat="43.56703638410181" lon="13.463237330388742"><ele>87.0</ele><time>2026-04-07T15:42:41Z</time></trkpt><trkpt lat="43.56713374189931" lon="13.463260795369097"><ele>87.0</ele><time>2026-04-07T15:42:42Z</time></trkpt><trkpt lat="43.56722179732976" lon="13.463282872301884"><ele>86.19999999999999</ele><time>2026-04-07T15:42:43Z</time></trkpt><trkpt lat="43.567312921716834" lon="13.463306825240595"><ele>85.4</ele><time>2026-04-07T15:42:44Z</time></trkpt><trkpt lat="43.5674127245258" lon="13.463333059341032"><ele>84.6</ele><time>2026-04-07T15:42:45Z</time></trkpt><trkpt lat="43.56753434532799" lon="13.46336602667651"><ele>83.80000000000001</ele><time>2026-04-07T15:42:46Z</time></trkpt><trkpt lat="43.56765888016856" lon="13.463399780150176"><ele>83.0</ele><time>2026-04-07T15:42:47Z</time></trkpt><trkpt lat="43.56778082624835" lon="13.463432824914813"><ele>82.60000000000001</ele><time>2026-04-07T15:42:48Z</time></trkpt><trkpt lat="43.56788706729922" lon="13.463460669549494"><ele>82.2</ele><time>2026-04-07T15:42:49Z</time></trkpt><trkpt lat="43.567987627837375" lon="13.463486325220863"><ele>81.8</ele><time>2026-04-07T15:42:50Z</time></trkpt><trkpt lat="43.56807055992445" lon="13.463507483407756"><ele>81.4</ele><time>2026-04-07T15:42:51Z</time></trkpt><trkpt lat="43.56815627095112" lon="13.463529350552363"><ele>81.0</ele><time>2026-04-07T15:42:52Z</time></trkpt><trkpt lat="43.56822419232901" lon="13.463546679089799"><ele>81.0</ele><time>2026-04-07T15:42:53Z</time></trkpt><trkpt lat="43.5683369904233" lon="13.46357545686135"><ele>81.0</ele><time>2026-04-07T15:42:55Z</time></trkpt><trkpt lat="43.56841491050578" lon="13.463595723871569"><ele>81.0</ele><time>2026-04-07T15:42:56Z</time></trkpt><trkpt lat="43.568479308532226" lon="13.463612696551543"><ele>81.0</ele><time>2026-04-07T15:42:57Z</time></trkpt><trkpt lat="43.568544099610584" lon="13.46362977271799"><ele>81.0</ele><time>2026-04-07T15:42:58Z</time></trkpt><trkpt lat="43.568620344515885" lon="13.463649867846948"><ele>81.0</ele><time>2026-04-07T15:42:59Z</time></trkpt><trkpt lat="43.56873124293888" lon="13.4636790585266"><ele>81.4</ele><time>2026-04-07T15:43:01Z</time></trkpt><trkpt lat="43.568801162819604" lon="13.46369736334009"><ele>81.8</ele><time>2026-04-07T15:43:04Z</time></trkpt><trkpt lat="43.56881432605763" lon="13.463568933867036"><ele>82.2</ele><time>2026-04-07T15:43:08Z</time></trkpt><trkpt lat="43.568848333317455" lon="13.463408018261465"><ele>82.60000000000001</ele><time>2026-04-07T15:43:10.018Z</time></trkpt><trkpt lat="43.56888581083117" lon="13.46325252588151"><ele>83.0</ele><time>2026-04-07T15:43:12.025Z</time></trkpt><trkpt lat="43.56886364341034" lon="13.463162446154788"><ele>83.0</ele><time>2026-04-07T15:43:14Z</time></trkpt><trkpt lat="43.56885775053328" lon="13.463050747289326"><ele>83.0</ele><time>2026-04-07T15:43:15Z</time></trkpt><trkpt lat="43.56878837287905" lon="13.462992817509086"><ele>83.0</ele><time>2026-04-07T15:43:17Z</time></trkpt><trkpt lat="43.56872274049143" lon="13.462980737617244"><ele>83.0</ele><time>2026-04-07T15:43:18Z</time></trkpt><trkpt lat="43.56865380384743" lon="13.462972015983182"><ele>83.0</ele><time>2026-04-07T15:43:19Z</time></trkpt><trkpt lat="43.5685657518132" lon="13.462949556392495"><ele>83.0</ele><time>2026-04-07T15:43:20Z</time></trkpt><trkpt lat="43.5684585417958" lon="13.462908047069302"><ele>83.0</ele><time>2026-04-07T15:43:21Z</time></trkpt><trkpt lat="43.56835613059112" lon="13.462871386330974"><ele>83.0</ele><time>2026-04-07T15:43:22Z</time></trkpt><trkpt lat="43.56825558992431" lon="13.46283175479257"><ele>83.0</ele><time>2026-04-07T15:43:23Z</time></trkpt><trkpt lat="43.56816350646196" lon="13.462792987170188"><ele>83.0</ele><time>2026-04-07T15:43:24Z</time></trkpt><trkpt lat="43.56808313663108" lon="13.46277283403184"><ele>83.0</ele><time>2026-04-07T15:43:25Z</time></trkpt><trkpt lat="43.56800223810033" lon="13.46275784111059"><ele>83.0</ele><time>2026-04-07T15:43:26Z</time></trkpt><trkpt lat="43.56792974933795" lon="13.462750442200333"><ele>83.0</ele><time>2026-04-07T15:43:27Z</time></trkpt><trkpt lat="43.56784788632583" lon="13.462740535335362"><ele>83.0</ele><time>2026-04-07T15:43:28Z</time></trkpt><trkpt lat="43.567755517440595" lon="13.462736550501644"><ele>83.0</ele><time>2026-04-07T15:43:29Z</time></trkpt><trkpt lat="43.56765163315427" lon="13.462738788494068"><ele>83.0</ele><time>2026-04-07T15:43:30Z</time></trkpt><trkpt lat="43.56756352798296" lon="13.462728952657235"><ele>83.0</ele><time>2026-04-07T15:43:31Z</time></trkpt><trkpt lat="43.567465594920584" lon="13.462711614401977"><ele>82.60000000000001</ele><time>2026-04-07T15:43:32Z</time></trkpt><trkpt lat="43.567363861745626" lon="13.462686192524947"><ele>82.2</ele><time>2026-04-07T15:43:33Z</time></trkpt><trkpt lat="43.56725395600374" lon="13.462650811771017"><ele>81.8</ele><time>2026-04-07T15:43:34Z</time></trkpt><trkpt lat="43.56715198522688" lon="13.462617616404412"><ele>81.4</ele><time>2026-04-07T15:43:35Z</time></trkpt><trkpt lat="43.56705353569637" lon="13.462592452137416"><ele>81.0</ele><time>2026-04-07T15:43:36Z</time></trkpt><trkpt lat="43.56696711482081" lon="13.462571053522383"><ele>81.0</ele><time>2026-04-07T15:43:37Z</time></trkpt><trkpt lat="43.56688237624691" lon="13.462552138005286"><ele>81.0</ele><time>2026-04-07T15:43:38Z</time></trkpt><trkpt lat="43.56681578697014" lon="13.462537797361202"><ele>81.0</ele><time>2026-04-07T15:43:39Z</time></trkpt><trkpt lat="43.56674746598087" lon="13.462530012312532"><ele>81.0</ele><time>2026-04-07T15:43:40Z</time></trkpt><trkpt lat="43.566677891755674" lon="13.462526492240949"><ele>81.0</ele><time>2026-04-07T15:43:41Z</time></trkpt><trkpt lat="43.56658606157211" lon="13.462524657777651"><ele>81.0</ele><time>2026-04-07T15:43:42Z</time></trkpt><trkpt lat="43.5664878961156" lon="13.462516561289279"><ele>81.0</ele><time>2026-04-07T15:43:43Z</time></trkpt><trkpt lat="43.566394248659506" lon="13.462511260118342"><ele>81.0</ele><time>2026-04-07T15:43:44Z</time></trkpt><trkpt lat="43.566303468835635" lon="13.462509104295027"><ele>81.0</ele><time>2026-04-07T15:43:45Z</time></trkpt><trkpt lat="43.56621994546861" lon="13.462499836747359"><ele>81.0</ele><time>2026-04-07T15:43:46Z</time></trkpt><trkpt lat="43.56613350341895" lon="13.46250473942358"><ele>81.0</ele><time>2026-04-07T15:43:47Z</time></trkpt><trkpt lat="43.56604922462389" lon="13.46250630282335"><ele>81.0</ele><time>2026-04-07T15:43:48Z</time></trkpt><trkpt lat="43.565953662990204" lon="13.46250468616034"><ele>81.25</ele><time>2026-04-07T15:43:49Z</time></trkpt><trkpt lat="43.56586167761551" lon="13.462508713098138"><ele>81.5</ele><time>2026-04-07T15:43:50Z</time></trkpt><trkpt lat="43.565768738984964" lon="13.462519157673297"><ele>81.75</ele><time>2026-04-07T15:43:51Z</time></trkpt><trkpt lat="43.565665399039204" lon="13.46271414419246"><ele>82.0</ele><time>2026-04-07T15:43:52Z</time></trkpt><trkpt lat="43.56556837975194" lon="13.462720258205273"><ele>82.0</ele><time>2026-04-07T15:43:53Z</time></trkpt><trkpt lat="43.56548355809548" lon="13.462728011033898"><ele>82.0</ele><time>2026-04-07T15:43:54Z</time></trkpt><trkpt lat="43.56540508542701" lon="13.462737806090752"><ele>82.0</ele><time>2026-04-07T15:43:55Z</time></trkpt><trkpt lat="43.56532730983246" lon="13.462748822925784"><ele>82.0</ele><time>2026-04-07T15:43:56.001Z</time></trkpt><trkpt lat="43.565220034759456" lon="13.462767098060139"><ele>82.0</ele><time>2026-04-07T15:43:58.001Z</time></trkpt><trkpt lat="43.56515335922695" lon="13.462778742049084"><ele>82.0</ele><time>2026-04-07T15:44:02.001Z</time></trkpt><trkpt lat="43.56524022134689" lon="13.462763572811191"><ele>82.0</ele><time>2026-04-07T15:44:17.001Z</time></trkpt><trkpt lat="43.56531320618233" lon="13.462750826908584"><ele>82.0</ele><time>2026-04-07T15:44:18.001Z</time></trkpt><trkpt lat="43.565463213602726" lon="13.462545941098979"><ele>82.0</ele><time>2026-04-07T15:44:19.001Z</time></trkpt><trkpt lat="43.56557745612018" lon="13.462536084089951"><ele>82.0</ele><time>2026-04-07T15:44:20.001Z</time></trkpt><trkpt lat="43.56570434060544" lon="13.462523598567913"><ele>82.0</ele><time>2026-04-07T15:44:21Z</time></trkpt><trkpt lat="43.56582387498481" lon="13.46251382860392"><ele>82.0</ele><time>2026-04-07T15:44:22Z</time></trkpt><trkpt lat="43.56592854962334" lon="13.462506663519068"><ele>82.0</ele><time>2026-04-07T15:44:23Z</time></trkpt><trkpt lat="43.56603053900112" lon="13.462503632068774"><ele>82.0</ele><time>2026-04-07T15:44:24Z</time></trkpt><trkpt lat="43.56613594330838" lon="13.46250180077663"><ele>82.0</ele><time>2026-04-07T15:44:25Z</time></trkpt><trkpt lat="43.56624373370253" lon="13.462510692426733"><ele>81.8</ele><time>2026-04-07T15:44:26Z</time></trkpt><trkpt lat="43.56633090269224" lon="13.462512509580183"><ele>81.6</ele><time>2026-04-07T15:44:27Z</time></trkpt><trkpt lat="43.566437664935904" lon="13.462515493130885"><ele>81.39999999999999</ele><time>2026-04-07T15:44:28Z</time></trkpt><trkpt lat="43.56656314533764" lon="13.46252554524478"><ele>81.19999999999999</ele><time>2026-04-07T15:44:29Z</time></trkpt><trkpt lat="43.56667318317769" lon="13.462530603298191"><ele>81.0</ele><time>2026-04-07T15:44:30Z</time></trkpt><trkpt lat="43.566766543490914" lon="13.46253865523556"><ele>81.0</ele><time>2026-04-07T15:44:31Z</time></trkpt><trkpt lat="43.56685715386123" lon="13.46254894599496"><ele>81.0</ele><time>2026-04-07T15:44:32Z</time></trkpt><trkpt lat="43.56695228836676" lon="13.46256689795242"><ele>81.0</ele><time>2026-04-07T15:44:33Z</time></trkpt><trkpt lat="43.567060903757195" lon="13.46259503524823"><ele>81.0</ele><time>2026-04-07T15:44:34Z</time></trkpt><trkpt lat="43.56719683476562" lon="13.46263346895508"><ele>81.0</ele><time>2026-04-07T15:44:35Z</time></trkpt><trkpt lat="43.56732719623607" lon="13.462672038221756"><ele>80.75</ele><time>2026-04-07T15:44:36Z</time></trkpt><trkpt lat="43.56744680757507" lon="13.46270377683303"><ele>80.5</ele><time>2026-04-07T15:44:37Z</time></trkpt><trkpt lat="43.567563738569326" lon="13.462728605980594"><ele>80.25</ele><time>2026-04-07T15:44:38Z</time></trkpt><trkpt lat="43.56768889634664" lon="13.462738649833023"><ele>80.0</ele><time>2026-04-07T15:44:39Z</time></trkpt><trkpt lat="43.567789405403964" lon="13.462748735480629"><ele>80.6</ele><time>2026-04-07T15:44:40Z</time></trkpt><trkpt lat="43.5678844628374" lon="13.462751003591809"><ele>81.2</ele><time>2026-04-07T15:44:41Z</time></trkpt><trkpt lat="43.5679639851814" lon="13.462759552625913"><ele>81.80000000000001</ele><time>2026-04-07T15:44:42Z</time></trkpt><trkpt lat="43.568126211307884" lon="13.462782715002318"><ele>82.4</ele><time>2026-04-07T15:44:44Z</time></trkpt><trkpt lat="43.56820380261625" lon="13.46279624168737"><ele>83.0</ele><time>2026-04-07T15:44:45Z</time></trkpt><trkpt lat="43.568271397343004" lon="13.462819088237985"><ele>83.0</ele><time>2026-04-07T15:44:46Z</time></trkpt><trkpt lat="43.56838688554692" lon="13.462874701941688"><ele>83.0</ele><time>2026-04-07T15:44:48Z</time></trkpt><trkpt lat="43.568490364533304" lon="13.462923090294842"><ele>83.0</ele><time>2026-04-07T15:44:49Z</time></trkpt><trkpt lat="43.568592414286236" lon="13.462970708967637"><ele>83.0</ele><time>2026-04-07T15:44:50Z</time></trkpt><trkpt lat="43.56868046476281" lon="13.462994771765125"><ele>83.0</ele><time>2026-04-07T15:44:51Z</time></trkpt><trkpt lat="43.56875152171529" lon="13.4630079620943"><ele>83.0</ele><time>2026-04-07T15:44:52Z</time></trkpt><trkpt lat="43.5688417225164" lon="13.463034835761679"><ele>83.0</ele><time>2026-04-07T15:44:54Z</time></trkpt><trkpt lat="43.568870680576694" lon="13.463119907856031"><ele>83.0</ele><time>2026-04-07T15:44:56Z</time></trkpt><trkpt lat="43.56886831272889" lon="13.463222711582121"><ele>83.0</ele><time>2026-04-07T15:44:58Z</time></trkpt><trkpt lat="43.56884554775437" lon="13.463304489341155"><ele>83.0</ele><time>2026-04-07T15:45:00Z</time></trkpt><trkpt lat="43.56883144244912" lon="13.463415414662247"><ele>83.0</ele><time>2026-04-07T15:45:02.023Z</time></trkpt><trkpt lat="43.56881436873391" lon="13.463565735534932"><ele>83.0</ele><time>2026-04-07T15:45:04Z</time></trkpt><trkpt lat="43.56880859507017" lon="13.463652301972507"><ele>83.0</ele><time>2026-04-07T15:45:05Z</time></trkpt><trkpt lat="43.56875992164417" lon="13.463828824163956"><ele>83.0</ele><time>2026-04-07T15:45:07Z</time></trkpt><trkpt lat="43.56869672021787" lon="13.463889462888739"><ele>83.0</ele><time>2026-04-07T15:45:09Z</time></trkpt><trkpt lat="43.56863074984184" lon="13.463862636502546"><ele>83.0</ele><time>2026-04-07T15:45:10Z</time></trkpt><trkpt lat="43.56854200480861" lon="13.463816146206506"><ele>83.0</ele><time>2026-04-07T15:45:11Z</time></trkpt><trkpt lat="43.568433809174884" lon="13.463768966002181"><ele>82.5</ele><time>2026-04-07T15:45:12Z</time></trkpt><trkpt lat="43.56831668643273" lon="13.46372905132593"><ele>82.0</ele><time>2026-04-07T15:45:13Z</time></trkpt><trkpt lat="43.56820123782316" lon="13.463693524073582"><ele>81.5</ele><time>2026-04-07T15:45:14Z</time></trkpt><trkpt lat="43.56809759694273" lon="13.463660458636902"><ele>81.0</ele><time>2026-04-07T15:45:15Z</time></trkpt><trkpt lat="43.56796715669593" lon="13.463613956300714"><ele>81.5</ele><time>2026-04-07T15:45:16Z</time></trkpt><trkpt lat="43.56781572893733" lon="13.46356210028623"><ele>82.0</ele><time>2026-04-07T15:45:17Z</time></trkpt><trkpt lat="43.56767335630189" lon="13.463516123600584"><ele>82.5</ele><time>2026-04-07T15:45:18Z</time></trkpt><trkpt lat="43.56754072775667" lon="13.463474635849945"><ele>83.0</ele><time>2026-04-07T15:45:19Z</time></trkpt><trkpt lat="43.56740183761421" lon="13.46343219035155"><ele>83.0</ele><time>2026-04-07T15:45:20Z</time></trkpt><trkpt lat="43.56726386413756" lon="13.463398551870869"><ele>83.0</ele><time>2026-04-07T15:45:21Z</time></trkpt><trkpt lat="43.56713392120506" lon="13.463368063298807"><ele>83.0</ele><time>2026-04-07T15:45:22Z</time></trkpt><trkpt lat="43.56700803840699" lon="13.46334840118758"><ele>83.0</ele><time>2026-04-07T15:45:23Z</time></trkpt><trkpt lat="43.56685876297784" lon="13.463340423126073"><ele>84.0</ele><time>2026-04-07T15:45:24Z</time></trkpt><trkpt lat="43.56670821104466" lon="13.463354222642346"><ele>85.0</ele><time>2026-04-07T15:45:25Z</time></trkpt><trkpt lat="43.56658189223793" lon="13.463365980187508"><ele>86.0</ele><time>2026-04-07T15:45:26Z</time></trkpt><trkpt lat="43.56646764193198" lon="13.463379977417704"><ele>87.0</ele><time>2026-04-07T15:45:27Z</time></trkpt><trkpt lat="43.566369887055096" lon="13.463397673872008"><ele>87.0</ele><time>2026-04-07T15:45:28Z</time></trkpt><trkpt lat="43.56626165320806" lon="13.463408296110781"><ele>87.0</ele><time>2026-04-07T15:45:29Z</time></trkpt><trkpt lat="43.56615635751721" lon="13.463420117204379"><ele>87.0</ele><time>2026-04-07T15:45:30Z</time></trkpt><trkpt lat="43.56602827559193" lon="13.46342784831082"><ele>87.0</ele><time>2026-04-07T15:45:31Z</time></trkpt><trkpt lat="43.56589028106491" lon="13.463430951302188"><ele>87.0</ele><time>2026-04-07T15:45:32Z</time></trkpt><trkpt lat="43.56575252183906" lon="13.463440644361386"><ele>87.0</ele><time>2026-04-07T15:45:33Z</time></trkpt><trkpt lat="43.56563364474862" lon="13.463439999037469"><ele>87.0</ele><time>2026-04-07T15:45:34Z</time></trkpt><trkpt lat="43.56553148369088" lon="13.46344224547714"><ele>87.0</ele><time>2026-04-07T15:45:35Z</time></trkpt><trkpt lat="43.565438492723686" lon="13.463448752592681"><ele>86.6</ele><time>2026-04-07T15:45:36Z</time></trkpt><trkpt lat="43.56534293108957" lon="13.463465652624517"><ele>86.19999999999999</ele><time>2026-04-07T15:45:37Z</time></trkpt><trkpt lat="43.565239307317704" lon="13.463497159482285"><ele>85.8</ele><time>2026-04-07T15:45:38Z</time></trkpt><trkpt lat="43.56511422311859" lon="13.46351561651833"><ele>85.4</ele><time>2026-04-07T15:45:39Z</time></trkpt><trkpt lat="43.56500172477105" lon="13.463521497074986"><ele>85.0</ele><time>2026-04-07T15:45:40Z</time></trkpt><trkpt lat="43.564896035815856" lon="13.463533496374247"><ele>85.0</ele><time>2026-04-07T15:45:41Z</time></trkpt><trkpt lat="43.56478744199019" lon="13.463555341279708"><ele>85.0</ele><time>2026-04-07T15:45:42Z</time></trkpt><trkpt lat="43.56468660681245" lon="13.463598730720694"><ele>85.0</ele><time>2026-04-07T15:45:43Z</time></trkpt><trkpt lat="43.56455368384059" lon="13.463654434897187"><ele>85.0</ele><time>2026-04-07T15:45:44Z</time></trkpt><trkpt lat="43.564410905373045" lon="13.46373138237066"><ele>85.0</ele><time>2026-04-07T15:45:45Z</time></trkpt><trkpt lat="43.5642893892024" lon="13.46379835167378"><ele>85.0</ele><time>2026-04-07T15:45:46Z</time></trkpt><trkpt lat="43.56417463636024" lon="13.463872891294121"><ele>85.0</ele><time>2026-04-07T15:45:47Z</time></trkpt><trkpt lat="43.56407342596424" lon="13.463940574031156"><ele>85.0</ele><time>2026-04-07T15:45:48Z</time></trkpt><trkpt lat="43.563975659920494" lon="13.463999694302828"><ele>85.0</ele><time>2026-04-07T15:45:49Z</time></trkpt><trkpt lat="43.563883277244486" lon="13.464048910484232"><ele>85.0</ele><time>2026-04-07T15:45:50Z</time></trkpt><trkpt lat="43.563820786144824" lon="13.464082847022594"><ele>85.0</ele><time>2026-04-07T15:45:51Z</time></trkpt><trkpt lat="43.56374567258524" lon="13.464130732669787"><ele>85.0</ele><time>2026-04-07T15:45:54.001Z</time></trkpt><trkpt lat="43.56362245277509" lon="13.464189061316333"><ele>85.0</ele><time>2026-04-07T15:45:56.001Z</time></trkpt><trkpt lat="43.56353030806341" lon="13.46424196612598"><ele>83.75</ele><time>2026-04-07T15:45:57.001Z</time></trkpt><trkpt lat="43.563426000430276" lon="13.464308615131225"><ele>82.5</ele><time>2026-04-07T15:45:58.001Z</time></trkpt><trkpt lat="43.56332750653852" lon="13.464391255618331"><ele>81.25</ele><time>2026-04-07T15:45:59.001Z</time></trkpt><trkpt lat="43.563221342926916" lon="13.464479923054618"><ele>80.0</ele><time>2026-04-07T15:46:00.001Z</time></trkpt><trkpt lat="43.56311233268813" lon="13.464572732060244"><ele>80.0</ele><time>2026-04-07T15:46:01.001Z</time></trkpt><trkpt lat="43.56301020090272" lon="13.46465785134054"><ele>80.0</ele><time>2026-04-07T15:46:02.001Z</time></trkpt><trkpt lat="43.56292291797779" lon="13.4647372908284"><ele>80.0</ele><time>2026-04-07T15:46:03.001Z</time></trkpt><trkpt lat="43.5628575728955" lon="13.464787795726304"><ele>80.0</ele><time>2026-04-07T15:46:04.001Z</time></trkpt><trkpt lat="43.56279418369676" lon="13.464854092621609"><ele>80.0</ele><time>2026-04-07T15:46:06.001Z</time></trkpt><trkpt lat="43.56273013531589" lon="13.464903975864766"><ele>80.0</ele><time>2026-04-07T15:46:08.001Z</time></trkpt><trkpt lat="43.562701861206186" lon="13.465006617505356"><ele>80.0</ele><time>2026-04-07T15:46:12.001Z</time></trkpt><trkpt lat="43.5627650465557" lon="13.465085760783168"><ele>80.0</ele><time>2026-04-07T15:46:14.001Z</time></trkpt><trkpt lat="43.56284390218748" lon="13.465107983333946"><ele>80.0</ele><time>2026-04-07T15:46:15.001Z</time></trkpt><trkpt lat="43.56289825213974" lon="13.465156100441655"><ele>80.0</ele><time>2026-04-07T15:46:16.001Z</time></trkpt><trkpt lat="43.562969460127334" lon="13.46521961920482"><ele>80.0</ele><time>2026-04-07T15:46:17.001Z</time></trkpt><trkpt lat="43.56305120916144" lon="13.465287515382629"><ele>81.4</ele><time>2026-04-07T15:46:18.001Z</time></trkpt><trkpt lat="43.56313902344864" lon="13.465352196660497"><ele>82.8</ele><time>2026-04-07T15:46:19.001Z</time></trkpt><trkpt lat="43.56323485279476" lon="13.465422099513406"><ele>84.19999999999999</ele><time>2026-04-07T15:46:20.001Z</time></trkpt><trkpt lat="43.56332441844524" lon="13.46551951537054"><ele>85.6</ele><time>2026-04-07T15:46:21.001Z</time></trkpt><trkpt lat="43.56342344295646" lon="13.465573346246462"><ele>87.0</ele><time>2026-04-07T15:46:22.001Z</time></trkpt><trkpt lat="43.563506870813676" lon="13.465655848217132"><ele>89.19999999999999</ele><time>2026-04-07T15:46:23.001Z</time></trkpt><trkpt lat="43.56359855120942" lon="13.465724354062166"><ele>91.4</ele><time>2026-04-07T15:46:24.001Z</time></trkpt><trkpt lat="43.563702847586484" lon="13.465776182832249"><ele>93.6</ele><time>2026-04-07T15:46:25.001Z</time></trkpt><trkpt lat="43.563795533556544" lon="13.46584405425919"><ele>95.80000000000001</ele><time>2026-04-07T15:46:26.001Z</time></trkpt><trkpt lat="43.56388721584369" lon="13.465920159871395"><ele>98.0</ele><time>2026-04-07T15:46:27Z</time></trkpt><trkpt lat="43.563981344583695" lon="13.46598731646096"><ele>100.75</ele><time>2026-04-07T15:46:28Z</time></trkpt><trkpt lat="43.56408130585385" lon="13.466061143295944"><ele>103.5</ele><time>2026-04-07T15:46:29Z</time></trkpt><trkpt lat="43.5641820978159" lon="13.466131918655174"><ele>106.25</ele><time>2026-04-07T15:46:30Z</time></trkpt><trkpt lat="43.564285119476104" lon="13.46620136513186"><ele>109.0</ele><time>2026-04-07T15:46:31Z</time></trkpt><trkpt lat="43.56439334134167" lon="13.466283369476571"><ele>111.80000000000001</ele><time>2026-04-07T15:46:32Z</time></trkpt><trkpt lat="43.564493581572194" lon="13.46638541655827"><ele>114.60000000000001</ele><time>2026-04-07T15:46:33Z</time></trkpt><trkpt lat="43.56458805830648" lon="13.466461746849435"><ele>117.4</ele><time>2026-04-07T15:46:34Z</time></trkpt><trkpt lat="43.56467007698451" lon="13.466528011936212"><ele>120.2</ele><time>2026-04-07T15:46:35Z</time></trkpt><trkpt lat="43.56475743847118" lon="13.466598021117987"><ele>123.0</ele><time>2026-04-07T15:46:36Z</time></trkpt><trkpt lat="43.56485701131777" lon="13.46664903388224"><ele>125.0</ele><time>2026-04-07T15:46:37Z</time></trkpt><trkpt lat="43.564950512992105" lon="13.466742788095743"><ele>127.0</ele><time>2026-04-07T15:46:38Z</time></trkpt><trkpt lat="43.56505975355211" lon="13.46679759083883"><ele>129.0</ele><time>2026-04-07T15:46:39Z</time></trkpt><trkpt lat="43.565158416877374" lon="13.46688364690344"><ele>131.0</ele><time>2026-04-07T15:46:40Z</time></trkpt><trkpt lat="43.56525526501143" lon="13.466950254240158"><ele>131.0</ele><time>2026-04-07T15:46:41Z</time></trkpt><trkpt lat="43.56534487275431" lon="13.467018105870176"><ele>131.0</ele><time>2026-04-07T15:46:42Z</time></trkpt><trkpt lat="43.56541867302682" lon="13.467071682427301"><ele>131.0</ele><time>2026-04-07T15:46:43Z</time></trkpt><trkpt lat="43.565474720356015" lon="13.467115356469462"><ele>131.0</ele><time>2026-04-07T15:46:44Z</time></trkpt><trkpt lat="43.56558869552181" lon="13.467237260012235"><ele>131.0</ele><time>2026-04-07T15:46:46Z</time></trkpt><trkpt lat="43.565671204973725" lon="13.467286324562197"><ele>134.8</ele><time>2026-04-07T15:46:47Z</time></trkpt><trkpt lat="43.56573944761854" lon="13.467362310932947"><ele>138.6</ele><time>2026-04-07T15:46:48Z</time></trkpt><trkpt lat="43.56581972254961" lon="13.467440700670839"><ele>142.4</ele><time>2026-04-07T15:46:49Z</time></trkpt><trkpt lat="43.56590293643119" lon="13.467525939908702"><ele>146.2</ele><time>2026-04-07T15:46:50Z</time></trkpt><trkpt lat="43.56596942609035" lon="13.467607785616803"><ele>150.0</ele><time>2026-04-07T15:46:51Z</time></trkpt><trkpt lat="43.56602982252653" lon="13.467689638465627"><ele>150.0</ele><time>2026-04-07T15:46:53Z</time></trkpt><trkpt lat="43.566100180487794" lon="13.467776727636046"><ele>150.0</ele><time>2026-04-07T15:46:56Z</time></trkpt><trkpt lat="43.56616488736632" lon="13.467843322056416"><ele>150.0</ele><time>2026-04-07T15:46:57Z</time></trkpt><trkpt lat="43.56623047523073" lon="13.467928496219649"><ele>150.0</ele><time>2026-04-07T15:46:58Z</time></trkpt><trkpt lat="43.566278627741745" lon="13.468024330150481"><ele>150.0</ele><time>2026-04-07T15:46:59Z</time></trkpt><trkpt lat="43.56633035505693" lon="13.46811020873854"><ele>150.0</ele><time>2026-04-07T15:47:00Z</time></trkpt><trkpt lat="43.566382928724295" lon="13.468189037197945"><ele>149.8</ele><time>2026-04-07T15:47:01Z</time></trkpt><trkpt lat="43.56641647041644" lon="13.468300324430517"><ele>149.6</ele><time>2026-04-07T15:47:02Z</time></trkpt><trkpt lat="43.566454189029855" lon="13.468418747963867"><ele>149.4</ele><time>2026-04-07T15:47:03Z</time></trkpt><trkpt lat="43.5664941186601" lon="13.46854127035849"><ele>149.2</ele><time>2026-04-07T15:47:04Z</time></trkpt><trkpt lat="43.56653743352048" lon="13.468657628762548"><ele>149.0</ele><time>2026-04-07T15:47:05Z</time></trkpt><trkpt lat="43.5665869657661" lon="13.468770336962802"><ele>148.6</ele><time>2026-04-07T15:47:06Z</time></trkpt><trkpt lat="43.5666509191415" lon="13.468888363905736"><ele>148.2</ele><time>2026-04-07T15:47:07Z</time></trkpt><trkpt lat="43.56674321698318" lon="13.468970280588906"><ele>147.79999999999998</ele><time>2026-04-07T15:47:08Z</time></trkpt><trkpt lat="43.566840162447" lon="13.46904515687661"><ele>147.4</ele><time>2026-04-07T15:47:09Z</time></trkpt><trkpt lat="43.56693469443372" lon="13.469109329935977"><ele>147.0</ele><time>2026-04-07T15:47:10Z</time></trkpt><trkpt lat="43.567019704422556" lon="13.469161972724956"><ele>146.4</ele><time>2026-04-07T15:47:11Z</time></trkpt><trkpt lat="43.567091292169145" lon="13.469205921027323"><ele>145.79999999999998</ele><time>2026-04-07T15:47:12Z</time></trkpt><trkpt lat="43.56716520376668" lon="13.469258327731767"><ele>145.2</ele><time>2026-04-07T15:47:13Z</time></trkpt><trkpt lat="43.56724847673355" lon="13.469313004550468"><ele>144.6</ele><time>2026-04-07T15:47:14Z</time></trkpt><trkpt lat="43.56733896552039" lon="13.469380851041723"><ele>144.0</ele><time>2026-04-07T15:47:15Z</time></trkpt><trkpt lat="43.567439262832785" lon="13.469449833070927"><ele>144.0</ele><time>2026-04-07T15:47:16Z</time></trkpt><trkpt lat="43.56753863652485" lon="13.469517555254404"><ele>144.0</ele><time>2026-04-07T15:47:17Z</time></trkpt><trkpt lat="43.56763686195199" lon="13.469586739029314"><ele>144.0</ele><time>2026-04-07T15:47:18Z</time></trkpt><trkpt lat="43.56774522736992" lon="13.469661540840008"><ele>144.0</ele><time>2026-04-07T15:47:19Z</time></trkpt><trkpt lat="43.56785634771813" lon="13.46973578928754"><ele>144.75</ele><time>2026-04-07T15:47:20Z</time></trkpt><trkpt lat="43.567965274966525" lon="13.469808409233153"><ele>145.5</ele><time>2026-04-07T15:47:21Z</time></trkpt><trkpt lat="43.56806986513984" lon="13.469884716244245"><ele>146.25</ele><time>2026-04-07T15:47:22Z</time></trkpt><trkpt lat="43.56817215872616" lon="13.46995819889796"><ele>147.0</ele><time>2026-04-07T15:47:23Z</time></trkpt><trkpt lat="43.5682761743901" lon="13.470032325840766"><ele>147.0</ele><time>2026-04-07T15:47:24Z</time></trkpt><trkpt lat="43.56838312669374" lon="13.47010144696469"><ele>147.0</ele><time>2026-04-07T15:47:25Z</time></trkpt><trkpt lat="43.5684796835511" lon="13.470155380054523"><ele>147.0</ele><time>2026-04-07T15:47:26Z</time></trkpt><trkpt lat="43.568561696312464" lon="13.470216012343382"><ele>147.0</ele><time>2026-04-07T15:47:27Z</time></trkpt><trkpt lat="43.568632337994124" lon="13.470260900506476"><ele>147.0</ele><time>2026-04-07T15:47:28Z</time></trkpt><trkpt lat="43.56870192848082" lon="13.470309439821733"><ele>147.16666666666666</ele><time>2026-04-07T15:47:29Z</time></trkpt><trkpt lat="43.56876453671069" lon="13.470356562587943"><ele>147.33333333333334</ele><time>2026-04-07T15:47:30Z</time></trkpt><trkpt lat="43.568833523516254" lon="13.470407035199491"><ele>147.5</ele><time>2026-04-07T15:47:31Z</time></trkpt><trkpt lat="43.56890425420749" lon="13.470459229300587"><ele>147.66666666666669</ele><time>2026-04-07T15:47:32Z</time></trkpt><trkpt lat="43.56897825695304" lon="13.470509009220219"><ele>147.83333333333334</ele><time>2026-04-07T15:47:33Z</time></trkpt><trkpt lat="43.569059380591625" lon="13.470565266694289"><ele>148.0</ele><time>2026-04-07T15:47:34Z</time></trkpt><trkpt lat="43.56914174025758" lon="13.47062650143874"><ele>148.0</ele><time>2026-04-07T15:47:35Z</time></trkpt><trkpt lat="43.569232067938124" lon="13.470688565143204"><ele>148.0</ele><time>2026-04-07T15:47:36Z</time></trkpt><trkpt lat="43.56933100389291" lon="13.47075087096525"><ele>148.0</ele><time>2026-04-07T15:47:37Z</time></trkpt><trkpt lat="43.56944012649765" lon="13.470819854224878"><ele>148.0</ele><time>2026-04-07T15:47:38Z</time></trkpt><trkpt lat="43.569546223651386" lon="13.470890119390708"><ele>148.0</ele><time>2026-04-07T15:47:39Z</time></trkpt><trkpt lat="43.569645328494595" lon="13.47095642354115"><ele>148.25</ele><time>2026-04-07T15:47:40Z</time></trkpt><trkpt lat="43.56974711109508" lon="13.471022472997934"><ele>148.5</ele><time>2026-04-07T15:47:41Z</time></trkpt><trkpt lat="43.569852091005124" lon="13.471095077103026"><ele>148.75</ele><time>2026-04-07T15:47:42Z</time></trkpt><trkpt lat="43.56995429498112" lon="13.471167079997208"><ele>149.0</ele><time>2026-04-07T15:47:43Z</time></trkpt><trkpt lat="43.570057690665585" lon="13.471237967535624"><ele>149.25</ele><time>2026-04-07T15:47:44Z</time></trkpt><trkpt lat="43.570176726009954" lon="13.471318095770464"><ele>149.5</ele><time>2026-04-07T15:47:45Z</time></trkpt><trkpt lat="43.5702922271593" lon="13.471396591650597"><ele>149.75</ele><time>2026-04-07T15:47:46Z</time></trkpt><trkpt lat="43.57040404144884" lon="13.471465795119885"><ele>150.0</ele><time>2026-04-07T15:47:47Z</time></trkpt><trkpt lat="43.57051382185227" lon="13.471539151579984"><ele>150.75</ele><time>2026-04-07T15:47:48Z</time></trkpt><trkpt lat="43.57062054316163" lon="13.471609017292716"><ele>151.5</ele><time>2026-04-07T15:47:49Z</time></trkpt><trkpt lat="43.57074734483684" lon="13.471686545207987"><ele>152.25</ele><time>2026-04-07T15:47:50Z</time></trkpt><trkpt lat="43.57086755870503" lon="13.471771521755098"><ele>153.0</ele><time>2026-04-07T15:47:51Z</time></trkpt><trkpt lat="43.570991047230905" lon="13.471859564023395"><ele>153.0</ele><time>2026-04-07T15:47:52Z</time></trkpt><trkpt lat="43.57111168428044" lon="13.471941140822942"><ele>153.0</ele><time>2026-04-07T15:47:53Z</time></trkpt><trkpt lat="43.57123751483735" lon="13.47202029899556"><ele>153.0</ele><time>2026-04-07T15:47:54Z</time></trkpt><trkpt lat="43.57134588214423" lon="13.472090104486945"><ele>153.0</ele><time>2026-04-07T15:47:55Z</time></trkpt><trkpt lat="43.571447887726" lon="13.472157380744667"><ele>154.33333333333334</ele><time>2026-04-07T15:47:56Z</time></trkpt><trkpt lat="43.57153655880201" lon="13.47221816675656"><ele>155.66666666666666</ele><time>2026-04-07T15:47:57Z</time></trkpt><trkpt lat="43.57161160443621" lon="13.472274639026967"><ele>157.0</ele><time>2026-04-07T15:47:58Z</time></trkpt><trkpt lat="43.571670188033075" lon="13.472321985058375"><ele>158.33333333333331</ele><time>2026-04-07T15:47:59Z</time></trkpt><trkpt lat="43.57172917701699" lon="13.472367939955875"><ele>159.66666666666666</ele><time>2026-04-07T15:48:00Z</time></trkpt><trkpt lat="43.57179267035577" lon="13.472428550425434"><ele>161.0</ele><time>2026-04-07T15:48:01Z</time></trkpt><trkpt lat="43.57186050980107" lon="13.472493093463145"><ele>161.0</ele><time>2026-04-07T15:48:02Z</time></trkpt><trkpt lat="43.57193402027233" lon="13.47257055638843"><ele>161.0</ele><time>2026-04-07T15:48:03Z</time></trkpt><trkpt lat="43.572015759716486" lon="13.47265788621642"><ele>161.0</ele><time>2026-04-07T15:48:04.001Z</time></trkpt><trkpt lat="43.57210470941836" lon="13.472747527911679"><ele>161.0</ele><time>2026-04-07T15:48:05.001Z</time></trkpt><trkpt lat="43.57219638413985" lon="13.472856574584167"><ele>161.0</ele><time>2026-04-07T15:48:06.001Z</time></trkpt><trkpt lat="43.57230389337583" lon="13.472964262502067"><ele>162.0</ele><time>2026-04-07T15:48:07.001Z</time></trkpt><trkpt lat="43.57240944102263" lon="13.47307137545023"><ele>163.0</ele><time>2026-04-07T15:48:08.001Z</time></trkpt><trkpt lat="43.572516994315166" lon="13.473183441186924"><ele>164.0</ele><time>2026-04-07T15:48:09.001Z</time></trkpt><trkpt lat="43.57262467366312" lon="13.47330526293065"><ele>165.0</ele><time>2026-04-07T15:48:10.001Z</time></trkpt><trkpt lat="43.5727277241829" lon="13.473421710394959"><ele>165.0</ele><time>2026-04-07T15:48:11.001Z</time></trkpt><trkpt lat="43.57283244383394" lon="13.473534423074218"><ele>165.0</ele><time>2026-04-07T15:48:12.001Z</time></trkpt><trkpt lat="43.57292896278295" lon="13.473627618841475"><ele>165.0</ele><time>2026-04-07T15:48:13.001Z</time></trkpt><trkpt lat="43.57300897522449" lon="13.473724046413555"><ele>165.0</ele><time>2026-04-07T15:48:14.001Z</time></trkpt><trkpt lat="43.57308436991683" lon="13.473813500376608"><ele>166.4</ele><time>2026-04-07T15:48:15.001Z</time></trkpt><trkpt lat="43.57314611515688" lon="13.473894958773108"><ele>167.8</ele><time>2026-04-07T15:48:16.001Z</time></trkpt><trkpt lat="43.57320239302014" lon="13.473977869005799"><ele>169.2</ele><time>2026-04-07T15:48:17.001Z</time></trkpt><trkpt lat="43.57326515842587" lon="13.474205168807815"><ele>170.6</ele><time>2026-04-07T15:48:19.001Z</time></trkpt><trkpt lat="43.57326837040272" lon="13.474343789483685"><ele>172.0</ele><time>2026-04-07T15:48:20.001Z</time></trkpt><trkpt lat="43.573270975044416" lon="13.474479687328442"><ele>173.33333333333334</ele><time>2026-04-07T15:48:21.001Z</time></trkpt><trkpt lat="43.573272930290706" lon="13.47461149076073"><ele>174.66666666666669</ele><time>2026-04-07T15:48:22.001Z</time></trkpt><trkpt lat="43.57327893862636" lon="13.47475028976241"><ele>176.0</ele><time>2026-04-07T15:48:23.001Z</time></trkpt><trkpt lat="43.57328747512018" lon="13.474889212762882"><ele>177.33333333333334</ele><time>2026-04-07T15:48:24.001Z</time></trkpt><trkpt lat="43.57329332666124" lon="13.47500477621998"><ele>178.66666666666666</ele><time>2026-04-07T15:48:25.001Z</time></trkpt><trkpt lat="43.57330761223601" lon="13.475094933184982"><ele>180.0</ele><time>2026-04-07T15:48:26.001Z</time></trkpt><trkpt lat="43.57334603681079" lon="13.47519749950296"><ele>180.0</ele><time>2026-04-07T15:48:28.001Z</time></trkpt><trkpt lat="43.57341574076757" lon="13.475269496104545"><ele>180.0</ele><time>2026-04-07T15:48:31.001Z</time></trkpt><trkpt lat="43.573474451533954" lon="13.475317604589657"><ele>180.0</ele><time>2026-04-07T15:48:34Z</time></trkpt><trkpt lat="43.57357639553615" lon="13.47537837298569"><ele>180.0</ele><time>2026-04-07T15:48:36Z</time></trkpt><trkpt lat="43.57363730779793" lon="13.475440198494343"><ele>180.0</ele><time>2026-04-07T15:48:37Z</time></trkpt><trkpt lat="43.57375191712376" lon="13.475516841224971"><ele>182.2</ele><time>2026-04-07T15:48:39Z</time></trkpt><trkpt lat="43.573831471643" lon="13.475569450452191"><ele>184.4</ele><time>2026-04-07T15:48:40Z</time></trkpt><trkpt lat="43.57391627387684" lon="13.475607475482436"><ele>186.60000000000002</ele><time>2026-04-07T15:48:41Z</time></trkpt><trkpt lat="43.57399470000175" lon="13.475670277405678"><ele>188.8</ele><time>2026-04-07T15:48:42Z</time></trkpt><trkpt lat="43.57409142257572" lon="13.475722581095155"><ele>191.0</ele><time>2026-04-07T15:48:43Z</time></trkpt><trkpt lat="43.57419304663357" lon="13.475797374206628"><ele>191.0</ele><time>2026-04-07T15:48:44Z</time></trkpt><trkpt lat="43.57428297259054" lon="13.475856346614263"><ele>191.0</ele><time>2026-04-07T15:48:45Z</time></trkpt><trkpt lat="43.574375529135516" lon="13.475935204753359"><ele>191.0</ele><time>2026-04-07T15:48:46Z</time></trkpt><trkpt lat="43.574482903018" lon="13.47600374434579"><ele>191.0</ele><time>2026-04-07T15:48:47Z</time></trkpt><trkpt lat="43.57458718528416" lon="13.476076754622065"><ele>191.0</ele><time>2026-04-07T15:48:48Z</time></trkpt><trkpt lat="43.574675104304234" lon="13.476142443425898"><ele>190.0</ele><time>2026-04-07T15:48:49Z</time></trkpt><trkpt lat="43.574760011359096" lon="13.476217156675334"><ele>189.0</ele><time>2026-04-07T15:48:50Z</time></trkpt><trkpt lat="43.57485750784159" lon="13.476273188353053"><ele>188.0</ele><time>2026-04-07T15:48:51Z</time></trkpt><trkpt lat="43.574949062822256" lon="13.476339418323732"><ele>187.0</ele><time>2026-04-07T15:48:52Z</time></trkpt><trkpt lat="43.575027077392654" lon="13.476395798210664"><ele>186.0</ele><time>2026-04-07T15:48:53Z</time></trkpt><trkpt lat="43.57509508926214" lon="13.476452922027198"><ele>187.20000000000002</ele><time>2026-04-07T15:48:54Z</time></trkpt><trkpt lat="43.5751709190393" lon="13.476524399515814"><ele>188.4</ele><time>2026-04-07T15:48:55Z</time></trkpt><trkpt lat="43.57523236714786" lon="13.47660236416237"><ele>189.6</ele><time>2026-04-07T15:48:56Z</time></trkpt><trkpt lat="43.575310344794964" lon="13.476658343428122"><ele>190.8</ele><time>2026-04-07T15:48:57Z</time></trkpt><trkpt lat="43.57538562216816" lon="13.476736420230475"><ele>192.0</ele><time>2026-04-07T15:48:58Z</time></trkpt><trkpt lat="43.575458958130135" lon="13.476813629066202"><ele>192.0</ele><time>2026-04-07T15:48:59Z</time></trkpt><trkpt lat="43.57552494693921" lon="13.476913406199476"><ele>192.0</ele><time>2026-04-07T15:49:00Z</time></trkpt><trkpt lat="43.57560187041646" lon="13.476999567633676"><ele>192.0</ele><time>2026-04-07T15:49:01Z</time></trkpt><trkpt lat="43.575678219292755" lon="13.477084760360786"><ele>192.0</ele><time>2026-04-07T15:49:02Z</time></trkpt><trkpt lat="43.57575226610205" lon="13.477170321381003"><ele>192.0</ele><time>2026-04-07T15:49:03Z</time></trkpt><trkpt lat="43.5758242056218" lon="13.477253454368102"><ele>194.33333333333334</ele><time>2026-04-07T15:49:04Z</time></trkpt><trkpt lat="43.57588462156791" lon="13.477323270019326"><ele>196.66666666666669</ele><time>2026-04-07T15:49:05Z</time></trkpt><trkpt lat="43.57593931422346" lon="13.477391105457675"><ele>199.0</ele><time>2026-04-07T15:49:06Z</time></trkpt><trkpt lat="43.57599685134162" lon="13.477461437899429"><ele>201.33333333333334</ele><time>2026-04-07T15:49:07Z</time></trkpt><trkpt lat="43.57605626951936" lon="13.477534166027944"><ele>203.66666666666669</ele><time>2026-04-07T15:49:08Z</time></trkpt><trkpt lat="43.57611217354948" lon="13.4776025928072"><ele>206.0</ele><time>2026-04-07T15:49:09Z</time></trkpt><trkpt lat="43.57617611003697" lon="13.477678633869672"><ele>206.4</ele><time>2026-04-07T15:49:10Z</time></trkpt><trkpt lat="43.57625741885545" lon="13.477749959592241"><ele>206.8</ele><time>2026-04-07T15:49:11Z</time></trkpt><trkpt lat="43.57632452526296" lon="13.477864716342479"><ele>207.20000000000002</ele><time>2026-04-07T15:49:12Z</time></trkpt><trkpt lat="43.57639258365224" lon="13.47797164247246"><ele>207.60000000000002</ele><time>2026-04-07T15:49:13Z</time></trkpt><trkpt lat="43.576457955459574" lon="13.478082481414173"><ele>208.0</ele><time>2026-04-07T15:49:14Z</time></trkpt><trkpt lat="43.576511483556224" lon="13.478183429200094"><ele>208.0</ele><time>2026-04-07T15:49:15Z</time></trkpt><trkpt lat="43.5765685491425" lon="13.478283847574119"><ele>208.0</ele><time>2026-04-07T15:49:16Z</time></trkpt><trkpt lat="43.57663021175322" lon="13.478386076809786"><ele>208.0</ele><time>2026-04-07T15:49:17Z</time></trkpt><trkpt lat="43.576698628521065" lon="13.478497883403358"><ele>208.0</ele><time>2026-04-07T15:49:18Z</time></trkpt><trkpt lat="43.57677086770918" lon="13.478611085692377"><ele>208.0</ele><time>2026-04-07T15:49:19Z</time></trkpt><trkpt lat="43.576833035086395" lon="13.478712514301488"><ele>208.99999999999997</ele><time>2026-04-07T15:49:20Z</time></trkpt><trkpt lat="43.57688512845103" lon="13.4787874524863"><ele>210.0</ele><time>2026-04-07T15:49:21Z</time></trkpt><trkpt lat="43.57698077171863" lon="13.478911675213142"><ele>211.0</ele><time>2026-04-07T15:49:23Z</time></trkpt><trkpt lat="43.57703698218942" lon="13.478981403006584"><ele>212.0</ele><time>2026-04-07T15:49:24Z</time></trkpt><trkpt lat="43.577093670651394" lon="13.479043856363091"><ele>212.99999999999997</ele><time>2026-04-07T15:49:25Z</time></trkpt><trkpt lat="43.57713854569828" lon="13.479136218409161"><ele>214.0</ele><time>2026-04-07T15:49:26Z</time></trkpt><trkpt lat="43.577188496277586" lon="13.479208996911693"><ele>210.6</ele><time>2026-04-07T15:49:27Z</time></trkpt><trkpt lat="43.57727240229138" lon="13.479316471629515"><ele>207.2</ele><time>2026-04-07T15:49:29Z</time></trkpt><trkpt lat="43.577324899781075" lon="13.47947009591868"><ele>203.79999999999998</ele><time>2026-04-07T15:49:31Z</time></trkpt><trkpt lat="43.577352113141544" lon="13.479561518437734"><ele>200.39999999999998</ele><time>2026-04-07T15:49:32Z</time></trkpt><trkpt lat="43.57735163459747" lon="13.479662486370863"><ele>197.0</ele><time>2026-04-07T15:49:33Z</time></trkpt><trkpt lat="43.57736219219524" lon="13.47977119675354"><ele>196.00000000000003</ele><time>2026-04-07T15:49:34Z</time></trkpt><trkpt lat="43.57737382350106" lon="13.479876044533547"><ele>195.0</ele><time>2026-04-07T15:49:35Z</time></trkpt><trkpt lat="43.577399124869295" lon="13.479963372632264"><ele>194.0</ele><time>2026-04-07T15:49:36Z</time></trkpt><trkpt lat="43.57739476587738" lon="13.480092619573396"><ele>193.0</ele><time>2026-04-07T15:49:38Z</time></trkpt><trkpt lat="43.57740481209913" lon="13.4801853453437"><ele>192.0</ele><time>2026-04-07T15:49:41Z</time></trkpt><trkpt lat="43.57751088377772" lon="13.48015351297968"><ele>191.0</ele><time>2026-04-07T15:49:58Z</time></trkpt><trkpt lat="43.57754480714288" lon="13.48003876721444"><ele>191.0</ele><time>2026-04-07T15:49:59Z</time></trkpt><trkpt lat="43.57757484813383" lon="13.479940430643225"><ele>191.0</ele><time>2026-04-07T15:50:00Z</time></trkpt><trkpt lat="43.57763877419914" lon="13.479812724081391"><ele>191.0</ele><time>2026-04-07T15:50:02Z</time></trkpt><trkpt lat="43.577692019837116" lon="13.479753516863699"><ele>191.0</ele><time>2026-04-07T15:50:04Z</time></trkpt><trkpt lat="43.57769737409545" lon="13.479666735404024"><ele>191.0</ele><time>2026-04-07T15:50:08Z</time></trkpt><trkpt lat="43.57761574501642" lon="13.47984848138703"><ele>191.0</ele><time>2026-04-07T15:50:12Z</time></trkpt><trkpt lat="43.577568046233736" lon="13.479967276145585"><ele>191.0</ele><time>2026-04-07T15:50:13Z</time></trkpt><trkpt lat="43.577525611518354" lon="13.480072962022678"><ele>191.0</ele><time>2026-04-07T15:50:14Z</time></trkpt><trkpt lat="43.57749316911951" lon="13.480147492716862"><ele>191.0</ele><time>2026-04-07T15:50:15Z</time></trkpt><trkpt lat="43.57744562260064" lon="13.480261764402218"><ele>191.0</ele><time>2026-04-07T15:50:17.001Z</time></trkpt><trkpt lat="43.57741031802725" lon="13.480346624096796"><ele>191.0</ele><time>2026-04-07T15:50:20.001Z</time></trkpt><trkpt lat="43.57743373745248" lon="13.480445924719668"><ele>189.25</ele><time>2026-04-07T15:50:22.001Z</time></trkpt><trkpt lat="43.57736861434615" lon="13.480570393535162"><ele>187.5</ele><time>2026-04-07T15:50:24.001Z</time></trkpt><trkpt lat="43.57748380772943" lon="13.480778608948158"><ele>185.75</ele><time>2026-04-07T15:50:25.001Z</time></trkpt><trkpt lat="43.57750298756508" lon="13.480891124959193"><ele>184.0</ele><time>2026-04-07T15:50:26.001Z</time></trkpt><trkpt lat="43.577524564480704" lon="13.480981713512703"><ele>184.0</ele><time>2026-04-07T15:50:27.001Z</time></trkpt><trkpt lat="43.57756136350702" lon="13.481115255409287"><ele>184.0</ele><time>2026-04-07T15:50:29.001Z</time></trkpt><trkpt lat="43.577607343378816" lon="13.481177997964158"><ele>184.0</ele><time>2026-04-07T15:50:32.001Z</time></trkpt><trkpt lat="43.577693432093035" lon="13.481300853826953"><ele>184.0</ele><time>2026-04-07T15:50:34.001Z</time></trkpt><trkpt lat="43.57775434806444" lon="13.481391009772288"><ele>184.0</ele><time>2026-04-07T15:50:35.001Z</time></trkpt><trkpt lat="43.577813953623384" lon="13.481472591284627"><ele>181.66666666666669</ele><time>2026-04-07T15:50:36.001Z</time></trkpt><trkpt lat="43.57786872770145" lon="13.48156699710206"><ele>179.33333333333334</ele><time>2026-04-07T15:50:37.001Z</time></trkpt><trkpt lat="43.577934654191026" lon="13.481648301753287"><ele>177.0</ele><time>2026-04-07T15:50:38.001Z</time></trkpt><trkpt lat="43.57798449278228" lon="13.48172713813945"><ele>174.66666666666666</ele><time>2026-04-07T15:50:39Z</time></trkpt><trkpt lat="43.57804250444611" lon="13.481823316580279"><ele>172.33333333333331</ele><time>2026-04-07T15:50:40Z</time></trkpt><trkpt lat="43.57810921924668" lon="13.481919617690554"><ele>170.0</ele><time>2026-04-07T15:50:41Z</time></trkpt><trkpt lat="43.57815810128922" lon="13.482026134830168"><ele>168.6</ele><time>2026-04-07T15:50:42Z</time></trkpt><trkpt lat="43.57820139971328" lon="13.482155011401558"><ele>167.2</ele><time>2026-04-07T15:50:43Z</time></trkpt><trkpt lat="43.57824541175452" lon="13.482276075476298"><ele>165.8</ele><time>2026-04-07T15:50:44Z</time></trkpt><trkpt lat="43.57828197752071" lon="13.482411120051108"><ele>164.4</ele><time>2026-04-07T15:50:45Z</time></trkpt><trkpt lat="43.57831901125763" lon="13.482550132142128"><ele>163.0</ele><time>2026-04-07T15:50:46Z</time></trkpt><trkpt lat="43.578358057319726" lon="13.482690553990677"><ele>163.0</ele><time>2026-04-07T15:50:47Z</time></trkpt><trkpt lat="43.578391700458425" lon="13.482828982596969"><ele>163.0</ele><time>2026-04-07T15:50:48Z</time></trkpt><trkpt lat="43.57842717706184" lon="13.482978544626626"><ele>163.0</ele><time>2026-04-07T15:50:49Z</time></trkpt><trkpt lat="43.578464778751474" lon="13.483131952105262"><ele>163.0</ele><time>2026-04-07T15:50:50Z</time></trkpt><trkpt lat="43.578503441144136" lon="13.483279795576022"><ele>161.25</ele><time>2026-04-07T15:50:51Z</time></trkpt><trkpt lat="43.5785421187856" lon="13.483432448171328"><ele>159.5</ele><time>2026-04-07T15:50:52Z</time></trkpt><trkpt lat="43.57858027213494" lon="13.483590969256085"><ele>157.75</ele><time>2026-04-07T15:50:53Z</time></trkpt><trkpt lat="43.57861761808231" lon="13.483748847633652"><ele>156.0</ele><time>2026-04-07T15:50:54Z</time></trkpt><trkpt lat="43.57866252931645" lon="13.483902323839642"><ele>152.25</ele><time>2026-04-07T15:50:55Z</time></trkpt><trkpt lat="43.57870645731106" lon="13.484058046170691"><ele>148.5</ele><time>2026-04-07T15:50:56Z</time></trkpt><trkpt lat="43.57874269564747" lon="13.48420788803572"><ele>144.75</ele><time>2026-04-07T15:50:57Z</time></trkpt><trkpt lat="43.578776893197585" lon="13.484359968342579"><ele>141.0</ele><time>2026-04-07T15:50:58Z</time></trkpt><trkpt lat="43.57881026474388" lon="13.484504478900654"><ele>141.0</ele><time>2026-04-07T15:50:59Z</time></trkpt><trkpt lat="43.578851278836254" lon="13.484640347827646"><ele>141.0</ele><time>2026-04-07T15:51:00Z</time></trkpt><trkpt lat="43.57889275205849" lon="13.484768376928622"><ele>141.0</ele><time>2026-04-07T15:51:01Z</time></trkpt><trkpt lat="43.57892313185894" lon="13.484900158776092"><ele>141.0</ele><time>2026-04-07T15:51:02Z</time></trkpt><trkpt lat="43.578956173922435" lon="13.485037127088257"><ele>141.0</ele><time>2026-04-07T15:51:03Z</time></trkpt><trkpt lat="43.57899351418368" lon="13.485175517322029"><ele>141.0</ele><time>2026-04-07T15:51:04Z</time></trkpt><trkpt lat="43.57902679514461" lon="13.48530572340069"><ele>141.0</ele><time>2026-04-07T15:51:05Z</time></trkpt><trkpt lat="43.57906178638624" lon="13.485441444304247"><ele>141.0</ele><time>2026-04-07T15:51:06Z</time></trkpt><trkpt lat="43.579098513607875" lon="13.485574346136831"><ele>141.0</ele><time>2026-04-07T15:51:07Z</time></trkpt><trkpt lat="43.57913468037838" lon="13.485708954099298"><ele>141.0</ele><time>2026-04-07T15:51:08Z</time></trkpt><trkpt lat="43.57916697160449" lon="13.48585355688115"><ele>140.0</ele><time>2026-04-07T15:51:09Z</time></trkpt><trkpt lat="43.57919210747371" lon="13.486000108400098"><ele>139.0</ele><time>2026-04-07T15:51:10Z</time></trkpt><trkpt lat="43.57920749534136" lon="13.486157922984837"><ele>138.0</ele><time>2026-04-07T15:51:11Z</time></trkpt><trkpt lat="43.57921027507389" lon="13.486328539886243"><ele>137.0</ele><time>2026-04-07T15:51:12Z</time></trkpt><trkpt lat="43.57921617830236" lon="13.486499787328055"><ele>134.75</ele><time>2026-04-07T15:51:13Z</time></trkpt><trkpt lat="43.57922657079005" lon="13.486670312089421"><ele>132.5</ele><time>2026-04-07T15:51:14Z</time></trkpt><trkpt lat="43.57924047569681" lon="13.486846107851594"><ele>130.25</ele><time>2026-04-07T15:51:15Z</time></trkpt><trkpt lat="43.57925297959157" lon="13.487019811137767"><ele>128.0</ele><time>2026-04-07T15:51:16Z</time></trkpt><trkpt lat="43.5792569189837" lon="13.487189183241759"><ele>125.25</ele><time>2026-04-07T15:51:17Z</time></trkpt><trkpt lat="43.5792878309697" lon="13.487369264917898"><ele>122.5</ele><time>2026-04-07T15:51:18Z</time></trkpt><trkpt lat="43.579332349480474" lon="13.487528332253826"><ele>119.75</ele><time>2026-04-07T15:51:19Z</time></trkpt><trkpt lat="43.57938692832973" lon="13.487690877344223"><ele>117.0</ele><time>2026-04-07T15:51:20Z</time></trkpt><trkpt lat="43.57943941489831" lon="13.487850425005064"><ele>114.75</ele><time>2026-04-07T15:51:21Z</time></trkpt><trkpt lat="43.57948587822775" lon="13.488002789387256"><ele>112.5</ele><time>2026-04-07T15:51:22Z</time></trkpt><trkpt lat="43.57953541875333" lon="13.488148924491956"><ele>110.25</ele><time>2026-04-07T15:51:23Z</time></trkpt><trkpt lat="43.57958517100194" lon="13.488291525549009"><ele>108.0</ele><time>2026-04-07T15:51:24Z</time></trkpt><trkpt lat="43.579633814693025" lon="13.48842271415626"><ele>107.60000000000001</ele><time>2026-04-07T15:51:25Z</time></trkpt><trkpt lat="43.57968534730631" lon="13.488559323690296"><ele>107.20000000000002</ele><time>2026-04-07T15:51:26Z</time></trkpt><trkpt lat="43.579740776800925" lon="13.488679228480176"><ele>106.8</ele><time>2026-04-07T15:51:27Z</time></trkpt><trkpt lat="43.57980454886762" lon="13.488792833311239"><ele>106.4</ele><time>2026-04-07T15:51:28Z</time></trkpt><trkpt lat="43.57987858736493" lon="13.48889889529253"><ele>106.0</ele><time>2026-04-07T15:51:29Z</time></trkpt><trkpt lat="43.579943736814165" lon="13.48899077305563"><ele>105.6</ele><time>2026-04-07T15:51:30Z</time></trkpt><trkpt lat="43.58001859768395" lon="13.489099215669066"><ele>105.19999999999999</ele><time>2026-04-07T15:51:31Z</time></trkpt><trkpt lat="43.58008648229854" lon="13.489205809654663"><ele>104.80000000000001</ele><time>2026-04-07T15:51:32Z</time></trkpt><trkpt lat="43.5801360507876" lon="13.489307175890886"><ele>104.4</ele><time>2026-04-07T15:51:33Z</time></trkpt><trkpt lat="43.58016237406075" lon="13.489447459354741"><ele>104.0</ele><time>2026-04-07T15:51:34Z</time></trkpt><trkpt lat="43.580200359632904" lon="13.489576354336998"><ele>102.4</ele><time>2026-04-07T15:51:35Z</time></trkpt><trkpt lat="43.58021928190787" lon="13.489715346063788"><ele>100.80000000000001</ele><time>2026-04-07T15:51:36Z</time></trkpt><trkpt lat="43.58024488858404" lon="13.489850941910406"><ele>99.19999999999999</ele><time>2026-04-07T15:51:37Z</time></trkpt><trkpt lat="43.580274418003995" lon="13.489990965418471"><ele>97.6</ele><time>2026-04-07T15:51:38Z</time></trkpt><trkpt lat="43.580304680617694" lon="13.49012944202704"><ele>96.0</ele><time>2026-04-07T15:51:39Z</time></trkpt><trkpt lat="43.580342728733555" lon="13.490274789088188"><ele>93.75</ele><time>2026-04-07T15:51:40Z</time></trkpt><trkpt lat="43.58037919032627" lon="13.49041895691376"><ele>91.5</ele><time>2026-04-07T15:51:41Z</time></trkpt><trkpt lat="43.58041707818657" lon="13.490566194034907"><ele>89.25</ele><time>2026-04-07T15:51:42Z</time></trkpt><trkpt lat="43.580449348006596" lon="13.49071546154057"><ele>87.0</ele><time>2026-04-07T15:51:43Z</time></trkpt><trkpt lat="43.58047644181608" lon="13.490867388290951"><ele>86.0</ele><time>2026-04-07T15:51:44Z</time></trkpt><trkpt lat="43.58050742382449" lon="13.491020161703789"><ele>85.0</ele><time>2026-04-07T15:51:45Z</time></trkpt><trkpt lat="43.58052663765023" lon="13.491155200115381"><ele>84.0</ele><time>2026-04-07T15:51:46Z</time></trkpt><trkpt lat="43.58054858374571" lon="13.491275403163026"><ele>83.0</ele><time>2026-04-07T15:51:47Z</time></trkpt><trkpt lat="43.580591772192534" lon="13.49136632246185"><ele>82.0</ele><time>2026-04-07T15:51:48Z</time></trkpt><trkpt lat="43.580631766144194" lon="13.491488020594762"><ele>80.19999999999999</ele><time>2026-04-07T15:51:49Z</time></trkpt><trkpt lat="43.58069437592992" lon="13.49157540656236"><ele>78.39999999999999</ele><time>2026-04-07T15:51:50Z</time></trkpt><trkpt lat="43.5807735227466" lon="13.491667266891648"><ele>76.6</ele><time>2026-04-07T15:51:51Z</time></trkpt><trkpt lat="43.58085941967582" lon="13.491754462054633"><ele>74.8</ele><time>2026-04-07T15:51:52Z</time></trkpt><trkpt lat="43.58094449992347" lon="13.491842431329202"><ele>73.0</ele><time>2026-04-07T15:51:53Z</time></trkpt><trkpt lat="43.58102808699067" lon="13.491929452352842"><ele>73.0</ele><time>2026-04-07T15:51:54Z</time></trkpt><trkpt lat="43.58111238054062" lon="13.49202239228366"><ele>73.0</ele><time>2026-04-07T15:51:55Z</time></trkpt><trkpt lat="43.58119169240785" lon="13.492112273173682"><ele>73.0</ele><time>2026-04-07T15:51:56Z</time></trkpt><trkpt lat="43.581271864644435" lon="13.492210505466954"><ele>73.0</ele><time>2026-04-07T15:51:57Z</time></trkpt><trkpt lat="43.58134933878605" lon="13.492295365346788"><ele>73.0</ele><time>2026-04-07T15:51:58Z</time></trkpt><trkpt lat="43.58142312801226" lon="13.492387079675181"><ele>71.2</ele><time>2026-04-07T15:51:59Z</time></trkpt><trkpt lat="43.58149865047426" lon="13.492471967235284"><ele>69.4</ele><time>2026-04-07T15:52:00Z</time></trkpt><trkpt lat="43.58156787482643" lon="13.49255216878801"><ele>67.60000000000001</ele><time>2026-04-07T15:52:01.001Z</time></trkpt><trkpt lat="43.58163845562277" lon="13.492632466706757"><ele>65.8</ele><time>2026-04-07T15:52:02.001Z</time></trkpt><trkpt lat="43.58171140367116" lon="13.492715133266383"><ele>64.0</ele><time>2026-04-07T15:52:03.001Z</time></trkpt><trkpt lat="43.58179220063468" lon="13.492802401646957"><ele>64.0</ele><time>2026-04-07T15:52:04.001Z</time></trkpt><trkpt lat="43.58186687052757" lon="13.492890206753815"><ele>64.0</ele><time>2026-04-07T15:52:05.001Z</time></trkpt><trkpt lat="43.58194222749301" lon="13.492977495841897"><ele>64.0</ele><time>2026-04-07T15:52:06.001Z</time></trkpt><trkpt lat="43.58200955628691" lon="13.49305532126399"><ele>64.0</ele><time>2026-04-07T15:52:07.001Z</time></trkpt><trkpt lat="43.58208161489722" lon="13.493134855284097"><ele>64.0</ele><time>2026-04-07T15:52:08.001Z</time></trkpt><trkpt lat="43.58214969342325" lon="13.493207105478303"><ele>64.16666666666666</ele><time>2026-04-07T15:52:09.001Z</time></trkpt><trkpt lat="43.58222024867388" lon="13.493276620395584"><ele>64.33333333333333</ele><time>2026-04-07T15:52:10.001Z</time></trkpt><trkpt lat="43.58229627685387" lon="13.49336566893986"><ele>64.5</ele><time>2026-04-07T15:52:11.001Z</time></trkpt><trkpt lat="43.582349476243124" lon="13.493427426517975"><ele>64.66666666666667</ele><time>2026-04-07T15:52:12.001Z</time></trkpt><trkpt lat="43.582403400162654" lon="13.493482776885596"><ele>64.83333333333334</ele><time>2026-04-07T15:52:13.001Z</time></trkpt><trkpt lat="43.582451757890425" lon="13.493540872321965"><ele>65.0</ele><time>2026-04-07T15:52:14.001Z</time></trkpt><trkpt lat="43.5825262524731" lon="13.493638003673581"><ele>65.0</ele><time>2026-04-07T15:52:16.001Z</time></trkpt><trkpt lat="43.582596955260584" lon="13.493678876078269"><ele>65.0</ele><time>2026-04-07T15:52:23.001Z</time></trkpt><trkpt lat="43.582701674422786" lon="13.49356526038848"><ele>65.0</ele><time>2026-04-07T15:52:25.001Z</time></trkpt><trkpt lat="43.582742042557605" lon="13.493457411562606"><ele>65.0</ele><time>2026-04-07T15:52:26.001Z</time></trkpt><trkpt lat="43.582799475692866" lon="13.493338161936686"><ele>65.0</ele><time>2026-04-07T15:52:27.001Z</time></trkpt><trkpt lat="43.58283751345888" lon="13.493261645092232"><ele>66.0</ele><time>2026-04-07T15:52:28.001Z</time></trkpt><trkpt lat="43.58288529746812" lon="13.493156892719192"><ele>67.0</ele><time>2026-04-07T15:52:29.001Z</time></trkpt><trkpt lat="43.582939169544225" lon="13.493047502572502"><ele>68.0</ele><time>2026-04-07T15:52:30.001Z</time></trkpt><trkpt lat="43.582945243198665" lon="13.492920509160903"><ele>69.0</ele><time>2026-04-07T15:52:31.001Z</time></trkpt><trkpt lat="43.58295264370801" lon="13.492816666651086"><ele>70.0</ele><time>2026-04-07T15:52:32.001Z</time></trkpt><trkpt lat="43.58296270159858" lon="13.492700531597936"><ele>71.0</ele><time>2026-04-07T15:52:33.001Z</time></trkpt><trkpt lat="43.582978966498075" lon="13.492582252091875"><ele>71.0</ele><time>2026-04-07T15:52:34.001Z</time></trkpt><trkpt lat="43.58302125263582" lon="13.492459732397284"><ele>71.0</ele><time>2026-04-07T15:52:35.001Z</time></trkpt><trkpt lat="43.58308433404232" lon="13.492353228268167"><ele>71.0</ele><time>2026-04-07T15:52:36.001Z</time></trkpt><trkpt lat="43.58316216593995" lon="13.492261485710637"><ele>71.0</ele><time>2026-04-07T15:52:37.001Z</time></trkpt><trkpt lat="43.58326004866304" lon="13.492203306331618"><ele>71.0</ele><time>2026-04-07T15:52:38.001Z</time></trkpt><trkpt lat="43.58334990423582" lon="13.492105565276068"><ele>71.0</ele><time>2026-04-07T15:52:39.001Z</time></trkpt><trkpt lat="43.58344374882771" lon="13.49201918766396"><ele>71.0</ele><time>2026-04-07T15:52:40.001Z</time></trkpt><trkpt lat="43.5835397926821" lon="13.49193096975439"><ele>71.0</ele><time>2026-04-07T15:52:41.001Z</time></trkpt><trkpt lat="43.58362030172382" lon="13.491842852768487"><ele>71.0</ele><time>2026-04-07T15:52:42.001Z</time></trkpt><trkpt lat="43.58369012908408" lon="13.491746965577587"><ele>71.0</ele><time>2026-04-07T15:52:43.001Z</time></trkpt><trkpt lat="43.583757500563365" lon="13.491655703034699"><ele>71.0</ele><time>2026-04-07T15:52:44.001Z</time></trkpt><trkpt lat="43.58381939797668" lon="13.491577273666715"><ele>71.0</ele><time>2026-04-07T15:52:45Z</time></trkpt><trkpt lat="43.58387504578705" lon="13.491513500149962"><ele>71.0</ele><time>2026-04-07T15:52:46Z</time></trkpt><trkpt lat="43.58393599742445" lon="13.491457309565515"><ele>71.0</ele><time>2026-04-07T15:52:47Z</time></trkpt><trkpt lat="43.58406693902394" lon="13.491453420798823"><ele>71.0</ele><time>2026-04-07T15:52:49Z</time></trkpt><trkpt lat="43.584130959229746" lon="13.491491241260867"><ele>71.0</ele><time>2026-04-07T15:52:50Z</time></trkpt><trkpt lat="43.584178342602364" lon="13.491576962748205"><ele>71.0</ele><time>2026-04-07T15:52:51Z</time></trkpt><trkpt lat="43.58422974310835" lon="13.491641656835077"><ele>71.0</ele><time>2026-04-07T15:52:52Z</time></trkpt><trkpt lat="43.58424938254419" lon="13.491733690893634"><ele>71.0</ele><time>2026-04-07T15:52:53Z</time></trkpt><trkpt lat="43.5842582358276" lon="13.491833397583857"><ele>71.0</ele><time>2026-04-07T15:52:54Z</time></trkpt><trkpt lat="43.584210760489675" lon="13.492021713543375"><ele>71.0</ele><time>2026-04-07T15:52:56Z</time></trkpt><trkpt lat="43.58410099576603" lon="13.492116233452366"><ele>71.0</ele><time>2026-04-07T15:52:58Z</time></trkpt><trkpt lat="43.58401834582268" lon="13.492143245570482"><ele>71.0</ele><time>2026-04-07T15:52:59Z</time></trkpt><trkpt lat="43.58391753998599" lon="13.492160111461104"><ele>71.0</ele><time>2026-04-07T15:53:00Z</time></trkpt><trkpt lat="43.583808572762955" lon="13.492171490218196"><ele>71.0</ele><time>2026-04-07T15:53:01Z</time></trkpt><trkpt lat="43.583691383031066" lon="13.492189366937968"><ele>71.0</ele><time>2026-04-07T15:53:02Z</time></trkpt><trkpt lat="43.583560695428346" lon="13.492215255145721"><ele>71.0</ele><time>2026-04-07T15:53:03Z</time></trkpt><trkpt lat="43.583430774884796" lon="13.492241256340645"><ele>71.0</ele><time>2026-04-07T15:53:04Z</time></trkpt><trkpt lat="43.58331602605278" lon="13.492283718205915"><ele>71.0</ele><time>2026-04-07T15:53:05Z</time></trkpt><trkpt lat="43.583207304165526" lon="13.492362657284062"><ele>71.0</ele><time>2026-04-07T15:53:06Z</time></trkpt><trkpt lat="43.58311805157283" lon="13.49247580199055"><ele>71.0</ele><time>2026-04-07T15:53:07Z</time></trkpt><trkpt lat="43.583057045368065" lon="13.492622562741424"><ele>71.0</ele><time>2026-04-07T15:53:08Z</time></trkpt><trkpt lat="43.58303535310111" lon="13.49278607301316"><ele>71.0</ele><time>2026-04-07T15:53:09Z</time></trkpt><trkpt lat="43.58305306819159" lon="13.492953870134086"><ele>71.0</ele><time>2026-04-07T15:53:10Z</time></trkpt><trkpt lat="43.58310327824904" lon="13.49311198368578"><ele>71.6</ele><time>2026-04-07T15:53:11Z</time></trkpt><trkpt lat="43.583172963097084" lon="13.493252642454468"><ele>72.19999999999999</ele><time>2026-04-07T15:53:12Z</time></trkpt><trkpt lat="43.58322918719102" lon="13.493386606555774"><ele>72.80000000000001</ele><time>2026-04-07T15:53:13Z</time></trkpt><trkpt lat="43.58324808192475" lon="13.493521990336655"><ele>73.4</ele><time>2026-04-07T15:53:14Z</time></trkpt><trkpt lat="43.58323975834842" lon="13.493658565066262"><ele>74.0</ele><time>2026-04-07T15:53:15Z</time></trkpt><trkpt lat="43.58319513508034" lon="13.493780172828963"><ele>75.0</ele><time>2026-04-07T15:53:16Z</time></trkpt><trkpt lat="43.58312785045058" lon="13.493892170835279"><ele>76.0</ele><time>2026-04-07T15:53:17Z</time></trkpt><trkpt lat="43.5830492567661" lon="13.494002174873435"><ele>77.0</ele><time>2026-04-07T15:53:18Z</time></trkpt><trkpt lat="43.58299254083401" lon="13.494141395807912"><ele>78.0</ele><time>2026-04-07T15:53:19Z</time></trkpt><trkpt lat="43.582874345385" lon="13.494236868420398"><ele>75.25</ele><time>2026-04-07T15:53:20Z</time></trkpt><trkpt lat="43.58277905218185" lon="13.494368110560304"><ele>72.5</ele><time>2026-04-07T15:53:21Z</time></trkpt><trkpt lat="43.58268135770132" lon="13.494498714034078"><ele>69.75</ele><time>2026-04-07T15:53:22Z</time></trkpt><trkpt lat="43.58257800640327" lon="13.494635183629606"><ele>67.0</ele><time>2026-04-07T15:53:23Z</time></trkpt><trkpt lat="43.58247326520279" lon="13.494771657327371"><ele>67.0</ele><time>2026-04-07T15:53:24Z</time></trkpt><trkpt lat="43.582366675791555" lon="13.494912616136158"><ele>67.0</ele><time>2026-04-07T15:53:25Z</time></trkpt><trkpt lat="43.58225255715014" lon="13.495053676732088"><ele>67.0</ele><time>2026-04-07T15:53:26Z</time></trkpt><trkpt lat="43.582131180021165" lon="13.495186120575491"><ele>66.66666666666666</ele><time>2026-04-07T15:53:27Z</time></trkpt><trkpt lat="43.58201259103938" lon="13.495317386305496"><ele>66.33333333333333</ele><time>2026-04-07T15:53:28Z</time></trkpt><trkpt lat="43.581886563655885" lon="13.495452577578847"><ele>66.0</ele><time>2026-04-07T15:53:29Z</time></trkpt><trkpt lat="43.581755037999315" lon="13.49558288495171"><ele>66.0</ele><time>2026-04-07T15:53:30Z</time></trkpt><trkpt lat="43.58162335904072" lon="13.49570994079568"><ele>66.0</ele><time>2026-04-07T15:53:31Z</time></trkpt><trkpt lat="43.58149516708394" lon="13.495836485736222"><ele>66.0</ele><time>2026-04-07T15:53:32Z</time></trkpt><trkpt lat="43.5813666237521" lon="13.495958144528892"><ele>66.0</ele><time>2026-04-07T15:53:33Z</time></trkpt><trkpt lat="43.58123598292986" lon="13.496079377839212"><ele>66.0</ele><time>2026-04-07T15:53:34Z</time></trkpt><trkpt lat="43.581104714088866" lon="13.49620155605341"><ele>66.0</ele><time>2026-04-07T15:53:35Z</time></trkpt><trkpt lat="43.58097124619944" lon="13.496327023738463"><ele>63.66666666666667</ele><time>2026-04-07T15:53:36Z</time></trkpt><trkpt lat="43.5808501252321" lon="13.496449386273312"><ele>61.333333333333336</ele><time>2026-04-07T15:53:37Z</time></trkpt><trkpt lat="43.58071977554859" lon="13.496578109390375"><ele>59.0</ele><time>2026-04-07T15:53:38Z</time></trkpt><trkpt lat="43.5805999591335" lon="13.49669786600213"><ele>59.0</ele><time>2026-04-07T15:53:39Z</time></trkpt><trkpt lat="43.58048559112966" lon="13.496807708614213"><ele>59.0</ele><time>2026-04-07T15:53:40Z</time></trkpt><trkpt lat="43.58037421855714" lon="13.49690897255033"><ele>59.0</ele><time>2026-04-07T15:53:41Z</time></trkpt><trkpt lat="43.58026688019817" lon="13.497007695029856"><ele>59.0</ele><time>2026-04-07T15:53:42Z</time></trkpt><trkpt lat="43.58016128427859" lon="13.497104801333597"><ele>58.0</ele><time>2026-04-07T15:53:43Z</time></trkpt><trkpt lat="43.580058656022004" lon="13.497206792061283"><ele>57.0</ele><time>2026-04-07T15:53:44Z</time></trkpt><trkpt lat="43.5799623508266" lon="13.497304643016982"><ele>56.0</ele><time>2026-04-07T15:53:45Z</time></trkpt><trkpt lat="43.579868748051304" lon="13.497400849928235"><ele>55.0</ele><time>2026-04-07T15:53:46Z</time></trkpt><trkpt lat="43.579778454018324" lon="13.497496132583606"><ele>55.0</ele><time>2026-04-07T15:53:47Z</time></trkpt><trkpt lat="43.57968783409303" lon="13.497587774407071"><ele>55.0</ele><time>2026-04-07T15:53:48Z</time></trkpt><trkpt lat="43.57959997344007" lon="13.497689345470747"><ele>55.0</ele><time>2026-04-07T15:53:49Z</time></trkpt><trkpt lat="43.579514981034876" lon="13.497789031387137"><ele>55.0</ele><time>2026-04-07T15:53:50Z</time></trkpt><trkpt lat="43.579431929862416" lon="13.497883463921283"><ele>55.0</ele><time>2026-04-07T15:53:51Z</time></trkpt><trkpt lat="43.579347817334074" lon="13.497980888367357"><ele>55.25</ele><time>2026-04-07T15:53:52Z</time></trkpt><trkpt lat="43.57925202460704" lon="13.498087234245641"><ele>55.5</ele><time>2026-04-07T15:53:53Z</time></trkpt><trkpt lat="43.57916270954495" lon="13.498188018969"><ele>55.75</ele><time>2026-04-07T15:53:54Z</time></trkpt><trkpt lat="43.57907267322607" lon="13.498293257386543"><ele>56.0</ele><time>2026-04-07T15:53:55Z</time></trkpt><trkpt lat="43.5789808557665" lon="13.498401860157568"><ele>56.0</ele><time>2026-04-07T15:53:56Z</time></trkpt><trkpt lat="43.57888672140174" lon="13.498511103200956"><ele>56.0</ele><time>2026-04-07T15:53:57Z</time></trkpt><trkpt lat="43.57878875037226" lon="13.498623317575273"><ele>56.0</ele><time>2026-04-07T15:53:58Z</time></trkpt><trkpt lat="43.57869041779679" lon="13.498737022688555"><ele>56.0</ele><time>2026-04-07T15:53:59Z</time></trkpt><trkpt lat="43.57859138845985" lon="13.498850829617078"><ele>56.0</ele><time>2026-04-07T15:54:00Z</time></trkpt><trkpt lat="43.57849152691961" lon="13.498964639268149"><ele>56.0</ele><time>2026-04-07T15:54:01Z</time></trkpt><trkpt lat="43.57839378771185" lon="13.499080824302649"><ele>56.0</ele><time>2026-04-07T15:54:02Z</time></trkpt><trkpt lat="43.578298441938315" lon="13.499190594372854"><ele>56.0</ele><time>2026-04-07T15:54:03Z</time></trkpt><trkpt lat="43.57820615787434" lon="13.499294334299988"><ele>56.0</ele><time>2026-04-07T15:54:04Z</time></trkpt><trkpt lat="43.57812035285087" lon="13.4993935744117"><ele>55.99999999999999</ele><time>2026-04-07T15:54:05Z</time></trkpt><trkpt lat="43.578036714678575" lon="13.499491847100906"><ele>55.99999999999999</ele><time>2026-04-07T15:54:06Z</time></trkpt><trkpt lat="43.57795471758944" lon="13.499584610991574"><ele>56.0</ele><time>2026-04-07T15:54:07Z</time></trkpt><trkpt lat="43.577874183310726" lon="13.499682897834367"><ele>56.0</ele><time>2026-04-07T15:54:08Z</time></trkpt><trkpt lat="43.57779124595073" lon="13.499780598293343"><ele>56.5</ele><time>2026-04-07T15:54:09Z</time></trkpt><trkpt lat="43.577705670078934" lon="13.499876350220688"><ele>57.0</ele><time>2026-04-07T15:54:10.001Z</time></trkpt><trkpt lat="43.57762260878274" lon="13.499972278910896"><ele>57.5</ele><time>2026-04-07T15:54:11.001Z</time></trkpt><trkpt lat="43.57753659241738" lon="13.500077050779163"><ele>58.0</ele><time>2026-04-07T15:54:12.001Z</time></trkpt><trkpt lat="43.57744935186924" lon="13.500184819057061"><ele>58.0</ele><time>2026-04-07T15:54:13.001Z</time></trkpt><trkpt lat="43.57736295968683" lon="13.500288904118511"><ele>58.0</ele><time>2026-04-07T15:54:14.001Z</time></trkpt><trkpt lat="43.57727412228145" lon="13.500392631164774"><ele>58.0</ele><time>2026-04-07T15:54:15.001Z</time></trkpt><trkpt lat="43.57718495065777" lon="13.500492907068665"><ele>58.0</ele><time>2026-04-07T15:54:16.001Z</time></trkpt><trkpt lat="43.57709598798577" lon="13.500601868461397"><ele>57.25</ele><time>2026-04-07T15:54:17.001Z</time></trkpt><trkpt lat="43.577006932750486" lon="13.500711518620665"><ele>56.5</ele><time>2026-04-07T15:54:18.001Z</time></trkpt><trkpt lat="43.576917735500494" lon="13.500818579854764"><ele>55.75</ele><time>2026-04-07T15:54:19.001Z</time></trkpt><trkpt lat="43.57682750566103" lon="13.50092906949401"><ele>55.0</ele><time>2026-04-07T15:54:20.001Z</time></trkpt><trkpt lat="43.57674023355149" lon="13.501037003519984"><ele>55.0</ele><time>2026-04-07T15:54:21.001Z</time></trkpt><trkpt lat="43.576649764490995" lon="13.501144710789712"><ele>55.0</ele><time>2026-04-07T15:54:22.001Z</time></trkpt><trkpt lat="43.576562209164834" lon="13.501249400700097"><ele>55.0</ele><time>2026-04-07T15:54:23.001Z</time></trkpt><trkpt lat="43.57647140240158" lon="13.501358522786196"><ele>55.0</ele><time>2026-04-07T15:54:24.001Z</time></trkpt><trkpt lat="43.57638716145524" lon="13.501462889233661"><ele>55.0</ele><time>2026-04-07T15:54:25.001Z</time></trkpt><trkpt lat="43.57630087636113" lon="13.501567195528985"><ele>55.0</ele><time>2026-04-07T15:54:26.001Z</time></trkpt><trkpt lat="43.57620708855504" lon="13.50167715326045"><ele>55.0</ele><time>2026-04-07T15:54:27.001Z</time></trkpt><trkpt lat="43.576118285010466" lon="13.501785381959282"><ele>55.0</ele><time>2026-04-07T15:54:28.001Z</time></trkpt><trkpt lat="43.57602626388095" lon="13.50189372981636"><ele>55.0</ele><time>2026-04-07T15:54:29.001Z</time></trkpt><trkpt lat="43.5759330767324" lon="13.50200414435265"><ele>55.0</ele><time>2026-04-07T15:54:30.001Z</time></trkpt><trkpt lat="43.575836814801825" lon="13.5021153678982"><ele>55.0</ele><time>2026-04-07T15:54:31.001Z</time></trkpt><trkpt lat="43.57574366817976" lon="13.502231471750816"><ele>55.0</ele><time>2026-04-07T15:54:32.001Z</time></trkpt><trkpt lat="43.575648094932454" lon="13.502347593519172"><ele>55.0</ele><time>2026-04-07T15:54:33.001Z</time></trkpt><trkpt lat="43.575550440422674" lon="13.502463048920088"><ele>55.0</ele><time>2026-04-07T15:54:34.001Z</time></trkpt><trkpt lat="43.57545212091265" lon="13.502578672986298"><ele>55.0</ele><time>2026-04-07T15:54:35.001Z</time></trkpt><trkpt lat="43.575357684256346" lon="13.502690644253352"><ele>55.0</ele><time>2026-04-07T15:54:36.001Z</time></trkpt><trkpt lat="43.57526920826555" lon="13.50279151152188"><ele>55.0</ele><time>2026-04-07T15:54:37.001Z</time></trkpt><trkpt lat="43.57517773897693" lon="13.502896080000026"><ele>55.0</ele><time>2026-04-07T15:54:38.001Z</time></trkpt><trkpt lat="43.57508765213106" lon="13.503005726111045"><ele>55.0</ele><time>2026-04-07T15:54:39.001Z</time></trkpt><trkpt lat="43.57499805525565" lon="13.503117511028368"><ele>55.0</ele><time>2026-04-07T15:54:40.001Z</time></trkpt><trkpt lat="43.57490336503028" lon="13.503230282281146"><ele>53.75</ele><time>2026-04-07T15:54:41.001Z</time></trkpt><trkpt lat="43.57481214036964" lon="13.503342689626251"><ele>52.5</ele><time>2026-04-07T15:54:42.001Z</time></trkpt><trkpt lat="43.574718426598494" lon="13.503454999062587"><ele>51.25</ele><time>2026-04-07T15:54:43.001Z</time></trkpt><trkpt lat="43.5746235179022" lon="13.503568984394198"><ele>50.0</ele><time>2026-04-07T15:54:44.001Z</time></trkpt><trkpt lat="43.574529930860656" lon="13.50368331762746"><ele>49.25</ele><time>2026-04-07T15:54:45.001Z</time></trkpt><trkpt lat="43.57443749079137" lon="13.503798985037168"><ele>48.5</ele><time>2026-04-07T15:54:46.001Z</time></trkpt><trkpt lat="43.57434191290413" lon="13.503917533600196"><ele>47.75</ele><time>2026-04-07T15:54:47.001Z</time></trkpt><trkpt lat="43.57424862707365" lon="13.504030121051594"><ele>47.0</ele><time>2026-04-07T15:54:48.001Z</time></trkpt><trkpt lat="43.574161521604026" lon="13.504132716583053"><ele>47.0</ele><time>2026-04-07T15:54:49.001Z</time></trkpt><trkpt lat="43.574088050800725" lon="13.504224315068736"><ele>47.0</ele><time>2026-04-07T15:54:50.001Z</time></trkpt><trkpt lat="43.57402330043753" lon="13.50431372982058"><ele>47.0</ele><time>2026-04-07T15:54:51Z</time></trkpt><trkpt lat="43.57395477509613" lon="13.504406220698224"><ele>47.0</ele><time>2026-04-07T15:54:52Z</time></trkpt><trkpt lat="43.57388166803345" lon="13.504499727673595"><ele>47.0</ele><time>2026-04-07T15:54:53Z</time></trkpt><trkpt lat="43.57380493911867" lon="13.504595324940176"><ele>47.2</ele><time>2026-04-07T15:54:54Z</time></trkpt><trkpt lat="43.573727199862624" lon="13.504693972234307"><ele>47.400000000000006</ele><time>2026-04-07T15:54:55Z</time></trkpt><trkpt lat="43.5736335338683" lon="13.504760710750059"><ele>47.599999999999994</ele><time>2026-04-07T15:54:56Z</time></trkpt><trkpt lat="43.573554630392316" lon="13.504856706851136"><ele>47.8</ele><time>2026-04-07T15:54:57Z</time></trkpt><trkpt lat="43.57347334797104" lon="13.504954378307714"><ele>48.0</ele><time>2026-04-07T15:54:58Z</time></trkpt><trkpt lat="43.57339565967588" lon="13.505046276337861"><ele>48.0</ele><time>2026-04-07T15:54:59Z</time></trkpt><trkpt lat="43.57333164081333" lon="13.505158355918487"><ele>48.0</ele><time>2026-04-07T15:55:00Z</time></trkpt><trkpt lat="43.573253732873695" lon="13.505250863407852"><ele>48.0</ele><time>2026-04-07T15:55:01Z</time></trkpt><trkpt lat="43.573173465240195" lon="13.505345101731324"><ele>48.0</ele><time>2026-04-07T15:55:02Z</time></trkpt><trkpt lat="43.573096728584225" lon="13.505428945105328"><ele>48.0</ele><time>2026-04-07T15:55:03Z</time></trkpt><trkpt lat="43.5730304701543" lon="13.505503762905361"><ele>47.833333333333336</ele><time>2026-04-07T15:55:04Z</time></trkpt><trkpt lat="43.572972377711245" lon="13.505569563388015"><ele>47.666666666666664</ele><time>2026-04-07T15:55:05Z</time></trkpt><trkpt lat="43.57291854304771" lon="13.505633941156187"><ele>47.5</ele><time>2026-04-07T15:55:06Z</time></trkpt><trkpt lat="43.57281917084647" lon="13.505749093474018"><ele>47.33333333333333</ele><time>2026-04-07T15:55:08Z</time></trkpt><trkpt lat="43.572759998499386" lon="13.505797847038611"><ele>47.166666666666664</ele><time>2026-04-07T15:55:09Z</time></trkpt><trkpt lat="43.5726961966916" lon="13.505872434397052"><ele>47.0</ele><time>2026-04-07T15:55:10Z</time></trkpt><trkpt lat="43.57262483079609" lon="13.505955864416185"><ele>47.0</ele><time>2026-04-07T15:55:11Z</time></trkpt><trkpt lat="43.57254320427937" lon="13.50605128967425"><ele>47.0</ele><time>2026-04-07T15:55:12Z</time></trkpt><trkpt lat="43.57246048941037" lon="13.506147987219277"><ele>47.0</ele><time>2026-04-07T15:55:13Z</time></trkpt><trkpt lat="43.57239356888661" lon="13.506247237645004"><ele>47.0</ele><time>2026-04-07T15:55:14Z</time></trkpt><trkpt lat="43.57232596237477" lon="13.506323741198436"><ele>47.0</ele><time>2026-04-07T15:55:15Z</time></trkpt><trkpt lat="43.572259026419026" lon="13.506394775725388"><ele>47.0</ele><time>2026-04-07T15:55:16Z</time></trkpt><trkpt lat="43.57220753983198" lon="13.506467768010133"><ele>47.0</ele><time>2026-04-07T15:55:17Z</time></trkpt><trkpt lat="43.572152541930436" lon="13.506533311326036"><ele>47.0</ele><time>2026-04-07T15:55:18Z</time></trkpt><trkpt lat="43.572092526887964" lon="13.506595768521187"><ele>47.0</ele><time>2026-04-07T15:55:19Z</time></trkpt><trkpt lat="43.57202775006749" lon="13.506666105716544"><ele>47.0</ele><time>2026-04-07T15:55:20Z</time></trkpt><trkpt lat="43.571961314386705" lon="13.506741882381355"><ele>47.0</ele><time>2026-04-07T15:55:21Z</time></trkpt><trkpt lat="43.5718987077965" lon="13.50681864778811"><ele>47.166666666666664</ele><time>2026-04-07T15:55:22Z</time></trkpt><trkpt lat="43.57183261596943" lon="13.506899910701167"><ele>47.33333333333333</ele><time>2026-04-07T15:55:23Z</time></trkpt><trkpt lat="43.57176496829643" lon="13.50697829036253"><ele>47.5</ele><time>2026-04-07T15:55:24Z</time></trkpt><trkpt lat="43.571701996828494" lon="13.507051518731275"><ele>47.666666666666664</ele><time>2026-04-07T15:55:25Z</time></trkpt><trkpt lat="43.57164052289516" lon="13.50712440989254"><ele>47.833333333333336</ele><time>2026-04-07T15:55:26Z</time></trkpt><trkpt lat="43.571583164207524" lon="13.507191122268274"><ele>48.0</ele><time>2026-04-07T15:55:27Z</time></trkpt><trkpt lat="43.571526879827694" lon="13.50726236604516"><ele>48.166666666666664</ele><time>2026-04-07T15:55:28Z</time></trkpt><trkpt lat="43.57146579033777" lon="13.507331536770554"><ele>48.33333333333333</ele><time>2026-04-07T15:55:29Z</time></trkpt><trkpt lat="43.57140340313992" lon="13.507400597239926"><ele>48.5</ele><time>2026-04-07T15:55:30Z</time></trkpt><trkpt lat="43.57134079822101" lon="13.507471326606769"><ele>48.666666666666664</ele><time>2026-04-07T15:55:31Z</time></trkpt><trkpt lat="43.57126695349615" lon="13.507550634524314"><ele>48.83333333333333</ele><time>2026-04-07T15:55:32Z</time></trkpt><trkpt lat="43.57119245938741" lon="13.507624242909465"><ele>49.0</ele><time>2026-04-07T15:55:33Z</time></trkpt><trkpt lat="43.571109500497336" lon="13.50769569041537"><ele>49.0</ele><time>2026-04-07T15:55:34Z</time></trkpt><trkpt lat="43.571018030191944" lon="13.50775411200934"><ele>49.0</ele><time>2026-04-07T15:55:35Z</time></trkpt><trkpt lat="43.5709354837848" lon="13.507792202045907"><ele>49.0</ele><time>2026-04-07T15:55:36Z</time></trkpt><trkpt lat="43.57086181504722" lon="13.507817502920336"><ele>49.0</ele><time>2026-04-07T15:55:37Z</time></trkpt><trkpt lat="43.570797777147455" lon="13.507833435412959"><ele>49.0</ele><time>2026-04-07T15:55:38Z</time></trkpt><trkpt lat="43.570665349550204" lon="13.50784068752784"><ele>49.0</ele><time>2026-04-07T15:55:40Z</time></trkpt><trkpt lat="43.57057714425915" lon="13.507829090513402"><ele>49.0</ele><time>2026-04-07T15:55:41Z</time></trkpt><trkpt lat="43.57048249580881" lon="13.507855165792765"><ele>49.0</ele><time>2026-04-07T15:55:42Z</time></trkpt><trkpt lat="43.570401268684975" lon="13.507942757301487"><ele>49.0</ele><time>2026-04-07T15:55:43Z</time></trkpt><trkpt lat="43.57036149562468" lon="13.50806423854831"><ele>49.0</ele><time>2026-04-07T15:55:44Z</time></trkpt><trkpt lat="43.57035298277238" lon="13.508208673373701"><ele>48.400000000000006</ele><time>2026-04-07T15:55:45Z</time></trkpt><trkpt lat="43.57036075664903" lon="13.50835825995982"><ele>47.8</ele><time>2026-04-07T15:55:46Z</time></trkpt><trkpt lat="43.57035645650522" lon="13.508490704464997"><ele>47.2</ele><time>2026-04-07T15:55:47Z</time></trkpt><trkpt lat="43.570332592685865" lon="13.508608989333418"><ele>46.599999999999994</ele><time>2026-04-07T15:55:48Z</time></trkpt><trkpt lat="43.57028376685768" lon="13.508718335189192"><ele>46.0</ele><time>2026-04-07T15:55:49Z</time></trkpt><trkpt lat="43.57020231666554" lon="13.508799788027876"><ele>45.8</ele><time>2026-04-07T15:55:50Z</time></trkpt><trkpt lat="43.57012660696662" lon="13.508911186660534"><ele>45.599999999999994</ele><time>2026-04-07T15:55:51Z</time></trkpt><trkpt lat="43.5700370343215" lon="13.509011213189854"><ele>45.4</ele><time>2026-04-07T15:55:52Z</time></trkpt><trkpt lat="43.56995153676522" lon="13.509113939806639"><ele>45.2</ele><time>2026-04-07T15:55:53Z</time></trkpt><trkpt lat="43.5698698181981" lon="13.50921517221703"><ele>45.0</ele><time>2026-04-07T15:55:54Z</time></trkpt><trkpt lat="43.56978185200646" lon="13.509322988847181"><ele>45.0</ele><time>2026-04-07T15:55:55Z</time></trkpt><trkpt lat="43.56969167140696" lon="13.50943008358501"><ele>45.0</ele><time>2026-04-07T15:55:56Z</time></trkpt><trkpt lat="43.569593682986515" lon="13.509544211461554"><ele>45.0</ele><time>2026-04-07T15:55:57Z</time></trkpt><trkpt lat="43.56949744702392" lon="13.509657158976625"><ele>45.0</ele><time>2026-04-07T15:55:58Z</time></trkpt><trkpt lat="43.56939895250604" lon="13.509774243721292"><ele>45.75</ele><time>2026-04-07T15:55:59Z</time></trkpt><trkpt lat="43.56930026647893" lon="13.50989602243304"><ele>46.5</ele><time>2026-04-07T15:56:00Z</time></trkpt><trkpt lat="43.569197184824276" lon="13.510013902932958"><ele>47.25</ele><time>2026-04-07T15:56:01Z</time></trkpt><trkpt lat="43.56909338111584" lon="13.510126502301999"><ele>48.0</ele><time>2026-04-07T15:56:02Z</time></trkpt><trkpt lat="43.56898993869595" lon="13.510233854579555"><ele>48.0</ele><time>2026-04-07T15:56:03Z</time></trkpt><trkpt lat="43.568888203007866" lon="13.510341308735864"><ele>48.0</ele><time>2026-04-07T15:56:04Z</time></trkpt><trkpt lat="43.56878218377738" lon="13.510461824751221"><ele>48.0</ele><time>2026-04-07T15:56:05Z</time></trkpt><trkpt lat="43.568678765009594" lon="13.510584444931407"><ele>48.0</ele><time>2026-04-07T15:56:06Z</time></trkpt><trkpt lat="43.56857512250864" lon="13.510703075709667"><ele>48.25</ele><time>2026-04-07T15:56:07Z</time></trkpt><trkpt lat="43.56846817111681" lon="13.510812225366427"><ele>48.5</ele><time>2026-04-07T15:56:08Z</time></trkpt><trkpt lat="43.56835858269117" lon="13.510898305700351"><ele>48.75</ele><time>2026-04-07T15:56:09Z</time></trkpt><trkpt lat="43.568235095266154" lon="13.510960787669873"><ele>49.0</ele><time>2026-04-07T15:56:10Z</time></trkpt><trkpt lat="43.56809966789414" lon="13.511002391804462"><ele>49.0</ele><time>2026-04-07T15:56:11Z</time></trkpt><trkpt lat="43.56795378070437" lon="13.511014888974632"><ele>49.0</ele><time>2026-04-07T15:56:12Z</time></trkpt><trkpt lat="43.567809593093884" lon="13.511019343170524"><ele>49.0</ele><time>2026-04-07T15:56:13Z</time></trkpt><trkpt lat="43.567665102139415" lon="13.511006011859687"><ele>49.0</ele><time>2026-04-07T15:56:14Z</time></trkpt><trkpt lat="43.567517025970474" lon="13.510988455609676"><ele>49.0</ele><time>2026-04-07T15:56:15Z</time></trkpt><trkpt lat="43.5673532718562" lon="13.510973938049908"><ele>49.0</ele><time>2026-04-07T15:56:16Z</time></trkpt><trkpt lat="43.56721935259751" lon="13.510969019745414"><ele>49.0</ele><time>2026-04-07T15:56:17Z</time></trkpt><trkpt lat="43.567081528490625" lon="13.510968101086135"><ele>49.0</ele><time>2026-04-07T15:56:18Z</time></trkpt><trkpt lat="43.56694134872576" lon="13.510958060583832"><ele>49.25</ele><time>2026-04-07T15:56:19Z</time></trkpt><trkpt lat="43.56681017336954" lon="13.510950960518361"><ele>49.5</ele><time>2026-04-07T15:56:20Z</time></trkpt><trkpt lat="43.566671269087095" lon="13.510943040148424"><ele>49.75</ele><time>2026-04-07T15:56:21Z</time></trkpt><trkpt lat="43.56654665856879" lon="13.510937318140043"><ele>50.0</ele><time>2026-04-07T15:56:22Z</time></trkpt><trkpt lat="43.5664288034618" lon="13.51093092638377"><ele>50.0</ele><time>2026-04-07T15:56:23Z</time></trkpt><trkpt lat="43.56631289267633" lon="13.510925791644102"><ele>50.0</ele><time>2026-04-07T15:56:24Z</time></trkpt><trkpt lat="43.56619635349888" lon="13.510921548358608"><ele>50.0</ele><time>2026-04-07T15:56:25Z</time></trkpt><trkpt lat="43.5660822963762" lon="13.510915911916658"><ele>50.0</ele><time>2026-04-07T15:56:26Z</time></trkpt><trkpt lat="43.56596517784794" lon="13.510909276862613"><ele>49.25</ele><time>2026-04-07T15:56:27Z</time></trkpt><trkpt lat="43.56585213347131" lon="13.510901272243695"><ele>48.5</ele><time>2026-04-07T15:56:28Z</time></trkpt><trkpt lat="43.56573692900737" lon="13.510890345021485"><ele>47.75</ele><time>2026-04-07T15:56:29Z</time></trkpt><trkpt lat="43.565615830039214" lon="13.510887882594933"><ele>47.0</ele><time>2026-04-07T15:56:30Z</time></trkpt><trkpt lat="43.565497137968464" lon="13.510885153891866"><ele>47.0</ele><time>2026-04-07T15:56:31.001Z</time></trkpt><trkpt lat="43.56537833952958" lon="13.51088366393976"><ele>47.0</ele><time>2026-04-07T15:56:32.001Z</time></trkpt><trkpt lat="43.565264548329836" lon="13.510877396452399"><ele>47.0</ele><time>2026-04-07T15:56:33.001Z</time></trkpt><trkpt lat="43.56514948617237" lon="13.510872582462673"><ele>47.0</ele><time>2026-04-07T15:56:34.001Z</time></trkpt><trkpt lat="43.5650322139353" lon="13.510866887737082"><ele>46.75</ele><time>2026-04-07T15:56:35.001Z</time></trkpt><trkpt lat="43.564912359640125" lon="13.510860535313554"><ele>46.5</ele><time>2026-04-07T15:56:36.001Z</time></trkpt><trkpt lat="43.56478803142036" lon="13.51085051661547"><ele>46.25</ele><time>2026-04-07T15:56:37.001Z</time></trkpt><trkpt lat="43.564665413549946" lon="13.510841563994678"><ele>46.0</ele><time>2026-04-07T15:56:38.001Z</time></trkpt><trkpt lat="43.56455038981838" lon="13.510843688605974"><ele>45.0</ele><time>2026-04-07T15:56:39.001Z</time></trkpt><trkpt lat="43.56443584083675" lon="13.510846542487894"><ele>44.0</ele><time>2026-04-07T15:56:40.001Z</time></trkpt><trkpt lat="43.56431257134016" lon="13.510835598226691"><ele>43.0</ele><time>2026-04-07T15:56:41.001Z</time></trkpt><trkpt lat="43.5641877284369" lon="13.510822468284303"><ele>42.0</ele><time>2026-04-07T15:56:42.001Z</time></trkpt><trkpt lat="43.56406165091636" lon="13.510812645894063"><ele>42.0</ele><time>2026-04-07T15:56:43.001Z</time></trkpt><trkpt lat="43.5639474942679" lon="13.510805678138091"><ele>42.0</ele><time>2026-04-07T15:56:44.001Z</time></trkpt><trkpt lat="43.56383263631522" lon="13.510800736705043"><ele>42.0</ele><time>2026-04-07T15:56:45.001Z</time></trkpt><trkpt lat="43.56372054255447" lon="13.510790287464149"><ele>42.0</ele><time>2026-04-07T15:56:46.001Z</time></trkpt><trkpt lat="43.563602617807405" lon="13.510777143574483"><ele>41.8</ele><time>2026-04-07T15:56:47.001Z</time></trkpt><trkpt lat="43.56348704183543" lon="13.51076731920915"><ele>41.6</ele><time>2026-04-07T15:56:48.001Z</time></trkpt><trkpt lat="43.563370765415" lon="13.510759530903961"><ele>41.4</ele><time>2026-04-07T15:56:49.001Z</time></trkpt><trkpt lat="43.56326112289915" lon="13.510754711964772"><ele>41.199999999999996</ele><time>2026-04-07T15:56:50.001Z</time></trkpt><trkpt lat="43.56316330615985" lon="13.510751327832072"><ele>41.0</ele><time>2026-04-07T15:56:51.001Z</time></trkpt><trkpt lat="43.56308417437844" lon="13.510746375935927"><ele>41.0</ele><time>2026-04-07T15:56:52.001Z</time></trkpt><trkpt lat="43.56302052393015" lon="13.510739600926474"><ele>41.0</ele><time>2026-04-07T15:56:53.001Z</time></trkpt><trkpt lat="43.56295058141015" lon="13.510736165262918"><ele>41.0</ele><time>2026-04-07T15:56:55.001Z</time></trkpt><trkpt lat="43.56285020703355" lon="13.510721287699361"><ele>41.0</ele><time>2026-04-07T15:56:58Z</time></trkpt><trkpt lat="43.56276445805603" lon="13.510713446665243"><ele>41.0</ele><time>2026-04-07T15:56:59Z</time></trkpt><trkpt lat="43.56267353099559" lon="13.510706891924464"><ele>41.0</ele><time>2026-04-07T15:57:00Z</time></trkpt><trkpt lat="43.56257652479838" lon="13.51070930633147"><ele>41.0</ele><time>2026-04-07T15:57:01Z</time></trkpt><trkpt lat="43.56247568946145" lon="13.510727834914881"><ele>41.0</ele><time>2026-04-07T15:57:02Z</time></trkpt><trkpt lat="43.56238856528307" lon="13.510759490136792"><ele>41.0</ele><time>2026-04-07T15:57:03Z</time></trkpt><trkpt lat="43.56231889812739" lon="13.510800488919362"><ele>41.0</ele><time>2026-04-07T15:57:04Z</time></trkpt><trkpt lat="43.56223002600503" lon="13.510811512048056"><ele>41.0</ele><time>2026-04-07T15:57:06Z</time></trkpt><trkpt lat="43.56215110080363" lon="13.510758233355066"><ele>41.0</ele><time>2026-04-07T15:57:08Z</time></trkpt><trkpt lat="43.56209174379163" lon="13.510723759466991"><ele>40.83333333333333</ele><time>2026-04-07T15:57:09Z</time></trkpt><trkpt lat="43.56201682386568" lon="13.510709691991346"><ele>40.666666666666664</ele><time>2026-04-07T15:57:10Z</time></trkpt><trkpt lat="43.561924714544716" lon="13.510704813252351"><ele>40.5</ele><time>2026-04-07T15:57:11Z</time></trkpt><trkpt lat="43.5618232464422" lon="13.510700017946997"><ele>40.333333333333336</ele><time>2026-04-07T15:57:12Z</time></trkpt><trkpt lat="43.56173195642733" lon="13.510685740163147"><ele>40.16666666666667</ele><time>2026-04-07T15:57:13Z</time></trkpt><trkpt lat="43.561651797800664" lon="13.510664938927649"><ele>40.0</ele><time>2026-04-07T15:57:14Z</time></trkpt><trkpt lat="43.561570239236474" lon="13.510641092461"><ele>40.0</ele><time>2026-04-07T15:57:15Z</time></trkpt><trkpt lat="43.56147475700539" lon="13.510615626555461"><ele>40.0</ele><time>2026-04-07T15:57:16Z</time></trkpt><trkpt lat="43.56136544034084" lon="13.510595233389704"><ele>40.0</ele><time>2026-04-07T15:57:17Z</time></trkpt><trkpt lat="43.56124058961686" lon="13.51058117782279"><ele>40.0</ele><time>2026-04-07T15:57:18Z</time></trkpt><trkpt lat="43.56112047057307" lon="13.510571157527053"><ele>40.25</ele><time>2026-04-07T15:57:19Z</time></trkpt><trkpt lat="43.56101299616376" lon="13.510566394501778"><ele>40.5</ele><time>2026-04-07T15:57:20Z</time></trkpt><trkpt lat="43.560909504741055" lon="13.510574059779943"><ele>40.75</ele><time>2026-04-07T15:57:21Z</time></trkpt><trkpt lat="43.5607951420577" lon="13.510577678148046"><ele>41.0</ele><time>2026-04-07T15:57:22Z</time></trkpt><trkpt lat="43.56066335538594" lon="13.510579800112039"><ele>41.0</ele><time>2026-04-07T15:57:23Z</time></trkpt><trkpt lat="43.56051959461912" lon="13.510571665973975"><ele>41.0</ele><time>2026-04-07T15:57:24Z</time></trkpt><trkpt lat="43.56036542455503" lon="13.510557397096647"><ele>41.0</ele><time>2026-04-07T15:57:25Z</time></trkpt><trkpt lat="43.560201971858014" lon="13.510544723673943"><ele>40.0</ele><time>2026-04-07T15:57:26Z</time></trkpt><trkpt lat="43.56004138629195" lon="13.510536786772049"><ele>39.0</ele><time>2026-04-07T15:57:27Z</time></trkpt><trkpt lat="43.559880745937065" lon="13.510528061789376"><ele>38.0</ele><time>2026-04-07T15:57:28Z</time></trkpt><trkpt lat="43.55971645166772" lon="13.510515273346535"><ele>38.0</ele><time>2026-04-07T15:57:29Z</time></trkpt><trkpt lat="43.55955630561908" lon="13.510499303284359"><ele>38.0</ele><time>2026-04-07T15:57:30Z</time></trkpt><trkpt lat="43.55939086231384" lon="13.510486909860814"><ele>38.0</ele><time>2026-04-07T15:57:31Z</time></trkpt><trkpt lat="43.55923174353249" lon="13.51048093508729"><ele>38.0</ele><time>2026-04-07T15:57:32Z</time></trkpt><trkpt lat="43.559074344381365" lon="13.51047406102498"><ele>38.0</ele><time>2026-04-07T15:57:33Z</time></trkpt><trkpt lat="43.55891345657269" lon="13.51046930140639"><ele>38.0</ele><time>2026-04-07T15:57:34Z</time></trkpt><trkpt lat="43.55875985249897" lon="13.510435369545645"><ele>38.666666666666664</ele><time>2026-04-07T15:57:35Z</time></trkpt><trkpt lat="43.55860355612406" lon="13.510424968021209"><ele>39.333333333333336</ele><time>2026-04-07T15:57:36Z</time></trkpt><trkpt lat="43.55845563657077" lon="13.510416097475911"><ele>40.0</ele><time>2026-04-07T15:57:37Z</time></trkpt><trkpt lat="43.55830349057088" lon="13.510407094360911"><ele>40.0</ele><time>2026-04-07T15:57:38Z</time></trkpt><trkpt lat="43.55815248407326" lon="13.51039815772437"><ele>40.0</ele><time>2026-04-07T15:57:39Z</time></trkpt><trkpt lat="43.558013217315086" lon="13.510408659976706"><ele>40.0</ele><time>2026-04-07T15:57:40Z</time></trkpt><trkpt lat="43.55787300984987" lon="13.510397676850928"><ele>40.0</ele><time>2026-04-07T15:57:41Z</time></trkpt><trkpt lat="43.55773304621917" lon="13.510388068429142"><ele>40.0</ele><time>2026-04-07T15:57:42Z</time></trkpt><trkpt lat="43.55758648282554" lon="13.510382342208842"><ele>40.0</ele><time>2026-04-07T15:57:43Z</time></trkpt><trkpt lat="43.55744118631745" lon="13.510376763829228"><ele>40.0</ele><time>2026-04-07T15:57:44Z</time></trkpt><trkpt lat="43.557305354763315" lon="13.510347501630772"><ele>40.0</ele><time>2026-04-07T15:57:45Z</time></trkpt><trkpt lat="43.55716762907935" lon="13.510338297355904"><ele>40.0</ele><time>2026-04-07T15:57:46Z</time></trkpt><trkpt lat="43.55702717980848" lon="13.510338616684857"><ele>40.0</ele><time>2026-04-07T15:57:47Z</time></trkpt><trkpt lat="43.556881697419556" lon="13.510333471049385"><ele>40.0</ele><time>2026-04-07T15:57:48Z</time></trkpt><trkpt lat="43.556735772450835" lon="13.510329748512394"><ele>40.0</ele><time>2026-04-07T15:57:49Z</time></trkpt><trkpt lat="43.55658760727789" lon="13.510316572286424"><ele>40.0</ele><time>2026-04-07T15:57:50Z</time></trkpt><trkpt lat="43.55643982889343" lon="13.510310140249938"><ele>40.0</ele><time>2026-04-07T15:57:51Z</time></trkpt><trkpt lat="43.55628812594291" lon="13.510300980455526"><ele>40.0</ele><time>2026-04-07T15:57:52Z</time></trkpt><trkpt lat="43.55613761981721" lon="13.510293857120606"><ele>40.25</ele><time>2026-04-07T15:57:53Z</time></trkpt><trkpt lat="43.555990594998704" lon="13.510286401688854"><ele>40.5</ele><time>2026-04-07T15:57:54Z</time></trkpt><trkpt lat="43.555838035554316" lon="13.510281619063631"><ele>40.75</ele><time>2026-04-07T15:57:55Z</time></trkpt><trkpt lat="43.55569019253801" lon="13.510275596013663"><ele>41.0</ele><time>2026-04-07T15:57:56Z</time></trkpt><trkpt lat="43.555541154536584" lon="13.510263936039625"><ele>41.0</ele><time>2026-04-07T15:57:57Z</time></trkpt><trkpt lat="43.55539390321861" lon="13.510231996674436"><ele>41.0</ele><time>2026-04-07T15:57:58Z</time></trkpt><trkpt lat="43.55524530848631" lon="13.510223225836658"><ele>41.0</ele><time>2026-04-07T15:57:59Z</time></trkpt><trkpt lat="43.55509688031275" lon="13.51023508363549"><ele>41.0</ele><time>2026-04-07T15:58:00Z</time></trkpt><trkpt lat="43.55494859788015" lon="13.51022722009286"><ele>40.75</ele><time>2026-04-07T15:58:01Z</time></trkpt><trkpt lat="43.554805906805065" lon="13.51019761966365"><ele>40.5</ele><time>2026-04-07T15:58:02Z</time></trkpt><trkpt lat="43.554658893393416" lon="13.510209518885553"><ele>40.25</ele><time>2026-04-07T15:58:03Z</time></trkpt><trkpt lat="43.55451375893087" lon="13.51019848352107"><ele>40.0</ele><time>2026-04-07T15:58:04Z</time></trkpt><trkpt lat="43.554372185821144" lon="13.510187591055763"><ele>39.5</ele><time>2026-04-07T15:58:05Z</time></trkpt><trkpt lat="43.55423117743963" lon="13.510180873364996"><ele>39.0</ele><time>2026-04-07T15:58:06Z</time></trkpt><trkpt lat="43.55409028948036" lon="13.510172524656921"><ele>38.5</ele><time>2026-04-07T15:58:07Z</time></trkpt><trkpt lat="43.553956681900324" lon="13.510163906912071"><ele>38.0</ele><time>2026-04-07T15:58:08Z</time></trkpt><trkpt lat="43.553819020908065" lon="13.510157455041739"><ele>37.75</ele><time>2026-04-07T15:58:09Z</time></trkpt><trkpt lat="43.55368295370549" lon="13.510152548506117"><ele>37.5</ele><time>2026-04-07T15:58:10Z</time></trkpt><trkpt lat="43.553550025391004" lon="13.5101425111986"><ele>37.25</ele><time>2026-04-07T15:58:11Z</time></trkpt><trkpt lat="43.55342111128871" lon="13.510131607139906"><ele>37.0</ele><time>2026-04-07T15:58:12Z</time></trkpt><trkpt lat="43.553286868513965" lon="13.510127342332986"><ele>37.0</ele><time>2026-04-07T15:58:13Z</time></trkpt><trkpt lat="43.55315192729237" lon="13.510122281691142"><ele>37.0</ele><time>2026-04-07T15:58:14Z</time></trkpt><trkpt lat="43.553021353194026" lon="13.51011383537774"><ele>37.0</ele><time>2026-04-07T15:58:15Z</time></trkpt><trkpt lat="43.55288914656809" lon="13.510102593141397"><ele>37.0</ele><time>2026-04-07T15:58:16Z</time></trkpt><trkpt lat="43.55275821494735" lon="13.510091751561523"><ele>36.75</ele><time>2026-04-07T15:58:17Z</time></trkpt><trkpt lat="43.552629971973744" lon="13.51008106034698"><ele>36.5</ele><time>2026-04-07T15:58:18Z</time></trkpt><trkpt lat="43.55250017100229" lon="13.51007104777529"><ele>36.25</ele><time>2026-04-07T15:58:19Z</time></trkpt><trkpt lat="43.552369759193084" lon="13.51006601404609"><ele>36.0</ele><time>2026-04-07T15:58:20Z</time></trkpt><trkpt lat="43.55224122204756" lon="13.510058406749804"><ele>36.0</ele><time>2026-04-07T15:58:21Z</time></trkpt><trkpt lat="43.552113551011246" lon="13.510079442125914"><ele>36.0</ele><time>2026-04-07T15:58:22Z</time></trkpt><trkpt lat="43.55198539060971" lon="13.51009801624835"><ele>36.0</ele><time>2026-04-07T15:58:23Z</time></trkpt><trkpt lat="43.55185292327544" lon="13.510099119964845"><ele>36.0</ele><time>2026-04-07T15:58:24Z</time></trkpt><trkpt lat="43.55171532291712" lon="13.510087987059384"><ele>35.75</ele><time>2026-04-07T15:58:25Z</time></trkpt><trkpt lat="43.55157672980073" lon="13.510073404927542"><ele>35.5</ele><time>2026-04-07T15:58:26Z</time></trkpt><trkpt lat="43.55145690137823" lon="13.510067466224235"><ele>35.25</ele><time>2026-04-07T15:58:27Z</time></trkpt><trkpt lat="43.55133347224904" lon="13.510066967066182"><ele>35.0</ele><time>2026-04-07T15:58:28Z</time></trkpt><trkpt lat="43.551215041404994" lon="13.510055122542774"><ele>34.75</ele><time>2026-04-07T15:58:29Z</time></trkpt><trkpt lat="43.55109740277082" lon="13.510045115333616"><ele>34.5</ele><time>2026-04-07T15:58:30Z</time></trkpt><trkpt lat="43.550981244380054" lon="13.5100372488587"><ele>34.25</ele><time>2026-04-07T15:58:31Z</time></trkpt><trkpt lat="43.550863089679375" lon="13.510031168887783"><ele>34.0</ele><time>2026-04-07T15:58:32Z</time></trkpt><trkpt lat="43.55073970114579" lon="13.510024227696999"><ele>34.0</ele><time>2026-04-07T15:58:33Z</time></trkpt><trkpt lat="43.55062282255536" lon="13.510017611305987"><ele>34.0</ele><time>2026-04-07T15:58:34Z</time></trkpt><trkpt lat="43.5505110892873" lon="13.510009828688501"><ele>34.0</ele><time>2026-04-07T15:58:35Z</time></trkpt><trkpt lat="43.55040575480508" lon="13.509999300633817"><ele>34.0</ele><time>2026-04-07T15:58:36.001Z</time></trkpt><trkpt lat="43.55030024556874" lon="13.509978634488794"><ele>34.0</ele><time>2026-04-07T15:58:37.001Z</time></trkpt><trkpt lat="43.55018879604787" lon="13.509946710863906"><ele>34.25</ele><time>2026-04-07T15:58:38.001Z</time></trkpt><trkpt lat="43.55006878662905" lon="13.509929580813688"><ele>34.5</ele><time>2026-04-07T15:58:39.001Z</time></trkpt><trkpt lat="43.54993937144708" lon="13.509923710886921"><ele>34.75</ele><time>2026-04-07T15:58:40.001Z</time></trkpt><trkpt lat="43.549801882085205" lon="13.509918748639521"><ele>35.0</ele><time>2026-04-07T15:58:41.001Z</time></trkpt><trkpt lat="43.54965125519768" lon="13.509883778187518"><ele>34.33333333333333</ele><time>2026-04-07T15:58:42.001Z</time></trkpt><trkpt lat="43.549493177222246" lon="13.509872937084982"><ele>33.666666666666664</ele><time>2026-04-07T15:58:43.001Z</time></trkpt><trkpt lat="43.54933534260613" lon="13.509862112671676"><ele>33.0</ele><time>2026-04-07T15:58:44.001Z</time></trkpt><trkpt lat="43.54917578702719" lon="13.509873326227373"><ele>33.0</ele><time>2026-04-07T15:58:45.001Z</time></trkpt><trkpt lat="43.54902174613626" lon="13.509840605997807"><ele>33.0</ele><time>2026-04-07T15:58:46.001Z</time></trkpt><trkpt lat="43.54886633788241" lon="13.509830180234662"><ele>33.0</ele><time>2026-04-07T15:58:47.001Z</time></trkpt><trkpt lat="43.548714268152864" lon="13.509820374518698"><ele>33.333333333333336</ele><time>2026-04-07T15:58:48.001Z</time></trkpt><trkpt lat="43.548564562504765" lon="13.509824522077556"><ele>33.66666666666667</ele><time>2026-04-07T15:58:49.001Z</time></trkpt><trkpt lat="43.548407564634765" lon="13.509821727164843"><ele>34.0</ele><time>2026-04-07T15:58:50.001Z</time></trkpt><trkpt lat="43.54824288163009" lon="13.509789883798652"><ele>34.0</ele><time>2026-04-07T15:58:51.001Z</time></trkpt><trkpt lat="43.548074718228854" lon="13.509799103536308"><ele>34.0</ele><time>2026-04-07T15:58:52.001Z</time></trkpt><trkpt lat="43.54791590669484" lon="13.509790679421506"><ele>34.0</ele><time>2026-04-07T15:58:53.001Z</time></trkpt><trkpt lat="43.54776721919503" lon="13.509775767020873"><ele>34.0</ele><time>2026-04-07T15:58:54.001Z</time></trkpt><trkpt lat="43.54762396762654" lon="13.509763604321549"><ele>34.0</ele><time>2026-04-07T15:58:55.001Z</time></trkpt><trkpt lat="43.547487127338535" lon="13.509751160357453"><ele>34.0</ele><time>2026-04-07T15:58:56.001Z</time></trkpt><trkpt lat="43.54735402972054" lon="13.509742120827708"><ele>34.0</ele><time>2026-04-07T15:58:57.001Z</time></trkpt><trkpt lat="43.54723067301317" lon="13.509738624902296"><ele>34.0</ele><time>2026-04-07T15:58:58.001Z</time></trkpt><trkpt lat="43.54711273531738" lon="13.50974369452902"><ele>34.0</ele><time>2026-04-07T15:58:59.001Z</time></trkpt><trkpt lat="43.54700556402418" lon="13.509718533043323"><ele>34.0</ele><time>2026-04-07T15:59:00.001Z</time></trkpt><trkpt lat="43.54690478619012" lon="13.509712479933658"><ele>34.0</ele><time>2026-04-07T15:59:01.001Z</time></trkpt><trkpt lat="43.54681414987404" lon="13.509707094960989"><ele>34.0</ele><time>2026-04-07T15:59:02.001Z</time></trkpt><trkpt lat="43.546743263599666" lon="13.50970296287494"><ele>33.75</ele><time>2026-04-07T15:59:03Z</time></trkpt><trkpt lat="43.54666429960811" lon="13.509698359925224"><ele>33.5</ele><time>2026-04-07T15:59:05Z</time></trkpt><trkpt lat="43.54669375900923" lon="13.509965993998431"><ele>33.25</ele><time>2026-04-07T15:59:07Z</time></trkpt><trkpt lat="43.5468292887901" lon="13.51000424541341"><ele>33.0</ele><time>2026-04-07T15:59:09Z</time></trkpt><trkpt lat="43.54693314026378" lon="13.510002054680772"><ele>33.25</ele><time>2026-04-07T15:59:10Z</time></trkpt><trkpt lat="43.54705915507059" lon="13.510008628633926"><ele>33.5</ele><time>2026-04-07T15:59:11Z</time></trkpt><trkpt lat="43.54718560381388" lon="13.510030763311137"><ele>33.75</ele><time>2026-04-07T15:59:12Z</time></trkpt><trkpt lat="43.547330344464086" lon="13.510065832611422"><ele>34.0</ele><time>2026-04-07T15:59:13Z</time></trkpt><trkpt lat="43.54748737171804" lon="13.510096472841253"><ele>34.0</ele><time>2026-04-07T15:59:14Z</time></trkpt><trkpt lat="43.547646090316974" lon="13.510116916665508"><ele>34.0</ele><time>2026-04-07T15:59:15Z</time></trkpt><trkpt lat="43.54779727422675" lon="13.510133501153248"><ele>34.0</ele><time>2026-04-07T15:59:16Z</time></trkpt><trkpt lat="43.547940347771906" lon="13.510144814505718"><ele>34.0</ele><time>2026-04-07T15:59:17Z</time></trkpt><trkpt lat="43.54807968017747" lon="13.510156269199266"><ele>34.0</ele><time>2026-04-07T15:59:18Z</time></trkpt><trkpt lat="43.5482114220341" lon="13.510163027313288"><ele>34.0</ele><time>2026-04-07T15:59:19Z</time></trkpt><trkpt lat="43.5483350526003" lon="13.510173339898836"><ele>34.0</ele><time>2026-04-07T15:59:20Z</time></trkpt><trkpt lat="43.54844868500966" lon="13.510185018861064"><ele>34.0</ele><time>2026-04-07T15:59:21Z</time></trkpt><trkpt lat="43.548535954588786" lon="13.51019803556741"><ele>34.0</ele><time>2026-04-07T15:59:22Z</time></trkpt><trkpt lat="43.54859809086382" lon="13.510218126493882"><ele>34.0</ele><time>2026-04-07T15:59:23Z</time></trkpt><trkpt lat="43.548647665830735" lon="13.510351998933436"><ele>34.0</ele><time>2026-04-07T15:59:25Z</time></trkpt><trkpt lat="43.54865230618678" lon="13.510457725403963"><ele>34.0</ele><time>2026-04-07T15:59:26Z</time></trkpt><trkpt lat="43.54864640584569" lon="13.510576300838572"><ele>34.0</ele><time>2026-04-07T15:59:27Z</time></trkpt><trkpt lat="43.54863896740695" lon="13.510703096274868"><ele>33.8</ele><time>2026-04-07T15:59:28Z</time></trkpt><trkpt lat="43.54862923719994" lon="13.510861635132533"><ele>33.599999999999994</ele><time>2026-04-07T15:59:29Z</time></trkpt><trkpt lat="43.54861998011056" lon="13.511027067694812"><ele>33.4</ele><time>2026-04-07T15:59:30Z</time></trkpt><trkpt lat="43.54861139321254" lon="13.511184010518296"><ele>33.199999999999996</ele><time>2026-04-07T15:59:31Z</time></trkpt><trkpt lat="43.54860551332596" lon="13.511314789037797"><ele>33.0</ele><time>2026-04-07T15:59:32Z</time></trkpt><trkpt lat="43.54859807375701" lon="13.511434479539101"><ele>33.0</ele><time>2026-04-07T15:59:33Z</time></trkpt><trkpt lat="43.54858324387407" lon="13.511541535886389"><ele>33.0</ele><time>2026-04-07T15:59:34Z</time></trkpt><trkpt lat="43.548559593669054" lon="13.51162914927925"><ele>33.0</ele><time>2026-04-07T15:59:35Z</time></trkpt><trkpt lat="43.54847285215343" lon="13.511745053071177"><ele>33.0</ele><time>2026-04-07T15:59:37Z</time></trkpt><trkpt lat="43.54841177415679" lon="13.511783185384036"><ele>33.0</ele><time>2026-04-07T15:59:38Z</time></trkpt><trkpt lat="43.548339417108046" lon="13.511805551376755"><ele>33.0</ele><time>2026-04-07T15:59:39Z</time></trkpt><trkpt lat="43.54827272425623" lon="13.511853388514458"><ele>33.0</ele><time>2026-04-07T15:59:40Z</time></trkpt><trkpt lat="43.54816714294086" lon="13.51180640721896"><ele>33.0</ele><time>2026-04-07T15:59:41Z</time></trkpt><trkpt lat="43.54806138343116" lon="13.511788866834392"><ele>33.0</ele><time>2026-04-07T15:59:42Z</time></trkpt><trkpt lat="43.54794620163175" lon="13.511775295750361"><ele>33.0</ele><time>2026-04-07T15:59:43Z</time></trkpt><trkpt lat="43.547830663756436" lon="13.511774748791192"><ele>33.0</ele><time>2026-04-07T15:59:44Z</time></trkpt><trkpt lat="43.547712433611935" lon="13.511771601001051"><ele>33.0</ele><time>2026-04-07T15:59:45Z</time></trkpt><trkpt lat="43.547604518715765" lon="13.511763338607555"><ele>33.0</ele><time>2026-04-07T15:59:46Z</time></trkpt><trkpt lat="43.54750291846856" lon="13.511748417933727"><ele>33.0</ele><time>2026-04-07T15:59:47Z</time></trkpt><trkpt lat="43.54740195721815" lon="13.51174054393816"><ele>33.0</ele><time>2026-04-07T15:59:48Z</time></trkpt><trkpt lat="43.54730028939302" lon="13.511736436889773"><ele>33.0</ele><time>2026-04-07T15:59:49Z</time></trkpt><trkpt lat="43.54719212972427" lon="13.511735261656614"><ele>33.0</ele><time>2026-04-07T15:59:50Z</time></trkpt><trkpt lat="43.547093033212654" lon="13.511731472635793"><ele>33.0</ele><time>2026-04-07T15:59:51Z</time></trkpt><trkpt lat="43.547005441687496" lon="13.511724736412848"><ele>33.0</ele><time>2026-04-07T15:59:52Z</time></trkpt><trkpt lat="43.54693282839854" lon="13.511719655502175"><ele>33.0</ele><time>2026-04-07T15:59:53Z</time></trkpt><trkpt lat="43.54685622644274" lon="13.511716087839579"><ele>33.0</ele><time>2026-04-07T15:59:54Z</time></trkpt><trkpt lat="43.546792607258325" lon="13.511710295875927"><ele>33.0</ele><time>2026-04-07T15:59:55Z</time></trkpt><trkpt lat="43.546728858885" lon="13.511700892424392"><ele>33.0</ele><time>2026-04-07T15:59:56Z</time></trkpt><trkpt lat="43.54661948571296" lon="13.511641159835467"><ele>33.0</ele><time>2026-04-07T15:59:58Z</time></trkpt><trkpt lat="43.54651176093221" lon="13.511568761694988"><ele>33.0</ele><time>2026-04-07T16:00:00Z</time></trkpt><trkpt lat="43.54644353816733" lon="13.511564906425097"><ele>33.0</ele><time>2026-04-07T16:00:01Z</time></trkpt><trkpt lat="43.546380167789046" lon="13.511602437742193"><ele>33.0</ele><time>2026-04-07T16:00:02Z</time></trkpt><trkpt lat="43.5463095458958" lon="13.511647351775064"><ele>33.0</ele><time>2026-04-07T16:00:03Z</time></trkpt><trkpt lat="43.54623646718308" lon="13.511682108554853"><ele>33.0</ele><time>2026-04-07T16:00:04Z</time></trkpt><trkpt lat="43.54615397585175" lon="13.511692415651112"><ele>33.0</ele><time>2026-04-07T16:00:05Z</time></trkpt><trkpt lat="43.54605497221559" lon="13.511691981215044"><ele>33.0</ele><time>2026-04-07T16:00:06Z</time></trkpt><trkpt lat="43.54596275644499" lon="13.511676444768568"><ele>33.0</ele><time>2026-04-07T16:00:07Z</time></trkpt><trkpt lat="43.545862733147516" lon="13.511662358132602"><ele>33.0</ele><time>2026-04-07T16:00:08Z</time></trkpt><trkpt lat="43.54576343719349" lon="13.51165532516411"><ele>33.0</ele><time>2026-04-07T16:00:09Z</time></trkpt><trkpt lat="43.54566815937176" lon="13.511652032625143"><ele>33.0</ele><time>2026-04-07T16:00:10Z</time></trkpt><trkpt lat="43.54557116841655" lon="13.511644943044951"><ele>33.0</ele><time>2026-04-07T16:00:11Z</time></trkpt><trkpt lat="43.54546200722685" lon="13.511638822996566"><ele>33.0</ele><time>2026-04-07T16:00:12Z</time></trkpt><trkpt lat="43.545352958986705" lon="13.5116350885305"><ele>33.0</ele><time>2026-04-07T16:00:13Z</time></trkpt><trkpt lat="43.5452452265248" lon="13.511631433908558"><ele>33.0</ele><time>2026-04-07T16:00:14Z</time></trkpt><trkpt lat="43.545140938872336" lon="13.511626814864453"><ele>33.0</ele><time>2026-04-07T16:00:15Z</time></trkpt><trkpt lat="43.5450346827165" lon="13.51161883568817"><ele>33.0</ele><time>2026-04-07T16:00:16Z</time></trkpt><trkpt lat="43.54493215569769" lon="13.511607669065395"><ele>33.0</ele><time>2026-04-07T16:00:17Z</time></trkpt><trkpt lat="43.544835149030504" lon="13.511598485518189"><ele>33.0</ele><time>2026-04-07T16:00:18Z</time></trkpt><trkpt lat="43.5447488773989" lon="13.511590749099154"><ele>33.0</ele><time>2026-04-07T16:00:19Z</time></trkpt><trkpt lat="43.544666903336676" lon="13.511587617255698"><ele>33.0</ele><time>2026-04-07T16:00:20Z</time></trkpt><trkpt lat="43.54459335051337" lon="13.511585119263321"><ele>33.0</ele><time>2026-04-07T16:00:21Z</time></trkpt><trkpt lat="43.54452747858265" lon="13.511585810887453"><ele>33.0</ele><time>2026-04-07T16:00:22Z</time></trkpt><trkpt lat="43.544460033949484" lon="13.511584083107326"><ele>33.0</ele><time>2026-04-07T16:00:23Z</time></trkpt><trkpt lat="43.544387973934626" lon="13.51158072940215"><ele>33.0</ele><time>2026-04-07T16:00:24Z</time></trkpt><trkpt lat="43.544310157531314" lon="13.511577817468035"><ele>33.166666666666664</ele><time>2026-04-07T16:00:25Z</time></trkpt><trkpt lat="43.544229178427344" lon="13.511576500385848"><ele>33.333333333333336</ele><time>2026-04-07T16:00:26Z</time></trkpt><trkpt lat="43.54415143452993" lon="13.51157615008825"><ele>33.5</ele><time>2026-04-07T16:00:27Z</time></trkpt><trkpt lat="43.544064480935006" lon="13.51157432721661"><ele>33.66666666666667</ele><time>2026-04-07T16:00:28Z</time></trkpt><trkpt lat="43.54398558056701" lon="13.511566985435177"><ele>33.833333333333336</ele><time>2026-04-07T16:00:29Z</time></trkpt><trkpt lat="43.543911887890296" lon="13.511562848163155"><ele>34.0</ele><time>2026-04-07T16:00:30Z</time></trkpt><trkpt lat="43.5438469919764" lon="13.51155837790257"><ele>34.0</ele><time>2026-04-07T16:00:31Z</time></trkpt><trkpt lat="43.543753655908255" lon="13.511546204041167"><ele>34.0</ele><time>2026-04-07T16:00:33Z</time></trkpt><trkpt lat="43.543671577053466" lon="13.511549573634493"><ele>34.0</ele><time>2026-04-07T16:00:35Z</time></trkpt><trkpt lat="43.54361084958974" lon="13.511597379582525"><ele>34.0</ele><time>2026-04-07T16:00:37.001Z</time></trkpt><trkpt lat="43.54358785668982" lon="13.511687984645027"><ele>34.0</ele><time>2026-04-07T16:00:39.001Z</time></trkpt><trkpt lat="43.543546374437405" lon="13.511773290554562"><ele>34.0</ele><time>2026-04-07T16:00:42.001Z</time></trkpt><trkpt lat="43.54345915133887" lon="13.511700499534994"><ele>33.833333333333336</ele><time>2026-04-07T16:00:43.001Z</time></trkpt><trkpt lat="43.54350972537092" lon="13.511874864398765"><ele>33.66666666666667</ele><time>2026-04-07T16:00:47.001Z</time></trkpt><trkpt lat="43.54351457907612" lon="13.511963117729687"><ele>33.5</ele><time>2026-04-07T16:00:50.001Z</time></trkpt><trkpt lat="43.54349267695519" lon="13.512071261244127"><ele>33.333333333333336</ele><time>2026-04-07T16:00:55.001Z</time></trkpt><trkpt lat="43.543520600670455" lon="13.51198620376616"><ele>33.166666666666664</ele><time>2026-04-07T16:01:04.001Z</time></trkpt><trkpt lat="43.54357378440266" lon="13.511896038448887"><ele>33.0</ele><time>2026-04-07T16:03:39Z</time></trkpt><trkpt lat="43.54357314395427" lon="13.511795607839693"><ele>33.0</ele><time>2026-04-07T16:03:42Z</time></trkpt><trkpt lat="43.54357184965079" lon="13.511694911523001"><ele>33.0</ele><time>2026-04-07T16:05:12.001Z</time></trkpt><trkpt lat="43.543489126115524" lon="13.511618547910508"><ele>33.0</ele><time>2026-04-07T16:19:12Z</time></trkpt><trkpt lat="43.54351159897921" lon="13.511751667909595"><ele>33.0</ele><time>2026-04-07T16:20:10Z</time></trkpt><trkpt lat="43.54352073919675" lon="13.511839287934256"><ele>33.0</ele><time>2026-04-07T16:20:15Z</time></trkpt><trkpt lat="43.5435081900941" lon="13.511929813064683"><ele>33.0</ele><time>2026-04-07T16:20:20Z</time></trkpt><trkpt lat="43.543496307856856" lon="13.512025783838766"><ele>33.166666666666664</ele><time>2026-04-07T16:20:28Z</time></trkpt><trkpt lat="43.54344224666063" lon="13.512088833839018"><ele>33.333333333333336</ele><time>2026-04-07T16:20:34Z</time></trkpt><trkpt lat="43.5434232778804" lon="13.512173952062776"><ele>33.5</ele><time>2026-04-07T16:20:41Z</time></trkpt><trkpt lat="43.543366526391765" lon="13.512219593412048"><ele>33.66666666666667</ele><time>2026-04-07T16:20:57Z</time></trkpt><trkpt lat="43.54321427553182" lon="13.512161204677959"><ele>33.833333333333336</ele><time>2026-04-07T16:21:32.452Z</time></trkpt><trkpt lat="43.54313277208259" lon="13.512192485088196"><ele>34.0</ele><time>2026-04-07T16:35:04.999Z</time></trkpt><trkpt lat="43.543082565682006" lon="13.512283717540393"><ele>34.0</ele><time>2026-04-07T16:35:06Z</time></trkpt><trkpt lat="43.54320182774307" lon="13.512306681881215"><ele>34.0</ele><time>2026-04-07T16:35:13Z</time></trkpt><trkpt lat="43.543205282553046" lon="13.512218068320568"><ele>34.0</ele><time>2026-04-07T16:35:15Z</time></trkpt><trkpt lat="43.54332003232296" lon="13.512244238737079"><ele>34.0</ele><time>2026-04-07T16:38:23Z</time></trkpt><trkpt lat="43.54339915528077" lon="13.512271530662433"><ele>34.0</ele><time>2026-04-07T16:38:26Z</time></trkpt><trkpt lat="43.54318457659687" lon="13.512202827272484"><ele>34.0</ele><time>2026-04-07T16:38:32Z</time></trkpt><trkpt lat="43.54351855615586" lon="13.512166193850259"><ele>34.0</ele><time>2026-04-07T16:41:49Z</time></trkpt><trkpt lat="43.543420432015985" lon="13.512151974830928"><ele>34.0</ele><time>2026-04-07T16:42:01Z</time></trkpt><trkpt lat="43.54338381122307" lon="13.51207462373142"><ele>33.857142857142854</ele><time>2026-04-07T16:42:07Z</time></trkpt><trkpt lat="43.54342871468599" lon="13.512001800923056"><ele>33.714285714285715</ele><time>2026-04-07T16:42:14Z</time></trkpt><trkpt lat="43.54347441091082" lon="13.511934620652964"><ele>33.57142857142857</ele><time>2026-04-07T16:42:20Z</time></trkpt><trkpt lat="43.543491315261925" lon="13.511843467894002"><ele>33.42857142857143</ele><time>2026-04-07T16:42:27Z</time></trkpt><trkpt lat="43.54344979978944" lon="13.511761053655006"><ele>33.285714285714285</ele><time>2026-04-07T16:42:34Z</time></trkpt><trkpt lat="43.54345767053681" lon="13.511672290394785"><ele>33.14285714285714</ele><time>2026-04-07T16:42:40Z</time></trkpt><trkpt lat="43.54353155357839" lon="13.511600864944992"><ele>33.0</ele><time>2026-04-07T16:44:29Z</time></trkpt><trkpt lat="43.54356278479156" lon="13.511478434168193"><ele>33.0</ele><time>2026-04-07T16:44:32Z</time></trkpt><trkpt lat="43.543591905900584" lon="13.511298261696421"><ele>33.0</ele><time>2026-04-07T16:44:34Z</time></trkpt><trkpt lat="43.543597912199445" lon="13.511179095326405"><ele>33.0</ele><time>2026-04-07T16:44:35Z</time></trkpt><trkpt lat="43.543602497735975" lon="13.511041758737075"><ele>33.0</ele><time>2026-04-07T16:44:36Z</time></trkpt><trkpt lat="43.54361488206711" lon="13.510900945291532"><ele>33.0</ele><time>2026-04-07T16:44:37Z</time></trkpt><trkpt lat="43.54362657139167" lon="13.510753915819947"><ele>33.0</ele><time>2026-04-07T16:44:38Z</time></trkpt><trkpt lat="43.54363352239527" lon="13.510594880460166"><ele>33.0</ele><time>2026-04-07T16:44:39Z</time></trkpt><trkpt lat="43.54364086550043" lon="13.510453683604304"><ele>33.0</ele><time>2026-04-07T16:44:40Z</time></trkpt><trkpt lat="43.54364616435045" lon="13.51032966600158"><ele>33.0</ele><time>2026-04-07T16:44:41Z</time></trkpt><trkpt lat="43.54364261559346" lon="13.510223599794804"><ele>33.0</ele><time>2026-04-07T16:44:42Z</time></trkpt><trkpt lat="43.54364105899954" lon="13.51012218326584"><ele>33.0</ele><time>2026-04-07T16:44:43Z</time></trkpt><trkpt lat="43.54364891519844" lon="13.510035372583975"><ele>33.0</ele><time>2026-04-07T16:44:44Z</time></trkpt><trkpt lat="43.54365922516514" lon="13.509946402573958"><ele>33.0</ele><time>2026-04-07T16:44:46Z</time></trkpt><trkpt lat="43.54379942331164" lon="13.509923670638937"><ele>33.0</ele><time>2026-04-07T16:44:48Z</time></trkpt><trkpt lat="43.543875051403816" lon="13.50992839445803"><ele>33.0</ele><time>2026-04-07T16:44:49Z</time></trkpt><trkpt lat="43.54396142492255" lon="13.509966051369247"><ele>33.0</ele><time>2026-04-07T16:44:50Z</time></trkpt><trkpt lat="43.54406407280028" lon="13.50996626478048"><ele>32.75</ele><time>2026-04-07T16:44:51Z</time></trkpt><trkpt lat="43.544170293586745" lon="13.509971199475288"><ele>32.5</ele><time>2026-04-07T16:44:52Z</time></trkpt><trkpt lat="43.544282829277066" lon="13.509974437814767"><ele>32.25</ele><time>2026-04-07T16:44:53Z</time></trkpt><trkpt lat="43.54440972042065" lon="13.509971932345586"><ele>32.0</ele><time>2026-04-07T16:44:54Z</time></trkpt><trkpt lat="43.54454741343629" lon="13.509969843634293"><ele>31.75</ele><time>2026-04-07T16:44:55Z</time></trkpt><trkpt lat="43.54467475441308" lon="13.509977592718524"><ele>31.5</ele><time>2026-04-07T16:44:56Z</time></trkpt><trkpt lat="43.54480235514818" lon="13.509990287651778"><ele>31.25</ele><time>2026-04-07T16:44:57Z</time></trkpt><trkpt lat="43.54493808833852" lon="13.509996466752163"><ele>31.0</ele><time>2026-04-07T16:44:58Z</time></trkpt><trkpt lat="43.5450786010964" lon="13.510001006659293"><ele>31.0</ele><time>2026-04-07T16:44:59Z</time></trkpt><trkpt lat="43.545217344357475" lon="13.510006855644267"><ele>31.0</ele><time>2026-04-07T16:45:00Z</time></trkpt><trkpt lat="43.54536241311948" lon="13.51001474544432"><ele>31.0</ele><time>2026-04-07T16:45:01Z</time></trkpt><trkpt lat="43.54550807890195" lon="13.510022449651297"><ele>31.0</ele><time>2026-04-07T16:45:02Z</time></trkpt><trkpt lat="43.545648136708124" lon="13.510029960693709"><ele>31.5</ele><time>2026-04-07T16:45:03Z</time></trkpt><trkpt lat="43.545784385328474" lon="13.51003835786767"><ele>32.0</ele><time>2026-04-07T16:45:04Z</time></trkpt><trkpt lat="43.54591597207856" lon="13.51004742502393"><ele>32.5</ele><time>2026-04-07T16:45:05Z</time></trkpt><trkpt lat="43.54605951422904" lon="13.510053447381896"><ele>33.0</ele><time>2026-04-07T16:45:06Z</time></trkpt><trkpt lat="43.54620090404096" lon="13.51005730155977"><ele>33.0</ele><time>2026-04-07T16:45:07Z</time></trkpt><trkpt lat="43.54634969455112" lon="13.510064647776451"><ele>33.0</ele><time>2026-04-07T16:45:08Z</time></trkpt><trkpt lat="43.54649677460836" lon="13.51007464149619"><ele>33.0</ele><time>2026-04-07T16:45:09Z</time></trkpt><trkpt lat="43.546644649033915" lon="13.510083437246267"><ele>33.0</ele><time>2026-04-07T16:45:10Z</time></trkpt><trkpt lat="43.546795143151115" lon="13.51009356187839"><ele>33.0</ele><time>2026-04-07T16:45:11Z</time></trkpt><trkpt lat="43.54694667518132" lon="13.510102811712578"><ele>33.0</ele><time>2026-04-07T16:45:12Z</time></trkpt><trkpt lat="43.547108296493235" lon="13.51010985975094"><ele>33.0</ele><time>2026-04-07T16:45:13Z</time></trkpt><trkpt lat="43.54726215644063" lon="13.510117300738855"><ele>33.333333333333336</ele><time>2026-04-07T16:45:14Z</time></trkpt><trkpt lat="43.54742309972552" lon="13.510125966390417"><ele>33.66666666666667</ele><time>2026-04-07T16:45:15Z</time></trkpt><trkpt lat="43.54758839930497" lon="13.510139765329727"><ele>34.0</ele><time>2026-04-07T16:45:16Z</time></trkpt><trkpt lat="43.54776366199859" lon="13.510150930276447"><ele>34.0</ele><time>2026-04-07T16:45:17Z</time></trkpt><trkpt lat="43.54794222745914" lon="13.51016092271795"><ele>34.0</ele><time>2026-04-07T16:45:18Z</time></trkpt><trkpt lat="43.54811487081474" lon="13.51016339728239"><ele>34.0</ele><time>2026-04-07T16:45:19Z</time></trkpt><trkpt lat="43.54826772780048" lon="13.510164601918977"><ele>34.0</ele><time>2026-04-07T16:45:20Z</time></trkpt><trkpt lat="43.54841771985794" lon="13.510162695023391"><ele>34.0</ele><time>2026-04-07T16:45:21Z</time></trkpt><trkpt lat="43.54857153724747" lon="13.5101610869146"><ele>34.0</ele><time>2026-04-07T16:45:22Z</time></trkpt><trkpt lat="43.54872878577225" lon="13.510163400719877"><ele>33.66666666666667</ele><time>2026-04-07T16:45:23Z</time></trkpt><trkpt lat="43.54889569833748" lon="13.51020497482542"><ele>33.333333333333336</ele><time>2026-04-07T16:45:24Z</time></trkpt><trkpt lat="43.549063951053185" lon="13.510248245449851"><ele>33.0</ele><time>2026-04-07T16:45:25Z</time></trkpt><trkpt lat="43.54923518624638" lon="13.510306036192809"><ele>33.0</ele><time>2026-04-07T16:45:26Z</time></trkpt><trkpt lat="43.54941800316168" lon="13.510372213853923"><ele>33.0</ele><time>2026-04-07T16:45:27Z</time></trkpt><trkpt lat="43.54960670673736" lon="13.5104316631151"><ele>33.0</ele><time>2026-04-07T16:45:28Z</time></trkpt><trkpt lat="43.54977834781093" lon="13.510466817612174"><ele>33.333333333333336</ele><time>2026-04-07T16:45:29Z</time></trkpt><trkpt lat="43.54993584124728" lon="13.510461434630443"><ele>33.66666666666667</ele><time>2026-04-07T16:45:30Z</time></trkpt><trkpt lat="43.55009985222444" lon="13.510473430174276"><ele>34.0</ele><time>2026-04-07T16:45:31Z</time></trkpt><trkpt lat="43.550276432046466" lon="13.510487783282827"><ele>34.0</ele><time>2026-04-07T16:45:32Z</time></trkpt><trkpt lat="43.550459245480035" lon="13.510501353720855"><ele>34.0</ele><time>2026-04-07T16:45:33Z</time></trkpt><trkpt lat="43.55064348353009" lon="13.510513234248851"><ele>34.0</ele><time>2026-04-07T16:45:34Z</time></trkpt><trkpt lat="43.55081696534842" lon="13.51052064644957"><ele>34.0</ele><time>2026-04-07T16:45:35Z</time></trkpt><trkpt lat="43.55098536342273" lon="13.510555953622736"><ele>34.0</ele><time>2026-04-07T16:45:36Z</time></trkpt><trkpt lat="43.55115879871945" lon="13.51056761409589"><ele>34.0</ele><time>2026-04-07T16:45:37Z</time></trkpt><trkpt lat="43.55133895431749" lon="13.510546827816846"><ele>35.0</ele><time>2026-04-07T16:45:38Z</time></trkpt><trkpt lat="43.551516108153216" lon="13.510556462248925"><ele>36.0</ele><time>2026-04-07T16:45:39Z</time></trkpt><trkpt lat="43.55169653396774" lon="13.510563789959738"><ele>37.0</ele><time>2026-04-07T16:45:40Z</time></trkpt><trkpt lat="43.55187718035935" lon="13.510579072049273"><ele>36.66666666666667</ele><time>2026-04-07T16:45:41Z</time></trkpt><trkpt lat="43.5520612549925" lon="13.510621170057574"><ele>36.333333333333336</ele><time>2026-04-07T16:45:42Z</time></trkpt><trkpt lat="43.55223237867903" lon="13.51061261436097"><ele>36.0</ele><time>2026-04-07T16:45:43Z</time></trkpt><trkpt lat="43.552394110115436" lon="13.510625625487892"><ele>36.0</ele><time>2026-04-07T16:45:44Z</time></trkpt><trkpt lat="43.552558478669" lon="13.510636991722139"><ele>36.0</ele><time>2026-04-07T16:45:45Z</time></trkpt><trkpt lat="43.552728313151874" lon="13.5106439488711"><ele>36.0</ele><time>2026-04-07T16:45:46Z</time></trkpt><trkpt lat="43.5528960119519" lon="13.510649765790017"><ele>36.0</ele><time>2026-04-07T16:45:47Z</time></trkpt><trkpt lat="43.55306058197891" lon="13.510682448562742"><ele>36.0</ele><time>2026-04-07T16:45:48Z</time></trkpt><trkpt lat="43.553233513783866" lon="13.510694044728792"><ele>36.0</ele><time>2026-04-07T16:45:49Z</time></trkpt><trkpt lat="43.553407772275584" lon="13.510704910795821"><ele>36.0</ele><time>2026-04-07T16:45:50Z</time></trkpt><trkpt lat="43.553571015289755" lon="13.510715826602496"><ele>36.0</ele><time>2026-04-07T16:45:51Z</time></trkpt><trkpt lat="43.55373666902183" lon="13.510727596272481"><ele>36.0</ele><time>2026-04-07T16:45:52Z</time></trkpt><trkpt lat="43.55389023280515" lon="13.51073698260165"><ele>36.25</ele><time>2026-04-07T16:45:53Z</time></trkpt><trkpt lat="43.554029629730884" lon="13.510745026176156"><ele>36.5</ele><time>2026-04-07T16:45:54Z</time></trkpt><trkpt lat="43.554164816812595" lon="13.510729203008498"><ele>36.75</ele><time>2026-04-07T16:45:55Z</time></trkpt><trkpt lat="43.55429404799033" lon="13.510742710424337"><ele>37.0</ele><time>2026-04-07T16:45:56Z</time></trkpt><trkpt lat="43.55441705187746" lon="13.510753418378279"><ele>37.0</ele><time>2026-04-07T16:45:57Z</time></trkpt><trkpt lat="43.55453413489917" lon="13.510763036168333"><ele>37.0</ele><time>2026-04-07T16:45:58Z</time></trkpt><trkpt lat="43.55463992986573" lon="13.51078368362418"><ele>37.0</ele><time>2026-04-07T16:45:59Z</time></trkpt><trkpt lat="43.554732825261226" lon="13.5107898953876"><ele>37.0</ele><time>2026-04-07T16:46:00Z</time></trkpt><trkpt lat="43.554836100581106" lon="13.510794946463953"><ele>37.0</ele><time>2026-04-07T16:46:01Z</time></trkpt><trkpt lat="43.554954042108065" lon="13.510729735140547"><ele>37.333333333333336</ele><time>2026-04-07T16:46:02Z</time></trkpt><trkpt lat="43.555055438629985" lon="13.510740559096572"><ele>37.66666666666667</ele><time>2026-04-07T16:46:03Z</time></trkpt><trkpt lat="43.555142576517845" lon="13.510733610083367"><ele>38.0</ele><time>2026-04-07T16:46:04Z</time></trkpt><trkpt lat="43.555210871290264" lon="13.510701522700089"><ele>38.333333333333336</ele><time>2026-04-07T16:46:05Z</time></trkpt><trkpt lat="43.555269818923335" lon="13.510567164522667"><ele>38.666666666666664</ele><time>2026-04-07T16:46:07Z</time></trkpt><trkpt lat="43.555266257417166" lon="13.510477373253963"><ele>39.0</ele><time>2026-04-07T16:46:08Z</time></trkpt><trkpt lat="43.55523997858396" lon="13.510389187855969"><ele>39.166666666666664</ele><time>2026-04-07T16:46:09Z</time></trkpt><trkpt lat="43.555192136782196" lon="13.51033099543103"><ele>39.333333333333336</ele><time>2026-04-07T16:46:10Z</time></trkpt><trkpt lat="43.55512498285578" lon="13.510298836742253"><ele>39.5</ele><time>2026-04-07T16:46:11Z</time></trkpt><trkpt lat="43.555043364372146" lon="13.51028807118937"><ele>39.66666666666667</ele><time>2026-04-07T16:46:12Z</time></trkpt><trkpt lat="43.554971370015465" lon="13.510290636268316"><ele>39.833333333333336</ele><time>2026-04-07T16:46:13Z</time></trkpt><trkpt lat="43.554860418587424" lon="13.510285437254918"><ele>40.0</ele><time>2026-04-07T16:46:15Z</time></trkpt><trkpt lat="43.55476041396594" lon="13.510274912974488"><ele>40.0</ele><time>2026-04-07T16:46:17Z</time></trkpt><trkpt lat="43.55466861509719" lon="13.510252529724923"><ele>40.0</ele><time>2026-04-07T16:46:19Z</time></trkpt><trkpt lat="43.554565491652134" lon="13.510222433799052"><ele>40.0</ele><time>2026-04-07T16:46:26Z</time></trkpt><trkpt lat="43.55448356651541" lon="13.510218821315743"><ele>40.0</ele><time>2026-04-07T16:46:27Z</time></trkpt><trkpt lat="43.55437994766463" lon="13.510209117903196"><ele>40.0</ele><time>2026-04-07T16:46:28Z</time></trkpt><trkpt lat="43.55425328780842" lon="13.510198101503475"><ele>39.5</ele><time>2026-04-07T16:46:29Z</time></trkpt><trkpt lat="43.554121640406784" lon="13.510188695402627"><ele>39.0</ele><time>2026-04-07T16:46:30Z</time></trkpt><trkpt lat="43.553973043777034" lon="13.510183267736728"><ele>38.5</ele><time>2026-04-07T16:46:31Z</time></trkpt><trkpt lat="43.553820746864254" lon="13.510177936888322"><ele>38.0</ele><time>2026-04-07T16:46:32Z</time></trkpt><trkpt lat="43.553662242603785" lon="13.510167483948202"><ele>37.666666666666664</ele><time>2026-04-07T16:46:33Z</time></trkpt><trkpt lat="43.55349565648664" lon="13.510154502003166"><ele>37.333333333333336</ele><time>2026-04-07T16:46:34Z</time></trkpt><trkpt lat="43.55332788240653" lon="13.510112008899075"><ele>37.0</ele><time>2026-04-07T16:46:35Z</time></trkpt><trkpt lat="43.55316138238044" lon="13.510101435820042"><ele>37.0</ele><time>2026-04-07T16:46:36Z</time></trkpt><trkpt lat="43.553002203198716" lon="13.510091261203085"><ele>37.0</ele><time>2026-04-07T16:46:37Z</time></trkpt><trkpt lat="43.55284319529907" lon="13.510081967691827"><ele>37.0</ele><time>2026-04-07T16:46:38Z</time></trkpt><trkpt lat="43.552691297171656" lon="13.51007337916549"><ele>36.75</ele><time>2026-04-07T16:46:39Z</time></trkpt><trkpt lat="43.55254242573396" lon="13.510064724075757"><ele>36.5</ele><time>2026-04-07T16:46:40Z</time></trkpt><trkpt lat="43.55239558694023" lon="13.510056016813852"><ele>36.25</ele><time>2026-04-07T16:46:41Z</time></trkpt><trkpt lat="43.55225239383863" lon="13.510069267253439"><ele>36.0</ele><time>2026-04-07T16:46:42Z</time></trkpt><trkpt lat="43.55211470930033" lon="13.510072448133682"><ele>35.666666666666664</ele><time>2026-04-07T16:46:43Z</time></trkpt><trkpt lat="43.55196605706093" lon="13.510101422546015"><ele>35.33333333333333</ele><time>2026-04-07T16:46:44Z</time></trkpt><trkpt lat="43.551812189754436" lon="13.510099560270538"><ele>35.0</ele><time>2026-04-07T16:46:45Z</time></trkpt><trkpt lat="43.551653186115445" lon="13.510087204188318"><ele>35.0</ele><time>2026-04-07T16:46:46Z</time></trkpt><trkpt lat="43.5514944927453" lon="13.510073781878793"><ele>35.0</ele><time>2026-04-07T16:46:47Z</time></trkpt><trkpt lat="43.551329934111905" lon="13.510064513762718"><ele>35.0</ele><time>2026-04-07T16:46:48Z</time></trkpt><trkpt lat="43.55116072083228" lon="13.51005421504279"><ele>34.666666666666664</ele><time>2026-04-07T16:46:49Z</time></trkpt><trkpt lat="43.550989945687725" lon="13.510043559048484"><ele>34.333333333333336</ele><time>2026-04-07T16:46:50Z</time></trkpt><trkpt lat="43.550832722725815" lon="13.510031913508138"><ele>34.0</ele><time>2026-04-07T16:46:51Z</time></trkpt><trkpt lat="43.55068993238783" lon="13.510022986180779"><ele>34.0</ele><time>2026-04-07T16:46:52Z</time></trkpt><trkpt lat="43.55056186455651" lon="13.51001004002838"><ele>34.0</ele><time>2026-04-07T16:46:53Z</time></trkpt><trkpt lat="43.55041761591536" lon="13.509990558888212"><ele>34.0</ele><time>2026-04-07T16:46:54Z</time></trkpt><trkpt lat="43.55026416570646" lon="13.509965510383145"><ele>34.0</ele><time>2026-04-07T16:46:55Z</time></trkpt><trkpt lat="43.55010228918786" lon="13.50993805430125"><ele>34.333333333333336</ele><time>2026-04-07T16:46:56Z</time></trkpt><trkpt lat="43.54993499287905" lon="13.50991654868517"><ele>34.666666666666664</ele><time>2026-04-07T16:46:57Z</time></trkpt><trkpt lat="43.54976644321352" lon="13.5099033883891"><ele>35.0</ele><time>2026-04-07T16:46:58Z</time></trkpt><trkpt lat="43.54959445286542" lon="13.509893811947409"><ele>34.33333333333333</ele><time>2026-04-07T16:46:59Z</time></trkpt><trkpt lat="43.549412451864725" lon="13.509882677951238"><ele>33.666666666666664</ele><time>2026-04-07T16:47:00Z</time></trkpt><trkpt lat="43.54923981278485" lon="13.509860290408124"><ele>33.0</ele><time>2026-04-07T16:47:01Z</time></trkpt><trkpt lat="43.54905791116637" lon="13.509833818585694"><ele>33.0</ele><time>2026-04-07T16:47:02Z</time></trkpt><trkpt lat="43.548884844206235" lon="13.509804189411248"><ele>33.0</ele><time>2026-04-07T16:47:03Z</time></trkpt><trkpt lat="43.54868843766577" lon="13.509786831238252"><ele>33.0</ele><time>2026-04-07T16:47:04Z</time></trkpt><trkpt lat="43.54850244817928" lon="13.509775043774859"><ele>33.333333333333336</ele><time>2026-04-07T16:47:05Z</time></trkpt><trkpt lat="43.54831093741034" lon="13.509774006952478"><ele>33.66666666666667</ele><time>2026-04-07T16:47:06Z</time></trkpt><trkpt lat="43.5481215999566" lon="13.509770158465704"><ele>34.0</ele><time>2026-04-07T16:47:07Z</time></trkpt><trkpt lat="43.547935122237966" lon="13.50975921605366"><ele>34.0</ele><time>2026-04-07T16:47:08Z</time></trkpt><trkpt lat="43.547764870163114" lon="13.50974043531511"><ele>34.0</ele><time>2026-04-07T16:47:09Z</time></trkpt><trkpt lat="43.54760352143768" lon="13.50972698557209"><ele>34.0</ele><time>2026-04-07T16:47:10Z</time></trkpt><trkpt lat="43.54744396960793" lon="13.509717958557765"><ele>34.0</ele><time>2026-04-07T16:47:11Z</time></trkpt><trkpt lat="43.54727603339072" lon="13.509712978005002"><ele>34.0</ele><time>2026-04-07T16:47:12Z</time></trkpt><trkpt lat="43.54710970118306" lon="13.509705618020455"><ele>34.0</ele><time>2026-04-07T16:47:13Z</time></trkpt><trkpt lat="43.54694040629784" lon="13.509699832923122"><ele>33.66666666666667</ele><time>2026-04-07T16:47:14Z</time></trkpt><trkpt lat="43.54676738402641" lon="13.509696282690621"><ele>33.333333333333336</ele><time>2026-04-07T16:47:15Z</time></trkpt><trkpt lat="43.54658474467221" lon="13.509698392582951"><ele>33.0</ele><time>2026-04-07T16:47:16Z</time></trkpt><trkpt lat="43.546401295471014" lon="13.509701523640388"><ele>33.0</ele><time>2026-04-07T16:47:17Z</time></trkpt><trkpt lat="43.5462067235691" lon="13.509690981116378"><ele>33.0</ele><time>2026-04-07T16:47:18Z</time></trkpt><trkpt lat="43.546023766538376" lon="13.50967805187511"><ele>33.0</ele><time>2026-04-07T16:47:19Z</time></trkpt><trkpt lat="43.54583475542615" lon="13.509666062213086"><ele>33.0</ele><time>2026-04-07T16:47:20Z</time></trkpt><trkpt lat="43.54566531386506" lon="13.509662991146982"><ele>33.0</ele><time>2026-04-07T16:47:21Z</time></trkpt><trkpt lat="43.54549783108883" lon="13.509658815718286"><ele>33.0</ele><time>2026-04-07T16:47:22Z</time></trkpt><trkpt lat="43.5453304095838" lon="13.50965215913973"><ele>32.333333333333336</ele><time>2026-04-07T16:47:23Z</time></trkpt><trkpt lat="43.54516282954986" lon="13.50961838374262"><ele>31.666666666666668</ele><time>2026-04-07T16:47:24Z</time></trkpt><trkpt lat="43.544995531558925" lon="13.5096086103203"><ele>31.0</ele><time>2026-04-07T16:47:25Z</time></trkpt><trkpt lat="43.544829763813446" lon="13.509601312616377"><ele>31.0</ele><time>2026-04-07T16:47:26Z</time></trkpt><trkpt lat="43.54466464853851" lon="13.509593243601836"><ele>31.0</ele><time>2026-04-07T16:47:27Z</time></trkpt><trkpt lat="43.544497590899525" lon="13.509584828516301"><ele>31.0</ele><time>2026-04-07T16:47:28Z</time></trkpt><trkpt lat="43.54433042187396" lon="13.509594778744631"><ele>31.333333333333336</ele><time>2026-04-07T16:47:29Z</time></trkpt><trkpt lat="43.54416104210635" lon="13.509582585344798"><ele>31.666666666666664</ele><time>2026-04-07T16:47:30Z</time></trkpt><trkpt lat="43.5439839714455" lon="13.509576666196978"><ele>32.0</ele><time>2026-04-07T16:47:31Z</time></trkpt><trkpt lat="43.543808932008794" lon="13.509545448050833"><ele>32.0</ele><time>2026-04-07T16:47:32Z</time></trkpt><trkpt lat="43.54363274782846" lon="13.509535995605134"><ele>32.0</ele><time>2026-04-07T16:47:33Z</time></trkpt><trkpt lat="43.543450889487204" lon="13.509526238735543"><ele>32.0</ele><time>2026-04-07T16:47:34Z</time></trkpt><trkpt lat="43.54326686311815" lon="13.509535365121419"><ele>32.0</ele><time>2026-04-07T16:47:35Z</time></trkpt><trkpt lat="43.54308123457689" lon="13.509521682989075"><ele>32.0</ele><time>2026-04-07T16:47:36Z</time></trkpt><trkpt lat="43.54289594095093" lon="13.50951140079691"><ele>32.0</ele><time>2026-04-07T16:47:37Z</time></trkpt><trkpt lat="43.542709832625" lon="13.509502027280456"><ele>32.33333333333333</ele><time>2026-04-07T16:47:38Z</time></trkpt><trkpt lat="43.542515624870774" lon="13.509490949482329"><ele>32.666666666666664</ele><time>2026-04-07T16:47:39Z</time></trkpt><trkpt lat="43.542325137244134" lon="13.50948132398167"><ele>33.0</ele><time>2026-04-07T16:47:40Z</time></trkpt><trkpt lat="43.54213254478845" lon="13.509470913569059"><ele>33.333333333333336</ele><time>2026-04-07T16:47:41Z</time></trkpt><trkpt lat="43.541947581252984" lon="13.50945977371002"><ele>33.66666666666667</ele><time>2026-04-07T16:47:42Z</time></trkpt><trkpt lat="43.54176933759071" lon="13.50942965524359"><ele>34.0</ele><time>2026-04-07T16:47:43Z</time></trkpt><trkpt lat="43.541599551116654" lon="13.509436468147737"><ele>34.0</ele><time>2026-04-07T16:47:44Z</time></trkpt><trkpt lat="43.541416836867235" lon="13.509427579478015"><ele>34.0</ele><time>2026-04-07T16:47:45Z</time></trkpt><trkpt lat="43.54122830628461" lon="13.50941264613168"><ele>34.0</ele><time>2026-04-07T16:47:46Z</time></trkpt><trkpt lat="43.54104417349692" lon="13.509405098702059"><ele>34.0</ele><time>2026-04-07T16:47:47Z</time></trkpt><trkpt lat="43.5408551248136" lon="13.509375542302692"><ele>34.0</ele><time>2026-04-07T16:47:48Z</time></trkpt><trkpt lat="43.54067947921294" lon="13.509389969317208"><ele>34.0</ele><time>2026-04-07T16:47:49Z</time></trkpt><trkpt lat="43.540510885461835" lon="13.509381104883941"><ele>33.66666666666667</ele><time>2026-04-07T16:47:50Z</time></trkpt><trkpt lat="43.540340360846855" lon="13.509367991624423"><ele>33.333333333333336</ele><time>2026-04-07T16:47:51Z</time></trkpt><trkpt lat="43.540166435133806" lon="13.509358665366848"><ele>33.0</ele><time>2026-04-07T16:47:52Z</time></trkpt><trkpt lat="43.539984658374955" lon="13.509346219602687"><ele>33.0</ele><time>2026-04-07T16:47:53Z</time></trkpt><trkpt lat="43.53980015310595" lon="13.50934175217102"><ele>33.0</ele><time>2026-04-07T16:47:54Z</time></trkpt><trkpt lat="43.53961397606774" lon="13.509330628714617"><ele>33.0</ele><time>2026-04-07T16:47:55Z</time></trkpt><trkpt lat="43.53943104586937" lon="13.509316239714767"><ele>33.0</ele><time>2026-04-07T16:47:56Z</time></trkpt><trkpt lat="43.539262691869766" lon="13.509310785248424"><ele>33.0</ele><time>2026-04-07T16:47:57Z</time></trkpt><trkpt lat="43.53909489119228" lon="13.509319168824616"><ele>33.0</ele><time>2026-04-07T16:47:58Z</time></trkpt><trkpt lat="43.538919101195624" lon="13.509356570285219"><ele>33.0</ele><time>2026-04-07T16:47:59Z</time></trkpt><trkpt lat="43.538737457512966" lon="13.509410598857755"><ele>33.0</ele><time>2026-04-07T16:48:00Z</time></trkpt><trkpt lat="43.538561299131494" lon="13.509535563074287"><ele>33.0</ele><time>2026-04-07T16:48:01Z</time></trkpt><trkpt lat="43.538391514427765" lon="13.509662634516994"><ele>32.666666666666664</ele><time>2026-04-07T16:48:02Z</time></trkpt><trkpt lat="43.53822049740671" lon="13.509817423047902"><ele>32.33333333333333</ele><time>2026-04-07T16:48:03Z</time></trkpt><trkpt lat="43.53807313189741" lon="13.509959711213721"><ele>32.0</ele><time>2026-04-07T16:48:04Z</time></trkpt><trkpt lat="43.53792464320891" lon="13.510104654681202"><ele>31.333333333333332</ele><time>2026-04-07T16:48:05Z</time></trkpt><trkpt lat="43.53777348199596" lon="13.51024752590656"><ele>30.666666666666664</ele><time>2026-04-07T16:48:06Z</time></trkpt><trkpt lat="43.53762068252198" lon="13.510386012301925"><ele>30.0</ele><time>2026-04-07T16:48:07Z</time></trkpt><trkpt lat="43.53748541795381" lon="13.510512854025018"><ele>30.0</ele><time>2026-04-07T16:48:08Z</time></trkpt><trkpt lat="43.53736545074386" lon="13.51062892487256"><ele>30.0</ele><time>2026-04-07T16:48:09Z</time></trkpt><trkpt lat="43.53724556144443" lon="13.510742080702085"><ele>30.0</ele><time>2026-04-07T16:48:10Z</time></trkpt><trkpt lat="43.537136722612395" lon="13.510849442798172"><ele>30.0</ele><time>2026-04-07T16:48:11Z</time></trkpt><trkpt lat="43.53703084110364" lon="13.510945998249056"><ele>30.2</ele><time>2026-04-07T16:48:12Z</time></trkpt><trkpt lat="43.53693135320738" lon="13.511038316501763"><ele>30.4</ele><time>2026-04-07T16:48:13Z</time></trkpt><trkpt lat="43.53683714705659" lon="13.511118297427378"><ele>30.6</ele><time>2026-04-07T16:48:14Z</time></trkpt><trkpt lat="43.53675644609195" lon="13.511198218582624"><ele>30.8</ele><time>2026-04-07T16:48:15Z</time></trkpt><trkpt lat="43.53667523636904" lon="13.511261283489478"><ele>31.0</ele><time>2026-04-07T16:48:16Z</time></trkpt><trkpt lat="43.53659257860709" lon="13.511310475613781"><ele>31.0</ele><time>2026-04-07T16:48:17Z</time></trkpt><trkpt lat="43.5365310058779" lon="13.51134049180038"><ele>31.0</ele><time>2026-04-07T16:48:19Z</time></trkpt><trkpt lat="43.536395354087816" lon="13.511392497494526"><ele>31.0</ele><time>2026-04-07T16:48:27Z</time></trkpt><trkpt lat="43.53633330267564" lon="13.511410604483402"><ele>31.0</ele><time>2026-04-07T16:48:28Z</time></trkpt><trkpt lat="43.53623094991891" lon="13.511458287652351"><ele>31.0</ele><time>2026-04-07T16:48:30Z</time></trkpt><trkpt lat="43.536139154379704" lon="13.511574660916846"><ele>30.8</ele><time>2026-04-07T16:48:32Z</time></trkpt><trkpt lat="43.53609971412156" lon="13.511655656963597"><ele>30.6</ele><time>2026-04-07T16:48:33Z</time></trkpt><trkpt lat="43.536041564650255" lon="13.511765725812753"><ele>30.4</ele><time>2026-04-07T16:48:34Z</time></trkpt><trkpt lat="43.53596388407776" lon="13.511886625075746"><ele>30.2</ele><time>2026-04-07T16:48:35Z</time></trkpt><trkpt lat="43.53586602768284" lon="13.511998215152996"><ele>30.0</ele><time>2026-04-07T16:48:36Z</time></trkpt><trkpt lat="43.53575481855875" lon="13.512097104504944"><ele>30.0</ele><time>2026-04-07T16:48:37Z</time></trkpt><trkpt lat="43.535630404283964" lon="13.512206296273439"><ele>30.0</ele><time>2026-04-07T16:48:38Z</time></trkpt><trkpt lat="43.53549974895197" lon="13.512324236102593"><ele>30.0</ele><time>2026-04-07T16:48:39Z</time></trkpt><trkpt lat="43.53536930395913" lon="13.512444296550575"><ele>29.333333333333336</ele><time>2026-04-07T16:48:40Z</time></trkpt><trkpt lat="43.53523961295945" lon="13.5125601595715"><ele>28.666666666666668</ele><time>2026-04-07T16:48:41Z</time></trkpt><trkpt lat="43.53510632681616" lon="13.512680002656815"><ele>28.0</ele><time>2026-04-07T16:48:42Z</time></trkpt><trkpt lat="43.53496494734843" lon="13.512809996737465"><ele>28.666666666666668</ele><time>2026-04-07T16:48:43Z</time></trkpt><trkpt lat="43.534815926831044" lon="13.51294780593279"><ele>29.333333333333336</ele><time>2026-04-07T16:48:44Z</time></trkpt><trkpt lat="43.53466487040853" lon="13.51308825927134"><ele>30.0</ele><time>2026-04-07T16:48:45Z</time></trkpt><trkpt lat="43.53451258438527" lon="13.513227757071407"><ele>30.333333333333336</ele><time>2026-04-07T16:48:46Z</time></trkpt><trkpt lat="43.53436952250435" lon="13.513362647117988"><ele>30.666666666666668</ele><time>2026-04-07T16:48:47Z</time></trkpt><trkpt lat="43.53422269927621" lon="13.513499031493483"><ele>31.0</ele><time>2026-04-07T16:48:48Z</time></trkpt><trkpt lat="43.53407201517302" lon="13.513635601004475"><ele>30.666666666666668</ele><time>2026-04-07T16:48:49Z</time></trkpt><trkpt lat="43.533933934095366" lon="13.513760683304586"><ele>30.333333333333336</ele><time>2026-04-07T16:48:50Z</time></trkpt><trkpt lat="43.533806715692286" lon="13.513880847765906"><ele>30.0</ele><time>2026-04-07T16:48:51Z</time></trkpt><trkpt lat="43.53367257423134" lon="13.514005798889428"><ele>30.666666666666664</ele><time>2026-04-07T16:48:52Z</time></trkpt><trkpt lat="43.5335481024242" lon="13.514123996189147"><ele>31.333333333333332</ele><time>2026-04-07T16:48:53Z</time></trkpt><trkpt lat="43.53342264180085" lon="13.51424348683628"><ele>32.0</ele><time>2026-04-07T16:48:54Z</time></trkpt><trkpt lat="43.53329521775385" lon="13.514370334673057"><ele>32.0</ele><time>2026-04-07T16:48:55Z</time></trkpt><trkpt lat="43.533159872347134" lon="13.51449807280837"><ele>32.0</ele><time>2026-04-07T16:48:56Z</time></trkpt><trkpt lat="43.53302188644687" lon="13.514616769661112"><ele>32.0</ele><time>2026-04-07T16:48:57Z</time></trkpt><trkpt lat="43.53287728777059" lon="13.514737303793899"><ele>31.666666666666664</ele><time>2026-04-07T16:48:58Z</time></trkpt><trkpt lat="43.53272080843231" lon="13.514863947939263"><ele>31.333333333333336</ele><time>2026-04-07T16:48:59Z</time></trkpt><trkpt lat="43.532563572007334" lon="13.51500009784024"><ele>31.0</ele><time>2026-04-07T16:49:00Z</time></trkpt><trkpt lat="43.53240322988779" lon="13.515135264373061"><ele>31.0</ele><time>2026-04-07T16:49:01Z</time></trkpt><trkpt lat="43.532236165403816" lon="13.515286139010541"><ele>31.0</ele><time>2026-04-07T16:49:02Z</time></trkpt><trkpt lat="43.532078688575574" lon="13.515434877026962"><ele>31.0</ele><time>2026-04-07T16:49:03Z</time></trkpt><trkpt lat="43.53191673464011" lon="13.515589232790854"><ele>30.333333333333336</ele><time>2026-04-07T16:49:04Z</time></trkpt><trkpt lat="43.531755609749155" lon="13.515742329654561"><ele>29.666666666666664</ele><time>2026-04-07T16:49:05Z</time></trkpt><trkpt lat="43.53159084595663" lon="13.515895256904782"><ele>29.0</ele><time>2026-04-07T16:49:06Z</time></trkpt><trkpt lat="43.531432507204364" lon="13.51603928857619"><ele>29.0</ele><time>2026-04-07T16:49:07Z</time></trkpt><trkpt lat="43.531275772584564" lon="13.516181198165944"><ele>29.0</ele><time>2026-04-07T16:49:08Z</time></trkpt><trkpt lat="43.53112033842721" lon="13.516330688185993"><ele>29.0</ele><time>2026-04-07T16:49:09Z</time></trkpt><trkpt lat="43.53097886541606" lon="13.51646850954825"><ele>29.333333333333332</ele><time>2026-04-07T16:49:10Z</time></trkpt><trkpt lat="43.530837600296536" lon="13.51659651642316"><ele>29.666666666666664</ele><time>2026-04-07T16:49:11Z</time></trkpt><trkpt lat="43.53070781378943" lon="13.51671797786957"><ele>30.0</ele><time>2026-04-07T16:49:12Z</time></trkpt><trkpt lat="43.5305870020567" lon="13.516832155559946"><ele>30.0</ele><time>2026-04-07T16:49:13Z</time></trkpt><trkpt lat="43.53047234250601" lon="13.516938113855497"><ele>30.0</ele><time>2026-04-07T16:49:14Z</time></trkpt><trkpt lat="43.53036828437602" lon="13.517026939148908"><ele>30.0</ele><time>2026-04-07T16:49:15Z</time></trkpt><trkpt lat="43.53027264287774" lon="13.517103026571963"><ele>30.0</ele><time>2026-04-07T16:49:16Z</time></trkpt><trkpt lat="43.53017931426881" lon="13.517167695033372"><ele>30.4</ele><time>2026-04-07T16:49:17Z</time></trkpt><trkpt lat="43.53008591263129" lon="13.517205611789802"><ele>30.8</ele><time>2026-04-07T16:49:18Z</time></trkpt><trkpt lat="43.530003652269336" lon="13.517241826945535"><ele>31.200000000000003</ele><time>2026-04-07T16:49:19Z</time></trkpt><trkpt lat="43.52993738043761" lon="13.51731789425908"><ele>31.6</ele><time>2026-04-07T16:49:20Z</time></trkpt><trkpt lat="43.529877470951256" lon="13.517442134489917"><ele>32.0</ele><time>2026-04-07T16:49:21Z</time></trkpt><trkpt lat="43.52981260008392" lon="13.517589419966853"><ele>32.0</ele><time>2026-04-07T16:49:22Z</time></trkpt><trkpt lat="43.529726633044376" lon="13.517725600156213"><ele>32.0</ele><time>2026-04-07T16:49:23Z</time></trkpt><trkpt lat="43.52961722124394" lon="13.517849815917058"><ele>32.0</ele><time>2026-04-07T16:49:24Z</time></trkpt><trkpt lat="43.52948390260644" lon="13.517946126159634"><ele>32.0</ele><time>2026-04-07T16:49:25Z</time></trkpt><trkpt lat="43.5293532058273" lon="13.518071178958003"><ele>31.666666666666664</ele><time>2026-04-07T16:49:26Z</time></trkpt><trkpt lat="43.52921352336394" lon="13.518201106671956"><ele>31.333333333333336</ele><time>2026-04-07T16:49:27Z</time></trkpt><trkpt lat="43.52906445146706" lon="13.518341398268792"><ele>31.0</ele><time>2026-04-07T16:49:28Z</time></trkpt><trkpt lat="43.52891346289896" lon="13.518482807783773"><ele>31.0</ele><time>2026-04-07T16:49:29Z</time></trkpt><trkpt lat="43.52877320249675" lon="13.51863231144513"><ele>31.0</ele><time>2026-04-07T16:49:30Z</time></trkpt><trkpt lat="43.528615688024594" lon="13.51877181099449"><ele>31.0</ele><time>2026-04-07T16:49:31Z</time></trkpt><trkpt lat="43.528453779049535" lon="13.51891696798448"><ele>30.333333333333336</ele><time>2026-04-07T16:49:32Z</time></trkpt><trkpt lat="43.52830099755421" lon="13.519055447949913"><ele>29.666666666666664</ele><time>2026-04-07T16:49:33Z</time></trkpt><trkpt lat="43.52815813752893" lon="13.519187592794434"><ele>29.0</ele><time>2026-04-07T16:49:34Z</time></trkpt><trkpt lat="43.52802620268289" lon="13.519307712511157"><ele>29.0</ele><time>2026-04-07T16:49:35Z</time></trkpt><trkpt lat="43.527894546134945" lon="13.519431088678195"><ele>29.0</ele><time>2026-04-07T16:49:36Z</time></trkpt><trkpt lat="43.52776938803332" lon="13.519548206901488"><ele>29.0</ele><time>2026-04-07T16:49:37Z</time></trkpt><trkpt lat="43.527658816823845" lon="13.519654688617077"><ele>29.0</ele><time>2026-04-07T16:49:38Z</time></trkpt><trkpt lat="43.527546065067725" lon="13.51975827755475"><ele>29.0</ele><time>2026-04-07T16:49:39Z</time></trkpt><trkpt lat="43.52743444995261" lon="13.519861099544265"><ele>29.0</ele><time>2026-04-07T16:49:40Z</time></trkpt><trkpt lat="43.52732717976753" lon="13.519959083979858"><ele>29.0</ele><time>2026-04-07T16:49:41Z</time></trkpt><trkpt lat="43.52721567421577" lon="13.52006326334953"><ele>29.0</ele><time>2026-04-07T16:49:42Z</time></trkpt><trkpt lat="43.52710316412185" lon="13.5201708376386"><ele>29.0</ele><time>2026-04-07T16:49:43Z</time></trkpt><trkpt lat="43.52699046626662" lon="13.520278620825767"><ele>29.0</ele><time>2026-04-07T16:49:44Z</time></trkpt><trkpt lat="43.52687306550805" lon="13.520390707849543"><ele>29.0</ele><time>2026-04-07T16:49:45Z</time></trkpt><trkpt lat="43.52675268364504" lon="13.520503197884038"><ele>29.0</ele><time>2026-04-07T16:49:46Z</time></trkpt><trkpt lat="43.52663231199577" lon="13.520615216218607"><ele>29.0</ele><time>2026-04-07T16:49:47Z</time></trkpt><trkpt lat="43.52650875227939" lon="13.520724834641427"><ele>29.0</ele><time>2026-04-07T16:49:48Z</time></trkpt><trkpt lat="43.52638209558657" lon="13.5208354645191"><ele>29.0</ele><time>2026-04-07T16:49:49Z</time></trkpt><trkpt lat="43.52625943074888" lon="13.52095159988359"><ele>29.0</ele><time>2026-04-07T16:49:50Z</time></trkpt><trkpt lat="43.526146174972325" lon="13.521062494310184"><ele>28.666666666666664</ele><time>2026-04-07T16:49:51Z</time></trkpt><trkpt lat="43.52602592095111" lon="13.521176671540696"><ele>28.333333333333336</ele><time>2026-04-07T16:49:52Z</time></trkpt><trkpt lat="43.52585488382102" lon="13.521323356605082"><ele>28.0</ele><time>2026-04-07T16:49:53Z</time></trkpt><trkpt lat="43.52571707688977" lon="13.521456629477626"><ele>28.0</ele><time>2026-04-07T16:49:54Z</time></trkpt><trkpt lat="43.52557486821933" lon="13.52158082939254"><ele>28.0</ele><time>2026-04-07T16:49:55Z</time></trkpt><trkpt lat="43.52543278302875" lon="13.52170803555519"><ele>28.0</ele><time>2026-04-07T16:49:56Z</time></trkpt><trkpt lat="43.525285977407194" lon="13.521835353658608"><ele>28.333333333333336</ele><time>2026-04-07T16:49:57Z</time></trkpt><trkpt lat="43.52512929857829" lon="13.521956767153576"><ele>28.666666666666664</ele><time>2026-04-07T16:49:58Z</time></trkpt><trkpt lat="43.5249681461049" lon="13.522068211610687"><ele>29.0</ele><time>2026-04-07T16:49:59Z</time></trkpt><trkpt lat="43.52480237721548" lon="13.522170504025729"><ele>28.333333333333332</ele><time>2026-04-07T16:50:00Z</time></trkpt><trkpt lat="43.52463119706348" lon="13.522265227094952"><ele>27.666666666666664</ele><time>2026-04-07T16:50:01Z</time></trkpt><trkpt lat="43.52446648285273" lon="13.52235022608129"><ele>27.0</ele><time>2026-04-07T16:50:02Z</time></trkpt><trkpt lat="43.5242961525388" lon="13.522439944097764"><ele>27.0</ele><time>2026-04-07T16:50:03Z</time></trkpt><trkpt lat="43.524128603504344" lon="13.522527583655298"><ele>27.0</ele><time>2026-04-07T16:50:04Z</time></trkpt><trkpt lat="43.523976029550084" lon="13.522609926247753"><ele>27.0</ele><time>2026-04-07T16:50:05Z</time></trkpt><trkpt lat="43.52381300294632" lon="13.522695404171065"><ele>26.666666666666664</ele><time>2026-04-07T16:50:06Z</time></trkpt><trkpt lat="43.52364976729194" lon="13.522779291992368"><ele>26.333333333333332</ele><time>2026-04-07T16:50:07Z</time></trkpt><trkpt lat="43.52347539868843" lon="13.522868382227465"><ele>26.0</ele><time>2026-04-07T16:50:08Z</time></trkpt><trkpt lat="43.52330981537487" lon="13.52295663549762"><ele>26.0</ele><time>2026-04-07T16:50:09Z</time></trkpt><trkpt lat="43.52313521558509" lon="13.523050853884033"><ele>26.0</ele><time>2026-04-07T16:50:10Z</time></trkpt><trkpt lat="43.52296002084725" lon="13.523137882973176"><ele>26.0</ele><time>2026-04-07T16:50:11Z</time></trkpt><trkpt lat="43.52278700727947" lon="13.523225435179224"><ele>26.333333333333332</ele><time>2026-04-07T16:50:12Z</time></trkpt><trkpt lat="43.52261799450967" lon="13.523317009925794"><ele>26.666666666666664</ele><time>2026-04-07T16:50:13Z</time></trkpt><trkpt lat="43.52245197349593" lon="13.523406952592364"><ele>27.0</ele><time>2026-04-07T16:50:14Z</time></trkpt><trkpt lat="43.522282071033466" lon="13.523498805566254"><ele>27.0</ele><time>2026-04-07T16:50:15Z</time></trkpt><trkpt lat="43.52210882878211" lon="13.523585884488343"><ele>27.0</ele><time>2026-04-07T16:50:16Z</time></trkpt><trkpt lat="43.52193894154745" lon="13.523682257314542"><ele>27.0</ele><time>2026-04-07T16:50:17Z</time></trkpt><trkpt lat="43.52176625427891" lon="13.523773595780616"><ele>26.333333333333336</ele><time>2026-04-07T16:50:18Z</time></trkpt><trkpt lat="43.521613795603905" lon="13.523851482683023"><ele>25.666666666666668</ele><time>2026-04-07T16:50:19Z</time></trkpt><trkpt lat="43.521467374954625" lon="13.523930852844506"><ele>25.0</ele><time>2026-04-07T16:50:20Z</time></trkpt><trkpt lat="43.521301684251675" lon="13.524018850321216"><ele>24.666666666666668</ele><time>2026-04-07T16:50:21Z</time></trkpt><trkpt lat="43.521135395951376" lon="13.524105806682515"><ele>24.333333333333336</ele><time>2026-04-07T16:50:22Z</time></trkpt><trkpt lat="43.52096955360548" lon="13.524197361535446"><ele>24.0</ele><time>2026-04-07T16:50:23Z</time></trkpt><trkpt lat="43.5208002748738" lon="13.524292622093451"><ele>24.0</ele><time>2026-04-07T16:50:24Z</time></trkpt><trkpt lat="43.52062604231907" lon="13.524382010958519"><ele>24.0</ele><time>2026-04-07T16:50:25Z</time></trkpt><trkpt lat="43.52045242126133" lon="13.524478117374208"><ele>24.0</ele><time>2026-04-07T16:50:26Z</time></trkpt><trkpt lat="43.52027785238032" lon="13.524571145916665"><ele>24.0</ele><time>2026-04-07T16:50:27Z</time></trkpt><trkpt lat="43.520104862902166" lon="13.524663925398396"><ele>24.0</ele><time>2026-04-07T16:50:28Z</time></trkpt><trkpt lat="43.51992958221546" lon="13.524757004638133"><ele>24.0</ele><time>2026-04-07T16:50:29Z</time></trkpt><trkpt lat="43.51975785113035" lon="13.524846253485391"><ele>24.0</ele><time>2026-04-07T16:50:30Z</time></trkpt><trkpt lat="43.51958699118861" lon="13.524932465108074"><ele>24.0</ele><time>2026-04-07T16:50:31Z</time></trkpt><trkpt lat="43.519422137117374" lon="13.525021971446714"><ele>24.0</ele><time>2026-04-07T16:50:32Z</time></trkpt><trkpt lat="43.519261501383816" lon="13.525105273546327"><ele>24.666666666666664</ele><time>2026-04-07T16:50:33Z</time></trkpt><trkpt lat="43.51909380560486" lon="13.52519631713639"><ele>25.333333333333332</ele><time>2026-04-07T16:50:34Z</time></trkpt><trkpt lat="43.51893025855457" lon="13.52528369596261"><ele>26.0</ele><time>2026-04-07T16:50:35Z</time></trkpt><trkpt lat="43.518761586476415" lon="13.525374941254373"><ele>25.333333333333332</ele><time>2026-04-07T16:50:36Z</time></trkpt><trkpt lat="43.518598623752474" lon="13.525464985482225"><ele>24.666666666666664</ele><time>2026-04-07T16:50:37Z</time></trkpt><trkpt lat="43.51843246396664" lon="13.525555422408043"><ele>24.0</ele><time>2026-04-07T16:50:38Z</time></trkpt><trkpt lat="43.5182619565852" lon="13.52564380885384"><ele>24.0</ele><time>2026-04-07T16:50:39Z</time></trkpt><trkpt lat="43.5180943073011" lon="13.525735765994593"><ele>24.0</ele><time>2026-04-07T16:50:40Z</time></trkpt><trkpt lat="43.51792633699075" lon="13.5258279259846"><ele>24.0</ele><time>2026-04-07T16:50:41Z</time></trkpt><trkpt lat="43.51775409775153" lon="13.525922485092194"><ele>24.0</ele><time>2026-04-07T16:50:42Z</time></trkpt><trkpt lat="43.51758297861517" lon="13.52601774530809"><ele>24.0</ele><time>2026-04-07T16:50:43Z</time></trkpt><trkpt lat="43.51741641347692" lon="13.526108092864105"><ele>24.0</ele><time>2026-04-07T16:50:44Z</time></trkpt><trkpt lat="43.51725238848637" lon="13.526193917643713"><ele>24.0</ele><time>2026-04-07T16:50:45Z</time></trkpt><trkpt lat="43.51709213715381" lon="13.526275552193994"><ele>24.0</ele><time>2026-04-07T16:50:46Z</time></trkpt><trkpt lat="43.5169396627856" lon="13.526352782566004"><ele>24.0</ele><time>2026-04-07T16:50:47Z</time></trkpt><trkpt lat="43.51679475399433" lon="13.526432111740947"><ele>24.0</ele><time>2026-04-07T16:50:48Z</time></trkpt><trkpt lat="43.51665196381893" lon="13.52650602507824"><ele>24.0</ele><time>2026-04-07T16:50:49Z</time></trkpt><trkpt lat="43.516514789010834" lon="13.526578734141324"><ele>24.0</ele><time>2026-04-07T16:50:50Z</time></trkpt><trkpt lat="43.51637793587746" lon="13.526653114020057"><ele>24.0</ele><time>2026-04-07T16:50:51Z</time></trkpt><trkpt lat="43.51624463000113" lon="13.526729630330301"><ele>24.5</ele><time>2026-04-07T16:50:52Z</time></trkpt><trkpt lat="43.516106088689156" lon="13.52680740843008"><ele>25.0</ele><time>2026-04-07T16:50:53Z</time></trkpt><trkpt lat="43.515968502423526" lon="13.526877804894886"><ele>25.5</ele><time>2026-04-07T16:50:54Z</time></trkpt><trkpt lat="43.515830170100344" lon="13.526949247642367"><ele>26.0</ele><time>2026-04-07T16:50:55Z</time></trkpt><trkpt lat="43.51570248177589" lon="13.527019636332636"><ele>26.0</ele><time>2026-04-07T16:50:56Z</time></trkpt><trkpt lat="43.51558610814623" lon="13.527083001544495"><ele>26.0</ele><time>2026-04-07T16:50:57Z</time></trkpt><trkpt lat="43.51547547023166" lon="13.527142849273151"><ele>26.0</ele><time>2026-04-07T16:50:58Z</time></trkpt><trkpt lat="43.51536560746476" lon="13.527197170754288"><ele>26.0</ele><time>2026-04-07T16:50:59Z</time></trkpt><trkpt lat="43.51525246767827" lon="13.527253786743064"><ele>26.0</ele><time>2026-04-07T16:51:00Z</time></trkpt><trkpt lat="43.515137266549004" lon="13.527315533607124"><ele>26.0</ele><time>2026-04-07T16:51:01Z</time></trkpt><trkpt lat="43.515018346987965" lon="13.52738258932712"><ele>26.0</ele><time>2026-04-07T16:51:02Z</time></trkpt><trkpt lat="43.51490061008222" lon="13.527444734392063"><ele>26.0</ele><time>2026-04-07T16:51:03Z</time></trkpt><trkpt lat="43.51479985925132" lon="13.527501176256923"><ele>25.999999999999996</ele><time>2026-04-07T16:51:04Z</time></trkpt><trkpt lat="43.51469495046165" lon="13.527541687082945"><ele>26.0</ele><time>2026-04-07T16:51:05Z</time></trkpt><trkpt lat="43.51460644071228" lon="13.527577149301509"><ele>26.0</ele><time>2026-04-07T16:51:06Z</time></trkpt><trkpt lat="43.514518459328684" lon="13.52760040512328"><ele>26.0</ele><time>2026-04-07T16:51:07Z</time></trkpt><trkpt lat="43.51443873185349" lon="13.527610960093702"><ele>25.999999999999996</ele><time>2026-04-07T16:51:08Z</time></trkpt><trkpt lat="43.51437526719752" lon="13.527605718858968"><ele>26.0</ele><time>2026-04-07T16:51:09Z</time></trkpt><trkpt lat="43.51426474553334" lon="13.527557572546716"><ele>25.71428571428571</ele><time>2026-04-07T16:51:11Z</time></trkpt><trkpt lat="43.51420870259485" lon="13.527504956222568"><ele>25.42857142857143</ele><time>2026-04-07T16:51:12Z</time></trkpt><trkpt lat="43.51415559091321" lon="13.527431509454312"><ele>25.142857142857142</ele><time>2026-04-07T16:51:13Z</time></trkpt><trkpt lat="43.51411151565741" lon="13.52735249918304"><ele>24.857142857142854</ele><time>2026-04-07T16:51:14Z</time></trkpt><trkpt lat="43.51406506525868" lon="13.527282694950456"><ele>24.57142857142857</ele><time>2026-04-07T16:51:15Z</time></trkpt><trkpt lat="43.514003737007236" lon="13.527239451763316"><ele>24.285714285714285</ele><time>2026-04-07T16:51:16Z</time></trkpt><trkpt lat="43.51394701013293" lon="13.527198678895372"><ele>24.0</ele><time>2026-04-07T16:51:17Z</time></trkpt><trkpt lat="43.51386864793495" lon="13.527227246627707"><ele>24.0</ele><time>2026-04-07T16:51:18Z</time></trkpt><trkpt lat="43.51380679150552" lon="13.527257337039758"><ele>24.0</ele><time>2026-04-07T16:51:19Z</time></trkpt><trkpt lat="43.51375322440094" lon="13.527320399274661"><ele>24.0</ele><time>2026-04-07T16:51:20Z</time></trkpt><trkpt lat="43.51369730966636" lon="13.527511406726184"><ele>24.0</ele><time>2026-04-07T16:51:22Z</time></trkpt><trkpt lat="43.51370124748365" lon="13.527617587357955"><ele>24.0</ele><time>2026-04-07T16:51:23Z</time></trkpt><trkpt lat="43.51370358337153" lon="13.527737884915592"><ele>24.0</ele><time>2026-04-07T16:51:24Z</time></trkpt><trkpt lat="43.513688942865606" lon="13.527868126979207"><ele>24.0</ele><time>2026-04-07T16:51:25Z</time></trkpt><trkpt lat="43.513629839375675" lon="13.528002983965246"><ele>24.0</ele><time>2026-04-07T16:51:26Z</time></trkpt><trkpt lat="43.5135424728541" lon="13.52811587997515"><ele>24.0</ele><time>2026-04-07T16:51:27Z</time></trkpt><trkpt lat="43.51341500445095" lon="13.52821259398791"><ele>24.0</ele><time>2026-04-07T16:51:28Z</time></trkpt><trkpt lat="43.51326596475725" lon="13.52829693718407"><ele>24.0</ele><time>2026-04-07T16:51:29Z</time></trkpt><trkpt lat="43.51310695526862" lon="13.52837806677898"><ele>24.0</ele><time>2026-04-07T16:51:30Z</time></trkpt><trkpt lat="43.512951907778955" lon="13.528461246846224"><ele>24.0</ele><time>2026-04-07T16:51:31Z</time></trkpt><trkpt lat="43.51278033295072" lon="13.52856208290083"><ele>24.0</ele><time>2026-04-07T16:51:32Z</time></trkpt><trkpt lat="43.5126083395108" lon="13.528660126090186"><ele>24.0</ele><time>2026-04-07T16:51:33Z</time></trkpt><trkpt lat="43.5124288900558" lon="13.528761158218927"><ele>23.666666666666668</ele><time>2026-04-07T16:51:34Z</time></trkpt><trkpt lat="43.512256525209395" lon="13.528853035625223"><ele>23.333333333333336</ele><time>2026-04-07T16:51:35Z</time></trkpt><trkpt lat="43.51208218772083" lon="13.528946932862157"><ele>23.0</ele><time>2026-04-07T16:51:36Z</time></trkpt><trkpt lat="43.5118992809005" lon="13.529044309609576"><ele>23.0</ele><time>2026-04-07T16:51:37Z</time></trkpt><trkpt lat="43.51171628641521" lon="13.529138039387558"><ele>23.0</ele><time>2026-04-07T16:51:38Z</time></trkpt><trkpt lat="43.51152992302698" lon="13.529234975295108"><ele>23.0</ele><time>2026-04-07T16:51:39Z</time></trkpt><trkpt lat="43.51133553128444" lon="13.529339193294785"><ele>23.333333333333336</ele><time>2026-04-07T16:51:40Z</time></trkpt><trkpt lat="43.51115189280753" lon="13.52943839723048"><ele>23.666666666666668</ele><time>2026-04-07T16:51:41Z</time></trkpt><trkpt lat="43.51097475423888" lon="13.529535292455313"><ele>24.0</ele><time>2026-04-07T16:51:42Z</time></trkpt><trkpt lat="43.51079993364483" lon="13.529631989493886"><ele>24.0</ele><time>2026-04-07T16:51:43Z</time></trkpt><trkpt lat="43.51062281784994" lon="13.529726358666595"><ele>24.0</ele><time>2026-04-07T16:51:44Z</time></trkpt><trkpt lat="43.51045551125022" lon="13.529815147614332"><ele>24.0</ele><time>2026-04-07T16:51:45Z</time></trkpt><trkpt lat="43.510296183337026" lon="13.52990458688952"><ele>24.333333333333336</ele><time>2026-04-07T16:51:46Z</time></trkpt><trkpt lat="43.51013367289629" lon="13.529987766043421"><ele>24.666666666666668</ele><time>2026-04-07T16:51:47Z</time></trkpt><trkpt lat="43.50996472323896" lon="13.530072532335021"><ele>25.0</ele><time>2026-04-07T16:51:48Z</time></trkpt><trkpt lat="43.50979075467482" lon="13.530160492977705"><ele>25.0</ele><time>2026-04-07T16:51:49Z</time></trkpt><trkpt lat="43.50961615568257" lon="13.530254889019623"><ele>25.0</ele><time>2026-04-07T16:51:50Z</time></trkpt><trkpt lat="43.509443365026236" lon="13.530346757459338"><ele>25.0</ele><time>2026-04-07T16:51:51Z</time></trkpt><trkpt lat="43.509265387828236" lon="13.53044018385139"><ele>23.666666666666668</ele><time>2026-04-07T16:51:52Z</time></trkpt><trkpt lat="43.50909623665075" lon="13.530533388433838"><ele>22.333333333333336</ele><time>2026-04-07T16:51:53Z</time></trkpt><trkpt lat="43.50892866938407" lon="13.53062322448012"><ele>21.0</ele><time>2026-04-07T16:51:54Z</time></trkpt><trkpt lat="43.508762350092404" lon="13.530713803984353"><ele>21.0</ele><time>2026-04-07T16:51:55Z</time></trkpt><trkpt lat="43.50859502729261" lon="13.530807860295843"><ele>21.0</ele><time>2026-04-07T16:51:56Z</time></trkpt><trkpt lat="43.50841853480504" lon="13.530900581131254"><ele>21.0</ele><time>2026-04-07T16:51:57Z</time></trkpt><trkpt lat="43.50824133978611" lon="13.530991925193254"><ele>21.0</ele><time>2026-04-07T16:51:58Z</time></trkpt><trkpt lat="43.50806144029184" lon="13.531082342277113"><ele>21.0</ele><time>2026-04-07T16:51:59Z</time></trkpt><trkpt lat="43.50788943506954" lon="13.531171789847532"><ele>21.0</ele><time>2026-04-07T16:52:00Z</time></trkpt><trkpt lat="43.50770619131914" lon="13.531265382808026"><ele>21.333333333333332</ele><time>2026-04-07T16:52:01Z</time></trkpt><trkpt lat="43.50753049724772" lon="13.531360302905995"><ele>21.666666666666664</ele><time>2026-04-07T16:52:02Z</time></trkpt><trkpt lat="43.507346220348055" lon="13.531460797106908"><ele>22.0</ele><time>2026-04-07T16:52:03Z</time></trkpt><trkpt lat="43.50717803291354" lon="13.531554367186738"><ele>22.333333333333332</ele><time>2026-04-07T16:52:04Z</time></trkpt><trkpt lat="43.50702325154987" lon="13.531639215842223"><ele>22.666666666666668</ele><time>2026-04-07T16:52:05Z</time></trkpt><trkpt lat="43.506864704457946" lon="13.531726950477482"><ele>23.0</ele><time>2026-04-07T16:52:06Z</time></trkpt><trkpt lat="43.506697185885145" lon="13.531814517439905"><ele>23.0</ele><time>2026-04-07T16:52:07Z</time></trkpt><trkpt lat="43.50652950266356" lon="13.531906988949489"><ele>23.0</ele><time>2026-04-07T16:52:08Z</time></trkpt><trkpt lat="43.5063579915309" lon="13.531999375490782"><ele>23.0</ele><time>2026-04-07T16:52:09Z</time></trkpt><trkpt lat="43.50617892555441" lon="13.532095176725297"><ele>23.333333333333336</ele><time>2026-04-07T16:52:10Z</time></trkpt><trkpt lat="43.50600397470739" lon="13.532188232715288"><ele>23.666666666666668</ele><time>2026-04-07T16:52:11Z</time></trkpt><trkpt lat="43.505822100177454" lon="13.532284012839202"><ele>24.0</ele><time>2026-04-07T16:52:12Z</time></trkpt><trkpt lat="43.50563910673244" lon="13.53237406441468"><ele>24.0</ele><time>2026-04-07T16:52:13Z</time></trkpt><trkpt lat="43.50545917461267" lon="13.532464803610646"><ele>24.0</ele><time>2026-04-07T16:52:14Z</time></trkpt><trkpt lat="43.50527892064823" lon="13.532557369573906"><ele>24.0</ele><time>2026-04-07T16:52:15Z</time></trkpt><trkpt lat="43.505098202650665" lon="13.532655175378567"><ele>24.0</ele><time>2026-04-07T16:52:16Z</time></trkpt><trkpt lat="43.504926402622914" lon="13.532746824976291"><ele>24.0</ele><time>2026-04-07T16:52:17Z</time></trkpt><trkpt lat="43.50474741568861" lon="13.53284629569493"><ele>24.0</ele><time>2026-04-07T16:52:18Z</time></trkpt><trkpt lat="43.504582308751786" lon="13.532939733165742"><ele>23.666666666666668</ele><time>2026-04-07T16:52:19Z</time></trkpt><trkpt lat="43.504421368403776" lon="13.533024015177066"><ele>23.333333333333336</ele><time>2026-04-07T16:52:20Z</time></trkpt><trkpt lat="43.50425887743497" lon="13.533103047585872"><ele>23.0</ele><time>2026-04-07T16:52:21Z</time></trkpt><trkpt lat="43.504110328822755" lon="13.533181767659276"><ele>23.0</ele><time>2026-04-07T16:52:22Z</time></trkpt><trkpt lat="43.50396632297814" lon="13.533259211038558"><ele>23.0</ele><time>2026-04-07T16:52:23Z</time></trkpt><trkpt lat="43.50382275645729" lon="13.53333573445315"><ele>23.0</ele><time>2026-04-07T16:52:24Z</time></trkpt><trkpt lat="43.50367736574912" lon="13.533410989409708"><ele>23.25</ele><time>2026-04-07T16:52:25Z</time></trkpt><trkpt lat="43.503537878093965" lon="13.53348632948664"><ele>23.5</ele><time>2026-04-07T16:52:26Z</time></trkpt><trkpt lat="43.5034117270184" lon="13.533555991359693"><ele>23.75</ele><time>2026-04-07T16:52:27Z</time></trkpt><trkpt lat="43.503277948105044" lon="13.533628398685458"><ele>24.0</ele><time>2026-04-07T16:52:28Z</time></trkpt><trkpt lat="43.503142630008156" lon="13.533705599763731"><ele>23.333333333333332</ele><time>2026-04-07T16:52:29Z</time></trkpt><trkpt lat="43.50299978635852" lon="13.53378304938855"><ele>22.666666666666664</ele><time>2026-04-07T16:52:30Z</time></trkpt><trkpt lat="43.50284698231503" lon="13.53386185758458"><ele>22.0</ele><time>2026-04-07T16:52:31Z</time></trkpt><trkpt lat="43.50268915682446" lon="13.533951160959106"><ele>22.0</ele><time>2026-04-07T16:52:32Z</time></trkpt><trkpt lat="43.50251167998139" lon="13.534023170891464"><ele>22.0</ele><time>2026-04-07T16:52:33Z</time></trkpt><trkpt lat="43.502333372990904" lon="13.534118796376378"><ele>22.0</ele><time>2026-04-07T16:52:34Z</time></trkpt><trkpt lat="43.50214601478866" lon="13.534219261801779"><ele>22.0</ele><time>2026-04-07T16:52:35Z</time></trkpt><trkpt lat="43.50196945265298" lon="13.534312863625662"><ele>22.0</ele><time>2026-04-07T16:52:36Z</time></trkpt><trkpt lat="43.50180177338843" lon="13.534421643656845"><ele>22.0</ele><time>2026-04-07T16:52:37Z</time></trkpt><trkpt lat="43.5016392843517" lon="13.534502202623381"><ele>22.0</ele><time>2026-04-07T16:52:38Z</time></trkpt><trkpt lat="43.5014740205948" lon="13.534585466837436"><ele>22.0</ele><time>2026-04-07T16:52:39Z</time></trkpt><trkpt lat="43.50131140013037" lon="13.534670203372611"><ele>22.0</ele><time>2026-04-07T16:52:40Z</time></trkpt><trkpt lat="43.50115428716268" lon="13.534757420730344"><ele>22.0</ele><time>2026-04-07T16:52:41Z</time></trkpt><trkpt lat="43.50100271343018" lon="13.534840411604312"><ele>22.0</ele><time>2026-04-07T16:52:42Z</time></trkpt><trkpt lat="43.50085736036149" lon="13.534920422901822"><ele>22.0</ele><time>2026-04-07T16:52:43Z</time></trkpt><trkpt lat="43.50071115442414" lon="13.534996746478106"><ele>22.0</ele><time>2026-04-07T16:52:44Z</time></trkpt><trkpt lat="43.50055681090991" lon="13.535075169308346"><ele>22.0</ele><time>2026-04-07T16:52:45Z</time></trkpt><trkpt lat="43.50040869248576" lon="13.535155129958644"><ele>22.0</ele><time>2026-04-07T16:52:46Z</time></trkpt><trkpt lat="43.50026099727742" lon="13.53523470728754"><ele>21.666666666666664</ele><time>2026-04-07T16:52:47Z</time></trkpt><trkpt lat="43.50010563979237" lon="13.535313312155896"><ele>21.333333333333332</ele><time>2026-04-07T16:52:48Z</time></trkpt><trkpt lat="43.49995425910362" lon="13.53539355828525"><ele>21.0</ele><time>2026-04-07T16:52:49Z</time></trkpt><trkpt lat="43.49980071773642" lon="13.535473882507835"><ele>21.0</ele><time>2026-04-07T16:52:50Z</time></trkpt><trkpt lat="43.49965916705883" lon="13.53554753411611"><ele>21.0</ele><time>2026-04-07T16:52:51Z</time></trkpt><trkpt lat="43.49951967072892" lon="13.53562064180904"><ele>21.0</ele><time>2026-04-07T16:52:52Z</time></trkpt><trkpt lat="43.49937698752923" lon="13.535692616455805"><ele>21.25</ele><time>2026-04-07T16:52:53Z</time></trkpt><trkpt lat="43.49923533741991" lon="13.53576744370436"><ele>21.5</ele><time>2026-04-07T16:52:54Z</time></trkpt><trkpt lat="43.499093543235546" lon="13.535845015228137"><ele>21.75</ele><time>2026-04-07T16:52:55Z</time></trkpt><trkpt lat="43.49896433388654" lon="13.535917678521935"><ele>22.0</ele><time>2026-04-07T16:52:56Z</time></trkpt><trkpt lat="43.49884229116776" lon="13.535981680813448"><ele>22.25</ele><time>2026-04-07T16:52:57Z</time></trkpt><trkpt lat="43.49872042204017" lon="13.536040341504325"><ele>22.5</ele><time>2026-04-07T16:52:58Z</time></trkpt><trkpt lat="43.498600879381506" lon="13.536109290511561"><ele>22.75</ele><time>2026-04-07T16:52:59Z</time></trkpt><trkpt lat="43.49848345021741" lon="13.536178085634416"><ele>23.0</ele><time>2026-04-07T16:53:00Z</time></trkpt><trkpt lat="43.498351654976204" lon="13.536248570224341"><ele>22.5</ele><time>2026-04-07T16:53:01Z</time></trkpt><trkpt lat="43.498220861053554" lon="13.536319762077"><ele>22.0</ele><time>2026-04-07T16:53:02Z</time></trkpt><trkpt lat="43.49809487706694" lon="13.536395873100606"><ele>21.5</ele><time>2026-04-07T16:53:03Z</time></trkpt><trkpt lat="43.4979783933915" lon="13.536475814414331"><ele>21.0</ele><time>2026-04-07T16:53:04Z</time></trkpt><trkpt lat="43.497881595432" lon="13.536560844914659"><ele>22.0</ele><time>2026-04-07T16:53:05Z</time></trkpt><trkpt lat="43.49779278047335" lon="13.536662172888425"><ele>23.0</ele><time>2026-04-07T16:53:06Z</time></trkpt><trkpt lat="43.49771068055847" lon="13.536778567034352"><ele>24.0</ele><time>2026-04-07T16:53:07Z</time></trkpt><trkpt lat="43.49762902867305" lon="13.536906019843618"><ele>25.0</ele><time>2026-04-07T16:53:08Z</time></trkpt><trkpt lat="43.497553928392726" lon="13.537024272459856"><ele>25.166666666666668</ele><time>2026-04-07T16:53:09Z</time></trkpt><trkpt lat="43.497491172070035" lon="13.53712036770043"><ele>25.333333333333336</ele><time>2026-04-07T16:53:10Z</time></trkpt><trkpt lat="43.49744492928423" lon="13.537206390635077"><ele>25.5</ele><time>2026-04-07T16:53:11Z</time></trkpt><trkpt lat="43.49740048234031" lon="13.537290441073631"><ele>25.666666666666664</ele><time>2026-04-07T16:53:12Z</time></trkpt><trkpt lat="43.49735747442285" lon="13.537396177934035"><ele>25.833333333333332</ele><time>2026-04-07T16:53:13Z</time></trkpt><trkpt lat="43.49729048860483" lon="13.53751642835735"><ele>26.0</ele><time>2026-04-07T16:53:14Z</time></trkpt><trkpt lat="43.497250456393886" lon="13.53767258551807"><ele>26.0</ele><time>2026-04-07T16:53:15Z</time></trkpt><trkpt lat="43.4972125453828" lon="13.53784025019479"><ele>26.0</ele><time>2026-04-07T16:53:16Z</time></trkpt><trkpt lat="43.49720981018275" lon="13.538029700015885"><ele>26.0</ele><time>2026-04-07T16:53:17Z</time></trkpt><trkpt lat="43.49719345802704" lon="13.538184771908682"><ele>26.0</ele><time>2026-04-07T16:53:18Z</time></trkpt><trkpt lat="43.49717363020135" lon="13.538321556832926"><ele>25.833333333333332</ele><time>2026-04-07T16:53:19Z</time></trkpt><trkpt lat="43.497136573259276" lon="13.538419424311229"><ele>25.666666666666664</ele><time>2026-04-07T16:53:20Z</time></trkpt><trkpt lat="43.49708836989787" lon="13.53848235540368"><ele>25.5</ele><time>2026-04-07T16:53:21Z</time></trkpt><trkpt lat="43.497028161492935" lon="13.538571925619479"><ele>25.333333333333336</ele><time>2026-04-07T16:53:23Z</time></trkpt><trkpt lat="43.49702058170417" lon="13.538682873906051"><ele>25.166666666666668</ele><time>2026-04-07T16:53:28Z</time></trkpt><trkpt lat="43.497044869661586" lon="13.53880466279871"><ele>25.0</ele><time>2026-04-07T16:53:30Z</time></trkpt><trkpt lat="43.49706320351153" lon="13.538898743470945"><ele>27.0</ele><time>2026-04-07T16:53:31Z</time></trkpt><trkpt lat="43.49707021828104" lon="13.53908035253756"><ele>29.0</ele><time>2026-04-07T16:53:33Z</time></trkpt><trkpt lat="43.49706493241752" lon="13.539202277449714"><ele>31.0</ele><time>2026-04-07T16:53:34Z</time></trkpt><trkpt lat="43.497063595678966" lon="13.539317537849987"><ele>33.0</ele><time>2026-04-07T16:53:35Z</time></trkpt><trkpt lat="43.49706911910785" lon="13.539420650904521"><ele>35.0</ele><time>2026-04-07T16:53:36Z</time></trkpt><trkpt lat="43.497069025299545" lon="13.539533046801635"><ele>34.4</ele><time>2026-04-07T16:53:38Z</time></trkpt><trkpt lat="43.49706634283908" lon="13.539633917731804"><ele>33.8</ele><time>2026-04-07T16:53:40Z</time></trkpt><trkpt lat="43.497067480862" lon="13.539763547265578"><ele>33.2</ele><time>2026-04-07T16:53:42Z</time></trkpt><trkpt lat="43.497076978109966" lon="13.53995222785016"><ele>32.6</ele><time>2026-04-07T16:53:44Z</time></trkpt><trkpt lat="43.49707697037476" lon="13.54007509500179"><ele>32.0</ele><time>2026-04-07T16:53:45Z</time></trkpt><trkpt lat="43.49706899101502" lon="13.540235437409292"><ele>32.0</ele><time>2026-04-07T16:53:47Z</time></trkpt><trkpt lat="43.497063274292366" lon="13.540351958193106"><ele>32.0</ele><time>2026-04-07T16:53:49Z</time></trkpt><trkpt lat="43.49706112645969" lon="13.54048987557819"><ele>32.0</ele><time>2026-04-07T16:53:51Z</time></trkpt><trkpt lat="43.49705249920689" lon="13.540632786245917"><ele>32.0</ele><time>2026-04-07T16:53:53Z</time></trkpt><trkpt lat="43.49704866329315" lon="13.540806956312764"><ele>32.0</ele><time>2026-04-07T16:53:55Z</time></trkpt><trkpt lat="43.49705058177273" lon="13.540898045205987"><ele>30.666666666666664</ele><time>2026-04-07T16:53:56Z</time></trkpt><trkpt lat="43.497052758853684" lon="13.54101136679099"><ele>29.333333333333332</ele><time>2026-04-07T16:53:58Z</time></trkpt><trkpt lat="43.497056279176746" lon="13.541107009871727"><ele>28.0</ele><time>2026-04-07T16:54:01Z</time></trkpt><trkpt lat="43.49706113600069" lon="13.541206556830149"><ele>26.666666666666664</ele><time>2026-04-07T16:54:03Z</time></trkpt><trkpt lat="43.497067069961126" lon="13.541347380696918"><ele>25.333333333333332</ele><time>2026-04-07T16:54:05Z</time></trkpt><trkpt lat="43.497065917555275" lon="13.541502092805104"><ele>24.0</ele><time>2026-04-07T16:54:07Z</time></trkpt><trkpt lat="43.49706441362553" lon="13.541595227640226"><ele>23.4</ele><time>2026-04-07T16:54:08Z</time></trkpt><trkpt lat="43.497064842305456" lon="13.541700752396306"><ele>22.799999999999997</ele><time>2026-04-07T16:54:09Z</time></trkpt><trkpt lat="43.497064793874934" lon="13.541824956864867"><ele>22.200000000000003</ele><time>2026-04-07T16:54:10Z</time></trkpt><trkpt lat="43.49706816460624" lon="13.541956932194017"><ele>21.6</ele><time>2026-04-07T16:54:11Z</time></trkpt><trkpt lat="43.497067380124726" lon="13.542098277987083"><ele>21.0</ele><time>2026-04-07T16:54:12Z</time></trkpt><trkpt lat="43.49706872372238" lon="13.542234015211232"><ele>21.0</ele><time>2026-04-07T16:54:13Z</time></trkpt><trkpt lat="43.49707070666981" lon="13.542374884333352"><ele>21.0</ele><time>2026-04-07T16:54:14Z</time></trkpt><trkpt lat="43.497071632204474" lon="13.542533223392848"><ele>21.0</ele><time>2026-04-07T16:54:15Z</time></trkpt><trkpt lat="43.49707341805367" lon="13.542699405308134"><ele>21.0</ele><time>2026-04-07T16:54:16Z</time></trkpt><trkpt lat="43.497071172554186" lon="13.542874569758698"><ele>21.0</ele><time>2026-04-07T16:54:17Z</time></trkpt><trkpt lat="43.497069966244375" lon="13.542980967803706"><ele>21.0</ele><time>2026-04-07T16:54:18Z</time></trkpt><trkpt lat="43.497071511101225" lon="13.543137876027687"><ele>21.0</ele><time>2026-04-07T16:54:19Z</time></trkpt><trkpt lat="43.497071116217384" lon="13.543287211339464"><ele>21.0</ele><time>2026-04-07T16:54:20Z</time></trkpt><trkpt lat="43.49706718955483" lon="13.54344164566226"><ele>21.0</ele><time>2026-04-07T16:54:21Z</time></trkpt><trkpt lat="43.49706784277565" lon="13.543597803052856"><ele>21.0</ele><time>2026-04-07T16:54:22Z</time></trkpt><trkpt lat="43.49706975295446" lon="13.543769759060076"><ele>21.0</ele><time>2026-04-07T16:54:23Z</time></trkpt><trkpt lat="43.49707462142657" lon="13.543949693573724"><ele>21.0</ele><time>2026-04-07T16:54:24Z</time></trkpt><trkpt lat="43.49708014782986" lon="13.544123750715144"><ele>21.0</ele><time>2026-04-07T16:54:25Z</time></trkpt><trkpt lat="43.497073512514184" lon="13.544276708698556"><ele>21.0</ele><time>2026-04-07T16:54:26Z</time></trkpt><trkpt lat="43.497076020688084" lon="13.544423575893235"><ele>21.0</ele><time>2026-04-07T16:54:27Z</time></trkpt><trkpt lat="43.49707210554713" lon="13.544556056078314"><ele>21.0</ele><time>2026-04-07T16:54:28Z</time></trkpt><trkpt lat="43.49707346694104" lon="13.544696600383771"><ele>21.0</ele><time>2026-04-07T16:54:29Z</time></trkpt><trkpt lat="43.49705541476138" lon="13.54482129169411"><ele>21.0</ele><time>2026-04-07T16:54:30Z</time></trkpt><trkpt lat="43.49703997345599" lon="13.54493041617156"><ele>21.0</ele><time>2026-04-07T16:54:31Z</time></trkpt><trkpt lat="43.49700878707211" lon="13.545101251828706"><ele>21.0</ele><time>2026-04-07T16:54:33Z</time></trkpt><trkpt lat="43.496977986026174" lon="13.54518573187715"><ele>21.0</ele><time>2026-04-07T16:54:34Z</time></trkpt><trkpt lat="43.49695763644604" lon="13.545273233741382"><ele>21.0</ele><time>2026-04-07T16:54:35Z</time></trkpt><trkpt lat="43.496945711777386" lon="13.545359968008645"><ele>21.0</ele><time>2026-04-07T16:54:36Z</time></trkpt><trkpt lat="43.49692336473115" lon="13.545450034624036"><ele>21.0</ele><time>2026-04-07T16:54:37Z</time></trkpt><trkpt lat="43.49690214902641" lon="13.545531817959125"><ele>21.166666666666668</ele><time>2026-04-07T16:54:38Z</time></trkpt><trkpt lat="43.49686403776036" lon="13.54569661477545"><ele>21.333333333333332</ele><time>2026-04-07T16:54:40Z</time></trkpt><trkpt lat="43.49683541512454" lon="13.545803908750168"><ele>21.5</ele><time>2026-04-07T16:54:41Z</time></trkpt><trkpt lat="43.496812313228375" lon="13.545908550913873"><ele>21.666666666666664</ele><time>2026-04-07T16:54:42Z</time></trkpt><trkpt lat="43.49678820812539" lon="13.546010231414611"><ele>21.833333333333332</ele><time>2026-04-07T16:54:43Z</time></trkpt><trkpt lat="43.496764636865635" lon="13.546110893100131"><ele>22.0</ele><time>2026-04-07T16:54:44Z</time></trkpt><trkpt lat="43.49674143352059" lon="13.54621343126801"><ele>21.6</ele><time>2026-04-07T16:54:45Z</time></trkpt><trkpt lat="43.496718004087604" lon="13.54630564820719"><ele>21.200000000000003</ele><time>2026-04-07T16:54:46Z</time></trkpt><trkpt lat="43.4966833040322" lon="13.546452613979653"><ele>20.8</ele><time>2026-04-07T16:54:48Z</time></trkpt><trkpt lat="43.49664828944102" lon="13.54658463590037"><ele>20.4</ele><time>2026-04-07T16:54:50Z</time></trkpt><trkpt lat="43.496615733489556" lon="13.546717142573803"><ele>20.0</ele><time>2026-04-07T16:54:52Z</time></trkpt><trkpt lat="43.49658495121247" lon="13.546857382270415"><ele>20.0</ele><time>2026-04-07T16:54:54Z</time></trkpt><trkpt lat="43.49655120500591" lon="13.547015581873437"><ele>20.0</ele><time>2026-04-07T16:54:56Z</time></trkpt><trkpt lat="43.49653171939465" lon="13.547103456852033"><ele>20.0</ele><time>2026-04-07T16:54:57Z</time></trkpt><trkpt lat="43.496511011080116" lon="13.54720602053182"><ele>20.0</ele><time>2026-04-07T16:54:58Z</time></trkpt><trkpt lat="43.49648714216099" lon="13.547314288904479"><ele>20.0</ele><time>2026-04-07T16:54:59Z</time></trkpt><trkpt lat="43.49647014628155" lon="13.54742257007015"><ele>20.0</ele><time>2026-04-07T16:55:00Z</time></trkpt><trkpt lat="43.49644551883807" lon="13.547522700612905"><ele>19.5</ele><time>2026-04-07T16:55:01Z</time></trkpt><trkpt lat="43.49642250247207" lon="13.547652300970634"><ele>19.0</ele><time>2026-04-07T16:55:02Z</time></trkpt><trkpt lat="43.49640463578405" lon="13.547754278303708"><ele>18.5</ele><time>2026-04-07T16:55:03Z</time></trkpt><trkpt lat="43.49638294037297" lon="13.547852201127736"><ele>18.0</ele><time>2026-04-07T16:55:04Z</time></trkpt><trkpt lat="43.49635694822491" lon="13.54796739821691"><ele>17.5</ele><time>2026-04-07T16:55:05Z</time></trkpt><trkpt lat="43.49632970108487" lon="13.548069102591372"><ele>17.0</ele><time>2026-04-07T16:55:06Z</time></trkpt><trkpt lat="43.49630550599034" lon="13.548200570649755"><ele>16.8</ele><time>2026-04-07T16:55:07Z</time></trkpt><trkpt lat="43.49628857924652" lon="13.548313996175501"><ele>16.6</ele><time>2026-04-07T16:55:08Z</time></trkpt><trkpt lat="43.496264879469365" lon="13.548432272923094"><ele>16.400000000000002</ele><time>2026-04-07T16:55:09Z</time></trkpt><trkpt lat="43.496237795536736" lon="13.548570316003202"><ele>16.2</ele><time>2026-04-07T16:55:10Z</time></trkpt><trkpt lat="43.49621617268833" lon="13.548710689252268"><ele>16.0</ele><time>2026-04-07T16:55:11Z</time></trkpt><trkpt lat="43.49618642393965" lon="13.548861643992144"><ele>17.5</ele><time>2026-04-07T16:55:12Z</time></trkpt><trkpt lat="43.49616020090004" lon="13.54901042424423"><ele>19.0</ele><time>2026-04-07T16:55:13Z</time></trkpt><trkpt lat="43.49613072677632" lon="13.549170571474699"><ele>20.5</ele><time>2026-04-07T16:55:14Z</time></trkpt><trkpt lat="43.4961006406114" lon="13.549332321896"><ele>22.0</ele><time>2026-04-07T16:55:15Z</time></trkpt><trkpt lat="43.496076968620855" lon="13.549482350947766"><ele>21.6</ele><time>2026-04-07T16:55:16Z</time></trkpt><trkpt lat="43.49604069265856" lon="13.549630066257098"><ele>21.200000000000003</ele><time>2026-04-07T16:55:17Z</time></trkpt><trkpt lat="43.49601387968937" lon="13.549778642879064"><ele>20.8</ele><time>2026-04-07T16:55:18Z</time></trkpt><trkpt lat="43.49598731990068" lon="13.549930316085977"><ele>20.4</ele><time>2026-04-07T16:55:19Z</time></trkpt><trkpt lat="43.49596006895807" lon="13.550069441760966"><ele>20.0</ele><time>2026-04-07T16:55:20Z</time></trkpt><trkpt lat="43.495936698879255" lon="13.550209138238815"><ele>20.0</ele><time>2026-04-07T16:55:21Z</time></trkpt><trkpt lat="43.49591085442446" lon="13.550336723621113"><ele>20.0</ele><time>2026-04-07T16:55:22Z</time></trkpt><trkpt lat="43.495884249083886" lon="13.550475062208816"><ele>20.0</ele><time>2026-04-07T16:55:23Z</time></trkpt><trkpt lat="43.495850025872606" lon="13.550614257053448"><ele>20.0</ele><time>2026-04-07T16:55:24Z</time></trkpt><trkpt lat="43.49582470920461" lon="13.550738542817792"><ele>20.0</ele><time>2026-04-07T16:55:25Z</time></trkpt><trkpt lat="43.49579751417722" lon="13.550849913443797"><ele>19.8</ele><time>2026-04-07T16:55:26Z</time></trkpt><trkpt lat="43.495770917109745" lon="13.550966703572495"><ele>19.6</ele><time>2026-04-07T16:55:27Z</time></trkpt><trkpt lat="43.49574204851803" lon="13.551081588690563"><ele>19.4</ele><time>2026-04-07T16:55:28Z</time></trkpt><trkpt lat="43.49571443897186" lon="13.551201040598356"><ele>19.2</ele><time>2026-04-07T16:55:29Z</time></trkpt><trkpt lat="43.49568554658184" lon="13.551322610144666"><ele>19.0</ele><time>2026-04-07T16:55:30Z</time></trkpt><trkpt lat="43.49565154559449" lon="13.55144295861964"><ele>19.0</ele><time>2026-04-07T16:55:31Z</time></trkpt><trkpt lat="43.49561145167547" lon="13.551570034962035"><ele>19.0</ele><time>2026-04-07T16:55:32Z</time></trkpt><trkpt lat="43.49556525954784" lon="13.551700293979215"><ele>19.0</ele><time>2026-04-07T16:55:33Z</time></trkpt><trkpt lat="43.49550722293367" lon="13.55182486123205"><ele>19.0</ele><time>2026-04-07T16:55:34Z</time></trkpt><trkpt lat="43.49543857974665" lon="13.55195853582223"><ele>19.0</ele><time>2026-04-07T16:55:35Z</time></trkpt><trkpt lat="43.495362009883735" lon="13.552082865476073"><ele>19.0</ele><time>2026-04-07T16:55:36Z</time></trkpt><trkpt lat="43.49526918159364" lon="13.552196900616128"><ele>19.0</ele><time>2026-04-07T16:55:37Z</time></trkpt><trkpt lat="43.495181695809926" lon="13.552315161453082"><ele>19.0</ele><time>2026-04-07T16:55:38Z</time></trkpt><trkpt lat="43.495081839793876" lon="13.552419118971155"><ele>19.0</ele><time>2026-04-07T16:55:39Z</time></trkpt><trkpt lat="43.494991539060884" lon="13.552519757664628"><ele>19.0</ele><time>2026-04-07T16:55:40Z</time></trkpt><trkpt lat="43.49490049819451" lon="13.552632727749424"><ele>19.0</ele><time>2026-04-07T16:55:41Z</time></trkpt><trkpt lat="43.494801014821675" lon="13.552738769890231"><ele>19.0</ele><time>2026-04-07T16:55:42Z</time></trkpt><trkpt lat="43.49469026029819" lon="13.55285820165016"><ele>19.0</ele><time>2026-04-07T16:55:43Z</time></trkpt><trkpt lat="43.49459235386974" lon="13.552962561747805"><ele>18.75</ele><time>2026-04-07T16:55:44Z</time></trkpt><trkpt lat="43.494491415558414" lon="13.553073414862396"><ele>18.5</ele><time>2026-04-07T16:55:45Z</time></trkpt><trkpt lat="43.49439066689327" lon="13.553180359965042"><ele>18.25</ele><time>2026-04-07T16:55:46Z</time></trkpt><trkpt lat="43.49429033475193" lon="13.553294685287216"><ele>18.0</ele><time>2026-04-07T16:55:47Z</time></trkpt><trkpt lat="43.494184306105815" lon="13.553406736432997"><ele>18.0</ele><time>2026-04-07T16:55:48Z</time></trkpt><trkpt lat="43.49407737656793" lon="13.553522396256268"><ele>18.0</ele><time>2026-04-07T16:55:49Z</time></trkpt><trkpt lat="43.493977736229596" lon="13.55363536763022"><ele>18.0</ele><time>2026-04-07T16:55:50Z</time></trkpt><trkpt lat="43.49387556319635" lon="13.553753641904652"><ele>18.0</ele><time>2026-04-07T16:55:51Z</time></trkpt><trkpt lat="43.49377300422959" lon="13.55386795263528"><ele>18.0</ele><time>2026-04-07T16:55:52Z</time></trkpt><trkpt lat="43.493669305196455" lon="13.553983059677087"><ele>18.0</ele><time>2026-04-07T16:55:53Z</time></trkpt><trkpt lat="43.49355955738392" lon="13.554097855383096"><ele>18.0</ele><time>2026-04-07T16:55:54Z</time></trkpt><trkpt lat="43.493459417985974" lon="13.554212813480042"><ele>18.0</ele><time>2026-04-07T16:55:55Z</time></trkpt><trkpt lat="43.4933540825178" lon="13.554326453585631"><ele>18.0</ele><time>2026-04-07T16:55:56Z</time></trkpt><trkpt lat="43.49324935973466" lon="13.554446949498494"><ele>18.0</ele><time>2026-04-07T16:55:57Z</time></trkpt><trkpt lat="43.4931424935628" lon="13.554560633647935"><ele>18.0</ele><time>2026-04-07T16:55:58Z</time></trkpt><trkpt lat="43.493035272822716" lon="13.55469644446941"><ele>18.0</ele><time>2026-04-07T16:55:59Z</time></trkpt><trkpt lat="43.49292855431601" lon="13.55479210643641"><ele>18.25</ele><time>2026-04-07T16:56:00Z</time></trkpt><trkpt lat="43.4928267420834" lon="13.554912246982001"><ele>18.5</ele><time>2026-04-07T16:56:01Z</time></trkpt><trkpt lat="43.49272468285111" lon="13.55503341135138"><ele>18.75</ele><time>2026-04-07T16:56:02Z</time></trkpt><trkpt lat="43.49262939472139" lon="13.55517681259993"><ele>19.0</ele><time>2026-04-07T16:56:03Z</time></trkpt><trkpt lat="43.492534913233364" lon="13.555341265400697"><ele>18.666666666666664</ele><time>2026-04-07T16:56:04Z</time></trkpt><trkpt lat="43.49244382023115" lon="13.555540933781357"><ele>18.333333333333332</ele><time>2026-04-07T16:56:05Z</time></trkpt><trkpt lat="43.49233259107253" lon="13.555740076503099"><ele>18.0</ele><time>2026-04-07T16:56:06Z</time></trkpt><trkpt lat="43.49221903855947" lon="13.555976596372167"><ele>17.666666666666668</ele><time>2026-04-07T16:56:07Z</time></trkpt><trkpt lat="43.49210963547586" lon="13.55623541726443"><ele>17.333333333333336</ele><time>2026-04-07T16:56:08Z</time></trkpt><trkpt lat="43.49198769935683" lon="13.556466056470438"><ele>17.0</ele><time>2026-04-07T16:56:09Z</time></trkpt><trkpt lat="43.49186713074616" lon="13.556702496366123"><ele>17.0</ele><time>2026-04-07T16:56:10Z</time></trkpt><trkpt lat="43.49175756000785" lon="13.556931800413423"><ele>17.0</ele><time>2026-04-07T16:56:11Z</time></trkpt><trkpt lat="43.49166301352012" lon="13.557158196699497"><ele>17.0</ele><time>2026-04-07T16:56:12Z</time></trkpt><trkpt lat="43.49159237132355" lon="13.557396244690375"><ele>17.0</ele><time>2026-04-07T16:56:13Z</time></trkpt><trkpt lat="43.491547326411045" lon="13.55766054617198"><ele>17.0</ele><time>2026-04-07T16:56:14Z</time></trkpt><trkpt lat="43.49152963265718" lon="13.557947203504439"><ele>17.0</ele><time>2026-04-07T16:56:15Z</time></trkpt><trkpt lat="43.49152646777394" lon="13.558211854262286"><ele>17.0</ele><time>2026-04-07T16:56:16Z</time></trkpt><trkpt lat="43.49152695843124" lon="13.558451459947916"><ele>17.0</ele><time>2026-04-07T16:56:17Z</time></trkpt><trkpt lat="43.49152257066868" lon="13.55869056870927"><ele>17.0</ele><time>2026-04-07T16:56:18Z</time></trkpt><trkpt lat="43.491517616969894" lon="13.558938196552283"><ele>17.0</ele><time>2026-04-07T16:56:19Z</time></trkpt><trkpt lat="43.49151245924121" lon="13.559188182250073"><ele>17.0</ele><time>2026-04-07T16:56:20Z</time></trkpt><trkpt lat="43.49150601466039" lon="13.559435614495431"><ele>17.0</ele><time>2026-04-07T16:56:21Z</time></trkpt><trkpt lat="43.49149970004397" lon="13.55968197188441"><ele>17.333333333333336</ele><time>2026-04-07T16:56:22Z</time></trkpt><trkpt lat="43.491488683654104" lon="13.559914250997746"><ele>17.666666666666668</ele><time>2026-04-07T16:56:23Z</time></trkpt><trkpt lat="43.491481906008005" lon="13.560148113084939"><ele>18.0</ele><time>2026-04-07T16:56:24Z</time></trkpt><trkpt lat="43.49147301479366" lon="13.56037365014213"><ele>18.0</ele><time>2026-04-07T16:56:25Z</time></trkpt><trkpt lat="43.491470420491545" lon="13.560603988793924"><ele>18.0</ele><time>2026-04-07T16:56:26Z</time></trkpt><trkpt lat="43.49145966555896" lon="13.560809694844675"><ele>18.0</ele><time>2026-04-07T16:56:27Z</time></trkpt><trkpt lat="43.49144359435931" lon="13.561024543240341"><ele>17.666666666666668</ele><time>2026-04-07T16:56:28Z</time></trkpt><trkpt lat="43.49142063537368" lon="13.561239626323125"><ele>17.333333333333336</ele><time>2026-04-07T16:56:29Z</time></trkpt><trkpt lat="43.49138626049531" lon="13.56145531593533"><ele>17.0</ele><time>2026-04-07T16:56:30Z</time></trkpt><trkpt lat="43.49134129404749" lon="13.561673831718055"><ele>17.0</ele><time>2026-04-07T16:56:31Z</time></trkpt><trkpt lat="43.491287513966036" lon="13.561892571778698"><ele>17.0</ele><time>2026-04-07T16:56:32Z</time></trkpt><trkpt lat="43.49123831487254" lon="13.56210821831603"><ele>17.0</ele><time>2026-04-07T16:56:33Z</time></trkpt><trkpt lat="43.49118471687559" lon="13.562330649653461"><ele>18.0</ele><time>2026-04-07T16:56:34Z</time></trkpt><trkpt lat="43.49113812205742" lon="13.562540397774912"><ele>19.0</ele><time>2026-04-07T16:56:35Z</time></trkpt><trkpt lat="43.49109222000206" lon="13.56274522842285"><ele>20.0</ele><time>2026-04-07T16:56:36Z</time></trkpt><trkpt lat="43.49104443100777" lon="13.56294883702614"><ele>20.0</ele><time>2026-04-07T16:56:37Z</time></trkpt><trkpt lat="43.49099680478236" lon="13.563149851378446"><ele>20.0</ele><time>2026-04-07T16:56:38Z</time></trkpt><trkpt lat="43.490954055227725" lon="13.56335874365992"><ele>20.0</ele><time>2026-04-07T16:56:39Z</time></trkpt><trkpt lat="43.49091898535323" lon="13.563569460092927"><ele>19.666666666666668</ele><time>2026-04-07T16:56:40Z</time></trkpt><trkpt lat="43.49088833965275" lon="13.563786008540616"><ele>19.333333333333332</ele><time>2026-04-07T16:56:41Z</time></trkpt><trkpt lat="43.49086549607852" lon="13.56400576165463"><ele>19.0</ele><time>2026-04-07T16:56:42Z</time></trkpt><trkpt lat="43.490847599857766" lon="13.564223935891373"><ele>19.0</ele><time>2026-04-07T16:56:43Z</time></trkpt><trkpt lat="43.490830255505585" lon="13.564450544757724"><ele>19.0</ele><time>2026-04-07T16:56:44Z</time></trkpt><trkpt lat="43.49081008905647" lon="13.564682022514694"><ele>19.0</ele><time>2026-04-07T16:56:45Z</time></trkpt><trkpt lat="43.49077224496811" lon="13.564943262794863"><ele>19.0</ele><time>2026-04-07T16:56:46Z</time></trkpt><trkpt lat="43.49074293988104" lon="13.565231970862156"><ele>19.0</ele><time>2026-04-07T16:56:47Z</time></trkpt><trkpt lat="43.49072523199624" lon="13.56554737248202"><ele>19.0</ele><time>2026-04-07T16:56:48Z</time></trkpt><trkpt lat="43.49067517005619" lon="13.56587077635618"><ele>18.666666666666664</ele><time>2026-04-07T16:56:49Z</time></trkpt><trkpt lat="43.49063407259559" lon="13.566172487246215"><ele>18.333333333333332</ele><time>2026-04-07T16:56:50Z</time></trkpt><trkpt lat="43.49059567138557" lon="13.566479454286554"><ele>18.0</ele><time>2026-04-07T16:56:51Z</time></trkpt><trkpt lat="43.49055308034894" lon="13.566786774705573"><ele>18.333333333333332</ele><time>2026-04-07T16:56:52Z</time></trkpt><trkpt lat="43.49051308148088" lon="13.567063844550773"><ele>18.666666666666664</ele><time>2026-04-07T16:56:53Z</time></trkpt><trkpt lat="43.49047180646593" lon="13.567329196473558"><ele>19.0</ele><time>2026-04-07T16:56:54Z</time></trkpt><trkpt lat="43.49043343343975" lon="13.567582125934134"><ele>21.333333333333332</ele><time>2026-04-07T16:56:55Z</time></trkpt><trkpt lat="43.49040111427355" lon="13.567825271148292"><ele>23.666666666666664</ele><time>2026-04-07T16:56:56Z</time></trkpt><trkpt lat="43.49038240337302" lon="13.568057552584463"><ele>26.0</ele><time>2026-04-07T16:56:57Z</time></trkpt><trkpt lat="43.49037692022799" lon="13.568266372671252"><ele>26.0</ele><time>2026-04-07T16:56:58Z</time></trkpt><trkpt lat="43.490375195908044" lon="13.568452619890031"><ele>26.0</ele><time>2026-04-07T16:56:59Z</time></trkpt><trkpt lat="43.490366253978564" lon="13.56861523315637"><ele>26.0</ele><time>2026-04-07T16:57:00Z</time></trkpt><trkpt lat="43.49034295519345" lon="13.56877124156564"><ele>26.0</ele><time>2026-04-07T16:57:01Z</time></trkpt><trkpt lat="43.49031923749553" lon="13.568919687183454"><ele>26.75</ele><time>2026-04-07T16:57:02Z</time></trkpt><trkpt lat="43.49032957751788" lon="13.569075534777586"><ele>27.5</ele><time>2026-04-07T16:57:03Z</time></trkpt><trkpt lat="43.4903759430677" lon="13.569239595343253"><ele>28.25</ele><time>2026-04-07T16:57:04Z</time></trkpt><trkpt lat="43.49044310157887" lon="13.569402247668583"><ele>29.0</ele><time>2026-04-07T16:57:05Z</time></trkpt><trkpt lat="43.4905163525709" lon="13.56956859976962"><ele>28.666666666666664</ele><time>2026-04-07T16:57:06Z</time></trkpt><trkpt lat="43.49047652104229" lon="13.569807897213664"><ele>28.333333333333336</ele><time>2026-04-07T16:57:07Z</time></trkpt><trkpt lat="43.490430278067585" lon="13.570028669244593"><ele>28.0</ele><time>2026-04-07T16:57:08Z</time></trkpt><trkpt lat="43.490357520455774" lon="13.570249629602909"><ele>27.0</ele><time>2026-04-07T16:57:09Z</time></trkpt><trkpt lat="43.49026778284347" lon="13.570467803141607"><ele>26.0</ele><time>2026-04-07T16:57:10Z</time></trkpt><trkpt lat="43.49016734938724" lon="13.5706945848937"><ele>25.0</ele><time>2026-04-07T16:57:11Z</time></trkpt><trkpt lat="43.49006980868836" lon="13.5709259953973"><ele>25.0</ele><time>2026-04-07T16:57:12Z</time></trkpt><trkpt lat="43.48997158748222" lon="13.57115877148473"><ele>25.0</ele><time>2026-04-07T16:57:13Z</time></trkpt><trkpt lat="43.48986941226487" lon="13.571392844513861"><ele>25.0</ele><time>2026-04-07T16:57:14Z</time></trkpt><trkpt lat="43.48976263761722" lon="13.571632901390638"><ele>25.333333333333336</ele><time>2026-04-07T16:57:15Z</time></trkpt><trkpt lat="43.48964434570307" lon="13.571874674535927"><ele>25.666666666666664</ele><time>2026-04-07T16:57:16Z</time></trkpt><trkpt lat="43.48951452236723" lon="13.572099427256143"><ele>26.0</ele><time>2026-04-07T16:57:17Z</time></trkpt><trkpt lat="43.48937583576801" lon="13.572314885145168"><ele>26.0</ele><time>2026-04-07T16:57:18Z</time></trkpt><trkpt lat="43.489230872383324" lon="13.572530540079965"><ele>26.0</ele><time>2026-04-07T16:57:19Z</time></trkpt><trkpt lat="43.48909094417802" lon="13.572742213722293"><ele>26.0</ele><time>2026-04-07T16:57:20Z</time></trkpt><trkpt lat="43.488950973076385" lon="13.572961997102947"><ele>26.333333333333332</ele><time>2026-04-07T16:57:21Z</time></trkpt><trkpt lat="43.488808895709624" lon="13.57318074709964"><ele>26.666666666666664</ele><time>2026-04-07T16:57:22Z</time></trkpt><trkpt lat="43.488667842664974" lon="13.573402836968711"><ele>27.0</ele><time>2026-04-07T16:57:23Z</time></trkpt><trkpt lat="43.488525666616894" lon="13.57361727496605"><ele>24.666666666666668</ele><time>2026-04-07T16:57:24Z</time></trkpt><trkpt lat="43.488407417413526" lon="13.57382011668396"><ele>22.333333333333336</ele><time>2026-04-07T16:57:25Z</time></trkpt><trkpt lat="43.488281850625356" lon="13.573997570036106"><ele>20.0</ele><time>2026-04-07T16:57:26Z</time></trkpt><trkpt lat="43.48815766021313" lon="13.574147313099676"><ele>20.0</ele><time>2026-04-07T16:57:27Z</time></trkpt><trkpt lat="43.48802896626296" lon="13.574260279226442"><ele>20.0</ele><time>2026-04-07T16:57:28Z</time></trkpt><trkpt lat="43.48788503248527" lon="13.574350152360587"><ele>20.0</ele><time>2026-04-07T16:57:29Z</time></trkpt><trkpt lat="43.487740110566186" lon="13.57440729186954"><ele>20.666666666666668</ele><time>2026-04-07T16:57:30Z</time></trkpt><trkpt lat="43.48758695999058" lon="13.574427780641841"><ele>21.333333333333332</ele><time>2026-04-07T16:57:31Z</time></trkpt><trkpt lat="43.48742889156315" lon="13.574420823045731"><ele>22.0</ele><time>2026-04-07T16:57:32Z</time></trkpt><trkpt lat="43.487278593129055" lon="13.574356878482597"><ele>22.0</ele><time>2026-04-07T16:57:33Z</time></trkpt><trkpt lat="43.48711839576977" lon="13.57429866682701"><ele>22.0</ele><time>2026-04-07T16:57:34Z</time></trkpt><trkpt lat="43.48696478128647" lon="13.574259488726199"><ele>22.0</ele><time>2026-04-07T16:57:35Z</time></trkpt><trkpt lat="43.486819719310084" lon="13.574199584507756"><ele>22.0</ele><time>2026-04-07T16:57:36Z</time></trkpt><trkpt lat="43.48667492842809" lon="13.574164951056845"><ele>22.0</ele><time>2026-04-07T16:57:37Z</time></trkpt><trkpt lat="43.486526774714996" lon="13.574164735346187"><ele>22.0</ele><time>2026-04-07T16:57:38Z</time></trkpt><trkpt lat="43.48637438518953" lon="13.574184742675449"><ele>22.0</ele><time>2026-04-07T16:57:39Z</time></trkpt><trkpt lat="43.486221153194805" lon="13.574226747265632"><ele>22.0</ele><time>2026-04-07T16:57:40Z</time></trkpt><trkpt lat="43.486072010725024" lon="13.574275041733852"><ele>22.0</ele><time>2026-04-07T16:57:41Z</time></trkpt><trkpt lat="43.48591478372218" lon="13.5743162651077"><ele>22.0</ele><time>2026-04-07T16:57:42Z</time></trkpt><trkpt lat="43.48575642709178" lon="13.574350512648218"><ele>22.0</ele><time>2026-04-07T16:57:43Z</time></trkpt><trkpt lat="43.48558963623068" lon="13.574390655958236"><ele>22.0</ele><time>2026-04-07T16:57:44Z</time></trkpt><trkpt lat="43.4854156997706" lon="13.574440373429077"><ele>22.0</ele><time>2026-04-07T16:57:45Z</time></trkpt><trkpt lat="43.485242482500624" lon="13.57451879534894"><ele>22.0</ele><time>2026-04-07T16:57:46Z</time></trkpt><trkpt lat="43.48507584348648" lon="13.57463445114401"><ele>22.0</ele><time>2026-04-07T16:57:47Z</time></trkpt><trkpt lat="43.484923566736974" lon="13.57479305518503"><ele>22.0</ele><time>2026-04-07T16:57:48Z</time></trkpt><trkpt lat="43.48478939466427" lon="13.574987943249154"><ele>22.0</ele><time>2026-04-07T16:57:49Z</time></trkpt><trkpt lat="43.48467355399552" lon="13.575194634132208"><ele>22.0</ele><time>2026-04-07T16:57:50Z</time></trkpt><trkpt lat="43.48458802532232" lon="13.575425030913987"><ele>22.0</ele><time>2026-04-07T16:57:51Z</time></trkpt><trkpt lat="43.484520996749964" lon="13.575670307040047"><ele>22.666666666666664</ele><time>2026-04-07T16:57:52Z</time></trkpt><trkpt lat="43.48447029032974" lon="13.575905648419948"><ele>23.333333333333332</ele><time>2026-04-07T16:57:53Z</time></trkpt><trkpt lat="43.484419380709944" lon="13.576136511043464"><ele>24.0</ele><time>2026-04-07T16:57:54Z</time></trkpt><trkpt lat="43.48436167891355" lon="13.576364725014841"><ele>24.0</ele><time>2026-04-07T16:57:55Z</time></trkpt><trkpt lat="43.48430414363237" lon="13.576598767713735"><ele>24.0</ele><time>2026-04-07T16:57:56Z</time></trkpt><trkpt lat="43.484245968800195" lon="13.57683401402409"><ele>24.0</ele><time>2026-04-07T16:57:57Z</time></trkpt><trkpt lat="43.484188108885014" lon="13.577065001683343"><ele>23.666666666666668</ele><time>2026-04-07T16:57:58Z</time></trkpt><trkpt lat="43.48412783116344" lon="13.577294710653199"><ele>23.333333333333336</ele><time>2026-04-07T16:57:59Z</time></trkpt><trkpt lat="43.48407593520643" lon="13.577505629014578"><ele>23.0</ele><time>2026-04-07T16:58:00Z</time></trkpt><trkpt lat="43.484028179410124" lon="13.5777047652191"><ele>23.0</ele><time>2026-04-07T16:58:01Z</time></trkpt><trkpt lat="43.483969617815305" lon="13.57789766297725"><ele>23.0</ele><time>2026-04-07T16:58:02Z</time></trkpt><trkpt lat="43.4838886258912" lon="13.578080855661431"><ele>23.0</ele><time>2026-04-07T16:58:03Z</time></trkpt><trkpt lat="43.48378679627664" lon="13.578234671830426"><ele>23.25</ele><time>2026-04-07T16:58:04Z</time></trkpt><trkpt lat="43.48367229768525" lon="13.578346638727815"><ele>23.5</ele><time>2026-04-07T16:58:05Z</time></trkpt><trkpt lat="43.48353803135834" lon="13.578437797963337"><ele>23.75</ele><time>2026-04-07T16:58:06Z</time></trkpt><trkpt lat="43.48339645767989" lon="13.578497544415523"><ele>24.0</ele><time>2026-04-07T16:58:07Z</time></trkpt><trkpt lat="43.483249474534496" lon="13.578526031739365"><ele>24.0</ele><time>2026-04-07T16:58:08Z</time></trkpt><trkpt lat="43.48308726465972" lon="13.5784863410325"><ele>24.0</ele><time>2026-04-07T16:58:09Z</time></trkpt><trkpt lat="43.48292931780622" lon="13.578453014055576"><ele>24.0</ele><time>2026-04-07T16:58:10Z</time></trkpt><trkpt lat="43.48276359703498" lon="13.578425783828923"><ele>23.333333333333332</ele><time>2026-04-07T16:58:11Z</time></trkpt><trkpt lat="43.48259968679643" lon="13.578375233766106"><ele>22.666666666666664</ele><time>2026-04-07T16:58:12Z</time></trkpt><trkpt lat="43.48243607416877" lon="13.578332839835605"><ele>22.0</ele><time>2026-04-07T16:58:13Z</time></trkpt><trkpt lat="43.48226658920255" lon="13.578287364836473"><ele>22.0</ele><time>2026-04-07T16:58:14Z</time></trkpt><trkpt lat="43.48211001904469" lon="13.578251109466393"><ele>22.0</ele><time>2026-04-07T16:58:15Z</time></trkpt><trkpt lat="43.48196065533519" lon="13.578241459691581"><ele>22.0</ele><time>2026-04-07T16:58:16Z</time></trkpt><trkpt lat="43.48179965922009" lon="13.578266937113606"><ele>22.666666666666664</ele><time>2026-04-07T16:58:17Z</time></trkpt><trkpt lat="43.48164504965397" lon="13.578330706736637"><ele>23.333333333333332</ele><time>2026-04-07T16:58:18Z</time></trkpt><trkpt lat="43.48149042771128" lon="13.57841186223968"><ele>24.0</ele><time>2026-04-07T16:58:19Z</time></trkpt><trkpt lat="43.481334183449086" lon="13.578498902315367"><ele>23.333333333333332</ele><time>2026-04-07T16:58:20Z</time></trkpt><trkpt lat="43.48116697046335" lon="13.578585293029093"><ele>22.666666666666664</ele><time>2026-04-07T16:58:21Z</time></trkpt><trkpt lat="43.480996770229986" lon="13.578668981250154"><ele>22.0</ele><time>2026-04-07T16:58:22Z</time></trkpt><trkpt lat="43.48082706626252" lon="13.578748018772826"><ele>22.0</ele><time>2026-04-07T16:58:23Z</time></trkpt><trkpt lat="43.48065446496557" lon="13.578831981828047"><ele>22.0</ele><time>2026-04-07T16:58:24Z</time></trkpt><trkpt lat="43.48048073388133" lon="13.57891523187922"><ele>22.0</ele><time>2026-04-07T16:58:25Z</time></trkpt><trkpt lat="43.48031007660302" lon="13.578999937227168"><ele>23.666666666666664</ele><time>2026-04-07T16:58:26Z</time></trkpt><trkpt lat="43.48013850079752" lon="13.579088498438248"><ele>25.333333333333332</ele><time>2026-04-07T16:58:27Z</time></trkpt><trkpt lat="43.47996447011511" lon="13.579180962866129"><ele>27.0</ele><time>2026-04-07T16:58:28Z</time></trkpt><trkpt lat="43.47979290598702" lon="13.579271726011138"><ele>27.0</ele><time>2026-04-07T16:58:29Z</time></trkpt><trkpt lat="43.479620575820135" lon="13.579358719794007"><ele>27.0</ele><time>2026-04-07T16:58:30Z</time></trkpt><trkpt lat="43.47944578058201" lon="13.579443153619376"><ele>27.0</ele><time>2026-04-07T16:58:31Z</time></trkpt><trkpt lat="43.479271620491815" lon="13.579526576684275"><ele>27.666666666666664</ele><time>2026-04-07T16:58:32Z</time></trkpt><trkpt lat="43.479093193981036" lon="13.579613026571892"><ele>28.333333333333332</ele><time>2026-04-07T16:58:33Z</time></trkpt><trkpt lat="43.478912370955655" lon="13.579700386333839"><ele>29.0</ele><time>2026-04-07T16:58:34Z</time></trkpt><trkpt lat="43.47873929642389" lon="13.57979006949071"><ele>29.0</ele><time>2026-04-07T16:58:35Z</time></trkpt><trkpt lat="43.47855686654568" lon="13.579877958318201"><ele>29.0</ele><time>2026-04-07T16:58:36Z</time></trkpt><trkpt lat="43.478379065740526" lon="13.579969387302512"><ele>29.0</ele><time>2026-04-07T16:58:37Z</time></trkpt><trkpt lat="43.478197353005726" lon="13.580058812359828"><ele>29.0</ele><time>2026-04-07T16:58:38Z</time></trkpt><trkpt lat="43.478017617841026" lon="13.580148048691484"><ele>29.0</ele><time>2026-04-07T16:58:39Z</time></trkpt><trkpt lat="43.477838168575374" lon="13.580239315281961"><ele>29.0</ele><time>2026-04-07T16:58:40Z</time></trkpt><trkpt lat="43.477661287149324" lon="13.580331991660863"><ele>28.333333333333332</ele><time>2026-04-07T16:58:41Z</time></trkpt><trkpt lat="43.47749138002737" lon="13.580420356259149"><ele>27.666666666666664</ele><time>2026-04-07T16:58:42Z</time></trkpt><trkpt lat="43.47733942978413" lon="13.580517260937286"><ele>27.0</ele><time>2026-04-07T16:58:43Z</time></trkpt><trkpt lat="43.47718242411582" lon="13.58063527383658"><ele>26.0</ele><time>2026-04-07T16:58:44Z</time></trkpt><trkpt lat="43.477034377076016" lon="13.580786744659717"><ele>25.0</ele><time>2026-04-07T16:58:45Z</time></trkpt><trkpt lat="43.47689092225446" lon="13.580957257462412"><ele>24.0</ele><time>2026-04-07T16:58:46Z</time></trkpt><trkpt lat="43.47675642182224" lon="13.581146538084484"><ele>24.666666666666664</ele><time>2026-04-07T16:58:47Z</time></trkpt><trkpt lat="43.476618790502464" lon="13.581340130743536"><ele>25.333333333333332</ele><time>2026-04-07T16:58:48Z</time></trkpt><trkpt lat="43.476481812105796" lon="13.581536822927127"><ele>26.0</ele><time>2026-04-07T16:58:49Z</time></trkpt><trkpt lat="43.47633843293076" lon="13.581720377088889"><ele>25.666666666666664</ele><time>2026-04-07T16:58:50Z</time></trkpt><trkpt lat="43.476198031569695" lon="13.581909283843146"><ele>25.333333333333336</ele><time>2026-04-07T16:58:51Z</time></trkpt><trkpt lat="43.47606097763585" lon="13.582089922583213"><ele>25.0</ele><time>2026-04-07T16:58:52Z</time></trkpt><trkpt lat="43.475920604360304" lon="13.582258078366635"><ele>24.666666666666668</ele><time>2026-04-07T16:58:53Z</time></trkpt><trkpt lat="43.47577436194385" lon="13.582408020459429"><ele>24.333333333333336</ele><time>2026-04-07T16:58:54Z</time></trkpt><trkpt lat="43.47562398951692" lon="13.58252569454071"><ele>24.0</ele><time>2026-04-07T16:58:55Z</time></trkpt><trkpt lat="43.47546352965425" lon="13.582625299927022"><ele>24.333333333333336</ele><time>2026-04-07T16:58:56Z</time></trkpt><trkpt lat="43.47529758208627" lon="13.582718110354412"><ele>24.666666666666668</ele><time>2026-04-07T16:58:57Z</time></trkpt><trkpt lat="43.475130324921615" lon="13.582808479015116"><ele>25.0</ele><time>2026-04-07T16:58:58Z</time></trkpt><trkpt lat="43.47496617647466" lon="13.582898634291073"><ele>25.0</ele><time>2026-04-07T16:58:59Z</time></trkpt><trkpt lat="43.47479706494623" lon="13.582995291030253"><ele>25.0</ele><time>2026-04-07T16:59:00Z</time></trkpt><trkpt lat="43.474623193540914" lon="13.583094042063138"><ele>25.0</ele><time>2026-04-07T16:59:01Z</time></trkpt><trkpt lat="43.47444809770982" lon="13.58319286406589"><ele>24.333333333333336</ele><time>2026-04-07T16:59:02Z</time></trkpt><trkpt lat="43.4742696589075" lon="13.58329412381081"><ele>23.666666666666668</ele><time>2026-04-07T16:59:03Z</time></trkpt><trkpt lat="43.47408890297392" lon="13.583394619264146"><ele>23.0</ele><time>2026-04-07T16:59:04Z</time></trkpt><trkpt lat="43.47390559709712" lon="13.583492819656449"><ele>23.0</ele><time>2026-04-07T16:59:05Z</time></trkpt><trkpt lat="43.47372401735858" lon="13.583607129580304"><ele>23.0</ele><time>2026-04-07T16:59:06Z</time></trkpt><trkpt lat="43.473556582682455" lon="13.583735385138807"><ele>23.0</ele><time>2026-04-07T16:59:07Z</time></trkpt><trkpt lat="43.47340255337302" lon="13.58388985822879"><ele>23.666666666666668</ele><time>2026-04-07T16:59:08Z</time></trkpt><trkpt lat="43.47325946263468" lon="13.584050796023572"><ele>24.333333333333336</ele><time>2026-04-07T16:59:09Z</time></trkpt><trkpt lat="43.473117676945456" lon="13.584216312355151"><ele>25.0</ele><time>2026-04-07T16:59:10Z</time></trkpt><trkpt lat="43.47297435670267" lon="13.584382529606874"><ele>24.0</ele><time>2026-04-07T16:59:11Z</time></trkpt><trkpt lat="43.47282467392404" lon="13.584533484193276"><ele>23.0</ele><time>2026-04-07T16:59:12Z</time></trkpt><trkpt lat="43.47267955594137" lon="13.584684833791837"><ele>22.0</ele><time>2026-04-07T16:59:13Z</time></trkpt><trkpt lat="43.472535361972966" lon="13.584837441067998"><ele>22.0</ele><time>2026-04-07T16:59:14Z</time></trkpt><trkpt lat="43.472394984529295" lon="13.584988833115478"><ele>22.0</ele><time>2026-04-07T16:59:15Z</time></trkpt><trkpt lat="43.472251576269784" lon="13.585142669676221"><ele>22.0</ele><time>2026-04-07T16:59:16Z</time></trkpt><trkpt lat="43.4721002262332" lon="13.585304898885633"><ele>22.0</ele><time>2026-04-07T16:59:17Z</time></trkpt><trkpt lat="43.47194750000408" lon="13.585475521631855"><ele>22.0</ele><time>2026-04-07T16:59:18Z</time></trkpt><trkpt lat="43.47178972029636" lon="13.585647324133776"><ele>22.0</ele><time>2026-04-07T16:59:19Z</time></trkpt><trkpt lat="43.47163014771195" lon="13.585820802548175"><ele>22.0</ele><time>2026-04-07T16:59:20Z</time></trkpt><trkpt lat="43.471468903564514" lon="13.585992949036179"><ele>22.0</ele><time>2026-04-07T16:59:21Z</time></trkpt><trkpt lat="43.47131385358004" lon="13.586157864130326"><ele>22.0</ele><time>2026-04-07T16:59:22Z</time></trkpt><trkpt lat="43.47116774498405" lon="13.586312888184693"><ele>21.0</ele><time>2026-04-07T16:59:23Z</time></trkpt><trkpt lat="43.471024863250555" lon="13.586467099892769"><ele>20.0</ele><time>2026-04-07T16:59:24Z</time></trkpt><trkpt lat="43.47088718475049" lon="13.586612532551793"><ele>19.0</ele><time>2026-04-07T16:59:25Z</time></trkpt><trkpt lat="43.470760729414536" lon="13.586761591301478"><ele>19.0</ele><time>2026-04-07T16:59:26Z</time></trkpt><trkpt lat="43.47064923503702" lon="13.586947193780693"><ele>19.0</ele><time>2026-04-07T16:59:27Z</time></trkpt><trkpt lat="43.470563934225595" lon="13.587171828885442"><ele>19.0</ele><time>2026-04-07T16:59:28Z</time></trkpt><trkpt lat="43.47051131428782" lon="13.587418203297617"><ele>19.666666666666664</ele><time>2026-04-07T16:59:29Z</time></trkpt><trkpt lat="43.4704833265468" lon="13.587668549044276"><ele>20.333333333333332</ele><time>2026-04-07T16:59:30Z</time></trkpt><trkpt lat="43.4704617075538" lon="13.587915669514338"><ele>21.0</ele><time>2026-04-07T16:59:31Z</time></trkpt><trkpt lat="43.4704323761876" lon="13.588159471031078"><ele>19.0</ele><time>2026-04-07T16:59:32Z</time></trkpt><trkpt lat="43.47039766699442" lon="13.588414410396327"><ele>17.0</ele><time>2026-04-07T16:59:33Z</time></trkpt><trkpt lat="43.47035976517043" lon="13.588681985680742"><ele>15.0</ele><time>2026-04-07T16:59:34Z</time></trkpt><trkpt lat="43.47032568651529" lon="13.58893117957604"><ele>14.333333333333332</ele><time>2026-04-07T16:59:35Z</time></trkpt><trkpt lat="43.47029435655037" lon="13.589189112996912"><ele>13.666666666666666</ele><time>2026-04-07T16:59:36Z</time></trkpt><trkpt lat="43.47026371284659" lon="13.589429403787745"><ele>13.0</ele><time>2026-04-07T16:59:37Z</time></trkpt><trkpt lat="43.47023421401622" lon="13.589664807649331"><ele>12.666666666666666</ele><time>2026-04-07T16:59:38Z</time></trkpt><trkpt lat="43.470209899453685" lon="13.589869008093618"><ele>12.333333333333332</ele><time>2026-04-07T16:59:39Z</time></trkpt><trkpt lat="43.47018589178149" lon="13.590087571958419"><ele>12.0</ele><time>2026-04-07T16:59:40Z</time></trkpt><trkpt lat="43.470153688514934" lon="13.59030863324948"><ele>11.666666666666666</ele><time>2026-04-07T16:59:41Z</time></trkpt><trkpt lat="43.470126070856054" lon="13.590540476844822"><ele>11.333333333333332</ele><time>2026-04-07T16:59:42Z</time></trkpt><trkpt lat="43.47009685966959" lon="13.590776606011996"><ele>11.0</ele><time>2026-04-07T16:59:43Z</time></trkpt><trkpt lat="43.47006668762716" lon="13.591011080282298"><ele>11.0</ele><time>2026-04-07T16:59:44Z</time></trkpt><trkpt lat="43.470037434928045" lon="13.591249396536623"><ele>11.0</ele><time>2026-04-07T16:59:45Z</time></trkpt><trkpt lat="43.47000947478086" lon="13.591498100853158"><ele>11.0</ele><time>2026-04-07T16:59:46Z</time></trkpt><trkpt lat="43.469982081936166" lon="13.591747335917697"><ele>11.0</ele><time>2026-04-07T16:59:47Z</time></trkpt><trkpt lat="43.469959580853995" lon="13.591995694555788"><ele>11.0</ele><time>2026-04-07T16:59:48Z</time></trkpt><trkpt lat="43.46994422617828" lon="13.592249039823425"><ele>11.0</ele><time>2026-04-07T16:59:49Z</time></trkpt><trkpt lat="43.46993502182043" lon="13.59249837240182"><ele>11.0</ele><time>2026-04-07T16:59:50Z</time></trkpt><trkpt lat="43.46993707215572" lon="13.592737432771955"><ele>11.0</ele><time>2026-04-07T16:59:51Z</time></trkpt><trkpt lat="43.469938274503455" lon="13.592967458255364"><ele>11.0</ele><time>2026-04-07T16:59:52Z</time></trkpt><trkpt lat="43.469946117963204" lon="13.59320582107617"><ele>11.0</ele><time>2026-04-07T16:59:53Z</time></trkpt><trkpt lat="43.46995806460085" lon="13.593427999998639"><ele>11.0</ele><time>2026-04-07T16:59:54Z</time></trkpt><trkpt lat="43.469975427821524" lon="13.593642703997633"><ele>11.0</ele><time>2026-04-07T16:59:55Z</time></trkpt><trkpt lat="43.469992724588785" lon="13.593860532182557"><ele>11.0</ele><time>2026-04-07T16:59:56Z</time></trkpt><trkpt lat="43.470009185190115" lon="13.59408505979237"><ele>11.0</ele><time>2026-04-07T16:59:57Z</time></trkpt><trkpt lat="43.47002408920264" lon="13.594314653614763"><ele>11.0</ele><time>2026-04-07T16:59:58Z</time></trkpt><trkpt lat="43.4700401967877" lon="13.594549283123294"><ele>10.666666666666666</ele><time>2026-04-07T16:59:59Z</time></trkpt><trkpt lat="43.47005608920665" lon="13.594785316573056"><ele>10.333333333333334</ele><time>2026-04-07T17:00:00Z</time></trkpt><trkpt lat="43.47007284722792" lon="13.595017538696293"><ele>10.0</ele><time>2026-04-07T17:00:01Z</time></trkpt><trkpt lat="43.470088279979485" lon="13.595249540006096"><ele>10.333333333333334</ele><time>2026-04-07T17:00:02Z</time></trkpt><trkpt lat="43.47010274984464" lon="13.595470553589161"><ele>10.666666666666666</ele><time>2026-04-07T17:00:03Z</time></trkpt><trkpt lat="43.47011838992031" lon="13.595689929970911"><ele>11.0</ele><time>2026-04-07T17:00:04Z</time></trkpt><trkpt lat="43.470132401390316" lon="13.59591046618929"><ele>11.0</ele><time>2026-04-07T17:00:05Z</time></trkpt><trkpt lat="43.470148717805515" lon="13.596137106331284"><ele>11.0</ele><time>2026-04-07T17:00:06Z</time></trkpt><trkpt lat="43.47016591364639" lon="13.596374393992877"><ele>11.0</ele><time>2026-04-07T17:00:07Z</time></trkpt><trkpt lat="43.47018526508235" lon="13.59660866879771"><ele>10.666666666666666</ele><time>2026-04-07T17:00:08Z</time></trkpt><trkpt lat="43.4702080194845" lon="13.59684403453061"><ele>10.333333333333334</ele><time>2026-04-07T17:00:09Z</time></trkpt><trkpt lat="43.47022123858704" lon="13.597097400894723"><ele>10.0</ele><time>2026-04-07T17:00:10Z</time></trkpt><trkpt lat="43.470240566669496" lon="13.59733656712448"><ele>10.666666666666668</ele><time>2026-04-07T17:00:11Z</time></trkpt><trkpt lat="43.470257230235134" lon="13.597577370050669"><ele>11.333333333333334</ele><time>2026-04-07T17:00:12Z</time></trkpt><trkpt lat="43.47026933043708" lon="13.597807530275803"><ele>12.0</ele><time>2026-04-07T17:00:13Z</time></trkpt><trkpt lat="43.470270846205196" lon="13.598027713262043"><ele>12.333333333333332</ele><time>2026-04-07T17:00:14Z</time></trkpt><trkpt lat="43.47025342176707" lon="13.598249441281004"><ele>12.666666666666666</ele><time>2026-04-07T17:00:15Z</time></trkpt><trkpt lat="43.47021478705232" lon="13.598458623374295"><ele>13.0</ele><time>2026-04-07T17:00:16Z</time></trkpt><trkpt lat="43.47015183648233" lon="13.598663491421531"><ele>11.666666666666666</ele><time>2026-04-07T17:00:17Z</time></trkpt><trkpt lat="43.47006881851484" lon="13.598849514761461"><ele>10.333333333333332</ele><time>2026-04-07T17:00:18Z</time></trkpt><trkpt lat="43.469969494791435" lon="13.599023349684181"><ele>9.0</ele><time>2026-04-07T17:00:19Z</time></trkpt><trkpt lat="43.46986277197819" lon="13.599169449396344"><ele>9.0</ele><time>2026-04-07T17:00:20Z</time></trkpt><trkpt lat="43.4697483058295" lon="13.599300262494538"><ele>9.0</ele><time>2026-04-07T17:00:21Z</time></trkpt><trkpt lat="43.46962418744951" lon="13.599407095701713"><ele>9.0</ele><time>2026-04-07T17:00:22Z</time></trkpt><trkpt lat="43.46949603456744" lon="13.59950382034025"><ele>9.0</ele><time>2026-04-07T17:00:23Z</time></trkpt><trkpt lat="43.46936769770248" lon="13.599605481039807"><ele>9.0</ele><time>2026-04-07T17:00:24Z</time></trkpt><trkpt lat="43.46924536556083" lon="13.59970388613819"><ele>9.0</ele><time>2026-04-07T17:00:25Z</time></trkpt><trkpt lat="43.469120717298395" lon="13.599804653903021"><ele>9.0</ele><time>2026-04-07T17:00:26Z</time></trkpt><trkpt lat="43.46899832999041" lon="13.599904661657787"><ele>9.0</ele><time>2026-04-07T17:00:27Z</time></trkpt><trkpt lat="43.468869475813804" lon="13.600010598452613"><ele>9.0</ele><time>2026-04-07T17:00:28Z</time></trkpt><trkpt lat="43.46874306234968" lon="13.600108486147906"><ele>9.0</ele><time>2026-04-07T17:00:29Z</time></trkpt><trkpt lat="43.46861157502497" lon="13.600207891122524"><ele>9.0</ele><time>2026-04-07T17:00:30Z</time></trkpt><trkpt lat="43.46848449554426" lon="13.600307814718327"><ele>9.0</ele><time>2026-04-07T17:00:31Z</time></trkpt><trkpt lat="43.468354089182405" lon="13.600411755608649"><ele>9.0</ele><time>2026-04-07T17:00:32Z</time></trkpt><trkpt lat="43.468226635903015" lon="13.60051510999282"><ele>9.0</ele><time>2026-04-07T17:00:33Z</time></trkpt><trkpt lat="43.46810317903058" lon="13.600610706696905"><ele>9.0</ele><time>2026-04-07T17:00:34Z</time></trkpt><trkpt lat="43.46797943631653" lon="13.600706153291389"><ele>9.0</ele><time>2026-04-07T17:00:35Z</time></trkpt><trkpt lat="43.46786583892577" lon="13.600802293162578"><ele>8.75</ele><time>2026-04-07T17:00:36Z</time></trkpt><trkpt lat="43.4677559218142" lon="13.600891552261874"><ele>8.5</ele><time>2026-04-07T17:00:37Z</time></trkpt><trkpt lat="43.46765437810123" lon="13.600971476615442"><ele>8.25</ele><time>2026-04-07T17:00:38Z</time></trkpt><trkpt lat="43.46755157080747" lon="13.601055746536247"><ele>8.0</ele><time>2026-04-07T17:00:39Z</time></trkpt><trkpt lat="43.46744461677856" lon="13.601142413421895"><ele>7.75</ele><time>2026-04-07T17:00:40Z</time></trkpt><trkpt lat="43.4673323443761" lon="13.60122957545199"><ele>7.5</ele><time>2026-04-07T17:00:41Z</time></trkpt><trkpt lat="43.46722389276042" lon="13.601315223916567"><ele>7.25</ele><time>2026-04-07T17:00:42Z</time></trkpt><trkpt lat="43.46710495158014" lon="13.601404765807665"><ele>7.0</ele><time>2026-04-07T17:00:43Z</time></trkpt><trkpt lat="43.46698936664747" lon="13.601481552310414"><ele>7.75</ele><time>2026-04-07T17:00:44Z</time></trkpt><trkpt lat="43.466866316359194" lon="13.6015816226057"><ele>8.5</ele><time>2026-04-07T17:00:45Z</time></trkpt><trkpt lat="43.466754310691215" lon="13.601669446760141"><ele>9.25</ele><time>2026-04-07T17:00:46Z</time></trkpt><trkpt lat="43.46663749045705" lon="13.601754491054097"><ele>10.0</ele><time>2026-04-07T17:00:47Z</time></trkpt><trkpt lat="43.466525743772955" lon="13.601842270862255"><ele>10.0</ele><time>2026-04-07T17:00:48Z</time></trkpt><trkpt lat="43.46641282383686" lon="13.601930117285761"><ele>10.0</ele><time>2026-04-07T17:00:49Z</time></trkpt><trkpt lat="43.46630228633172" lon="13.602017703689091"><ele>10.0</ele><time>2026-04-07T17:00:50Z</time></trkpt><trkpt lat="43.466188098499124" lon="13.602103184307516"><ele>10.0</ele><time>2026-04-07T17:00:51Z</time></trkpt><trkpt lat="43.46607232054502" lon="13.602190713185463"><ele>9.75</ele><time>2026-04-07T17:00:52Z</time></trkpt><trkpt lat="43.46596136674968" lon="13.602274050037817"><ele>9.5</ele><time>2026-04-07T17:00:53Z</time></trkpt><trkpt lat="43.465855289618155" lon="13.60235564261699"><ele>9.25</ele><time>2026-04-07T17:00:54Z</time></trkpt><trkpt lat="43.46574844872278" lon="13.602441899909687"><ele>9.0</ele><time>2026-04-07T17:00:55Z</time></trkpt><trkpt lat="43.46563980646143" lon="13.602528814529634"><ele>9.0</ele><time>2026-04-07T17:00:56Z</time></trkpt><trkpt lat="43.465532621010446" lon="13.60261785879588"><ele>9.0</ele><time>2026-04-07T17:00:57Z</time></trkpt><trkpt lat="43.46541975388615" lon="13.602708908645917"><ele>9.0</ele><time>2026-04-07T17:00:58Z</time></trkpt><trkpt lat="43.46530324644704" lon="13.602799117819659"><ele>9.0</ele><time>2026-04-07T17:00:59Z</time></trkpt><trkpt lat="43.465187957763895" lon="13.602894002352494"><ele>9.25</ele><time>2026-04-07T17:01:00Z</time></trkpt><trkpt lat="43.46507701519927" lon="13.602984285014793"><ele>9.5</ele><time>2026-04-07T17:01:01Z</time></trkpt><trkpt lat="43.46496270049703" lon="13.603081077180228"><ele>9.75</ele><time>2026-04-07T17:01:02Z</time></trkpt><trkpt lat="43.464841966671244" lon="13.603174344955933"><ele>10.0</ele><time>2026-04-07T17:01:03Z</time></trkpt><trkpt lat="43.46471544757723" lon="13.603270170059574"><ele>9.5</ele><time>2026-04-07T17:01:04Z</time></trkpt><trkpt lat="43.46458300456799" lon="13.603368547525724"><ele>9.0</ele><time>2026-04-07T17:01:05Z</time></trkpt><trkpt lat="43.46446140585056" lon="13.603464427611096"><ele>8.5</ele><time>2026-04-07T17:01:06Z</time></trkpt><trkpt lat="43.46435386743507" lon="13.603554306258625"><ele>8.0</ele><time>2026-04-07T17:01:07Z</time></trkpt><trkpt lat="43.46425672475975" lon="13.603639620937237"><ele>8.25</ele><time>2026-04-07T17:01:08Z</time></trkpt><trkpt lat="43.464157029278454" lon="13.603722467486971"><ele>8.5</ele><time>2026-04-07T17:01:09Z</time></trkpt><trkpt lat="43.46405634743836" lon="13.603805696830213"><ele>8.75</ele><time>2026-04-07T17:01:10Z</time></trkpt><trkpt lat="43.463955639151614" lon="13.603887578519924"><ele>9.0</ele><time>2026-04-07T17:01:11Z</time></trkpt><trkpt lat="43.463846011010766" lon="13.603974309065084"><ele>9.0</ele><time>2026-04-07T17:01:12Z</time></trkpt><trkpt lat="43.463732571482915" lon="13.604062163033952"><ele>9.0</ele><time>2026-04-07T17:01:13Z</time></trkpt><trkpt lat="43.46361774994301" lon="13.60415156385597"><ele>9.0</ele><time>2026-04-07T17:01:14Z</time></trkpt><trkpt lat="43.46349760197868" lon="13.604244008957632"><ele>9.0</ele><time>2026-04-07T17:01:15Z</time></trkpt><trkpt lat="43.46337299382827" lon="13.604334733767503"><ele>9.0</ele><time>2026-04-07T17:01:16Z</time></trkpt><trkpt lat="43.463245507497355" lon="13.604425697056234"><ele>9.0</ele><time>2026-04-07T17:01:17Z</time></trkpt><trkpt lat="43.46311372025524" lon="13.604518576369529"><ele>9.0</ele><time>2026-04-07T17:01:18Z</time></trkpt><trkpt lat="43.46297850938908" lon="13.60461226533174"><ele>9.0</ele><time>2026-04-07T17:01:19Z</time></trkpt><trkpt lat="43.46283834267716" lon="13.604706402960952"><ele>8.666666666666666</ele><time>2026-04-07T17:01:20Z</time></trkpt><trkpt lat="43.462696367629015" lon="13.604793076206942"><ele>8.333333333333332</ele><time>2026-04-07T17:01:21Z</time></trkpt><trkpt lat="43.46255296276266" lon="13.604874496029337"><ele>8.0</ele><time>2026-04-07T17:01:22Z</time></trkpt><trkpt lat="43.46241962338159" lon="13.604946088741599"><ele>8.0</ele><time>2026-04-07T17:01:23Z</time></trkpt><trkpt lat="43.46228717736853" lon="13.605017013037118"><ele>8.0</ele><time>2026-04-07T17:01:24Z</time></trkpt><trkpt lat="43.46215472055718" lon="13.605081920442286"><ele>8.0</ele><time>2026-04-07T17:01:25Z</time></trkpt><trkpt lat="43.462024662547954" lon="13.605150662407068"><ele>8.0</ele><time>2026-04-07T17:01:26Z</time></trkpt><trkpt lat="43.461897527311564" lon="13.605217710485215"><ele>8.0</ele><time>2026-04-07T17:01:27Z</time></trkpt><trkpt lat="43.461766222063765" lon="13.605288904841915"><ele>8.0</ele><time>2026-04-07T17:01:28Z</time></trkpt><trkpt lat="43.461630827379395" lon="13.605361114621557"><ele>8.0</ele><time>2026-04-07T17:01:29Z</time></trkpt><trkpt lat="43.461494943436115" lon="13.605434796755429"><ele>8.0</ele><time>2026-04-07T17:01:30Z</time></trkpt><trkpt lat="43.46135437254138" lon="13.605507502042117"><ele>8.5</ele><time>2026-04-07T17:01:31Z</time></trkpt><trkpt lat="43.461214103039424" lon="13.605578501572555"><ele>9.0</ele><time>2026-04-07T17:01:32Z</time></trkpt><trkpt lat="43.461070973228786" lon="13.605650195347474"><ele>9.5</ele><time>2026-04-07T17:01:33Z</time></trkpt><trkpt lat="43.46093273517985" lon="13.605721524884155"><ele>10.0</ele><time>2026-04-07T17:01:34Z</time></trkpt><trkpt lat="43.46079121711523" lon="13.605797453188126"><ele>10.0</ele><time>2026-04-07T17:01:35Z</time></trkpt><trkpt lat="43.4606483453755" lon="13.60587101370349"><ele>10.0</ele><time>2026-04-07T17:01:36Z</time></trkpt><trkpt lat="43.46050685277821" lon="13.605943430247784"><ele>10.0</ele><time>2026-04-07T17:01:37Z</time></trkpt><trkpt lat="43.46036391483336" lon="13.60601931757611"><ele>9.666666666666668</ele><time>2026-04-07T17:01:38Z</time></trkpt><trkpt lat="43.4602243498259" lon="13.60609117805643"><ele>9.333333333333334</ele><time>2026-04-07T17:01:39Z</time></trkpt><trkpt lat="43.46008064333324" lon="13.606165987195112"><ele>9.0</ele><time>2026-04-07T17:01:40Z</time></trkpt><trkpt lat="43.45993926187942" lon="13.606237377602973"><ele>9.0</ele><time>2026-04-07T17:01:41Z</time></trkpt><trkpt lat="43.45979913222014" lon="13.6063098795859"><ele>9.0</ele><time>2026-04-07T17:01:42Z</time></trkpt><trkpt lat="43.459661024793576" lon="13.606379089929591"><ele>9.0</ele><time>2026-04-07T17:01:43Z</time></trkpt><trkpt lat="43.45951371713137" lon="13.60644507620648"><ele>9.0</ele><time>2026-04-07T17:01:44Z</time></trkpt><trkpt lat="43.45937163855409" lon="13.606525468342754"><ele>9.0</ele><time>2026-04-07T17:01:45Z</time></trkpt><trkpt lat="43.459221849878" lon="13.606600767564963"><ele>9.0</ele><time>2026-04-07T17:01:46Z</time></trkpt><trkpt lat="43.45907630831232" lon="13.606681685813838"><ele>9.0</ele><time>2026-04-07T17:01:47Z</time></trkpt><trkpt lat="43.458924269740216" lon="13.606760128496266"><ele>9.0</ele><time>2026-04-07T17:01:48Z</time></trkpt><trkpt lat="43.458768871076195" lon="13.606839374489287"><ele>9.0</ele><time>2026-04-07T17:01:49Z</time></trkpt><trkpt lat="43.458609693874735" lon="13.606920937313777"><ele>8.333333333333334</ele><time>2026-04-07T17:01:50Z</time></trkpt><trkpt lat="43.458445440046944" lon="13.607008429049218"><ele>7.666666666666667</ele><time>2026-04-07T17:01:51Z</time></trkpt><trkpt lat="43.45827939569552" lon="13.607096393372803"><ele>7.0</ele><time>2026-04-07T17:01:52Z</time></trkpt><trkpt lat="43.45811150458316" lon="13.607186462866084"><ele>7.0</ele><time>2026-04-07T17:01:53Z</time></trkpt><trkpt lat="43.45794965463023" lon="13.607267370006475"><ele>7.0</ele><time>2026-04-07T17:01:54Z</time></trkpt><trkpt lat="43.45779128395254" lon="13.607348979989993"><ele>7.0</ele><time>2026-04-07T17:01:55Z</time></trkpt><trkpt lat="43.45763242468167" lon="13.607428037216266"><ele>7.0</ele><time>2026-04-07T17:01:56Z</time></trkpt><trkpt lat="43.45748401540168" lon="13.607511552715394"><ele>7.0</ele><time>2026-04-07T17:01:57Z</time></trkpt><trkpt lat="43.457326334802495" lon="13.607594538630309"><ele>7.0</ele><time>2026-04-07T17:01:58Z</time></trkpt><trkpt lat="43.457166160415234" lon="13.60767738536506"><ele>7.0</ele><time>2026-04-07T17:01:59Z</time></trkpt><trkpt lat="43.45700420212302" lon="13.607763267076054"><ele>7.0</ele><time>2026-04-07T17:02:00Z</time></trkpt><trkpt lat="43.456855015642674" lon="13.607845141502755"><ele>7.0</ele><time>2026-04-07T17:02:01Z</time></trkpt><trkpt lat="43.456709254961964" lon="13.607921294290286"><ele>7.5</ele><time>2026-04-07T17:02:02Z</time></trkpt><trkpt lat="43.456564841885694" lon="13.607991678543499"><ele>8.0</ele><time>2026-04-07T17:02:03Z</time></trkpt><trkpt lat="43.45642829590289" lon="13.608061928189489"><ele>8.5</ele><time>2026-04-07T17:02:04Z</time></trkpt><trkpt lat="43.45629487025417" lon="13.608128194549954"><ele>9.0</ele><time>2026-04-07T17:02:05Z</time></trkpt><trkpt lat="43.45615937745534" lon="13.608200762146874"><ele>9.0</ele><time>2026-04-07T17:02:06Z</time></trkpt><trkpt lat="43.456019954276975" lon="13.60826747987389"><ele>9.0</ele><time>2026-04-07T17:02:07Z</time></trkpt><trkpt lat="43.45587683616443" lon="13.608343575198507"><ele>9.0</ele><time>2026-04-07T17:02:08Z</time></trkpt><trkpt lat="43.455730923087096" lon="13.608421501468893"><ele>9.0</ele><time>2026-04-07T17:02:09Z</time></trkpt><trkpt lat="43.455579281278865" lon="13.608499383191917"><ele>9.0</ele><time>2026-04-07T17:02:10Z</time></trkpt><trkpt lat="43.45543800710564" lon="13.608571857489123"><ele>9.0</ele><time>2026-04-07T17:02:11Z</time></trkpt><trkpt lat="43.45529787902846" lon="13.60864729746207"><ele>9.25</ele><time>2026-04-07T17:02:12Z</time></trkpt><trkpt lat="43.455157883139584" lon="13.60872059004805"><ele>9.5</ele><time>2026-04-07T17:02:13Z</time></trkpt><trkpt lat="43.45502543317689" lon="13.608794469951906"><ele>9.75</ele><time>2026-04-07T17:02:14Z</time></trkpt><trkpt lat="43.45489143558426" lon="13.608862354616177"><ele>10.0</ele><time>2026-04-07T17:02:15Z</time></trkpt><trkpt lat="43.45476026450323" lon="13.608929579024293"><ele>10.0</ele><time>2026-04-07T17:02:16Z</time></trkpt><trkpt lat="43.45462139747264" lon="13.60899785758031"><ele>10.0</ele><time>2026-04-07T17:02:17Z</time></trkpt><trkpt lat="43.454474292627836" lon="13.60906910590334"><ele>10.0</ele><time>2026-04-07T17:02:18Z</time></trkpt><trkpt lat="43.454323240234174" lon="13.609149918687816"><ele>9.666666666666668</ele><time>2026-04-07T17:02:19Z</time></trkpt><trkpt lat="43.45416292926669" lon="13.609235590465072"><ele>9.333333333333334</ele><time>2026-04-07T17:02:20Z</time></trkpt><trkpt lat="43.454002251790406" lon="13.609318543712567"><ele>9.0</ele><time>2026-04-07T17:02:21Z</time></trkpt><trkpt lat="43.45383855883137" lon="13.609402152772288"><ele>9.333333333333334</ele><time>2026-04-07T17:02:22Z</time></trkpt><trkpt lat="43.4536727155848" lon="13.6094882622324"><ele>9.666666666666668</ele><time>2026-04-07T17:02:23Z</time></trkpt><trkpt lat="43.45350759288774" lon="13.609577494621302"><ele>10.0</ele><time>2026-04-07T17:02:24Z</time></trkpt><trkpt lat="43.45334648161011" lon="13.609663503778917"><ele>10.0</ele><time>2026-04-07T17:02:25Z</time></trkpt><trkpt lat="43.45319224783089" lon="13.609747950092235"><ele>10.0</ele><time>2026-04-07T17:02:26Z</time></trkpt><trkpt lat="43.45303916031915" lon="13.609830785733323"><ele>10.0</ele><time>2026-04-07T17:02:27Z</time></trkpt><trkpt lat="43.452883352903015" lon="13.609907303250107"><ele>10.0</ele><time>2026-04-07T17:02:28Z</time></trkpt><trkpt lat="43.452738504870396" lon="13.6099802748456"><ele>10.0</ele><time>2026-04-07T17:02:29Z</time></trkpt><trkpt lat="43.452595660249706" lon="13.610056626664694"><ele>10.0</ele><time>2026-04-07T17:02:30Z</time></trkpt><trkpt lat="43.45244933655229" lon="13.610131849682126"><ele>10.0</ele><time>2026-04-07T17:02:31Z</time></trkpt><trkpt lat="43.45230163408239" lon="13.61021054052068"><ele>10.0</ele><time>2026-04-07T17:02:32Z</time></trkpt><trkpt lat="43.45215292484959" lon="13.61028483549808"><ele>10.0</ele><time>2026-04-07T17:02:33Z</time></trkpt><trkpt lat="43.45200536490708" lon="13.610361667210372"><ele>9.333333333333334</ele><time>2026-04-07T17:02:34Z</time></trkpt><trkpt lat="43.451855029648826" lon="13.61043432517772"><ele>8.666666666666666</ele><time>2026-04-07T17:02:35Z</time></trkpt><trkpt lat="43.45170893900225" lon="13.610510629186988"><ele>8.0</ele><time>2026-04-07T17:02:36Z</time></trkpt><trkpt lat="43.451565517673494" lon="13.610585287580674"><ele>8.0</ele><time>2026-04-07T17:02:37Z</time></trkpt><trkpt lat="43.45142945508236" lon="13.610657181822894"><ele>8.0</ele><time>2026-04-07T17:02:38Z</time></trkpt><trkpt lat="43.451297022838794" lon="13.610723907805408"><ele>8.0</ele><time>2026-04-07T17:02:39Z</time></trkpt><trkpt lat="43.45115945372801" lon="13.610791234932176"><ele>8.0</ele><time>2026-04-07T17:02:40Z</time></trkpt><trkpt lat="43.451021100038986" lon="13.610864161456487"><ele>8.666666666666666</ele><time>2026-04-07T17:02:41Z</time></trkpt><trkpt lat="43.45087677181176" lon="13.610938629472876"><ele>9.333333333333334</ele><time>2026-04-07T17:02:42Z</time></trkpt><trkpt lat="43.4507333353887" lon="13.61101570797905"><ele>10.0</ele><time>2026-04-07T17:02:43Z</time></trkpt><trkpt lat="43.45058598581818" lon="13.611094191512855"><ele>10.0</ele><time>2026-04-07T17:02:44Z</time></trkpt><trkpt lat="43.45043628805528" lon="13.611172412220098"><ele>10.0</ele><time>2026-04-07T17:02:45Z</time></trkpt><trkpt lat="43.4502889132784" lon="13.611251101915329"><ele>10.0</ele><time>2026-04-07T17:02:46Z</time></trkpt><trkpt lat="43.45013141406977" lon="13.611335326547694"><ele>10.0</ele><time>2026-04-07T17:02:47Z</time></trkpt><trkpt lat="43.4499750277333" lon="13.61141643854907"><ele>10.0</ele><time>2026-04-07T17:02:48Z</time></trkpt><trkpt lat="43.44981861099701" lon="13.611498037943605"><ele>10.0</ele><time>2026-04-07T17:02:49Z</time></trkpt><trkpt lat="43.44966025399051" lon="13.611582334740923"><ele>10.333333333333334</ele><time>2026-04-07T17:02:50Z</time></trkpt><trkpt lat="43.449504767461285" lon="13.611661220402267"><ele>10.666666666666666</ele><time>2026-04-07T17:02:51Z</time></trkpt><trkpt lat="43.449349618096164" lon="13.611740856259564"><ele>11.0</ele><time>2026-04-07T17:02:52Z</time></trkpt><trkpt lat="43.449200835749224" lon="13.611819829932069"><ele>11.0</ele><time>2026-04-07T17:02:53Z</time></trkpt><trkpt lat="43.44904562066471" lon="13.611896314117672"><ele>11.0</ele><time>2026-04-07T17:02:54Z</time></trkpt><trkpt lat="43.4488938819132" lon="13.611969537450092"><ele>11.0</ele><time>2026-04-07T17:02:55Z</time></trkpt><trkpt lat="43.448741707371326" lon="13.61205608513666"><ele>11.0</ele><time>2026-04-07T17:02:56Z</time></trkpt><trkpt lat="43.44859469623543" lon="13.612139539112881"><ele>11.0</ele><time>2026-04-07T17:02:57Z</time></trkpt><trkpt lat="43.448439830838915" lon="13.612235999903293"><ele>11.0</ele><time>2026-04-07T17:02:58Z</time></trkpt><trkpt lat="43.44829268323231" lon="13.612332689924003"><ele>11.0</ele><time>2026-04-07T17:02:59Z</time></trkpt><trkpt lat="43.44814536508172" lon="13.61243951299178"><ele>11.0</ele><time>2026-04-07T17:03:00Z</time></trkpt><trkpt lat="43.4480024014169" lon="13.612549474292809"><ele>11.0</ele><time>2026-04-07T17:03:01Z</time></trkpt><trkpt lat="43.44786758404639" lon="13.612666546619451"><ele>11.25</ele><time>2026-04-07T17:03:02Z</time></trkpt><trkpt lat="43.44774483855982" lon="13.61278522871652"><ele>11.5</ele><time>2026-04-07T17:03:03Z</time></trkpt><trkpt lat="43.44762622251402" lon="13.612907076900772"><ele>11.75</ele><time>2026-04-07T17:03:04Z</time></trkpt><trkpt lat="43.44750993980937" lon="13.613031364796106"><ele>12.0</ele><time>2026-04-07T17:03:05Z</time></trkpt><trkpt lat="43.44739197473843" lon="13.613161280179417"><ele>12.333333333333332</ele><time>2026-04-07T17:03:06Z</time></trkpt><trkpt lat="43.44726990402196" lon="13.613306406326824"><ele>12.666666666666666</ele><time>2026-04-07T17:03:07Z</time></trkpt><trkpt lat="43.447155403923844" lon="13.61346566762877"><ele>13.0</ele><time>2026-04-07T17:03:08Z</time></trkpt><trkpt lat="43.44703087407977" lon="13.61364299041176"><ele>13.333333333333332</ele><time>2026-04-07T17:03:09Z</time></trkpt><trkpt lat="43.446907991506954" lon="13.613829606568181"><ele>13.666666666666668</ele><time>2026-04-07T17:03:10Z</time></trkpt><trkpt lat="43.446784519026586" lon="13.6140293840997"><ele>14.0</ele><time>2026-04-07T17:03:11Z</time></trkpt><trkpt lat="43.4466644057605" lon="13.61423653950219"><ele>14.0</ele><time>2026-04-07T17:03:12Z</time></trkpt><trkpt lat="43.44654650117624" lon="13.614459497047013"><ele>14.0</ele><time>2026-04-07T17:03:13Z</time></trkpt><trkpt lat="43.44643277896058" lon="13.614691917761265"><ele>14.0</ele><time>2026-04-07T17:03:14Z</time></trkpt><trkpt lat="43.44632513438343" lon="13.614937966396159"><ele>13.666666666666668</ele><time>2026-04-07T17:03:15Z</time></trkpt><trkpt lat="43.44622005502136" lon="13.615195212940161"><ele>13.333333333333332</ele><time>2026-04-07T17:03:16Z</time></trkpt><trkpt lat="43.44613141868172" lon="13.615442520676615"><ele>13.0</ele><time>2026-04-07T17:03:17Z</time></trkpt><trkpt lat="43.44605619178153" lon="13.615684747882336"><ele>13.0</ele><time>2026-04-07T17:03:18Z</time></trkpt><trkpt lat="43.445990611003694" lon="13.615936145774615"><ele>13.0</ele><time>2026-04-07T17:03:19Z</time></trkpt><trkpt lat="43.4459267360702" lon="13.616178782870712"><ele>13.0</ele><time>2026-04-07T17:03:20Z</time></trkpt><trkpt lat="43.44586978275541" lon="13.616421995252656"><ele>13.0</ele><time>2026-04-07T17:03:21Z</time></trkpt><trkpt lat="43.445816279958805" lon="13.616666463553539"><ele>13.0</ele><time>2026-04-07T17:03:22Z</time></trkpt><trkpt lat="43.445763067860184" lon="13.616920118204526"><ele>13.0</ele><time>2026-04-07T17:03:23Z</time></trkpt><trkpt lat="43.44571390635371" lon="13.617161071219583"><ele>13.0</ele><time>2026-04-07T17:03:24Z</time></trkpt><trkpt lat="43.44566601761731" lon="13.617396021425128"><ele>13.0</ele><time>2026-04-07T17:03:25Z</time></trkpt><trkpt lat="43.44561747845269" lon="13.617626513196612"><ele>13.0</ele><time>2026-04-07T17:03:26Z</time></trkpt><trkpt lat="43.44556686255897" lon="13.617863546881312"><ele>13.0</ele><time>2026-04-07T17:03:27Z</time></trkpt><trkpt lat="43.44551904835818" lon="13.618103758310031"><ele>13.0</ele><time>2026-04-07T17:03:28Z</time></trkpt><trkpt lat="43.44547065626486" lon="13.618344204502836"><ele>13.0</ele><time>2026-04-07T17:03:29Z</time></trkpt><trkpt lat="43.445426420406754" lon="13.618557979993229"><ele>12.666666666666666</ele><time>2026-04-07T17:03:30Z</time></trkpt><trkpt lat="43.44537929724574" lon="13.61877748053982"><ele>12.333333333333332</ele><time>2026-04-07T17:03:31Z</time></trkpt><trkpt lat="43.44533407544535" lon="13.619002447279001"><ele>12.0</ele><time>2026-04-07T17:03:32Z</time></trkpt><trkpt lat="43.44528992605772" lon="13.61923365879838"><ele>12.0</ele><time>2026-04-07T17:03:33Z</time></trkpt><trkpt lat="43.44523742105038" lon="13.619457180947169"><ele>12.0</ele><time>2026-04-07T17:03:34Z</time></trkpt><trkpt lat="43.445190890032244" lon="13.619685588979637"><ele>12.0</ele><time>2026-04-07T17:03:35Z</time></trkpt><trkpt lat="43.44514711777187" lon="13.619912402294506"><ele>11.666666666666666</ele><time>2026-04-07T17:03:36Z</time></trkpt><trkpt lat="43.44509821538247" lon="13.620133740943864"><ele>11.333333333333332</ele><time>2026-04-07T17:03:37Z</time></trkpt><trkpt lat="43.445055691830916" lon="13.620352839557604"><ele>11.0</ele><time>2026-04-07T17:03:38Z</time></trkpt><trkpt lat="43.445011669667736" lon="13.620565504339513"><ele>11.333333333333332</ele><time>2026-04-07T17:03:39Z</time></trkpt><trkpt lat="43.44496635270933" lon="13.620783842110097"><ele>11.666666666666666</ele><time>2026-04-07T17:03:40Z</time></trkpt><trkpt lat="43.44492408709601" lon="13.621000236035462"><ele>12.0</ele><time>2026-04-07T17:03:41Z</time></trkpt><trkpt lat="43.444877388302565" lon="13.62121891662982"><ele>12.0</ele><time>2026-04-07T17:03:42Z</time></trkpt><trkpt lat="43.44482995843819" lon="13.62143525206386"><ele>12.0</ele><time>2026-04-07T17:03:43Z</time></trkpt><trkpt lat="43.444783518734646" lon="13.621660091764031"><ele>12.0</ele><time>2026-04-07T17:03:44Z</time></trkpt><trkpt lat="43.444735222132834" lon="13.621886591371542"><ele>11.666666666666666</ele><time>2026-04-07T17:03:45Z</time></trkpt><trkpt lat="43.44468772170728" lon="13.622115389560523"><ele>11.333333333333332</ele><time>2026-04-07T17:03:46Z</time></trkpt><trkpt lat="43.444639198404396" lon="13.622347007787086"><ele>11.0</ele><time>2026-04-07T17:03:47Z</time></trkpt><trkpt lat="43.4445924249692" lon="13.622578443846557"><ele>11.666666666666666</ele><time>2026-04-07T17:03:48Z</time></trkpt><trkpt lat="43.44454253482703" lon="13.6228204660114"><ele>12.333333333333332</ele><time>2026-04-07T17:03:49Z</time></trkpt><trkpt lat="43.4444959208196" lon="13.623059033344608"><ele>13.0</ele><time>2026-04-07T17:03:50Z</time></trkpt><trkpt lat="43.44445184563726" lon="13.62330093888443"><ele>13.0</ele><time>2026-04-07T17:03:51Z</time></trkpt><trkpt lat="43.444412730107594" lon="13.623548600674818"><ele>13.0</ele><time>2026-04-07T17:03:52Z</time></trkpt><trkpt lat="43.44437949584906" lon="13.623801200902953"><ele>13.0</ele><time>2026-04-07T17:03:53Z</time></trkpt><trkpt lat="43.44435148175039" lon="13.624053079309668"><ele>12.666666666666666</ele><time>2026-04-07T17:03:54Z</time></trkpt><trkpt lat="43.44432459183538" lon="13.624312250036635"><ele>12.333333333333332</ele><time>2026-04-07T17:03:55Z</time></trkpt><trkpt lat="43.44430872087085" lon="13.624567827599707"><ele>12.0</ele><time>2026-04-07T17:03:56Z</time></trkpt><trkpt lat="43.44429515781807" lon="13.6248086942105"><ele>11.666666666666666</ele><time>2026-04-07T17:03:57Z</time></trkpt><trkpt lat="43.444283879093476" lon="13.6250582713477"><ele>11.333333333333332</ele><time>2026-04-07T17:03:58Z</time></trkpt><trkpt lat="43.44427674995852" lon="13.625314917864307"><ele>11.0</ele><time>2026-04-07T17:03:59Z</time></trkpt><trkpt lat="43.444276356894335" lon="13.625574117519143"><ele>11.666666666666666</ele><time>2026-04-07T17:04:00Z</time></trkpt><trkpt lat="43.444281725038394" lon="13.625838187696564"><ele>12.333333333333332</ele><time>2026-04-07T17:04:01Z</time></trkpt><trkpt lat="43.44429537830598" lon="13.626107950937946"><ele>13.0</ele><time>2026-04-07T17:04:02Z</time></trkpt><trkpt lat="43.44431345190536" lon="13.626386548328119"><ele>13.0</ele><time>2026-04-07T17:04:03Z</time></trkpt><trkpt lat="43.444335666271854" lon="13.626657775733166"><ele>13.0</ele><time>2026-04-07T17:04:04Z</time></trkpt><trkpt lat="43.44436599073099" lon="13.626922363675389"><ele>13.0</ele><time>2026-04-07T17:04:05Z</time></trkpt><trkpt lat="43.444400391907024" lon="13.627186120782879"><ele>12.666666666666666</ele><time>2026-04-07T17:04:06Z</time></trkpt><trkpt lat="43.44444125061039" lon="13.627452862676336"><ele>12.333333333333332</ele><time>2026-04-07T17:04:07Z</time></trkpt><trkpt lat="43.444487159359866" lon="13.627722946849905"><ele>12.0</ele><time>2026-04-07T17:04:08Z</time></trkpt><trkpt lat="43.44453639046419" lon="13.627983981459762"><ele>12.0</ele><time>2026-04-07T17:04:09Z</time></trkpt><trkpt lat="43.44458840559269" lon="13.628245834584668"><ele>12.0</ele><time>2026-04-07T17:04:10Z</time></trkpt><trkpt lat="43.44464012556404" lon="13.6284921032541"><ele>12.0</ele><time>2026-04-07T17:04:11Z</time></trkpt><trkpt lat="43.444685875455086" lon="13.628729712740125"><ele>10.0</ele><time>2026-04-07T17:04:12Z</time></trkpt><trkpt lat="43.44473088389431" lon="13.62896181251148"><ele>8.0</ele><time>2026-04-07T17:04:13Z</time></trkpt><trkpt lat="43.44477494471193" lon="13.629201571015184"><ele>6.0</ele><time>2026-04-07T17:04:14Z</time></trkpt><trkpt lat="43.444819121969424" lon="13.629436018185688"><ele>7.333333333333334</ele><time>2026-04-07T17:04:15Z</time></trkpt><trkpt lat="43.444856076559084" lon="13.6296506989318"><ele>8.666666666666668</ele><time>2026-04-07T17:04:16Z</time></trkpt><trkpt lat="43.4448904512937" lon="13.629875804699132"><ele>10.0</ele><time>2026-04-07T17:04:17Z</time></trkpt><trkpt lat="43.444914310824096" lon="13.630099297216827"><ele>9.666666666666668</ele><time>2026-04-07T17:04:18Z</time></trkpt><trkpt lat="43.44493050577835" lon="13.630328526420907"><ele>9.333333333333334</ele><time>2026-04-07T17:04:19Z</time></trkpt><trkpt lat="43.444938021575766" lon="13.630553761043297"><ele>9.0</ele><time>2026-04-07T17:04:20Z</time></trkpt><trkpt lat="43.44493590045776" lon="13.630783760210944"><ele>9.0</ele><time>2026-04-07T17:04:21Z</time></trkpt><trkpt lat="43.444928333562665" lon="13.631012477765301"><ele>9.0</ele><time>2026-04-07T17:04:22Z</time></trkpt><trkpt lat="43.44491397685051" lon="13.631206225951454"><ele>9.0</ele><time>2026-04-07T17:04:23Z</time></trkpt><trkpt lat="43.444897863959696" lon="13.631409861264862"><ele>8.5</ele><time>2026-04-07T17:04:24Z</time></trkpt><trkpt lat="43.444867892098124" lon="13.631611045754292"><ele>8.0</ele><time>2026-04-07T17:04:25Z</time></trkpt><trkpt lat="43.44483256173509" lon="13.631808308267452"><ele>7.5</ele><time>2026-04-07T17:04:26Z</time></trkpt><trkpt lat="43.44478951841545" lon="13.632009309492588"><ele>7.0</ele><time>2026-04-07T17:04:27Z</time></trkpt><trkpt lat="43.44474658183579" lon="13.632200781272033"><ele>7.0</ele><time>2026-04-07T17:04:28Z</time></trkpt><trkpt lat="43.44469259202065" lon="13.632395940370087"><ele>7.0</ele><time>2026-04-07T17:04:29Z</time></trkpt><trkpt lat="43.444636651714994" lon="13.632585066920923"><ele>7.0</ele><time>2026-04-07T17:04:30Z</time></trkpt><trkpt lat="43.44457758628783" lon="13.632774344581907"><ele>7.0</ele><time>2026-04-07T17:04:31Z</time></trkpt><trkpt lat="43.44450985714562" lon="13.632960804773676"><ele>7.333333333333334</ele><time>2026-04-07T17:04:32Z</time></trkpt><trkpt lat="43.44443664291991" lon="13.633143001561818"><ele>7.666666666666666</ele><time>2026-04-07T17:04:33Z</time></trkpt><trkpt lat="43.44435519920055" lon="13.633325458723435"><ele>8.0</ele><time>2026-04-07T17:04:34Z</time></trkpt><trkpt lat="43.44426211913883" lon="13.633507853712"><ele>8.666666666666666</ele><time>2026-04-07T17:04:35Z</time></trkpt><trkpt lat="43.44416594114814" lon="13.633691982192465"><ele>9.333333333333334</ele><time>2026-04-07T17:04:36Z</time></trkpt><trkpt lat="43.444049146875194" lon="13.633852602367112"><ele>10.0</ele><time>2026-04-07T17:04:37Z</time></trkpt><trkpt lat="43.44394676514851" lon="13.634040354120883"><ele>10.0</ele><time>2026-04-07T17:04:38Z</time></trkpt><trkpt lat="43.44381974052288" lon="13.634205111201183"><ele>10.0</ele><time>2026-04-07T17:04:39Z</time></trkpt><trkpt lat="43.44369450077571" lon="13.634363302749982"><ele>10.0</ele><time>2026-04-07T17:04:40Z</time></trkpt><trkpt lat="43.443556126758544" lon="13.634495585575415"><ele>13.0</ele><time>2026-04-07T17:04:41Z</time></trkpt><trkpt lat="43.44341763310246" lon="13.634638941103022"><ele>16.0</ele><time>2026-04-07T17:04:42Z</time></trkpt><trkpt lat="43.44328055613526" lon="13.634772916445035"><ele>19.0</ele><time>2026-04-07T17:04:43Z</time></trkpt><trkpt lat="43.443163176114254" lon="13.63491074489381"><ele>19.0</ele><time>2026-04-07T17:04:44Z</time></trkpt><trkpt lat="43.44303941899092" lon="13.635026863469083"><ele>19.0</ele><time>2026-04-07T17:04:45Z</time></trkpt><trkpt lat="43.44291073252503" lon="13.6351535347381"><ele>19.0</ele><time>2026-04-07T17:04:46Z</time></trkpt><trkpt lat="43.442780397623814" lon="13.635281304346478"><ele>21.333333333333332</ele><time>2026-04-07T17:04:47Z</time></trkpt><trkpt lat="43.442645679134095" lon="13.635409369051912"><ele>23.666666666666664</ele><time>2026-04-07T17:04:48Z</time></trkpt><trkpt lat="43.4424948101408" lon="13.635542593773387"><ele>26.0</ele><time>2026-04-07T17:04:49Z</time></trkpt><trkpt lat="43.44237029346057" lon="13.635678730561928"><ele>26.0</ele><time>2026-04-07T17:04:50Z</time></trkpt><trkpt lat="43.44223207766236" lon="13.63581127090747"><ele>26.0</ele><time>2026-04-07T17:04:51Z</time></trkpt><trkpt lat="43.44209105187165" lon="13.63594750298392"><ele>26.0</ele><time>2026-04-07T17:04:52Z</time></trkpt><trkpt lat="43.441949574910915" lon="13.636082860235513"><ele>25.0</ele><time>2026-04-07T17:04:53Z</time></trkpt><trkpt lat="43.441809095918565" lon="13.636219536192769"><ele>24.0</ele><time>2026-04-07T17:04:54Z</time></trkpt><trkpt lat="43.44166416873249" lon="13.63636053244355"><ele>23.0</ele><time>2026-04-07T17:04:55Z</time></trkpt><trkpt lat="43.44152506423692" lon="13.636503983060772"><ele>23.0</ele><time>2026-04-07T17:04:56Z</time></trkpt><trkpt lat="43.441378706490845" lon="13.6366454429232"><ele>23.0</ele><time>2026-04-07T17:04:57Z</time></trkpt><trkpt lat="43.441234776219666" lon="13.63678882581841"><ele>23.0</ele><time>2026-04-07T17:04:58Z</time></trkpt><trkpt lat="43.44108576027209" lon="13.636931001716455"><ele>22.333333333333336</ele><time>2026-04-07T17:04:59Z</time></trkpt><trkpt lat="43.44094215922046" lon="13.637065146750759"><ele>21.666666666666668</ele><time>2026-04-07T17:05:00Z</time></trkpt><trkpt lat="43.44080295233949" lon="13.63721027509219"><ele>21.0</ele><time>2026-04-07T17:05:01Z</time></trkpt><trkpt lat="43.44066065591061" lon="13.637347785536111"><ele>21.0</ele><time>2026-04-07T17:05:02Z</time></trkpt><trkpt lat="43.44051290003755" lon="13.637493930943776"><ele>21.0</ele><time>2026-04-07T17:05:03Z</time></trkpt><trkpt lat="43.440366939431655" lon="13.637637999822434"><ele>21.0</ele><time>2026-04-07T17:05:04Z</time></trkpt><trkpt lat="43.44022503117376" lon="13.637780291208625"><ele>19.333333333333332</ele><time>2026-04-07T17:05:05Z</time></trkpt><trkpt lat="43.44007978290104" lon="13.63792658475976"><ele>17.666666666666664</ele><time>2026-04-07T17:05:06Z</time></trkpt><trkpt lat="43.439942980425286" lon="13.638068454611933"><ele>16.0</ele><time>2026-04-07T17:05:07Z</time></trkpt><trkpt lat="43.43980764025581" lon="13.638209179805028"><ele>16.0</ele><time>2026-04-07T17:05:08Z</time></trkpt><trkpt lat="43.43968053230765" lon="13.638346164885407"><ele>16.0</ele><time>2026-04-07T17:05:09Z</time></trkpt><trkpt lat="43.439568930266596" lon="13.638494895786842"><ele>16.0</ele><time>2026-04-07T17:05:10Z</time></trkpt><trkpt lat="43.43945102680613" lon="13.638615154166596"><ele>14.666666666666666</ele><time>2026-04-07T17:05:11Z</time></trkpt><trkpt lat="43.43933531331098" lon="13.638756823380074"><ele>13.333333333333332</ele><time>2026-04-07T17:05:12Z</time></trkpt><trkpt lat="43.43920341035424" lon="13.638877605045646"><ele>12.0</ele><time>2026-04-07T17:05:13Z</time></trkpt><trkpt lat="43.43906388406326" lon="13.638993369807086"><ele>12.0</ele><time>2026-04-07T17:05:14Z</time></trkpt><trkpt lat="43.438928620563345" lon="13.639088243240453"><ele>12.0</ele><time>2026-04-07T17:05:15Z</time></trkpt><trkpt lat="43.438811201232504" lon="13.63917677230282"><ele>12.0</ele><time>2026-04-07T17:05:16Z</time></trkpt><trkpt lat="43.43870850643824" lon="13.639262742064957"><ele>12.0</ele><time>2026-04-07T17:05:17Z</time></trkpt><trkpt lat="43.43860726309741" lon="13.639338699479532"><ele>12.0</ele><time>2026-04-07T17:05:18Z</time></trkpt><trkpt lat="43.43852087953892" lon="13.639414382432708"><ele>12.0</ele><time>2026-04-07T17:05:19Z</time></trkpt><trkpt lat="43.43845494791682" lon="13.639476493660528"><ele>12.0</ele><time>2026-04-07T17:05:20Z</time></trkpt><trkpt lat="43.43838312881539" lon="13.639529931423635"><ele>12.0</ele><time>2026-04-07T17:05:22Z</time></trkpt><trkpt lat="43.43834648809295" lon="13.639659917600648"><ele>12.0</ele><time>2026-04-07T17:05:27Z</time></trkpt><trkpt lat="43.43853524179571" lon="13.639846666818611"><ele>12.5</ele><time>2026-04-07T17:05:28Z</time></trkpt><trkpt lat="43.43861239465252" lon="13.639931341245259"><ele>13.0</ele><time>2026-04-07T17:05:29Z</time></trkpt><trkpt lat="43.438703137895935" lon="13.640027006960638"><ele>13.5</ele><time>2026-04-07T17:05:30Z</time></trkpt><trkpt lat="43.43880234570068" lon="13.64012934799058"><ele>14.0</ele><time>2026-04-07T17:05:31Z</time></trkpt><trkpt lat="43.4388977392847" lon="13.64023051772052"><ele>16.0</ele><time>2026-04-07T17:05:32Z</time></trkpt><trkpt lat="43.438999768204475" lon="13.640334629865379"><ele>18.0</ele><time>2026-04-07T17:05:33Z</time></trkpt><trkpt lat="43.43911219232517" lon="13.640436818297385"><ele>20.0</ele><time>2026-04-07T17:05:34Z</time></trkpt><trkpt lat="43.4392434883191" lon="13.640528448333624"><ele>22.0</ele><time>2026-04-07T17:05:35Z</time></trkpt><trkpt lat="43.439370511184975" lon="13.640588136084737"><ele>22.0</ele><time>2026-04-07T17:05:36Z</time></trkpt><trkpt lat="43.439503558749344" lon="13.640611200186907"><ele>22.0</ele><time>2026-04-07T17:05:37Z</time></trkpt><trkpt lat="43.439645528504705" lon="13.640584158991487"><ele>22.0</ele><time>2026-04-07T17:05:38Z</time></trkpt><trkpt lat="43.439782490719544" lon="13.64051392554433"><ele>22.0</ele><time>2026-04-07T17:05:39Z</time></trkpt><trkpt lat="43.43991006867101" lon="13.64041282986309"><ele>22.666666666666664</ele><time>2026-04-07T17:05:40Z</time></trkpt><trkpt lat="43.440029628102465" lon="13.640270354565162"><ele>23.333333333333332</ele><time>2026-04-07T17:05:41Z</time></trkpt><trkpt lat="43.440142180589106" lon="13.640105404087066"><ele>24.0</ele><time>2026-04-07T17:05:42Z</time></trkpt><trkpt lat="43.440234140466764" lon="13.639926739183675"><ele>24.0</ele><time>2026-04-07T17:05:43Z</time></trkpt><trkpt lat="43.440325869491616" lon="13.63976309150328"><ele>24.0</ele><time>2026-04-07T17:05:44Z</time></trkpt><trkpt lat="43.44040500424934" lon="13.639620203133461"><ele>24.0</ele><time>2026-04-07T17:05:45Z</time></trkpt><trkpt lat="43.44048626996929" lon="13.639478197931858"><ele>24.0</ele><time>2026-04-07T17:05:46Z</time></trkpt><trkpt lat="43.4405547500051" lon="13.639351859398154"><ele>25.0</ele><time>2026-04-07T17:05:47Z</time></trkpt><trkpt lat="43.44061672718281" lon="13.639244264095776"><ele>26.0</ele><time>2026-04-07T17:05:48Z</time></trkpt><trkpt lat="43.440671285070636" lon="13.639182388874016"><ele>27.0</ele><time>2026-04-07T17:05:49Z</time></trkpt><trkpt lat="43.44079223085145" lon="13.639222065288902"><ele>28.0</ele><time>2026-04-07T17:05:51Z</time></trkpt><trkpt lat="43.44085624502488" lon="13.639321806545922"><ele>29.0</ele><time>2026-04-07T17:05:52Z</time></trkpt><trkpt lat="43.44094020535372" lon="13.6394318158071"><ele>31.25</ele><time>2026-04-07T17:05:53Z</time></trkpt><trkpt lat="43.44105368713617" lon="13.639516543427135"><ele>33.5</ele><time>2026-04-07T17:05:54Z</time></trkpt><trkpt lat="43.44118195947281" lon="13.639624778958645"><ele>35.75</ele><time>2026-04-07T17:05:55Z</time></trkpt><trkpt lat="43.44132242491038" lon="13.639731475826858"><ele>38.0</ele><time>2026-04-07T17:05:56Z</time></trkpt><trkpt lat="43.441466234381565" lon="13.639838322011116"><ele>41.33333333333333</ele><time>2026-04-07T17:05:57Z</time></trkpt><trkpt lat="43.441610553898954" lon="13.639948623281514"><ele>44.666666666666664</ele><time>2026-04-07T17:05:58Z</time></trkpt><trkpt lat="43.44174168933406" lon="13.640046467304098"><ele>48.0</ele><time>2026-04-07T17:05:59Z</time></trkpt><trkpt lat="43.441873592668095" lon="13.640145417590038"><ele>48.0</ele><time>2026-04-07T17:06:00Z</time></trkpt><trkpt lat="43.44198475053643" lon="13.64022656277904"><ele>48.0</ele><time>2026-04-07T17:06:01Z</time></trkpt><trkpt lat="43.442086636135635" lon="13.640307112683438"><ele>48.0</ele><time>2026-04-07T17:06:02Z</time></trkpt><trkpt lat="43.442183142283106" lon="13.640383092380079"><ele>48.0</ele><time>2026-04-07T17:06:03Z</time></trkpt><trkpt lat="43.44226980913475" lon="13.640445048546002"><ele>47.833333333333336</ele><time>2026-04-07T17:06:04Z</time></trkpt><trkpt lat="43.44234606530015" lon="13.640507696597398"><ele>47.666666666666664</ele><time>2026-04-07T17:06:05Z</time></trkpt><trkpt lat="43.44239690457509" lon="13.6405863076416"><ele>47.5</ele><time>2026-04-07T17:06:06Z</time></trkpt><trkpt lat="43.4424118739271" lon="13.640673601572322"><ele>47.33333333333333</ele><time>2026-04-07T17:06:07Z</time></trkpt><trkpt lat="43.442397007846196" lon="13.640767515339391"><ele>47.166666666666664</ele><time>2026-04-07T17:06:08Z</time></trkpt><trkpt lat="43.44232189073976" lon="13.640836274678803"><ele>47.0</ele><time>2026-04-07T17:06:09Z</time></trkpt><trkpt lat="43.44225077680173" lon="13.640963355663487"><ele>47.0</ele><time>2026-04-07T17:06:10Z</time></trkpt><trkpt lat="43.442172474552066" lon="13.641099248960769"><ele>47.0</ele><time>2026-04-07T17:06:11Z</time></trkpt><trkpt lat="43.44209577134695" lon="13.641253468672794"><ele>47.0</ele><time>2026-04-07T17:06:12Z</time></trkpt><trkpt lat="43.44200570012207" lon="13.641415259190321"><ele>47.0</ele><time>2026-04-07T17:06:13Z</time></trkpt><trkpt lat="43.44191236862761" lon="13.641597152045637"><ele>48.0</ele><time>2026-04-07T17:06:14Z</time></trkpt><trkpt lat="43.44180539335975" lon="13.641751021152873"><ele>49.0</ele><time>2026-04-07T17:06:15Z</time></trkpt><trkpt lat="43.441703326142324" lon="13.641924318117686"><ele>50.0</ele><time>2026-04-07T17:06:16Z</time></trkpt><trkpt lat="43.44159266406323" lon="13.642110844874816"><ele>49.66666666666667</ele><time>2026-04-07T17:06:17Z</time></trkpt><trkpt lat="43.441481423269536" lon="13.642295276105768"><ele>49.33333333333333</ele><time>2026-04-07T17:06:18Z</time></trkpt><trkpt lat="43.44138466997818" lon="13.642484498371735"><ele>49.0</ele><time>2026-04-07T17:06:19Z</time></trkpt><trkpt lat="43.44127239884318" lon="13.64266281451492"><ele>46.666666666666664</ele><time>2026-04-07T17:06:20Z</time></trkpt><trkpt lat="43.44115614820385" lon="13.642823040678971"><ele>44.33333333333333</ele><time>2026-04-07T17:06:21Z</time></trkpt><trkpt lat="43.44103107987678" lon="13.642980390702"><ele>42.0</ele><time>2026-04-07T17:06:22Z</time></trkpt><trkpt lat="43.44089805242352" lon="13.64313678935062"><ele>42.0</ele><time>2026-04-07T17:06:23Z</time></trkpt><trkpt lat="43.440765636603466" lon="13.643298400626705"><ele>42.0</ele><time>2026-04-07T17:06:24Z</time></trkpt><trkpt lat="43.440649501517576" lon="13.643464851771753"><ele>42.0</ele><time>2026-04-07T17:06:25Z</time></trkpt><trkpt lat="43.44054176925043" lon="13.643655995166576"><ele>43.666666666666664</ele><time>2026-04-07T17:06:26Z</time></trkpt><trkpt lat="43.44045582760266" lon="13.643847541382694"><ele>45.33333333333333</ele><time>2026-04-07T17:06:27Z</time></trkpt><trkpt lat="43.44037001881477" lon="13.644026436609616"><ele>47.0</ele><time>2026-04-07T17:06:28Z</time></trkpt><trkpt lat="43.44030149513217" lon="13.644218326601264"><ele>47.0</ele><time>2026-04-07T17:06:29Z</time></trkpt><trkpt lat="43.44025531528721" lon="13.644409105389537"><ele>47.0</ele><time>2026-04-07T17:06:30Z</time></trkpt><trkpt lat="43.44020618959258" lon="13.644578964204884"><ele>47.0</ele><time>2026-04-07T17:06:31Z</time></trkpt><trkpt lat="43.44015466017758" lon="13.644725406542353"><ele>47.0</ele><time>2026-04-07T17:06:32Z</time></trkpt><trkpt lat="43.44011886667019" lon="13.644874370546624"><ele>46.6</ele><time>2026-04-07T17:06:33Z</time></trkpt><trkpt lat="43.44008606729008" lon="13.645012845030344"><ele>46.2</ele><time>2026-04-07T17:06:34Z</time></trkpt><trkpt lat="43.44007015509167" lon="13.645154448297037"><ele>45.8</ele><time>2026-04-07T17:06:35Z</time></trkpt><trkpt lat="43.44002223390756" lon="13.645285183130637"><ele>45.4</ele><time>2026-04-07T17:06:36Z</time></trkpt><trkpt lat="43.439984809376725" lon="13.64544484837745"><ele>45.0</ele><time>2026-04-07T17:06:37Z</time></trkpt><trkpt lat="43.4399488059378" lon="13.645602505002755"><ele>44.4</ele><time>2026-04-07T17:06:38Z</time></trkpt><trkpt lat="43.43991496308023" lon="13.645753959360212"><ele>43.8</ele><time>2026-04-07T17:06:39Z</time></trkpt><trkpt lat="43.43988347435206" lon="13.645894878282725"><ele>43.2</ele><time>2026-04-07T17:06:40Z</time></trkpt><trkpt lat="43.43987312254987" lon="13.646017457534901"><ele>42.6</ele><time>2026-04-07T17:06:41Z</time></trkpt><trkpt lat="43.439846440814954" lon="13.64611097305294"><ele>42.0</ele><time>2026-04-07T17:06:42Z</time></trkpt><trkpt lat="43.43980951669053" lon="13.646237751405678"><ele>41.6</ele><time>2026-04-07T17:06:44Z</time></trkpt><trkpt lat="43.43973099251749" lon="13.646319195059753"><ele>41.2</ele><time>2026-04-07T17:06:46Z</time></trkpt><trkpt lat="43.43963899128677" lon="13.646386031959631"><ele>40.8</ele><time>2026-04-07T17:06:48Z</time></trkpt><trkpt lat="43.43963379091368" lon="13.646484373248855"><ele>40.4</ele><time>2026-04-07T17:06:49Z</time></trkpt><trkpt lat="43.4396401778811" lon="13.646594091636283"><ele>40.0</ele><time>2026-04-07T17:06:50Z</time></trkpt><trkpt lat="43.43971332749762" lon="13.646703284547502"><ele>40.0</ele><time>2026-04-07T17:06:51Z</time></trkpt><trkpt lat="43.43977690933204" lon="13.646815481297725"><ele>40.0</ele><time>2026-04-07T17:06:52Z</time></trkpt><trkpt lat="43.439829891008806" lon="13.646964237981258"><ele>40.0</ele><time>2026-04-07T17:06:53Z</time></trkpt><trkpt lat="43.439896960831305" lon="13.647113445455174"><ele>40.0</ele><time>2026-04-07T17:06:54Z</time></trkpt><trkpt lat="43.439965070486636" lon="13.647264966405574"><ele>39.25</ele><time>2026-04-07T17:06:55Z</time></trkpt><trkpt lat="43.44003237547813" lon="13.6474146970614"><ele>38.5</ele><time>2026-04-07T17:06:56Z</time></trkpt><trkpt lat="43.440104704734196" lon="13.647575520241315"><ele>37.75</ele><time>2026-04-07T17:06:57Z</time></trkpt><trkpt lat="43.44017765570061" lon="13.647737709423842"><ele>37.0</ele><time>2026-04-07T17:06:58Z</time></trkpt><trkpt lat="43.44024426953462" lon="13.647885809590521"><ele>36.25</ele><time>2026-04-07T17:06:59Z</time></trkpt><trkpt lat="43.440327586263685" lon="13.648016307422232"><ele>35.5</ele><time>2026-04-07T17:07:00Z</time></trkpt><trkpt lat="43.44039246224728" lon="13.648159528328813"><ele>34.75</ele><time>2026-04-07T17:07:01Z</time></trkpt><trkpt lat="43.440458492963955" lon="13.648300006021657"><ele>34.0</ele><time>2026-04-07T17:07:02Z</time></trkpt><trkpt lat="43.44051771375558" lon="13.648437864451507"><ele>34.0</ele><time>2026-04-07T17:07:03Z</time></trkpt><trkpt lat="43.440562909057036" lon="13.648536810432114"><ele>34.0</ele><time>2026-04-07T17:07:04Z</time></trkpt><trkpt lat="43.44060192881553" lon="13.648630181153262"><ele>34.0</ele><time>2026-04-07T17:07:05Z</time></trkpt><trkpt lat="43.44064015557324" lon="13.648713484518163"><ele>34.0</ele><time>2026-04-07T17:07:06Z</time></trkpt><trkpt lat="43.4406771459342" lon="13.648799423208676"><ele>34.0</ele><time>2026-04-07T17:07:07Z</time></trkpt><trkpt lat="43.44070793178435" lon="13.648879305001532"><ele>34.0</ele><time>2026-04-07T17:07:08Z</time></trkpt><trkpt lat="43.44075888459634" lon="13.64898502450761"><ele>33.8</ele><time>2026-04-07T17:07:09Z</time></trkpt><trkpt lat="43.44081031266936" lon="13.649088267904991"><ele>33.599999999999994</ele><time>2026-04-07T17:07:10Z</time></trkpt><trkpt lat="43.44086211446373" lon="13.649198557969816"><ele>33.4</ele><time>2026-04-07T17:07:11Z</time></trkpt><trkpt lat="43.44092018798241" lon="13.649324681239715"><ele>33.199999999999996</ele><time>2026-04-07T17:07:12Z</time></trkpt><trkpt lat="43.44095623514692" lon="13.649465932798424"><ele>33.0</ele><time>2026-04-07T17:07:13Z</time></trkpt><trkpt lat="43.44093867656641" lon="13.649604115068234"><ele>32.5</ele><time>2026-04-07T17:07:14Z</time></trkpt><trkpt lat="43.44091478705247" lon="13.649737200707472"><ele>32.0</ele><time>2026-04-07T17:07:15Z</time></trkpt><trkpt lat="43.44088524733596" lon="13.649882658139807"><ele>31.5</ele><time>2026-04-07T17:07:16Z</time></trkpt><trkpt lat="43.44085317522396" lon="13.650046157872845"><ele>31.0</ele><time>2026-04-07T17:07:17Z</time></trkpt><trkpt lat="43.440822181520566" lon="13.650214972524518"><ele>30.0</ele><time>2026-04-07T17:07:18Z</time></trkpt><trkpt lat="43.44079251049184" lon="13.650382780680326"><ele>29.0</ele><time>2026-04-07T17:07:19Z</time></trkpt><trkpt lat="43.44076336767262" lon="13.650547601580433"><ele>28.0</ele><time>2026-04-07T17:07:20Z</time></trkpt><trkpt lat="43.44073510317924" lon="13.650702899023718"><ele>27.0</ele><time>2026-04-07T17:07:21Z</time></trkpt><trkpt lat="43.44071719514094" lon="13.65085536207782"><ele>27.0</ele><time>2026-04-07T17:07:22Z</time></trkpt><trkpt lat="43.440690997995475" lon="13.651006526514053"><ele>27.000000000000004</ele><time>2026-04-07T17:07:23Z</time></trkpt><trkpt lat="43.44065332933004" lon="13.651141860722039"><ele>27.000000000000004</ele><time>2026-04-07T17:07:24Z</time></trkpt><trkpt lat="43.44062574734117" lon="13.651279939727628"><ele>27.0</ele><time>2026-04-07T17:07:25Z</time></trkpt><trkpt lat="43.440615205151325" lon="13.651416196985078"><ele>27.0</ele><time>2026-04-07T17:07:26Z</time></trkpt><trkpt lat="43.44057179853782" lon="13.65155657663876"><ele>25.75</ele><time>2026-04-07T17:07:27Z</time></trkpt><trkpt lat="43.44053868511951" lon="13.65171395250155"><ele>24.5</ele><time>2026-04-07T17:07:28Z</time></trkpt><trkpt lat="43.44050145763227" lon="13.6518831812039"><ele>23.25</ele><time>2026-04-07T17:07:29Z</time></trkpt><trkpt lat="43.44045958576097" lon="13.652047285312639"><ele>22.0</ele><time>2026-04-07T17:07:30Z</time></trkpt><trkpt lat="43.4404117770228" lon="13.652203836768503"><ele>19.5</ele><time>2026-04-07T17:07:31Z</time></trkpt><trkpt lat="43.44036145328024" lon="13.65235589373609"><ele>17.0</ele><time>2026-04-07T17:07:32Z</time></trkpt><trkpt lat="43.44031132768876" lon="13.652505796347947"><ele>14.5</ele><time>2026-04-07T17:07:33Z</time></trkpt><trkpt lat="43.44025898652891" lon="13.652662324729892"><ele>12.0</ele><time>2026-04-07T17:07:34Z</time></trkpt><trkpt lat="43.440210867081674" lon="13.652817903736924"><ele>11.25</ele><time>2026-04-07T17:07:35Z</time></trkpt><trkpt lat="43.440185633379976" lon="13.652982501960382"><ele>10.5</ele><time>2026-04-07T17:07:36Z</time></trkpt><trkpt lat="43.440162294231314" lon="13.653143547034318"><ele>9.75</ele><time>2026-04-07T17:07:37Z</time></trkpt><trkpt lat="43.4401476534902" lon="13.653311506891537"><ele>9.0</ele><time>2026-04-07T17:07:38Z</time></trkpt><trkpt lat="43.44013260784234" lon="13.6534833956344"><ele>7.75</ele><time>2026-04-07T17:07:39Z</time></trkpt><trkpt lat="43.44011916557379" lon="13.65365151330242"><ele>6.5</ele><time>2026-04-07T17:07:40Z</time></trkpt><trkpt lat="43.44010761948424" lon="13.653809667317756"><ele>5.25</ele><time>2026-04-07T17:07:41Z</time></trkpt><trkpt lat="43.44009352193126" lon="13.653965689867528"><ele>4.0</ele><time>2026-04-07T17:07:42Z</time></trkpt><trkpt lat="43.440081693057216" lon="13.65410900065477"><ele>4.0</ele><time>2026-04-07T17:07:43Z</time></trkpt><trkpt lat="43.440067145762555" lon="13.654229511365234"><ele>4.0</ele><time>2026-04-07T17:07:44Z</time></trkpt><trkpt lat="43.44005535643423" lon="13.654356189735942"><ele>4.0</ele><time>2026-04-07T17:07:45Z</time></trkpt><trkpt lat="43.44004412085732" lon="13.654476234982878"><ele>4.0</ele><time>2026-04-07T17:07:46Z</time></trkpt><trkpt lat="43.440042379816425" lon="13.65461948523985"><ele>4.0</ele><time>2026-04-07T17:07:48Z</time></trkpt><trkpt lat="43.44011609805076" lon="13.654732069799428"><ele>3.2</ele><time>2026-04-07T17:07:50Z</time></trkpt><trkpt lat="43.44018891940602" lon="13.654762459285369"><ele>2.4000000000000004</ele><time>2026-04-07T17:07:51Z</time></trkpt><trkpt lat="43.44028630127663" lon="13.654775610514717"><ele>1.6</ele><time>2026-04-07T17:07:52Z</time></trkpt><trkpt lat="43.44039367216329" lon="13.65478960150897"><ele>0.8</ele><time>2026-04-07T17:07:53Z</time></trkpt><trkpt lat="43.44050356555483" lon="13.654798558163366"><ele>0.0</ele><time>2026-04-07T17:07:54Z</time></trkpt><trkpt lat="43.440615365528906" lon="13.654810729820746"><ele>0.0</ele><time>2026-04-07T17:07:55Z</time></trkpt><trkpt lat="43.44071380046577" lon="13.65485113700496"><ele>0.0</ele><time>2026-04-07T17:07:56Z</time></trkpt><trkpt lat="43.44079881795911" lon="13.654940440954432"><ele>0.0</ele><time>2026-04-07T17:07:57Z</time></trkpt><trkpt lat="43.440862783748656" lon="13.655072220536569"><ele>0.0</ele><time>2026-04-07T17:07:58Z</time></trkpt><trkpt lat="43.440909114438654" lon="13.65523339772727"><ele>-0.5</ele><time>2026-04-07T17:07:59Z</time></trkpt><trkpt lat="43.440950406231806" lon="13.655411856277293"><ele>-1.0</ele><time>2026-04-07T17:08:00Z</time></trkpt><trkpt lat="43.44099468805365" lon="13.655606906538319"><ele>-1.5</ele><time>2026-04-07T17:08:01Z</time></trkpt><trkpt lat="43.44104177814268" lon="13.655786581116137"><ele>-2.0</ele><time>2026-04-07T17:08:02Z</time></trkpt><trkpt lat="43.44108143453262" lon="13.655940796656578"><ele>-2.0</ele><time>2026-04-07T17:08:03Z</time></trkpt><trkpt lat="43.44111449451351" lon="13.656084834836564"><ele>-2.0</ele><time>2026-04-07T17:08:04Z</time></trkpt><trkpt lat="43.44114829173581" lon="13.656213883125742"><ele>-2.0</ele><time>2026-04-07T17:08:05Z</time></trkpt><trkpt lat="43.44117672454438" lon="13.65632956630247"><ele>-2.0</ele><time>2026-04-07T17:08:06Z</time></trkpt><trkpt lat="43.44120509535759" lon="13.65643441023188"><ele>-2.0</ele><time>2026-04-07T17:08:07Z</time></trkpt><trkpt lat="43.44122823867835" lon="13.656537414300214"><ele>-1.8333333333333333</ele><time>2026-04-07T17:08:08Z</time></trkpt><trkpt lat="43.44123882323755" lon="13.656631121254378"><ele>-1.6666666666666665</ele><time>2026-04-07T17:08:09Z</time></trkpt><trkpt lat="43.44125301372146" lon="13.656719343494206"><ele>-1.5</ele><time>2026-04-07T17:08:10Z</time></trkpt><trkpt lat="43.4412624124395" lon="13.656807492000105"><ele>-1.3333333333333333</ele><time>2026-04-07T17:08:11Z</time></trkpt><trkpt lat="43.44127884850857" lon="13.656966716734543"><ele>-1.1666666666666665</ele><time>2026-04-07T17:08:13Z</time></trkpt><trkpt lat="43.4412892151004" lon="13.657099474571012"><ele>-1.0</ele><time>2026-04-07T17:08:15Z</time></trkpt><trkpt lat="43.44134609675883" lon="13.657145320261344"><ele>-0.49999999999999994</ele><time>2026-04-07T17:08:16Z</time></trkpt><trkpt lat="43.4414061722043" lon="13.657242939594335"><ele>0.0</ele><time>2026-04-07T17:08:18Z</time></trkpt><trkpt lat="43.44146101485503" lon="13.657348500466467"><ele>0.5</ele><time>2026-04-07T17:08:20Z</time></trkpt><trkpt lat="43.4414617966635" lon="13.65744094020475"><ele>1.0</ele><time>2026-04-07T17:08:21Z</time></trkpt><trkpt lat="43.441479615514304" lon="13.657545751849614"><ele>1.4999999999999998</ele><time>2026-04-07T17:08:22Z</time></trkpt><trkpt lat="43.44150096666941" lon="13.657644296345131"><ele>2.0</ele><time>2026-04-07T17:08:23Z</time></trkpt><trkpt lat="43.44147914068319" lon="13.657727040309869"><ele>1.6666666666666665</ele><time>2026-04-07T17:08:24Z</time></trkpt><trkpt lat="43.4414528567975" lon="13.657832707738063"><ele>1.3333333333333333</ele><time>2026-04-07T17:08:26Z</time></trkpt><trkpt lat="43.44163263830161" lon="13.657893385660328"><ele>1.0</ele><time>2026-04-07T17:08:30Z</time></trkpt><trkpt lat="43.44191387434477" lon="13.658018790909013"><ele>1.0</ele><time>2026-04-07T17:08:32Z</time></trkpt><trkpt lat="43.44192425730604" lon="13.658112541944945"><ele>1.0</ele><time>2026-04-07T17:08:33Z</time></trkpt><trkpt lat="43.44194122539281" lon="13.658265752958092"><ele>1.0</ele><time>2026-04-07T17:08:35Z</time></trkpt><trkpt lat="43.441729076386636" lon="13.658255226686213"><ele>1.0</ele><time>2026-04-07T17:08:38Z</time></trkpt><trkpt lat="43.44173898312325" lon="13.658341310075976"><ele>1.0</ele><time>2026-04-07T17:15:52Z</time></trkpt><trkpt lat="43.441678270907964" lon="13.658312921054215"><ele>0.9999999999999999</ele><time>2026-04-07T17:16:20Z</time></trkpt><trkpt lat="43.44164167351231" lon="13.65823013498909"><ele>1.0</ele><time>2026-04-07T17:16:27Z</time></trkpt><trkpt lat="43.44163998084049" lon="13.658136475232606"><ele>1.0</ele><time>2026-04-07T17:16:35Z</time></trkpt><trkpt lat="43.441663290853384" lon="13.65805510763321"><ele>0.9999999999999999</ele><time>2026-04-07T17:16:40Z</time></trkpt><trkpt lat="43.44170921157135" lon="13.657987842846623"><ele>1.0</ele><time>2026-04-07T17:16:47Z</time></trkpt><trkpt lat="43.441710630520724" lon="13.657879261284071"><ele>1.0</ele><time>2026-04-07T17:16:57Z</time></trkpt><trkpt lat="43.44170005553909" lon="13.657786020634285"><ele>1.0</ele><time>2026-04-07T17:17:40Z</time></trkpt><trkpt lat="43.4416390778486" lon="13.65782671790203"><ele>0.9999999999999999</ele><time>2026-04-07T17:18:12Z</time></trkpt><trkpt lat="43.44158209598947" lon="13.65776449685234"><ele>1.0</ele><time>2026-04-07T17:18:23Z</time></trkpt><trkpt lat="43.441558464631484" lon="13.657680669458797"><ele>1.0</ele><time>2026-04-07T17:18:28Z</time></trkpt><trkpt lat="43.44148460745047" lon="13.657664211957584"><ele>0.9999999999999999</ele><time>2026-04-07T17:18:34Z</time></trkpt><trkpt lat="43.44141190413411" lon="13.65766503273251"><ele>1.0</ele><time>2026-04-07T17:18:42Z</time></trkpt><trkpt lat="43.44134450080102" lon="13.657633939406649"><ele>1.0</ele><time>2026-04-07T17:18:48Z</time></trkpt><trkpt lat="43.44128763279115" lon="13.657571576490554"><ele>0.0</ele><time>2026-04-07T17:18:55Z</time></trkpt><trkpt lat="43.44124100789812" lon="13.65750875408981"><ele>0.0</ele><time>2026-04-07T17:19:03Z</time></trkpt></trkseg></trk></gpx>